<?xml version='1.0' encoding='UTF-8'?><gpx version="1.1" creator="JPX - https://github.com/jenetics/jpx" xmlns="http://www.topografix.com/GPX/1/1"><trk><trkseg><trkpt lat="45.2161197" lon="12.2764077"><ele>3.9999999999999996</ele><time>2026-05-02T09:05:59.532Z</time></trkpt><trkpt lat="45.2160379" lon="12.2763769"><ele>4.0</ele><time>2026-05-02T09:06:03.285Z</time></trkpt><trkpt lat="45.2160596" lon="12.2762767"><ele>4.0</ele><time>2026-05-02T09:06:35.725Z</time></trkpt><trkpt lat="45.2161131" lon="12.2762187"><ele>4.0</ele><time>2026-05-02T09:06:38.722Z</time></trkpt><trkpt lat="45.2161792" lon="12.2761721"><ele>3.9999999999999996</ele><time>2026-05-02T09:06:41.726Z</time></trkpt><trkpt lat="45.2161997" lon="12.2760692"><ele>4.0</ele><time>2026-05-02T09:06:44.727Z</time></trkpt><trkpt lat="45.2162075" lon="12.2759469"><ele>3.9999999999999996</ele><time>2026-05-02T09:06:48.729Z</time></trkpt><trkpt lat="45.2161973" lon="12.2758455"><ele>4.0</ele><time>2026-05-02T09:06:50.728Z</time></trkpt><trkpt lat="45.2161647" lon="12.2757656"><ele>4.0</ele><time>2026-05-02T09:06:52.735Z</time></trkpt><trkpt lat="45.2160933" lon="12.2756932"><ele>4.0</ele><time>2026-05-02T09:06:55.729Z</time></trkpt><trkpt lat="45.2160235" lon="12.2756654"><ele>3.9999999999999996</ele><time>2026-05-02T09:06:58.736Z</time></trkpt><trkpt lat="45.2159492" lon="12.2756458"><ele>4.0</ele><time>2026-05-02T09:07:01.728Z</time></trkpt><trkpt lat="45.2158685" lon="12.2756165"><ele>3.833333333333333</ele><time>2026-05-02T09:07:04.734Z</time></trkpt><trkpt lat="45.2157944" lon="12.2755769"><ele>3.6666666666666665</ele><time>2026-05-02T09:07:07.729Z</time></trkpt><trkpt lat="45.2157248" lon="12.2755484"><ele>3.5</ele><time>2026-05-02T09:07:10.734Z</time></trkpt><trkpt lat="45.2156569" lon="12.2755868"><ele>3.333333333333333</ele><time>2026-05-02T09:07:37.731Z</time></trkpt><trkpt lat="45.2156045" lon="12.2756813"><ele>3.1666666666666665</ele><time>2026-05-02T09:07:41.736Z</time></trkpt><trkpt lat="45.2155796" lon="12.2757725"><ele>3.0</ele><time>2026-05-02T09:07:44.734Z</time></trkpt><trkpt lat="45.2155689" lon="12.2758729"><ele>2.9999999999999996</ele><time>2026-05-02T09:07:47.734Z</time></trkpt><trkpt lat="45.2155534" lon="12.2759621"><ele>3.0</ele><time>2026-05-02T09:07:49.729Z</time></trkpt><trkpt lat="45.2155373" lon="12.2760624"><ele>3.0</ele><time>2026-05-02T09:07:51.735Z</time></trkpt><trkpt lat="45.215521" lon="12.2761563"><ele>3.0</ele><time>2026-05-02T09:07:53.728Z</time></trkpt><trkpt lat="45.2155046" lon="12.2762436"><ele>3.0</ele><time>2026-05-02T09:07:55.732Z</time></trkpt><trkpt lat="45.2154756" lon="12.2763626"><ele>2.9999999999999996</ele><time>2026-05-02T09:07:58.73Z</time></trkpt><trkpt lat="45.215455" lon="12.2764789"><ele>3.0</ele><time>2026-05-02T09:08:01.732Z</time></trkpt><trkpt lat="45.2154481" lon="12.2765984"><ele>2.8333333333333335</ele><time>2026-05-02T09:08:04.732Z</time></trkpt><trkpt lat="45.215426" lon="12.2767225"><ele>2.6666666666666665</ele><time>2026-05-02T09:08:07.731Z</time></trkpt><trkpt lat="45.2154095" lon="12.2768426"><ele>2.5</ele><time>2026-05-02T09:08:10.731Z</time></trkpt><trkpt lat="45.2153865" lon="12.2769477"><ele>2.333333333333333</ele><time>2026-05-02T09:08:13.729Z</time></trkpt><trkpt lat="45.2153538" lon="12.2770349"><ele>2.1666666666666665</ele><time>2026-05-02T09:08:16.73Z</time></trkpt><trkpt lat="45.2152663" lon="12.2770588"><ele>2.0</ele><time>2026-05-02T09:08:19.728Z</time></trkpt><trkpt lat="45.2151964" lon="12.2770398"><ele>1.9999999999999998</ele><time>2026-05-02T09:08:21.731Z</time></trkpt><trkpt lat="45.2151245" lon="12.2770245"><ele>2.0</ele><time>2026-05-02T09:08:23.732Z</time></trkpt><trkpt lat="45.2150459" lon="12.2770137"><ele>2.0</ele><time>2026-05-02T09:08:25.736Z</time></trkpt><trkpt lat="45.214969" lon="12.2770001"><ele>2.0</ele><time>2026-05-02T09:08:27.732Z</time></trkpt><trkpt lat="45.2148926" lon="12.2769839"><ele>1.9999999999999998</ele><time>2026-05-02T09:08:29.732Z</time></trkpt><trkpt lat="45.2148125" lon="12.2769658"><ele>2.0</ele><time>2026-05-02T09:08:31.735Z</time></trkpt><trkpt lat="45.2147324" lon="12.2769483"><ele>1.8333333333333333</ele><time>2026-05-02T09:08:33.737Z</time></trkpt><trkpt lat="45.2146527" lon="12.2769373"><ele>1.6666666666666665</ele><time>2026-05-02T09:08:35.73Z</time></trkpt><trkpt lat="45.214579" lon="12.2769169"><ele>1.5</ele><time>2026-05-02T09:08:37.729Z</time></trkpt><trkpt lat="45.2145141" lon="12.2768837"><ele>1.3333333333333333</ele><time>2026-05-02T09:08:39.733Z</time></trkpt><trkpt lat="45.2144216" lon="12.27686"><ele>1.1666666666666665</ele><time>2026-05-02T09:08:42.736Z</time></trkpt><trkpt lat="45.2143532" lon="12.2768419"><ele>1.0</ele><time>2026-05-02T09:08:44.728Z</time></trkpt><trkpt lat="45.2142814" lon="12.2768322"><ele>0.9999999999999999</ele><time>2026-05-02T09:08:46.729Z</time></trkpt><trkpt lat="45.2142164" lon="12.2768253"><ele>1.0</ele><time>2026-05-02T09:08:48.733Z</time></trkpt><trkpt lat="45.2141197" lon="12.2768107"><ele>1.0</ele><time>2026-05-02T09:08:51.73Z</time></trkpt><trkpt lat="45.2140435" lon="12.2767922"><ele>1.0</ele><time>2026-05-02T09:08:53.735Z</time></trkpt><trkpt lat="45.2139718" lon="12.2767731"><ele>0.9999999999999999</ele><time>2026-05-02T09:08:55.735Z</time></trkpt><trkpt lat="45.2138991" lon="12.2767486"><ele>1.0</ele><time>2026-05-02T09:08:57.736Z</time></trkpt><trkpt lat="45.2138297" lon="12.2767177"><ele>0.8333333333333333</ele><time>2026-05-02T09:08:59.734Z</time></trkpt><trkpt lat="45.2137607" lon="12.2766965"><ele>0.6666666666666666</ele><time>2026-05-02T09:09:01.736Z</time></trkpt><trkpt lat="45.2136881" lon="12.2766764"><ele>0.5</ele><time>2026-05-02T09:09:03.731Z</time></trkpt><trkpt lat="45.2136086" lon="12.2766552"><ele>0.3333333333333333</ele><time>2026-05-02T09:09:05.735Z</time></trkpt><trkpt lat="45.2135262" lon="12.2766363"><ele>0.16666666666666666</ele><time>2026-05-02T09:09:07.732Z</time></trkpt><trkpt lat="45.2134455" lon="12.276619"><ele>0.0</ele><time>2026-05-02T09:09:09.733Z</time></trkpt><trkpt lat="45.2133661" lon="12.2766056"><ele>0.0</ele><time>2026-05-02T09:09:11.73Z</time></trkpt><trkpt lat="45.213286" lon="12.2765942"><ele>0.0</ele><time>2026-05-02T09:09:13.73Z</time></trkpt><trkpt lat="45.2132071" lon="12.2765764"><ele>0.0</ele><time>2026-05-02T09:09:15.739Z</time></trkpt><trkpt lat="45.2131259" lon="12.2765574"><ele>0.0</ele><time>2026-05-02T09:09:17.734Z</time></trkpt><trkpt lat="45.2130442" lon="12.2765358"><ele>0.0</ele><time>2026-05-02T09:09:19.738Z</time></trkpt><trkpt lat="45.2129647" lon="12.2765181"><ele>0.0</ele><time>2026-05-02T09:09:21.735Z</time></trkpt><trkpt lat="45.2128819" lon="12.2764975"><ele>0.0</ele><time>2026-05-02T09:09:23.738Z</time></trkpt><trkpt lat="45.2128" lon="12.2764794"><ele>0.0</ele><time>2026-05-02T09:09:25.733Z</time></trkpt><trkpt lat="45.2127178" lon="12.2764629"><ele>0.0</ele><time>2026-05-02T09:09:27.733Z</time></trkpt><trkpt lat="45.2126346" lon="12.2764453"><ele>0.0</ele><time>2026-05-02T09:09:29.731Z</time></trkpt><trkpt lat="45.212552" lon="12.276431"><ele>0.0</ele><time>2026-05-02T09:09:31.74Z</time></trkpt><trkpt lat="45.2124744" lon="12.2764175"><ele>0.0</ele><time>2026-05-02T09:09:33.733Z</time></trkpt><trkpt lat="45.2123987" lon="12.2764056"><ele>0.0</ele><time>2026-05-02T09:09:35.736Z</time></trkpt><trkpt lat="45.212333" lon="12.2763883"><ele>0.0</ele><time>2026-05-02T09:09:37.735Z</time></trkpt><trkpt lat="45.212266" lon="12.2763816"><ele>0.0</ele><time>2026-05-02T09:09:40.735Z</time></trkpt><trkpt lat="45.2121784" lon="12.2763841"><ele>0.0</ele><time>2026-05-02T09:09:44.73Z</time></trkpt><trkpt lat="45.2121094" lon="12.2763617"><ele>0.0</ele><time>2026-05-02T09:09:46.733Z</time></trkpt><trkpt lat="45.2120241" lon="12.2763491"><ele>0.0</ele><time>2026-05-02T09:09:48.733Z</time></trkpt><trkpt lat="45.2119314" lon="12.2763322"><ele>-0.2</ele><time>2026-05-02T09:09:50.735Z</time></trkpt><trkpt lat="45.2118364" lon="12.2763177"><ele>-0.4</ele><time>2026-05-02T09:09:52.736Z</time></trkpt><trkpt lat="45.211744" lon="12.2762966"><ele>-0.6000000000000001</ele><time>2026-05-02T09:09:54.735Z</time></trkpt><trkpt lat="45.211651" lon="12.2762795"><ele>-0.8</ele><time>2026-05-02T09:09:56.737Z</time></trkpt><trkpt lat="45.2115599" lon="12.2762639"><ele>-1.0</ele><time>2026-05-02T09:09:58.734Z</time></trkpt><trkpt lat="45.2114718" lon="12.2762439"><ele>-0.6000000000000001</ele><time>2026-05-02T09:10:00.729Z</time></trkpt><trkpt lat="45.2113811" lon="12.2762171"><ele>-0.20000000000000007</ele><time>2026-05-02T09:10:02.732Z</time></trkpt><trkpt lat="45.2112863" lon="12.2761926"><ele>0.20000000000000007</ele><time>2026-05-02T09:10:04.736Z</time></trkpt><trkpt lat="45.2111935" lon="12.2761732"><ele>0.6000000000000001</ele><time>2026-05-02T09:10:06.737Z</time></trkpt><trkpt lat="45.2111019" lon="12.2761611"><ele>1.0</ele><time>2026-05-02T09:10:08.734Z</time></trkpt><trkpt lat="45.2110135" lon="12.2761523"><ele>0.9999999999999999</ele><time>2026-05-02T09:10:10.727Z</time></trkpt><trkpt lat="45.2109302" lon="12.2761429"><ele>1.0</ele><time>2026-05-02T09:10:12.734Z</time></trkpt><trkpt lat="45.2108515" lon="12.2761324"><ele>1.0</ele><time>2026-05-02T09:10:14.736Z</time></trkpt><trkpt lat="45.2107786" lon="12.2761174"><ele>1.0</ele><time>2026-05-02T09:10:16.735Z</time></trkpt><trkpt lat="45.2106994" lon="12.2761024"><ele>0.9999999999999999</ele><time>2026-05-02T09:10:18.732Z</time></trkpt><trkpt lat="45.210626" lon="12.2760886"><ele>1.0</ele><time>2026-05-02T09:10:20.732Z</time></trkpt><trkpt lat="45.2105525" lon="12.2760687"><ele>0.8333333333333333</ele><time>2026-05-02T09:10:22.737Z</time></trkpt><trkpt lat="45.2104679" lon="12.2760517"><ele>0.6666666666666666</ele><time>2026-05-02T09:10:24.733Z</time></trkpt><trkpt lat="45.2103833" lon="12.2760281"><ele>0.5</ele><time>2026-05-02T09:10:26.73Z</time></trkpt><trkpt lat="45.210294" lon="12.2760064"><ele>0.3333333333333333</ele><time>2026-05-02T09:10:28.729Z</time></trkpt><trkpt lat="45.2102105" lon="12.2759985"><ele>0.16666666666666666</ele><time>2026-05-02T09:10:30.734Z</time></trkpt><trkpt lat="45.2101252" lon="12.2759882"><ele>0.0</ele><time>2026-05-02T09:10:32.733Z</time></trkpt><trkpt lat="45.2100375" lon="12.2759751"><ele>0.0</ele><time>2026-05-02T09:10:34.732Z</time></trkpt><trkpt lat="45.2099526" lon="12.2759639"><ele>0.0</ele><time>2026-05-02T09:10:36.735Z</time></trkpt><trkpt lat="45.2098801" lon="12.2759527"><ele>0.0</ele><time>2026-05-02T09:10:38.728Z</time></trkpt><trkpt lat="45.2098133" lon="12.2759435"><ele>0.0</ele><time>2026-05-02T09:10:41.732Z</time></trkpt><trkpt lat="45.2097497" lon="12.2759267"><ele>0.0</ele><time>2026-05-02T09:10:46.73Z</time></trkpt><trkpt lat="45.2096655" lon="12.2759177"><ele>0.0</ele><time>2026-05-02T09:10:49.732Z</time></trkpt><trkpt lat="45.2095875" lon="12.2759067"><ele>-0.16666666666666666</ele><time>2026-05-02T09:10:51.73Z</time></trkpt><trkpt lat="45.2095057" lon="12.2758917"><ele>-0.3333333333333333</ele><time>2026-05-02T09:10:53.734Z</time></trkpt><trkpt lat="45.2094292" lon="12.2758773"><ele>-0.5</ele><time>2026-05-02T09:10:55.736Z</time></trkpt><trkpt lat="45.2093472" lon="12.275861"><ele>-0.6666666666666666</ele><time>2026-05-02T09:10:57.733Z</time></trkpt><trkpt lat="45.2092622" lon="12.2758359"><ele>-0.8333333333333333</ele><time>2026-05-02T09:10:59.735Z</time></trkpt><trkpt lat="45.2091743" lon="12.2758169"><ele>-1.0</ele><time>2026-05-02T09:11:01.732Z</time></trkpt><trkpt lat="45.2090783" lon="12.2758016"><ele>-1.0</ele><time>2026-05-02T09:11:03.739Z</time></trkpt><trkpt lat="45.2089831" lon="12.2757812"><ele>-1.0</ele><time>2026-05-02T09:11:05.738Z</time></trkpt><trkpt lat="45.2088874" lon="12.2757612"><ele>-1.0</ele><time>2026-05-02T09:11:07.737Z</time></trkpt><trkpt lat="45.2087918" lon="12.2757386"><ele>-1.0</ele><time>2026-05-02T09:11:09.744Z</time></trkpt><trkpt lat="45.2086905" lon="12.2757172"><ele>-1.0</ele><time>2026-05-02T09:11:11.733Z</time></trkpt><trkpt lat="45.2085929" lon="12.2756936"><ele>-1.0</ele><time>2026-05-02T09:11:13.735Z</time></trkpt><trkpt lat="45.2084968" lon="12.2756691"><ele>-1.0</ele><time>2026-05-02T09:11:15.733Z</time></trkpt><trkpt lat="45.2083993" lon="12.2756478"><ele>-1.0</ele><time>2026-05-02T09:11:17.735Z</time></trkpt><trkpt lat="45.2082975" lon="12.2756362"><ele>-1.0</ele><time>2026-05-02T09:11:19.734Z</time></trkpt><trkpt lat="45.208193" lon="12.2756384"><ele>-1.0</ele><time>2026-05-02T09:11:21.734Z</time></trkpt><trkpt lat="45.2080918" lon="12.2756439"><ele>-1.0</ele><time>2026-05-02T09:11:23.738Z</time></trkpt><trkpt lat="45.2079926" lon="12.2756515"><ele>-1.0</ele><time>2026-05-02T09:11:25.74Z</time></trkpt><trkpt lat="45.2078922" lon="12.2756694"><ele>-1.0</ele><time>2026-05-02T09:11:27.739Z</time></trkpt><trkpt lat="45.2077906" lon="12.2756907"><ele>-1.0</ele><time>2026-05-02T09:11:29.731Z</time></trkpt><trkpt lat="45.2076899" lon="12.2757114"><ele>-1.0</ele><time>2026-05-02T09:11:31.739Z</time></trkpt><trkpt lat="45.207586" lon="12.2757397"><ele>-1.0</ele><time>2026-05-02T09:11:33.737Z</time></trkpt><trkpt lat="45.2074844" lon="12.2757671"><ele>-1.0</ele><time>2026-05-02T09:11:35.737Z</time></trkpt><trkpt lat="45.2073874" lon="12.2757903"><ele>-1.0</ele><time>2026-05-02T09:11:37.738Z</time></trkpt><trkpt lat="45.2072879" lon="12.2758081"><ele>-1.0</ele><time>2026-05-02T09:11:39.74Z</time></trkpt><trkpt lat="45.207189" lon="12.2758359"><ele>-1.0</ele><time>2026-05-02T09:11:41.731Z</time></trkpt><trkpt lat="45.2070907" lon="12.275862"><ele>-0.8</ele><time>2026-05-02T09:11:43.731Z</time></trkpt><trkpt lat="45.206998" lon="12.2758867"><ele>-0.6000000000000001</ele><time>2026-05-02T09:11:45.734Z</time></trkpt><trkpt lat="45.2069058" lon="12.2759153"><ele>-0.4</ele><time>2026-05-02T09:11:47.735Z</time></trkpt><trkpt lat="45.2068123" lon="12.2759474"><ele>-0.2</ele><time>2026-05-02T09:11:49.735Z</time></trkpt><trkpt lat="45.2067195" lon="12.2759738"><ele>0.0</ele><time>2026-05-02T09:11:51.733Z</time></trkpt><trkpt lat="45.2066244" lon="12.2759911"><ele>0.0</ele><time>2026-05-02T09:11:53.734Z</time></trkpt><trkpt lat="45.206526" lon="12.276001"><ele>0.0</ele><time>2026-05-02T09:11:55.728Z</time></trkpt><trkpt lat="45.2064264" lon="12.2760204"><ele>0.0</ele><time>2026-05-02T09:11:57.735Z</time></trkpt><trkpt lat="45.2063289" lon="12.2760551"><ele>0.0</ele><time>2026-05-02T09:11:59.735Z</time></trkpt><trkpt lat="45.2062355" lon="12.2760861"><ele>0.0</ele><time>2026-05-02T09:12:01.736Z</time></trkpt><trkpt lat="45.2061472" lon="12.2761136"><ele>0.4</ele><time>2026-05-02T09:12:03.735Z</time></trkpt><trkpt lat="45.2060543" lon="12.2761352"><ele>0.8</ele><time>2026-05-02T09:12:05.73Z</time></trkpt><trkpt lat="45.2059619" lon="12.2761592"><ele>1.2000000000000002</ele><time>2026-05-02T09:12:07.74Z</time></trkpt><trkpt lat="45.2058627" lon="12.2761888"><ele>1.6</ele><time>2026-05-02T09:12:09.736Z</time></trkpt><trkpt lat="45.2057676" lon="12.2762109"><ele>2.0</ele><time>2026-05-02T09:12:11.732Z</time></trkpt><trkpt lat="45.2056727" lon="12.276228"><ele>2.4000000000000004</ele><time>2026-05-02T09:12:13.73Z</time></trkpt><trkpt lat="45.2055736" lon="12.2762486"><ele>2.8000000000000003</ele><time>2026-05-02T09:12:15.736Z</time></trkpt><trkpt lat="45.2054697" lon="12.2762755"><ele>3.2</ele><time>2026-05-02T09:12:17.739Z</time></trkpt><trkpt lat="45.2053604" lon="12.2763085"><ele>3.6</ele><time>2026-05-02T09:12:19.737Z</time></trkpt><trkpt lat="45.2052554" lon="12.2763347"><ele>4.0</ele><time>2026-05-02T09:12:21.734Z</time></trkpt><trkpt lat="45.2051604" lon="12.2763602"><ele>4.0</ele><time>2026-05-02T09:12:23.735Z</time></trkpt><trkpt lat="45.2050652" lon="12.2763871"><ele>4.0</ele><time>2026-05-02T09:12:25.737Z</time></trkpt><trkpt lat="45.2049718" lon="12.2764114"><ele>4.0</ele><time>2026-05-02T09:12:27.74Z</time></trkpt><trkpt lat="45.2048739" lon="12.2764288"><ele>4.0</ele><time>2026-05-02T09:12:29.738Z</time></trkpt><trkpt lat="45.2047786" lon="12.2764534"><ele>4.0</ele><time>2026-05-02T09:12:31.736Z</time></trkpt><trkpt lat="45.2046814" lon="12.2764698"><ele>3.6</ele><time>2026-05-02T09:12:33.737Z</time></trkpt><trkpt lat="45.2045904" lon="12.2764787"><ele>3.2</ele><time>2026-05-02T09:12:35.737Z</time></trkpt><trkpt lat="45.2044963" lon="12.2764921"><ele>2.8000000000000003</ele><time>2026-05-02T09:12:37.738Z</time></trkpt><trkpt lat="45.2044021" lon="12.2765138"><ele>2.4000000000000004</ele><time>2026-05-02T09:12:39.735Z</time></trkpt><trkpt lat="45.2043068" lon="12.2765384"><ele>2.0</ele><time>2026-05-02T09:12:41.734Z</time></trkpt><trkpt lat="45.2042127" lon="12.2765585"><ele>2.0</ele><time>2026-05-02T09:12:43.733Z</time></trkpt><trkpt lat="45.2041159" lon="12.2765818"><ele>2.0</ele><time>2026-05-02T09:12:45.735Z</time></trkpt><trkpt lat="45.2040197" lon="12.2766082"><ele>2.0</ele><time>2026-05-02T09:12:47.735Z</time></trkpt><trkpt lat="45.2039288" lon="12.2766318"><ele>2.0</ele><time>2026-05-02T09:12:49.735Z</time></trkpt><trkpt lat="45.2038378" lon="12.2766446"><ele>2.0</ele><time>2026-05-02T09:12:51.734Z</time></trkpt><trkpt lat="45.20375" lon="12.2766554"><ele>2.4000000000000004</ele><time>2026-05-02T09:12:53.736Z</time></trkpt><trkpt lat="45.203657" lon="12.2766607"><ele>2.8000000000000003</ele><time>2026-05-02T09:12:55.736Z</time></trkpt><trkpt lat="45.2035633" lon="12.2766705"><ele>3.2</ele><time>2026-05-02T09:12:57.734Z</time></trkpt><trkpt lat="45.2034703" lon="12.276686"><ele>3.6</ele><time>2026-05-02T09:12:59.738Z</time></trkpt><trkpt lat="45.203373" lon="12.2767122"><ele>4.0</ele><time>2026-05-02T09:13:01.742Z</time></trkpt><trkpt lat="45.2032788" lon="12.2767431"><ele>4.0</ele><time>2026-05-02T09:13:03.741Z</time></trkpt><trkpt lat="45.2031864" lon="12.2767598"><ele>4.0</ele><time>2026-05-02T09:13:05.737Z</time></trkpt><trkpt lat="45.2030885" lon="12.2767763"><ele>4.0</ele><time>2026-05-02T09:13:07.733Z</time></trkpt><trkpt lat="45.202988" lon="12.2767985"><ele>4.0</ele><time>2026-05-02T09:13:09.74Z</time></trkpt><trkpt lat="45.2028911" lon="12.2768199"><ele>4.0</ele><time>2026-05-02T09:13:11.735Z</time></trkpt><trkpt lat="45.2027946" lon="12.2768311"><ele>3.2</ele><time>2026-05-02T09:13:13.735Z</time></trkpt><trkpt lat="45.2027058" lon="12.2768392"><ele>2.4000000000000004</ele><time>2026-05-02T09:13:15.733Z</time></trkpt><trkpt lat="45.2026118" lon="12.2768394"><ele>1.6</ele><time>2026-05-02T09:13:17.737Z</time></trkpt><trkpt lat="45.2025184" lon="12.2768458"><ele>0.8</ele><time>2026-05-02T09:13:19.735Z</time></trkpt><trkpt lat="45.2024283" lon="12.2768633"><ele>0.0</ele><time>2026-05-02T09:13:21.736Z</time></trkpt><trkpt lat="45.2023387" lon="12.2768804"><ele>0.0</ele><time>2026-05-02T09:13:23.731Z</time></trkpt><trkpt lat="45.2022444" lon="12.2768987"><ele>0.0</ele><time>2026-05-02T09:13:25.737Z</time></trkpt><trkpt lat="45.2021477" lon="12.2769264"><ele>0.0</ele><time>2026-05-02T09:13:27.736Z</time></trkpt><trkpt lat="45.2020488" lon="12.2769584"><ele>0.0</ele><time>2026-05-02T09:13:29.735Z</time></trkpt><trkpt lat="45.2019537" lon="12.2769754"><ele>0.0</ele><time>2026-05-02T09:13:31.735Z</time></trkpt><trkpt lat="45.2018571" lon="12.2769773"><ele>0.0</ele><time>2026-05-02T09:13:33.736Z</time></trkpt><trkpt lat="45.2017631" lon="12.2769802"><ele>0.0</ele><time>2026-05-02T09:13:35.735Z</time></trkpt><trkpt lat="45.2016686" lon="12.2769967"><ele>0.0</ele><time>2026-05-02T09:13:37.745Z</time></trkpt><trkpt lat="45.2015746" lon="12.2770222"><ele>0.0</ele><time>2026-05-02T09:13:39.736Z</time></trkpt><trkpt lat="45.20148" lon="12.2770428"><ele>0.0</ele><time>2026-05-02T09:13:41.736Z</time></trkpt><trkpt lat="45.2013869" lon="12.2770553"><ele>0.3333333333333333</ele><time>2026-05-02T09:13:43.738Z</time></trkpt><trkpt lat="45.201293" lon="12.2770631"><ele>0.6666666666666666</ele><time>2026-05-02T09:13:45.734Z</time></trkpt><trkpt lat="45.2011987" lon="12.2770665"><ele>1.0</ele><time>2026-05-02T09:13:47.742Z</time></trkpt><trkpt lat="45.2011126" lon="12.2770643"><ele>1.3333333333333333</ele><time>2026-05-02T09:13:49.738Z</time></trkpt><trkpt lat="45.2010316" lon="12.2770548"><ele>1.6666666666666665</ele><time>2026-05-02T09:13:51.738Z</time></trkpt><trkpt lat="45.200948" lon="12.2770537"><ele>2.0</ele><time>2026-05-02T09:13:53.729Z</time></trkpt><trkpt lat="45.2008613" lon="12.2770616"><ele>2.0</ele><time>2026-05-02T09:13:55.736Z</time></trkpt><trkpt lat="45.2007756" lon="12.2770695"><ele>2.0</ele><time>2026-05-02T09:13:57.734Z</time></trkpt><trkpt lat="45.2006822" lon="12.277078"><ele>2.0</ele><time>2026-05-02T09:13:59.731Z</time></trkpt><trkpt lat="45.2005862" lon="12.2770814"><ele>2.0</ele><time>2026-05-02T09:14:01.734Z</time></trkpt><trkpt lat="45.2004938" lon="12.2770734"><ele>2.0</ele><time>2026-05-02T09:14:03.735Z</time></trkpt><trkpt lat="45.2004008" lon="12.2770578"><ele>2.0</ele><time>2026-05-02T09:14:05.733Z</time></trkpt><trkpt lat="45.200304" lon="12.2770452"><ele>2.0</ele><time>2026-05-02T09:14:07.739Z</time></trkpt><trkpt lat="45.200215" lon="12.2770429"><ele>2.0</ele><time>2026-05-02T09:14:09.733Z</time></trkpt><trkpt lat="45.2001231" lon="12.2770355"><ele>2.0</ele><time>2026-05-02T09:14:11.735Z</time></trkpt><trkpt lat="45.200035" lon="12.2770286"><ele>2.0</ele><time>2026-05-02T09:14:13.734Z</time></trkpt><trkpt lat="45.1999454" lon="12.2770272"><ele>2.0</ele><time>2026-05-02T09:14:15.732Z</time></trkpt><trkpt lat="45.1998539" lon="12.2770217"><ele>2.0</ele><time>2026-05-02T09:14:17.732Z</time></trkpt><trkpt lat="45.1997638" lon="12.2770184"><ele>2.0</ele><time>2026-05-02T09:14:19.73Z</time></trkpt><trkpt lat="45.1996671" lon="12.2770172"><ele>2.0</ele><time>2026-05-02T09:14:21.733Z</time></trkpt><trkpt lat="45.1995791" lon="12.2770007"><ele>2.0</ele><time>2026-05-02T09:14:23.728Z</time></trkpt><trkpt lat="45.1994864" lon="12.2769898"><ele>1.6</ele><time>2026-05-02T09:14:25.731Z</time></trkpt><trkpt lat="45.1993938" lon="12.2769859"><ele>1.2000000000000002</ele><time>2026-05-02T09:14:27.733Z</time></trkpt><trkpt lat="45.199299" lon="12.2769877"><ele>0.8</ele><time>2026-05-02T09:14:29.737Z</time></trkpt><trkpt lat="45.1992078" lon="12.2769881"><ele>0.4</ele><time>2026-05-02T09:14:31.735Z</time></trkpt><trkpt lat="45.1991134" lon="12.2769905"><ele>0.0</ele><time>2026-05-02T09:14:33.736Z</time></trkpt><trkpt lat="45.1990156" lon="12.276996"><ele>0.4</ele><time>2026-05-02T09:14:35.736Z</time></trkpt><trkpt lat="45.198916" lon="12.2770049"><ele>0.8</ele><time>2026-05-02T09:14:37.736Z</time></trkpt><trkpt lat="45.1988201" lon="12.2769899"><ele>1.2000000000000002</ele><time>2026-05-02T09:14:39.737Z</time></trkpt><trkpt lat="45.1987236" lon="12.2769606"><ele>1.6</ele><time>2026-05-02T09:14:41.728Z</time></trkpt><trkpt lat="45.1986289" lon="12.2769373"><ele>2.0</ele><time>2026-05-02T09:14:43.731Z</time></trkpt><trkpt lat="45.1985334" lon="12.2769102"><ele>2.0</ele><time>2026-05-02T09:14:45.735Z</time></trkpt><trkpt lat="45.1984412" lon="12.2768864"><ele>2.0</ele><time>2026-05-02T09:14:47.737Z</time></trkpt><trkpt lat="45.1983489" lon="12.2768697"><ele>2.0</ele><time>2026-05-02T09:14:49.739Z</time></trkpt><trkpt lat="45.1982531" lon="12.2768546"><ele>2.0</ele><time>2026-05-02T09:14:51.736Z</time></trkpt><trkpt lat="45.1981593" lon="12.2768381"><ele>2.0</ele><time>2026-05-02T09:14:53.738Z</time></trkpt><trkpt lat="45.198065" lon="12.2768208"><ele>1.8</ele><time>2026-05-02T09:14:55.733Z</time></trkpt><trkpt lat="45.1979711" lon="12.2768036"><ele>1.6</ele><time>2026-05-02T09:14:57.739Z</time></trkpt><trkpt lat="45.1978781" lon="12.2767893"><ele>1.4000000000000001</ele><time>2026-05-02T09:14:59.735Z</time></trkpt><trkpt lat="45.1977809" lon="12.2767744"><ele>1.2000000000000002</ele><time>2026-05-02T09:15:01.739Z</time></trkpt><trkpt lat="45.1976948" lon="12.2767533"><ele>1.0</ele><time>2026-05-02T09:15:03.735Z</time></trkpt><trkpt lat="45.1976181" lon="12.2767377"><ele>0.9999999999999999</ele><time>2026-05-02T09:15:05.73Z</time></trkpt><trkpt lat="45.1975445" lon="12.2767328"><ele>1.0</ele><time>2026-05-02T09:15:07.733Z</time></trkpt><trkpt lat="45.1974623" lon="12.2767248"><ele>1.0</ele><time>2026-05-02T09:15:09.727Z</time></trkpt><trkpt lat="45.1973937" lon="12.2767379"><ele>1.0</ele><time>2026-05-02T09:15:11.728Z</time></trkpt><trkpt lat="45.1973457" lon="12.2768174"><ele>0.9999999999999999</ele><time>2026-05-02T09:15:13.74Z</time></trkpt><trkpt lat="45.1973294" lon="12.2769344"><ele>1.0</ele><time>2026-05-02T09:15:15.736Z</time></trkpt><trkpt lat="45.1973362" lon="12.2770666"><ele>0.9999999999999999</ele><time>2026-05-02T09:15:17.733Z</time></trkpt><trkpt lat="45.1973363" lon="12.2771994"><ele>1.0</ele><time>2026-05-02T09:15:19.733Z</time></trkpt><trkpt lat="45.197326" lon="12.2773302"><ele>1.0</ele><time>2026-05-02T09:15:21.734Z</time></trkpt><trkpt lat="45.1973122" lon="12.2774495"><ele>1.0</ele><time>2026-05-02T09:15:23.735Z</time></trkpt><trkpt lat="45.1972986" lon="12.2775567"><ele>0.9999999999999999</ele><time>2026-05-02T09:15:25.736Z</time></trkpt><trkpt lat="45.1972689" lon="12.2776556"><ele>1.0</ele><time>2026-05-02T09:15:27.734Z</time></trkpt><trkpt lat="45.1972328" lon="12.2777671"><ele>1.0</ele><time>2026-05-02T09:15:30.729Z</time></trkpt><trkpt lat="45.197207" lon="12.2778709"><ele>1.0</ele><time>2026-05-02T09:15:32.732Z</time></trkpt><trkpt lat="45.1971824" lon="12.2779893"><ele>1.0</ele><time>2026-05-02T09:15:34.731Z</time></trkpt><trkpt lat="45.1971592" lon="12.2781278"><ele>1.0</ele><time>2026-05-02T09:15:36.732Z</time></trkpt><trkpt lat="45.1971371" lon="12.2782739"><ele>1.0</ele><time>2026-05-02T09:15:38.733Z</time></trkpt><trkpt lat="45.1971081" lon="12.2784088"><ele>0.8</ele><time>2026-05-02T09:15:40.729Z</time></trkpt><trkpt lat="45.1970722" lon="12.2785406"><ele>0.6000000000000001</ele><time>2026-05-02T09:15:42.735Z</time></trkpt><trkpt lat="45.1970357" lon="12.2786718"><ele>0.4</ele><time>2026-05-02T09:15:44.736Z</time></trkpt><trkpt lat="45.1970021" lon="12.2788035"><ele>0.2</ele><time>2026-05-02T09:15:46.731Z</time></trkpt><trkpt lat="45.1969832" lon="12.2789351"><ele>0.0</ele><time>2026-05-02T09:15:48.736Z</time></trkpt><trkpt lat="45.1969682" lon="12.2790585"><ele>-0.14285714285714285</ele><time>2026-05-02T09:15:50.731Z</time></trkpt><trkpt lat="45.1969494" lon="12.2791612"><ele>-0.2857142857142857</ele><time>2026-05-02T09:15:52.733Z</time></trkpt><trkpt lat="45.1969153" lon="12.2792465"><ele>-0.42857142857142855</ele><time>2026-05-02T09:15:54.738Z</time></trkpt><trkpt lat="45.1968778" lon="12.2793352"><ele>-0.5714285714285714</ele><time>2026-05-02T09:15:56.73Z</time></trkpt><trkpt lat="45.1968394" lon="12.2794181"><ele>-0.7142857142857142</ele><time>2026-05-02T09:15:58.733Z</time></trkpt><trkpt lat="45.1968009" lon="12.2794966"><ele>-0.8571428571428571</ele><time>2026-05-02T09:16:00.732Z</time></trkpt><trkpt lat="45.196766" lon="12.2795726"><ele>-1.0</ele><time>2026-05-02T09:16:02.734Z</time></trkpt><trkpt lat="45.1967304" lon="12.279657"><ele>-0.9999999999999999</ele><time>2026-05-02T09:16:04.736Z</time></trkpt><trkpt lat="45.1966954" lon="12.2797411"><ele>-1.0</ele><time>2026-05-02T09:16:06.734Z</time></trkpt><trkpt lat="45.1966595" lon="12.2798283"><ele>-1.0</ele><time>2026-05-02T09:16:08.735Z</time></trkpt><trkpt lat="45.1966181" lon="12.2799356"><ele>-1.0</ele><time>2026-05-02T09:16:10.733Z</time></trkpt><trkpt lat="45.1965728" lon="12.2800452"><ele>-0.9999999999999999</ele><time>2026-05-02T09:16:12.736Z</time></trkpt><trkpt lat="45.1965257" lon="12.2801476"><ele>-1.0</ele><time>2026-05-02T09:16:14.735Z</time></trkpt><trkpt lat="45.1964892" lon="12.2802452"><ele>-0.8</ele><time>2026-05-02T09:16:16.735Z</time></trkpt><trkpt lat="45.1964584" lon="12.2803681"><ele>-0.6000000000000001</ele><time>2026-05-02T09:16:18.733Z</time></trkpt><trkpt lat="45.1964276" lon="12.2805111"><ele>-0.4</ele><time>2026-05-02T09:16:20.733Z</time></trkpt><trkpt lat="45.1963923" lon="12.2806571"><ele>-0.2</ele><time>2026-05-02T09:16:22.737Z</time></trkpt><trkpt lat="45.1963486" lon="12.2808009"><ele>0.0</ele><time>2026-05-02T09:16:24.737Z</time></trkpt><trkpt lat="45.1962984" lon="12.2809439"><ele>0.0</ele><time>2026-05-02T09:16:26.734Z</time></trkpt><trkpt lat="45.196256" lon="12.2810876"><ele>0.0</ele><time>2026-05-02T09:16:28.736Z</time></trkpt><trkpt lat="45.1962176" lon="12.2812272"><ele>0.0</ele><time>2026-05-02T09:16:30.732Z</time></trkpt><trkpt lat="45.1961804" lon="12.281354"><ele>0.0</ele><time>2026-05-02T09:16:32.739Z</time></trkpt><trkpt lat="45.1961507" lon="12.2814757"><ele>0.0</ele><time>2026-05-02T09:16:34.736Z</time></trkpt><trkpt lat="45.1961206" lon="12.2815969"><ele>0.0</ele><time>2026-05-02T09:16:36.735Z</time></trkpt><trkpt lat="45.1960897" lon="12.2817176"><ele>0.0</ele><time>2026-05-02T09:16:38.738Z</time></trkpt><trkpt lat="45.1960543" lon="12.281832"><ele>0.0</ele><time>2026-05-02T09:16:40.734Z</time></trkpt><trkpt lat="45.1960157" lon="12.2819488"><ele>0.0</ele><time>2026-05-02T09:16:42.741Z</time></trkpt><trkpt lat="45.1959792" lon="12.2820687"><ele>0.0</ele><time>2026-05-02T09:16:44.737Z</time></trkpt><trkpt lat="45.1959239" lon="12.2821725"><ele>0.0</ele><time>2026-05-02T09:16:46.734Z</time></trkpt><trkpt lat="45.195857" lon="12.2822501"><ele>0.0</ele><time>2026-05-02T09:16:48.732Z</time></trkpt><trkpt lat="45.1957927" lon="12.2823255"><ele>0.0</ele><time>2026-05-02T09:16:50.735Z</time></trkpt><trkpt lat="45.1957177" lon="12.2823863"><ele>0.0</ele><time>2026-05-02T09:16:52.735Z</time></trkpt><trkpt lat="45.1956353" lon="12.2823981"><ele>0.0</ele><time>2026-05-02T09:16:54.735Z</time></trkpt><trkpt lat="45.1955471" lon="12.2823697"><ele>0.0</ele><time>2026-05-02T09:16:56.732Z</time></trkpt><trkpt lat="45.1954582" lon="12.2823201"><ele>0.2</ele><time>2026-05-02T09:16:58.732Z</time></trkpt><trkpt lat="45.1953674" lon="12.2822708"><ele>0.4</ele><time>2026-05-02T09:17:00.736Z</time></trkpt><trkpt lat="45.195269" lon="12.2822449"><ele>0.6000000000000001</ele><time>2026-05-02T09:17:02.735Z</time></trkpt><trkpt lat="45.1951735" lon="12.2822223"><ele>0.8</ele><time>2026-05-02T09:17:04.73Z</time></trkpt><trkpt lat="45.1950828" lon="12.2821871"><ele>1.0</ele><time>2026-05-02T09:17:06.738Z</time></trkpt><trkpt lat="45.1949858" lon="12.2821567"><ele>1.0</ele><time>2026-05-02T09:17:08.735Z</time></trkpt><trkpt lat="45.1948914" lon="12.2821314"><ele>1.0</ele><time>2026-05-02T09:17:10.734Z</time></trkpt><trkpt lat="45.1948017" lon="12.2821059"><ele>1.0</ele><time>2026-05-02T09:17:12.738Z</time></trkpt><trkpt lat="45.1947104" lon="12.2820789"><ele>1.0</ele><time>2026-05-02T09:17:14.734Z</time></trkpt><trkpt lat="45.1946158" lon="12.2820512"><ele>1.0</ele><time>2026-05-02T09:17:16.73Z</time></trkpt><trkpt lat="45.1945232" lon="12.2820175"><ele>1.3333333333333333</ele><time>2026-05-02T09:17:18.737Z</time></trkpt><trkpt lat="45.194435" lon="12.2819909"><ele>1.6666666666666665</ele><time>2026-05-02T09:17:20.731Z</time></trkpt><trkpt lat="45.1943509" lon="12.2819626"><ele>2.0</ele><time>2026-05-02T09:17:22.737Z</time></trkpt><trkpt lat="45.1942673" lon="12.2819363"><ele>2.3333333333333335</ele><time>2026-05-02T09:17:24.736Z</time></trkpt><trkpt lat="45.1941891" lon="12.2819089"><ele>2.6666666666666665</ele><time>2026-05-02T09:17:26.735Z</time></trkpt><trkpt lat="45.1941157" lon="12.2818848"><ele>3.0</ele><time>2026-05-02T09:17:28.728Z</time></trkpt><trkpt lat="45.194045" lon="12.2818557"><ele>2.6666666666666665</ele><time>2026-05-02T09:17:30.73Z</time></trkpt><trkpt lat="45.1939628" lon="12.2818343"><ele>2.3333333333333335</ele><time>2026-05-02T09:17:32.742Z</time></trkpt><trkpt lat="45.1938787" lon="12.2818112"><ele>2.0</ele><time>2026-05-02T09:17:34.732Z</time></trkpt><trkpt lat="45.1937947" lon="12.2817832"><ele>1.6666666666666665</ele><time>2026-05-02T09:17:36.729Z</time></trkpt><trkpt lat="45.1937123" lon="12.2817603"><ele>1.3333333333333333</ele><time>2026-05-02T09:17:38.734Z</time></trkpt><trkpt lat="45.1936329" lon="12.2817339"><ele>1.0</ele><time>2026-05-02T09:17:40.734Z</time></trkpt><trkpt lat="45.1935511" lon="12.2817038"><ele>0.9999999999999999</ele><time>2026-05-02T09:17:42.742Z</time></trkpt><trkpt lat="45.1934653" lon="12.2816841"><ele>1.0</ele><time>2026-05-02T09:17:44.734Z</time></trkpt><trkpt lat="45.1933847" lon="12.2816674"><ele>1.0</ele><time>2026-05-02T09:17:46.735Z</time></trkpt><trkpt lat="45.1933039" lon="12.2816464"><ele>1.0</ele><time>2026-05-02T09:17:48.735Z</time></trkpt><trkpt lat="45.1932144" lon="12.281628"><ele>0.9999999999999999</ele><time>2026-05-02T09:17:50.733Z</time></trkpt><trkpt lat="45.1931228" lon="12.2815972"><ele>1.0</ele><time>2026-05-02T09:17:52.739Z</time></trkpt><trkpt lat="45.1930341" lon="12.2815592"><ele>1.0</ele><time>2026-05-02T09:17:54.743Z</time></trkpt><trkpt lat="45.1929459" lon="12.2815291"><ele>1.0</ele><time>2026-05-02T09:17:56.735Z</time></trkpt><trkpt lat="45.1928609" lon="12.2814913"><ele>1.0</ele><time>2026-05-02T09:17:58.737Z</time></trkpt><trkpt lat="45.1927742" lon="12.2814468"><ele>1.0</ele><time>2026-05-02T09:18:00.734Z</time></trkpt><trkpt lat="45.1926814" lon="12.2813932"><ele>1.0</ele><time>2026-05-02T09:18:02.739Z</time></trkpt><trkpt lat="45.192594" lon="12.2813395"><ele>1.0</ele><time>2026-05-02T09:18:04.734Z</time></trkpt><trkpt lat="45.1925033" lon="12.2812907"><ele>1.0</ele><time>2026-05-02T09:18:06.733Z</time></trkpt><trkpt lat="45.1924143" lon="12.2812391"><ele>1.0</ele><time>2026-05-02T09:18:08.736Z</time></trkpt><trkpt lat="45.1923305" lon="12.2811941"><ele>1.0</ele><time>2026-05-02T09:18:10.734Z</time></trkpt><trkpt lat="45.1922459" lon="12.2811466"><ele>1.0</ele><time>2026-05-02T09:18:12.734Z</time></trkpt><trkpt lat="45.1921604" lon="12.2810898"><ele>1.2000000000000002</ele><time>2026-05-02T09:18:14.739Z</time></trkpt><trkpt lat="45.1920708" lon="12.2810365"><ele>1.4000000000000001</ele><time>2026-05-02T09:18:16.736Z</time></trkpt><trkpt lat="45.1919797" lon="12.2809931"><ele>1.6</ele><time>2026-05-02T09:18:18.731Z</time></trkpt><trkpt lat="45.1918865" lon="12.2809489"><ele>1.8</ele><time>2026-05-02T09:18:20.738Z</time></trkpt><trkpt lat="45.1917943" lon="12.2809093"><ele>2.0</ele><time>2026-05-02T09:18:22.74Z</time></trkpt><trkpt lat="45.1917028" lon="12.2808702"><ele>2.0</ele><time>2026-05-02T09:18:24.734Z</time></trkpt><trkpt lat="45.1916158" lon="12.2808268"><ele>2.0</ele><time>2026-05-02T09:18:26.736Z</time></trkpt><trkpt lat="45.1915261" lon="12.280782"><ele>2.0</ele><time>2026-05-02T09:18:28.73Z</time></trkpt><trkpt lat="45.1914325" lon="12.2807427"><ele>2.0</ele><time>2026-05-02T09:18:30.729Z</time></trkpt><trkpt lat="45.1913402" lon="12.2807025"><ele>2.0</ele><time>2026-05-02T09:18:32.733Z</time></trkpt><trkpt lat="45.1912526" lon="12.2806539"><ele>2.0</ele><time>2026-05-02T09:18:34.731Z</time></trkpt><trkpt lat="45.1911653" lon="12.2806091"><ele>2.0</ele><time>2026-05-02T09:18:36.733Z</time></trkpt><trkpt lat="45.1910832" lon="12.2805637"><ele>2.0</ele><time>2026-05-02T09:18:38.734Z</time></trkpt><trkpt lat="45.1909991" lon="12.2805166"><ele>2.0</ele><time>2026-05-02T09:18:40.735Z</time></trkpt><trkpt lat="45.1909122" lon="12.2804778"><ele>2.0</ele><time>2026-05-02T09:18:42.739Z</time></trkpt><trkpt lat="45.1908277" lon="12.2804413"><ele>2.0</ele><time>2026-05-02T09:18:44.733Z</time></trkpt><trkpt lat="45.1907393" lon="12.2804184"><ele>2.0</ele><time>2026-05-02T09:18:46.735Z</time></trkpt><trkpt lat="45.1906503" lon="12.2803904"><ele>2.0</ele><time>2026-05-02T09:18:48.73Z</time></trkpt><trkpt lat="45.1905615" lon="12.2803683"><ele>2.0</ele><time>2026-05-02T09:18:50.736Z</time></trkpt><trkpt lat="45.1904714" lon="12.280349"><ele>2.0</ele><time>2026-05-02T09:18:52.735Z</time></trkpt><trkpt lat="45.1903844" lon="12.2803261"><ele>1.6</ele><time>2026-05-02T09:18:54.734Z</time></trkpt><trkpt lat="45.1902997" lon="12.2803057"><ele>1.2000000000000002</ele><time>2026-05-02T09:18:56.735Z</time></trkpt><trkpt lat="45.1902145" lon="12.280295"><ele>0.8</ele><time>2026-05-02T09:18:58.73Z</time></trkpt><trkpt lat="45.1901261" lon="12.2802775"><ele>0.4</ele><time>2026-05-02T09:19:00.733Z</time></trkpt><trkpt lat="45.1900332" lon="12.2802541"><ele>0.0</ele><time>2026-05-02T09:19:02.738Z</time></trkpt><trkpt lat="45.1899387" lon="12.2802379"><ele>0.0</ele><time>2026-05-02T09:19:04.735Z</time></trkpt><trkpt lat="45.1898449" lon="12.2802224"><ele>0.0</ele><time>2026-05-02T09:19:06.736Z</time></trkpt><trkpt lat="45.1897477" lon="12.2802079"><ele>0.0</ele><time>2026-05-02T09:19:08.736Z</time></trkpt><trkpt lat="45.1896534" lon="12.280191"><ele>0.0</ele><time>2026-05-02T09:19:10.732Z</time></trkpt><trkpt lat="45.1895658" lon="12.2801803"><ele>0.0</ele><time>2026-05-02T09:19:12.738Z</time></trkpt><trkpt lat="45.1894874" lon="12.2801697"><ele>0.0</ele><time>2026-05-02T09:19:14.737Z</time></trkpt><trkpt lat="45.1894172" lon="12.280156"><ele>0.0</ele><time>2026-05-02T09:19:16.732Z</time></trkpt><trkpt lat="45.1893546" lon="12.2801419"><ele>0.0</ele><time>2026-05-02T09:19:18.728Z</time></trkpt><trkpt lat="45.1892899" lon="12.2801335"><ele>0.0</ele><time>2026-05-02T09:19:20.735Z</time></trkpt><trkpt lat="45.1892193" lon="12.2801307"><ele>0.0</ele><time>2026-05-02T09:19:22.735Z</time></trkpt><trkpt lat="45.1891351" lon="12.2801358"><ele>0.0</ele><time>2026-05-02T09:19:24.736Z</time></trkpt><trkpt lat="45.1890362" lon="12.2801384"><ele>0.2</ele><time>2026-05-02T09:19:26.73Z</time></trkpt><trkpt lat="45.1889337" lon="12.2801292"><ele>0.4</ele><time>2026-05-02T09:19:28.739Z</time></trkpt><trkpt lat="45.1888271" lon="12.2801176"><ele>0.6000000000000001</ele><time>2026-05-02T09:19:30.735Z</time></trkpt><trkpt lat="45.1887226" lon="12.2801118"><ele>0.8</ele><time>2026-05-02T09:19:32.735Z</time></trkpt><trkpt lat="45.1886205" lon="12.280101"><ele>1.0</ele><time>2026-05-02T09:19:34.735Z</time></trkpt><trkpt lat="45.1885179" lon="12.2800946"><ele>1.0</ele><time>2026-05-02T09:19:36.735Z</time></trkpt><trkpt lat="45.1884172" lon="12.2800844"><ele>1.0</ele><time>2026-05-02T09:19:38.733Z</time></trkpt><trkpt lat="45.1883161" lon="12.2800689"><ele>1.0</ele><time>2026-05-02T09:19:40.73Z</time></trkpt><trkpt lat="45.1882144" lon="12.2800402"><ele>1.0</ele><time>2026-05-02T09:19:42.734Z</time></trkpt><trkpt lat="45.1881149" lon="12.280002"><ele>1.0</ele><time>2026-05-02T09:19:44.737Z</time></trkpt><trkpt lat="45.1880087" lon="12.279956"><ele>1.0</ele><time>2026-05-02T09:19:46.736Z</time></trkpt><trkpt lat="45.1879063" lon="12.2799036"><ele>1.0</ele><time>2026-05-02T09:19:48.733Z</time></trkpt><trkpt lat="45.187805" lon="12.2798476"><ele>1.0</ele><time>2026-05-02T09:19:50.734Z</time></trkpt><trkpt lat="45.1877074" lon="12.2797887"><ele>1.0</ele><time>2026-05-02T09:19:52.737Z</time></trkpt><trkpt lat="45.1876075" lon="12.2797419"><ele>1.0</ele><time>2026-05-02T09:19:54.736Z</time></trkpt><trkpt lat="45.1875057" lon="12.2796951"><ele>0.8</ele><time>2026-05-02T09:19:56.733Z</time></trkpt><trkpt lat="45.1874151" lon="12.2796513"><ele>0.6000000000000001</ele><time>2026-05-02T09:19:58.734Z</time></trkpt><trkpt lat="45.1873274" lon="12.2796096"><ele>0.4</ele><time>2026-05-02T09:20:00.735Z</time></trkpt><trkpt lat="45.1872413" lon="12.2795691"><ele>0.2</ele><time>2026-05-02T09:20:02.739Z</time></trkpt><trkpt lat="45.187154" lon="12.279523"><ele>0.0</ele><time>2026-05-02T09:20:04.735Z</time></trkpt><trkpt lat="45.1870641" lon="12.2794784"><ele>0.4</ele><time>2026-05-02T09:20:06.737Z</time></trkpt><trkpt lat="45.1869741" lon="12.2794382"><ele>0.8</ele><time>2026-05-02T09:20:08.737Z</time></trkpt><trkpt lat="45.1868813" lon="12.2793977"><ele>1.2000000000000002</ele><time>2026-05-02T09:20:10.733Z</time></trkpt><trkpt lat="45.1867838" lon="12.2793588"><ele>1.6</ele><time>2026-05-02T09:20:12.733Z</time></trkpt><trkpt lat="45.1866873" lon="12.2793192"><ele>2.0</ele><time>2026-05-02T09:20:14.732Z</time></trkpt><trkpt lat="45.1865961" lon="12.2792765"><ele>1.6</ele><time>2026-05-02T09:20:16.734Z</time></trkpt><trkpt lat="45.1865018" lon="12.2792313"><ele>1.2000000000000002</ele><time>2026-05-02T09:20:18.736Z</time></trkpt><trkpt lat="45.1864032" lon="12.2791999"><ele>0.8</ele><time>2026-05-02T09:20:20.733Z</time></trkpt><trkpt lat="45.1863003" lon="12.279162"><ele>0.4</ele><time>2026-05-02T09:20:22.739Z</time></trkpt><trkpt lat="45.1861983" lon="12.2791086"><ele>0.0</ele><time>2026-05-02T09:20:24.734Z</time></trkpt><trkpt lat="45.1861023" lon="12.2790589"><ele>0.0</ele><time>2026-05-02T09:20:26.735Z</time></trkpt><trkpt lat="45.1860107" lon="12.2790199"><ele>0.0</ele><time>2026-05-02T09:20:28.735Z</time></trkpt><trkpt lat="45.1859177" lon="12.2789964"><ele>0.0</ele><time>2026-05-02T09:20:30.739Z</time></trkpt><trkpt lat="45.1858201" lon="12.2789671"><ele>0.0</ele><time>2026-05-02T09:20:32.74Z</time></trkpt><trkpt lat="45.1857241" lon="12.2789326"><ele>0.0</ele><time>2026-05-02T09:20:34.735Z</time></trkpt><trkpt lat="45.1856253" lon="12.2788984"><ele>0.2</ele><time>2026-05-02T09:20:36.734Z</time></trkpt><trkpt lat="45.1855318" lon="12.2788586"><ele>0.4</ele><time>2026-05-02T09:20:38.736Z</time></trkpt><trkpt lat="45.1854333" lon="12.2788293"><ele>0.6000000000000001</ele><time>2026-05-02T09:20:40.734Z</time></trkpt><trkpt lat="45.1853381" lon="12.2787949"><ele>0.8</ele><time>2026-05-02T09:20:42.733Z</time></trkpt><trkpt lat="45.1852389" lon="12.2787596"><ele>1.0</ele><time>2026-05-02T09:20:44.732Z</time></trkpt><trkpt lat="45.1851394" lon="12.2787268"><ele>1.0</ele><time>2026-05-02T09:20:46.734Z</time></trkpt><trkpt lat="45.185041" lon="12.2786926"><ele>1.0</ele><time>2026-05-02T09:20:48.734Z</time></trkpt><trkpt lat="45.1849444" lon="12.2786569"><ele>1.0</ele><time>2026-05-02T09:20:50.733Z</time></trkpt><trkpt lat="45.1848543" lon="12.2786109"><ele>1.0</ele><time>2026-05-02T09:20:52.737Z</time></trkpt><trkpt lat="45.1847743" lon="12.2785781"><ele>1.0</ele><time>2026-05-02T09:20:54.742Z</time></trkpt><trkpt lat="45.1846899" lon="12.2785579"><ele>0.9999999999999999</ele><time>2026-05-02T09:20:56.734Z</time></trkpt><trkpt lat="45.184608" lon="12.2785278"><ele>1.0</ele><time>2026-05-02T09:20:58.73Z</time></trkpt><trkpt lat="45.1845255" lon="12.2784882"><ele>1.0</ele><time>2026-05-02T09:21:00.732Z</time></trkpt><trkpt lat="45.1844465" lon="12.2784541"><ele>1.0</ele><time>2026-05-02T09:21:02.742Z</time></trkpt><trkpt lat="45.1843706" lon="12.2784278"><ele>0.9999999999999999</ele><time>2026-05-02T09:21:04.736Z</time></trkpt><trkpt lat="45.1842967" lon="12.278405"><ele>1.0</ele><time>2026-05-02T09:21:06.733Z</time></trkpt><trkpt lat="45.1842189" lon="12.2783801"><ele>0.9999999999999999</ele><time>2026-05-02T09:21:08.734Z</time></trkpt><trkpt lat="45.184142" lon="12.2783629"><ele>1.0</ele><time>2026-05-02T09:21:10.734Z</time></trkpt><trkpt lat="45.1840608" lon="12.2783531"><ele>1.0</ele><time>2026-05-02T09:21:12.737Z</time></trkpt><trkpt lat="45.1839833" lon="12.2783367"><ele>1.0</ele><time>2026-05-02T09:21:14.735Z</time></trkpt><trkpt lat="45.183912" lon="12.2783091"><ele>0.9999999999999999</ele><time>2026-05-02T09:21:16.727Z</time></trkpt><trkpt lat="45.1838386" lon="12.2782882"><ele>1.0</ele><time>2026-05-02T09:21:18.732Z</time></trkpt><trkpt lat="45.1837663" lon="12.2782718"><ele>1.4</ele><time>2026-05-02T09:21:20.732Z</time></trkpt><trkpt lat="45.1836919" lon="12.2782674"><ele>1.8</ele><time>2026-05-02T09:21:22.731Z</time></trkpt><trkpt lat="45.1836049" lon="12.2782744"><ele>2.1999999999999997</ele><time>2026-05-02T09:21:24.729Z</time></trkpt><trkpt lat="45.1835059" lon="12.2782916"><ele>2.6</ele><time>2026-05-02T09:21:26.731Z</time></trkpt><trkpt lat="45.1834109" lon="12.2782999"><ele>3.0</ele><time>2026-05-02T09:21:28.726Z</time></trkpt><trkpt lat="45.183314" lon="12.2782991"><ele>3.0</ele><time>2026-05-02T09:21:30.73Z</time></trkpt><trkpt lat="45.1832117" lon="12.2782993"><ele>3.0</ele><time>2026-05-02T09:21:32.738Z</time></trkpt><trkpt lat="45.183112" lon="12.278297"><ele>3.0</ele><time>2026-05-02T09:21:34.738Z</time></trkpt><trkpt lat="45.1830093" lon="12.2782987"><ele>3.0</ele><time>2026-05-02T09:21:36.733Z</time></trkpt><trkpt lat="45.1829024" lon="12.2783033"><ele>3.0</ele><time>2026-05-02T09:21:38.736Z</time></trkpt><trkpt lat="45.182795" lon="12.2783089"><ele>3.0</ele><time>2026-05-02T09:21:40.729Z</time></trkpt><trkpt lat="45.1826899" lon="12.2783114"><ele>3.0</ele><time>2026-05-02T09:21:42.732Z</time></trkpt><trkpt lat="45.1825899" lon="12.2783148"><ele>3.0</ele><time>2026-05-02T09:21:44.734Z</time></trkpt><trkpt lat="45.1824946" lon="12.2783122"><ele>3.0</ele><time>2026-05-02T09:21:46.734Z</time></trkpt><trkpt lat="45.1823912" lon="12.2783182"><ele>3.0</ele><time>2026-05-02T09:21:48.736Z</time></trkpt><trkpt lat="45.1822956" lon="12.2783163"><ele>3.0</ele><time>2026-05-02T09:21:50.732Z</time></trkpt><trkpt lat="45.182193" lon="12.2783141"><ele>3.0</ele><time>2026-05-02T09:21:52.739Z</time></trkpt><trkpt lat="45.1820903" lon="12.2783036"><ele>3.0</ele><time>2026-05-02T09:21:54.736Z</time></trkpt><trkpt lat="45.1819877" lon="12.2782902"><ele>3.0</ele><time>2026-05-02T09:21:56.735Z</time></trkpt><trkpt lat="45.1818895" lon="12.2782677"><ele>3.0</ele><time>2026-05-02T09:21:58.734Z</time></trkpt><trkpt lat="45.1817981" lon="12.2782469"><ele>3.0</ele><time>2026-05-02T09:22:00.734Z</time></trkpt><trkpt lat="45.1817153" lon="12.2782219"><ele>3.0</ele><time>2026-05-02T09:22:02.741Z</time></trkpt><trkpt lat="45.181634" lon="12.2782"><ele>3.0</ele><time>2026-05-02T09:22:04.73Z</time></trkpt><trkpt lat="45.1815629" lon="12.2781693"><ele>3.0</ele><time>2026-05-02T09:22:06.736Z</time></trkpt><trkpt lat="45.1815018" lon="12.2781274"><ele>3.0</ele><time>2026-05-02T09:22:08.735Z</time></trkpt><trkpt lat="45.1814389" lon="12.2781001"><ele>3.0</ele><time>2026-05-02T09:22:10.738Z</time></trkpt><trkpt lat="45.181356" lon="12.2780673"><ele>2.571428571428571</ele><time>2026-05-02T09:22:13.734Z</time></trkpt><trkpt lat="45.1812905" lon="12.2780438"><ele>2.142857142857143</ele><time>2026-05-02T09:22:16.735Z</time></trkpt><trkpt lat="45.181227" lon="12.2779916"><ele>1.7142857142857142</ele><time>2026-05-02T09:22:20.736Z</time></trkpt><trkpt lat="45.1812238" lon="12.2778936"><ele>1.2857142857142856</ele><time>2026-05-02T09:22:55.733Z</time></trkpt><trkpt lat="45.1811851" lon="12.2778225"><ele>0.8571428571428571</ele><time>2026-05-02T09:22:57.734Z</time></trkpt><trkpt lat="45.1811088" lon="12.277778"><ele>0.42857142857142855</ele><time>2026-05-02T09:22:59.743Z</time></trkpt><trkpt lat="45.1810296" lon="12.2777547"><ele>0.0</ele><time>2026-05-02T09:23:01.738Z</time></trkpt><trkpt lat="45.1809422" lon="12.2777446"><ele>0.0</ele><time>2026-05-02T09:23:03.732Z</time></trkpt><trkpt lat="45.1808467" lon="12.2777272"><ele>0.0</ele><time>2026-05-02T09:23:05.736Z</time></trkpt><trkpt lat="45.1807481" lon="12.2777052"><ele>0.0</ele><time>2026-05-02T09:23:07.739Z</time></trkpt><trkpt lat="45.1806475" lon="12.2776832"><ele>0.0</ele><time>2026-05-02T09:23:09.742Z</time></trkpt><trkpt lat="45.1805502" lon="12.2776593"><ele>0.0</ele><time>2026-05-02T09:23:11.737Z</time></trkpt><trkpt lat="45.1804486" lon="12.277634"><ele>0.0</ele><time>2026-05-02T09:23:13.736Z</time></trkpt><trkpt lat="45.1803478" lon="12.2776068"><ele>0.0</ele><time>2026-05-02T09:23:15.736Z</time></trkpt><trkpt lat="45.1802436" lon="12.2775806"><ele>0.0</ele><time>2026-05-02T09:23:17.737Z</time></trkpt><trkpt lat="45.1801444" lon="12.2775531"><ele>0.0</ele><time>2026-05-02T09:23:19.739Z</time></trkpt><trkpt lat="45.1800471" lon="12.2775207"><ele>0.0</ele><time>2026-05-02T09:23:21.731Z</time></trkpt><trkpt lat="45.179947" lon="12.2774897"><ele>0.0</ele><time>2026-05-02T09:23:23.735Z</time></trkpt><trkpt lat="45.1798439" lon="12.27746"><ele>0.0</ele><time>2026-05-02T09:23:25.737Z</time></trkpt><trkpt lat="45.1797417" lon="12.2774313"><ele>0.0</ele><time>2026-05-02T09:23:27.738Z</time></trkpt><trkpt lat="45.1796365" lon="12.2774037"><ele>0.0</ele><time>2026-05-02T09:23:29.738Z</time></trkpt><trkpt lat="45.1795308" lon="12.277379"><ele>0.0</ele><time>2026-05-02T09:23:31.739Z</time></trkpt><trkpt lat="45.1794286" lon="12.2773518"><ele>0.0</ele><time>2026-05-02T09:23:33.736Z</time></trkpt><trkpt lat="45.1793239" lon="12.2773219"><ele>0.0</ele><time>2026-05-02T09:23:35.742Z</time></trkpt><trkpt lat="45.1792233" lon="12.277294"><ele>0.0</ele><time>2026-05-02T09:23:37.739Z</time></trkpt><trkpt lat="45.1791186" lon="12.2772696"><ele>0.0</ele><time>2026-05-02T09:23:39.744Z</time></trkpt><trkpt lat="45.1790093" lon="12.2772434"><ele>0.0</ele><time>2026-05-02T09:23:41.736Z</time></trkpt><trkpt lat="45.1789027" lon="12.2772178"><ele>-0.4</ele><time>2026-05-02T09:23:43.738Z</time></trkpt><trkpt lat="45.1787966" lon="12.2771835"><ele>-0.8</ele><time>2026-05-02T09:23:45.74Z</time></trkpt><trkpt lat="45.1786918" lon="12.2771545"><ele>-1.2000000000000002</ele><time>2026-05-02T09:23:47.736Z</time></trkpt><trkpt lat="45.1785872" lon="12.2771279"><ele>-1.6</ele><time>2026-05-02T09:23:49.74Z</time></trkpt><trkpt lat="45.178498" lon="12.2770915"><ele>-2.0</ele><time>2026-05-02T09:23:51.736Z</time></trkpt><trkpt lat="45.178469" lon="12.2769983"><ele>-2.0</ele><time>2026-05-02T09:23:53.732Z</time></trkpt><trkpt lat="45.1785017" lon="12.2768775"><ele>-2.0</ele><time>2026-05-02T09:23:55.736Z</time></trkpt><trkpt lat="45.1785368" lon="12.2767483"><ele>-2.0</ele><time>2026-05-02T09:23:57.735Z</time></trkpt><trkpt lat="45.1785567" lon="12.2766049"><ele>-2.0</ele><time>2026-05-02T09:23:59.74Z</time></trkpt><trkpt lat="45.1785722" lon="12.27646"><ele>-2.0</ele><time>2026-05-02T09:24:01.735Z</time></trkpt><trkpt lat="45.178596" lon="12.2763213"><ele>-1.75</ele><time>2026-05-02T09:24:03.738Z</time></trkpt><trkpt lat="45.1786165" lon="12.2761679"><ele>-1.5</ele><time>2026-05-02T09:24:05.731Z</time></trkpt><trkpt lat="45.1786438" lon="12.2760045"><ele>-1.25</ele><time>2026-05-02T09:24:07.741Z</time></trkpt><trkpt lat="45.1786745" lon="12.2758334"><ele>-1.0</ele><time>2026-05-02T09:24:09.742Z</time></trkpt><trkpt lat="45.1787046" lon="12.2756648"><ele>-1.0</ele><time>2026-05-02T09:24:11.737Z</time></trkpt><trkpt lat="45.1787382" lon="12.2754997"><ele>-1.0</ele><time>2026-05-02T09:24:13.733Z</time></trkpt><trkpt lat="45.1787743" lon="12.2753365"><ele>-1.0</ele><time>2026-05-02T09:24:15.737Z</time></trkpt><trkpt lat="45.178811" lon="12.2751709"><ele>-1.0</ele><time>2026-05-02T09:24:17.736Z</time></trkpt><trkpt lat="45.1788454" lon="12.2750037"><ele>-1.0</ele><time>2026-05-02T09:24:19.735Z</time></trkpt><trkpt lat="45.1788821" lon="12.2748462"><ele>-1.0</ele><time>2026-05-02T09:24:21.737Z</time></trkpt><trkpt lat="45.178919" lon="12.2746902"><ele>-1.0</ele><time>2026-05-02T09:24:23.737Z</time></trkpt><trkpt lat="45.178956" lon="12.2745363"><ele>-1.0</ele><time>2026-05-02T09:24:25.737Z</time></trkpt><trkpt lat="45.1789962" lon="12.2743835"><ele>-1.0</ele><time>2026-05-02T09:24:27.733Z</time></trkpt><trkpt lat="45.1790391" lon="12.2742397"><ele>-1.0</ele><time>2026-05-02T09:24:29.74Z</time></trkpt><trkpt lat="45.1790924" lon="12.2741076"><ele>-1.0</ele><time>2026-05-02T09:24:31.741Z</time></trkpt><trkpt lat="45.1791494" lon="12.2739797"><ele>-1.0</ele><time>2026-05-02T09:24:33.74Z</time></trkpt><trkpt lat="45.179213" lon="12.273836"><ele>-1.0</ele><time>2026-05-02T09:24:35.736Z</time></trkpt><trkpt lat="45.1792488" lon="12.2737616"><ele>-0.9999999999999999</ele><time>2026-05-02T09:24:36.74Z</time></trkpt><trkpt lat="45.1793234" lon="12.2736147"><ele>-1.0</ele><time>2026-05-02T09:24:38.74Z</time></trkpt><trkpt lat="45.17936" lon="12.273536"><ele>-1.0</ele><time>2026-05-02T09:24:39.738Z</time></trkpt><trkpt lat="45.1793923" lon="12.2734559"><ele>-1.0</ele><time>2026-05-02T09:24:40.734Z</time></trkpt><trkpt lat="45.1794234" lon="12.2733717"><ele>-0.9999999999999999</ele><time>2026-05-02T09:24:41.734Z</time></trkpt><trkpt lat="45.1794583" lon="12.2732897"><ele>-1.0</ele><time>2026-05-02T09:24:42.734Z</time></trkpt><trkpt lat="45.1795008" lon="12.2732159"><ele>-1.0</ele><time>2026-05-02T09:24:43.734Z</time></trkpt><trkpt lat="45.1795438" lon="12.2731484"><ele>-1.0</ele><time>2026-05-02T09:24:44.735Z</time></trkpt><trkpt lat="45.1796144" lon="12.2730111"><ele>-1.0</ele><time>2026-05-02T09:24:46.738Z</time></trkpt><trkpt lat="45.1796791" lon="12.2728694"><ele>-1.0</ele><time>2026-05-02T09:24:48.738Z</time></trkpt><trkpt lat="45.179753" lon="12.2727345"><ele>-1.0</ele><time>2026-05-02T09:24:50.737Z</time></trkpt><trkpt lat="45.1798264" lon="12.2725974"><ele>-1.0</ele><time>2026-05-02T09:24:52.743Z</time></trkpt><trkpt lat="45.1799007" lon="12.2724583"><ele>-1.0</ele><time>2026-05-02T09:24:54.739Z</time></trkpt><trkpt lat="45.1799393" lon="12.2723876"><ele>-1.0</ele><time>2026-05-02T09:24:55.735Z</time></trkpt><trkpt lat="45.1799775" lon="12.2723151"><ele>-1.0</ele><time>2026-05-02T09:24:56.74Z</time></trkpt><trkpt lat="45.1800508" lon="12.2721846"><ele>-1.0</ele><time>2026-05-02T09:24:58.733Z</time></trkpt><trkpt lat="45.1801235" lon="12.2720486"><ele>-0.5</ele><time>2026-05-02T09:25:00.735Z</time></trkpt><trkpt lat="45.1801955" lon="12.2719085"><ele>0.0</ele><time>2026-05-02T09:25:02.735Z</time></trkpt><trkpt lat="45.1802643" lon="12.2717682"><ele>0.5</ele><time>2026-05-02T09:25:04.734Z</time></trkpt><trkpt lat="45.1803309" lon="12.2716291"><ele>1.0</ele><time>2026-05-02T09:25:06.734Z</time></trkpt><trkpt lat="45.1803817" lon="12.2714826"><ele>0.75</ele><time>2026-05-02T09:25:08.738Z</time></trkpt><trkpt lat="45.1804029" lon="12.2713265"><ele>0.5</ele><time>2026-05-02T09:25:10.737Z</time></trkpt><trkpt lat="45.1803995" lon="12.2711652"><ele>0.25</ele><time>2026-05-02T09:25:12.74Z</time></trkpt><trkpt lat="45.1803777" lon="12.2710081"><ele>0.0</ele><time>2026-05-02T09:25:14.737Z</time></trkpt><trkpt lat="45.1803419" lon="12.2708528"><ele>0.0</ele><time>2026-05-02T09:25:16.73Z</time></trkpt><trkpt lat="45.1802879" lon="12.2706913"><ele>0.0</ele><time>2026-05-02T09:25:18.739Z</time></trkpt><trkpt lat="45.1802253" lon="12.2705463"><ele>0.0</ele><time>2026-05-02T09:25:20.73Z</time></trkpt><trkpt lat="45.1801437" lon="12.2704162"><ele>0.0</ele><time>2026-05-02T09:25:22.732Z</time></trkpt><trkpt lat="45.1800454" lon="12.2703073"><ele>0.0</ele><time>2026-05-02T09:25:24.737Z</time></trkpt><trkpt lat="45.1799418" lon="12.2702205"><ele>0.0</ele><time>2026-05-02T09:25:26.732Z</time></trkpt><trkpt lat="45.1798434" lon="12.2701371"><ele>0.0</ele><time>2026-05-02T09:25:28.735Z</time></trkpt><trkpt lat="45.1797317" lon="12.2700668"><ele>0.0</ele><time>2026-05-02T09:25:30.738Z</time></trkpt><trkpt lat="45.1796725" lon="12.270034"><ele>0.0</ele><time>2026-05-02T09:25:31.736Z</time></trkpt><trkpt lat="45.1796122" lon="12.270001"><ele>0.0</ele><time>2026-05-02T09:25:32.736Z</time></trkpt><trkpt lat="45.1794978" lon="12.2699411"><ele>0.0</ele><time>2026-05-02T09:25:34.736Z</time></trkpt><trkpt lat="45.1793897" lon="12.2698793"><ele>0.0</ele><time>2026-05-02T09:25:36.736Z</time></trkpt><trkpt lat="45.1792894" lon="12.2698166"><ele>0.0</ele><time>2026-05-02T09:25:38.734Z</time></trkpt><trkpt lat="45.179189" lon="12.2697486"><ele>0.0</ele><time>2026-05-02T09:25:40.734Z</time></trkpt><trkpt lat="45.1790807" lon="12.2696803"><ele>0.0</ele><time>2026-05-02T09:25:42.738Z</time></trkpt><trkpt lat="45.1789725" lon="12.2696111"><ele>0.0</ele><time>2026-05-02T09:25:44.737Z</time></trkpt><trkpt lat="45.1789135" lon="12.2695738"><ele>0.0</ele><time>2026-05-02T09:25:45.733Z</time></trkpt><trkpt lat="45.1788542" lon="12.2695389"><ele>0.0</ele><time>2026-05-02T09:25:46.731Z</time></trkpt><trkpt lat="45.1787423" lon="12.2694708"><ele>0.0</ele><time>2026-05-02T09:25:48.734Z</time></trkpt><trkpt lat="45.1786315" lon="12.2694"><ele>0.0</ele><time>2026-05-02T09:25:50.732Z</time></trkpt><trkpt lat="45.1785165" lon="12.2693395"><ele>0.0</ele><time>2026-05-02T09:25:52.737Z</time></trkpt><trkpt lat="45.1784015" lon="12.2692848"><ele>0.0</ele><time>2026-05-02T09:25:54.735Z</time></trkpt><trkpt lat="45.1782852" lon="12.2692352"><ele>0.0</ele><time>2026-05-02T09:25:56.734Z</time></trkpt><trkpt lat="45.1781624" lon="12.2691927"><ele>0.0</ele><time>2026-05-02T09:25:58.731Z</time></trkpt><trkpt lat="45.1781" lon="12.2691747"><ele>0.0</ele><time>2026-05-02T09:25:59.736Z</time></trkpt><trkpt lat="45.1780376" lon="12.2691617"><ele>0.0</ele><time>2026-05-02T09:26:00.732Z</time></trkpt><trkpt lat="45.1779736" lon="12.2691501"><ele>0.0</ele><time>2026-05-02T09:26:01.737Z</time></trkpt><trkpt lat="45.1778503" lon="12.2691314"><ele>0.0</ele><time>2026-05-02T09:26:03.734Z</time></trkpt><trkpt lat="45.1777237" lon="12.2691197"><ele>0.0</ele><time>2026-05-02T09:26:05.735Z</time></trkpt><trkpt lat="45.1776607" lon="12.2691141"><ele>0.0</ele><time>2026-05-02T09:26:06.742Z</time></trkpt><trkpt lat="45.1775358" lon="12.2690982"><ele>0.0</ele><time>2026-05-02T09:26:08.737Z</time></trkpt><trkpt lat="45.1774712" lon="12.2690913"><ele>0.0</ele><time>2026-05-02T09:26:09.736Z</time></trkpt><trkpt lat="45.177405" lon="12.2690898"><ele>0.0</ele><time>2026-05-02T09:26:10.731Z</time></trkpt><trkpt lat="45.1773384" lon="12.26909"><ele>0.0</ele><time>2026-05-02T09:26:11.735Z</time></trkpt><trkpt lat="45.1772725" lon="12.2690953"><ele>-0.2857142857142857</ele><time>2026-05-02T09:26:12.731Z</time></trkpt><trkpt lat="45.1772065" lon="12.2691019"><ele>-0.5714285714285714</ele><time>2026-05-02T09:26:13.737Z</time></trkpt><trkpt lat="45.1771416" lon="12.2691098"><ele>-0.8571428571428571</ele><time>2026-05-02T09:26:14.733Z</time></trkpt><trkpt lat="45.1770777" lon="12.2691213"><ele>-1.1428571428571428</ele><time>2026-05-02T09:26:15.733Z</time></trkpt><trkpt lat="45.1770149" lon="12.2691348"><ele>-1.4285714285714284</ele><time>2026-05-02T09:26:16.737Z</time></trkpt><trkpt lat="45.1769508" lon="12.2691505"><ele>-1.7142857142857142</ele><time>2026-05-02T09:26:17.734Z</time></trkpt><trkpt lat="45.1768874" lon="12.269171"><ele>-2.0</ele><time>2026-05-02T09:26:18.731Z</time></trkpt><trkpt lat="45.1768246" lon="12.2691922"><ele>-2.0</ele><time>2026-05-02T09:26:19.737Z</time></trkpt><trkpt lat="45.1767615" lon="12.269212"><ele>-1.9999999999999998</ele><time>2026-05-02T09:26:20.737Z</time></trkpt><trkpt lat="45.1766989" lon="12.2692311"><ele>-2.0</ele><time>2026-05-02T09:26:21.737Z</time></trkpt><trkpt lat="45.1766361" lon="12.2692502"><ele>-2.0</ele><time>2026-05-02T09:26:22.741Z</time></trkpt><trkpt lat="45.1765743" lon="12.2692673"><ele>-1.9999999999999998</ele><time>2026-05-02T09:26:23.744Z</time></trkpt><trkpt lat="45.1765108" lon="12.2692842"><ele>-2.0</ele><time>2026-05-02T09:26:24.736Z</time></trkpt><trkpt lat="45.1764471" lon="12.2693038"><ele>-2.0</ele><time>2026-05-02T09:26:25.731Z</time></trkpt><trkpt lat="45.1763845" lon="12.2693258"><ele>-1.8333333333333333</ele><time>2026-05-02T09:26:26.738Z</time></trkpt><trkpt lat="45.1763216" lon="12.2693501"><ele>-1.6666666666666665</ele><time>2026-05-02T09:26:27.739Z</time></trkpt><trkpt lat="45.1762578" lon="12.2693729"><ele>-1.5</ele><time>2026-05-02T09:26:28.735Z</time></trkpt><trkpt lat="45.1761956" lon="12.2693924"><ele>-1.3333333333333333</ele><time>2026-05-02T09:26:29.737Z</time></trkpt><trkpt lat="45.1760729" lon="12.2694322"><ele>-1.1666666666666665</ele><time>2026-05-02T09:26:31.74Z</time></trkpt><trkpt lat="45.1759525" lon="12.2694784"><ele>-1.0</ele><time>2026-05-02T09:26:33.741Z</time></trkpt><trkpt lat="45.1758339" lon="12.2695197"><ele>-1.0</ele><time>2026-05-02T09:26:35.734Z</time></trkpt><trkpt lat="45.1757128" lon="12.2695644"><ele>-1.0</ele><time>2026-05-02T09:26:37.739Z</time></trkpt><trkpt lat="45.1755917" lon="12.2696121"><ele>-1.0</ele><time>2026-05-02T09:26:39.742Z</time></trkpt><trkpt lat="45.1755299" lon="12.2696367"><ele>-1.0</ele><time>2026-05-02T09:26:40.737Z</time></trkpt><trkpt lat="45.1754694" lon="12.2696619"><ele>-1.0</ele><time>2026-05-02T09:26:41.737Z</time></trkpt><trkpt lat="45.1753491" lon="12.2697214"><ele>-1.0</ele><time>2026-05-02T09:26:43.737Z</time></trkpt><trkpt lat="45.1752888" lon="12.2697532"><ele>-1.0</ele><time>2026-05-02T09:26:44.736Z</time></trkpt><trkpt lat="45.1752294" lon="12.269784"><ele>-1.0</ele><time>2026-05-02T09:26:45.74Z</time></trkpt><trkpt lat="45.175111" lon="12.2698458"><ele>-1.0</ele><time>2026-05-02T09:26:47.737Z</time></trkpt><trkpt lat="45.1749958" lon="12.2699081"><ele>-1.0</ele><time>2026-05-02T09:26:49.738Z</time></trkpt><trkpt lat="45.1748783" lon="12.2699705"><ele>-0.9999999999999999</ele><time>2026-05-02T09:26:51.733Z</time></trkpt><trkpt lat="45.1747623" lon="12.2700419"><ele>-1.0</ele><time>2026-05-02T09:26:53.735Z</time></trkpt><trkpt lat="45.1747032" lon="12.2700845"><ele>-1.0</ele><time>2026-05-02T09:26:54.739Z</time></trkpt><trkpt lat="45.1746429" lon="12.270129"><ele>-1.0</ele><time>2026-05-02T09:26:55.74Z</time></trkpt><trkpt lat="45.174582" lon="12.270174"><ele>-0.9999999999999999</ele><time>2026-05-02T09:26:56.735Z</time></trkpt><trkpt lat="45.1745203" lon="12.2702161"><ele>-1.0</ele><time>2026-05-02T09:26:57.734Z</time></trkpt><trkpt lat="45.1744598" lon="12.2702582"><ele>-1.0</ele><time>2026-05-02T09:26:58.735Z</time></trkpt><trkpt lat="45.1744006" lon="12.2702998"><ele>-1.0</ele><time>2026-05-02T09:26:59.739Z</time></trkpt><trkpt lat="45.1743438" lon="12.2703386"><ele>-1.0</ele><time>2026-05-02T09:27:00.74Z</time></trkpt><trkpt lat="45.1742337" lon="12.2704159"><ele>-1.0</ele><time>2026-05-02T09:27:02.739Z</time></trkpt><trkpt lat="45.1741274" lon="12.2704944"><ele>-1.0</ele><time>2026-05-02T09:27:04.738Z</time></trkpt><trkpt lat="45.1740207" lon="12.2705826"><ele>-1.0</ele><time>2026-05-02T09:27:06.734Z</time></trkpt><trkpt lat="45.1739115" lon="12.2706704"><ele>-1.0</ele><time>2026-05-02T09:27:08.74Z</time></trkpt><trkpt lat="45.1738049" lon="12.2707609"><ele>-1.0</ele><time>2026-05-02T09:27:10.738Z</time></trkpt><trkpt lat="45.1737011" lon="12.2708526"><ele>-1.0</ele><time>2026-05-02T09:27:12.738Z</time></trkpt><trkpt lat="45.1736009" lon="12.2709457"><ele>-1.0</ele><time>2026-05-02T09:27:14.737Z</time></trkpt><trkpt lat="45.1734962" lon="12.271046"><ele>-1.0</ele><time>2026-05-02T09:27:16.735Z</time></trkpt><trkpt lat="45.1734436" lon="12.271098"><ele>-1.0</ele><time>2026-05-02T09:27:17.736Z</time></trkpt><trkpt lat="45.1733403" lon="12.2711959"><ele>-1.0</ele><time>2026-05-02T09:27:19.731Z</time></trkpt><trkpt lat="45.1732367" lon="12.2712901"><ele>-1.0</ele><time>2026-05-02T09:27:21.736Z</time></trkpt><trkpt lat="45.173135" lon="12.2713848"><ele>-1.25</ele><time>2026-05-02T09:27:23.737Z</time></trkpt><trkpt lat="45.1730317" lon="12.2714777"><ele>-1.5</ele><time>2026-05-02T09:27:25.735Z</time></trkpt><trkpt lat="45.1729265" lon="12.2715741"><ele>-1.75</ele><time>2026-05-02T09:27:27.737Z</time></trkpt><trkpt lat="45.1728255" lon="12.2716673"><ele>-2.0</ele><time>2026-05-02T09:27:29.733Z</time></trkpt><trkpt lat="45.1727227" lon="12.2717581"><ele>-1.9999999999999998</ele><time>2026-05-02T09:27:31.741Z</time></trkpt><trkpt lat="45.1726187" lon="12.2718545"><ele>-2.0</ele><time>2026-05-02T09:27:33.74Z</time></trkpt><trkpt lat="45.1725655" lon="12.2719043"><ele>-2.0</ele><time>2026-05-02T09:27:34.735Z</time></trkpt><trkpt lat="45.1725119" lon="12.2719533"><ele>-2.0</ele><time>2026-05-02T09:27:35.739Z</time></trkpt><trkpt lat="45.1724039" lon="12.2720431"><ele>-1.9999999999999998</ele><time>2026-05-02T09:27:37.739Z</time></trkpt><trkpt lat="45.1723501" lon="12.2720897"><ele>-2.0</ele><time>2026-05-02T09:27:38.733Z</time></trkpt><trkpt lat="45.1722456" lon="12.2721807"><ele>-1.75</ele><time>2026-05-02T09:27:40.732Z</time></trkpt><trkpt lat="45.1721393" lon="12.2722693"><ele>-1.5</ele><time>2026-05-02T09:27:42.741Z</time></trkpt><trkpt lat="45.1720323" lon="12.2723588"><ele>-1.25</ele><time>2026-05-02T09:27:44.738Z</time></trkpt><trkpt lat="45.1719257" lon="12.272438"><ele>-1.0</ele><time>2026-05-02T09:27:46.736Z</time></trkpt><trkpt lat="45.171821" lon="12.2725175"><ele>-1.0</ele><time>2026-05-02T09:27:48.737Z</time></trkpt><trkpt lat="45.1717159" lon="12.2725912"><ele>-1.0</ele><time>2026-05-02T09:27:50.736Z</time></trkpt><trkpt lat="45.1716073" lon="12.2726685"><ele>-1.0</ele><time>2026-05-02T09:27:52.741Z</time></trkpt><trkpt lat="45.1714958" lon="12.2727326"><ele>-1.0</ele><time>2026-05-02T09:27:54.736Z</time></trkpt><trkpt lat="45.1714358" lon="12.2727611"><ele>-1.0</ele><time>2026-05-02T09:27:55.737Z</time></trkpt><trkpt lat="45.1713736" lon="12.2727869"><ele>-0.9999999999999999</ele><time>2026-05-02T09:27:56.729Z</time></trkpt><trkpt lat="45.1713114" lon="12.2728084"><ele>-1.0</ele><time>2026-05-02T09:27:57.736Z</time></trkpt><trkpt lat="45.1712487" lon="12.2728241"><ele>-1.0</ele><time>2026-05-02T09:27:58.73Z</time></trkpt><trkpt lat="45.1711863" lon="12.2728362"><ele>-1.0</ele><time>2026-05-02T09:27:59.737Z</time></trkpt><trkpt lat="45.1711238" lon="12.272848"><ele>-0.9999999999999999</ele><time>2026-05-02T09:28:00.738Z</time></trkpt><trkpt lat="45.1710003" lon="12.2728667"><ele>-1.0</ele><time>2026-05-02T09:28:02.743Z</time></trkpt><trkpt lat="45.1708747" lon="12.2728782"><ele>-0.9999999999999999</ele><time>2026-05-02T09:28:04.74Z</time></trkpt><trkpt lat="45.1708116" lon="12.2728818"><ele>-1.0</ele><time>2026-05-02T09:28:05.739Z</time></trkpt><trkpt lat="45.1706897" lon="12.2728811"><ele>-1.0</ele><time>2026-05-02T09:28:07.738Z</time></trkpt><trkpt lat="45.1705675" lon="12.2728812"><ele>-1.0</ele><time>2026-05-02T09:28:09.735Z</time></trkpt><trkpt lat="45.1705042" lon="12.2728822"><ele>-0.9999999999999999</ele><time>2026-05-02T09:28:10.736Z</time></trkpt><trkpt lat="45.1704399" lon="12.2728837"><ele>-1.0</ele><time>2026-05-02T09:28:11.734Z</time></trkpt><trkpt lat="45.1703749" lon="12.2728818"><ele>-1.2000000000000002</ele><time>2026-05-02T09:28:12.738Z</time></trkpt><trkpt lat="45.1703102" lon="12.2728774"><ele>-1.4000000000000001</ele><time>2026-05-02T09:28:13.734Z</time></trkpt><trkpt lat="45.1702468" lon="12.2728717"><ele>-1.6</ele><time>2026-05-02T09:28:14.738Z</time></trkpt><trkpt lat="45.1701241" lon="12.2728452"><ele>-1.8</ele><time>2026-05-02T09:28:16.737Z</time></trkpt><trkpt lat="45.1700037" lon="12.2728035"><ele>-2.0</ele><time>2026-05-02T09:28:18.733Z</time></trkpt><trkpt lat="45.1698846" lon="12.2727592"><ele>-1.6666666666666665</ele><time>2026-05-02T09:28:20.729Z</time></trkpt><trkpt lat="45.1697631" lon="12.272715"><ele>-1.3333333333333333</ele><time>2026-05-02T09:28:22.736Z</time></trkpt><trkpt lat="45.169702" lon="12.2726896"><ele>-1.0</ele><time>2026-05-02T09:28:23.729Z</time></trkpt><trkpt lat="45.1696408" lon="12.2726627"><ele>-0.6666666666666666</ele><time>2026-05-02T09:28:24.733Z</time></trkpt><trkpt lat="45.1695807" lon="12.2726355"><ele>-0.3333333333333333</ele><time>2026-05-02T09:28:25.735Z</time></trkpt><trkpt lat="45.1695206" lon="12.2726078"><ele>0.0</ele><time>2026-05-02T09:28:26.732Z</time></trkpt><trkpt lat="45.1694032" lon="12.2725556"><ele>0.0</ele><time>2026-05-02T09:28:28.735Z</time></trkpt><trkpt lat="45.1692852" lon="12.2725"><ele>0.0</ele><time>2026-05-02T09:28:30.736Z</time></trkpt><trkpt lat="45.1691687" lon="12.2724482"><ele>0.0</ele><time>2026-05-02T09:28:32.744Z</time></trkpt><trkpt lat="45.1690538" lon="12.2723923"><ele>0.0</ele><time>2026-05-02T09:28:34.734Z</time></trkpt><trkpt lat="45.1689381" lon="12.2723299"><ele>-0.25</ele><time>2026-05-02T09:28:36.739Z</time></trkpt><trkpt lat="45.168824" lon="12.2722713"><ele>-0.5</ele><time>2026-05-02T09:28:38.735Z</time></trkpt><trkpt lat="45.1687078" lon="12.2722126"><ele>-0.75</ele><time>2026-05-02T09:28:40.735Z</time></trkpt><trkpt lat="45.168592" lon="12.272154"><ele>-1.0</ele><time>2026-05-02T09:28:42.735Z</time></trkpt><trkpt lat="45.1684774" lon="12.2721016"><ele>-1.0</ele><time>2026-05-02T09:28:44.734Z</time></trkpt><trkpt lat="45.1683602" lon="12.2720459"><ele>-1.0</ele><time>2026-05-02T09:28:46.737Z</time></trkpt><trkpt lat="45.1682999" lon="12.272017"><ele>-1.0</ele><time>2026-05-02T09:28:47.739Z</time></trkpt><trkpt lat="45.168182" lon="12.2719595"><ele>-1.0</ele><time>2026-05-02T09:28:49.735Z</time></trkpt><trkpt lat="45.1680643" lon="12.2719024"><ele>-1.0</ele><time>2026-05-02T09:28:51.736Z</time></trkpt><trkpt lat="45.167943" lon="12.2718683"><ele>-1.0</ele><time>2026-05-02T09:28:53.731Z</time></trkpt><trkpt lat="45.1678206" lon="12.2718212"><ele>-1.0</ele><time>2026-05-02T09:28:55.73Z</time></trkpt><trkpt lat="45.1677051" lon="12.2717503"><ele>-1.0</ele><time>2026-05-02T09:28:57.727Z</time></trkpt><trkpt lat="45.1675855" lon="12.2716982"><ele>-1.0</ele><time>2026-05-02T09:28:59.737Z</time></trkpt><trkpt lat="45.1674704" lon="12.2716548"><ele>-1.0</ele><time>2026-05-02T09:29:01.74Z</time></trkpt><trkpt lat="45.1673633" lon="12.2715985"><ele>-1.0</ele><time>2026-05-02T09:29:03.741Z</time></trkpt><trkpt lat="45.1672467" lon="12.2715469"><ele>-1.0</ele><time>2026-05-02T09:29:05.739Z</time></trkpt><trkpt lat="45.1671268" lon="12.2715034"><ele>-1.0</ele><time>2026-05-02T09:29:07.74Z</time></trkpt><trkpt lat="45.1670643" lon="12.2714821"><ele>-1.0</ele><time>2026-05-02T09:29:08.742Z</time></trkpt><trkpt lat="45.1670024" lon="12.2714603"><ele>-1.0</ele><time>2026-05-02T09:29:09.736Z</time></trkpt><trkpt lat="45.1668827" lon="12.2714221"><ele>-1.0</ele><time>2026-05-02T09:29:11.731Z</time></trkpt><trkpt lat="45.1667687" lon="12.2713854"><ele>-1.0</ele><time>2026-05-02T09:29:13.736Z</time></trkpt><trkpt lat="45.1666527" lon="12.2713426"><ele>-1.0</ele><time>2026-05-02T09:29:15.736Z</time></trkpt><trkpt lat="45.1665339" lon="12.2712927"><ele>-1.5</ele><time>2026-05-02T09:29:17.736Z</time></trkpt><trkpt lat="45.1664149" lon="12.2712475"><ele>-2.0</ele><time>2026-05-02T09:29:19.737Z</time></trkpt><trkpt lat="45.1662997" lon="12.2712006"><ele>-2.5</ele><time>2026-05-02T09:29:21.735Z</time></trkpt><trkpt lat="45.1661845" lon="12.271157"><ele>-3.0</ele><time>2026-05-02T09:29:23.731Z</time></trkpt><trkpt lat="45.1660684" lon="12.2711085"><ele>-3.0</ele><time>2026-05-02T09:29:25.734Z</time></trkpt><trkpt lat="45.1659493" lon="12.2710575"><ele>-3.0</ele><time>2026-05-02T09:29:27.728Z</time></trkpt><trkpt lat="45.1658883" lon="12.2710282"><ele>-3.0</ele><time>2026-05-02T09:29:28.735Z</time></trkpt><trkpt lat="45.1658261" lon="12.270997"><ele>-3.0</ele><time>2026-05-02T09:29:29.734Z</time></trkpt><trkpt lat="45.1657625" lon="12.2709676"><ele>-3.0</ele><time>2026-05-02T09:29:30.737Z</time></trkpt><trkpt lat="45.1656985" lon="12.2709374"><ele>-3.0</ele><time>2026-05-02T09:29:31.735Z</time></trkpt><trkpt lat="45.1656352" lon="12.2709082"><ele>-2.8571428571428568</ele><time>2026-05-02T09:29:32.734Z</time></trkpt><trkpt lat="45.1655712" lon="12.2708761"><ele>-2.7142857142857144</ele><time>2026-05-02T09:29:33.738Z</time></trkpt><trkpt lat="45.1655095" lon="12.2708451"><ele>-2.571428571428571</ele><time>2026-05-02T09:29:34.732Z</time></trkpt><trkpt lat="45.1654484" lon="12.2708141"><ele>-2.4285714285714284</ele><time>2026-05-02T09:29:35.742Z</time></trkpt><trkpt lat="45.1653872" lon="12.2707814"><ele>-2.2857142857142856</ele><time>2026-05-02T09:29:36.737Z</time></trkpt><trkpt lat="45.1653263" lon="12.2707492"><ele>-2.142857142857143</ele><time>2026-05-02T09:29:37.737Z</time></trkpt><trkpt lat="45.1652661" lon="12.2707193"><ele>-2.0</ele><time>2026-05-02T09:29:38.737Z</time></trkpt><trkpt lat="45.1651477" lon="12.2706609"><ele>-2.0</ele><time>2026-05-02T09:29:40.728Z</time></trkpt><trkpt lat="45.1650872" lon="12.2706295"><ele>-1.9999999999999998</ele><time>2026-05-02T09:29:41.726Z</time></trkpt><trkpt lat="45.1650275" lon="12.2705987"><ele>-2.0</ele><time>2026-05-02T09:29:42.736Z</time></trkpt><trkpt lat="45.1649655" lon="12.2705663"><ele>-2.0</ele><time>2026-05-02T09:29:43.73Z</time></trkpt><trkpt lat="45.1649036" lon="12.2705352"><ele>-1.9999999999999998</ele><time>2026-05-02T09:29:44.73Z</time></trkpt><trkpt lat="45.1648417" lon="12.2705034"><ele>-2.0</ele><time>2026-05-02T09:29:45.728Z</time></trkpt><trkpt lat="45.1647781" lon="12.270469"><ele>-2.0</ele><time>2026-05-02T09:29:46.732Z</time></trkpt><trkpt lat="45.1647145" lon="12.2704348"><ele>-1.9999999999999998</ele><time>2026-05-02T09:29:47.731Z</time></trkpt><trkpt lat="45.1646537" lon="12.2704013"><ele>-2.0</ele><time>2026-05-02T09:29:48.732Z</time></trkpt><trkpt lat="45.1645948" lon="12.2703665"><ele>-2.0</ele><time>2026-05-02T09:29:49.731Z</time></trkpt><trkpt lat="45.1644798" lon="12.2703002"><ele>-2.0</ele><time>2026-05-02T09:29:51.733Z</time></trkpt><trkpt lat="45.1644202" lon="12.2702707"><ele>-1.9999999999999998</ele><time>2026-05-02T09:29:52.728Z</time></trkpt><trkpt lat="45.1643064" lon="12.2702086"><ele>-2.0</ele><time>2026-05-02T09:29:54.732Z</time></trkpt><trkpt lat="45.1641996" lon="12.2701488"><ele>-2.0</ele><time>2026-05-02T09:29:56.731Z</time></trkpt><trkpt lat="45.1640889" lon="12.2700948"><ele>-2.0</ele><time>2026-05-02T09:29:58.732Z</time></trkpt><trkpt lat="45.1639788" lon="12.2700377"><ele>-2.0</ele><time>2026-05-02T09:30:00.734Z</time></trkpt><trkpt lat="45.1638651" lon="12.2699838"><ele>-2.0</ele><time>2026-05-02T09:30:02.734Z</time></trkpt><trkpt lat="45.1637537" lon="12.2699328"><ele>-1.5</ele><time>2026-05-02T09:30:04.726Z</time></trkpt><trkpt lat="45.163643" lon="12.2698853"><ele>-1.0</ele><time>2026-05-02T09:30:06.728Z</time></trkpt><trkpt lat="45.1635254" lon="12.2698416"><ele>-0.5</ele><time>2026-05-02T09:30:08.728Z</time></trkpt><trkpt lat="45.1634077" lon="12.2697997"><ele>0.0</ele><time>2026-05-02T09:30:10.733Z</time></trkpt><trkpt lat="45.1632918" lon="12.2697682"><ele>-0.5</ele><time>2026-05-02T09:30:12.737Z</time></trkpt><trkpt lat="45.1631732" lon="12.2697475"><ele>-1.0</ele><time>2026-05-02T09:30:14.731Z</time></trkpt><trkpt lat="45.1630533" lon="12.2697346"><ele>-1.5</ele><time>2026-05-02T09:30:16.728Z</time></trkpt><trkpt lat="45.1629356" lon="12.2697223"><ele>-2.0</ele><time>2026-05-02T09:30:18.733Z</time></trkpt><trkpt lat="45.1628155" lon="12.269715"><ele>-2.0</ele><time>2026-05-02T09:30:20.733Z</time></trkpt><trkpt lat="45.1626971" lon="12.2697085"><ele>-2.0</ele><time>2026-05-02T09:30:22.736Z</time></trkpt><trkpt lat="45.1625774" lon="12.2696986"><ele>-2.0</ele><time>2026-05-02T09:30:24.733Z</time></trkpt><trkpt lat="45.1624554" lon="12.2696963"><ele>-2.0</ele><time>2026-05-02T09:30:26.733Z</time></trkpt><trkpt lat="45.1623354" lon="12.2696863"><ele>-2.0</ele><time>2026-05-02T09:30:28.731Z</time></trkpt><trkpt lat="45.1622164" lon="12.2696783"><ele>-2.0</ele><time>2026-05-02T09:30:30.733Z</time></trkpt><trkpt lat="45.1620995" lon="12.2696701"><ele>-2.0</ele><time>2026-05-02T09:30:32.731Z</time></trkpt><trkpt lat="45.1619863" lon="12.2696626"><ele>-2.0</ele><time>2026-05-02T09:30:34.729Z</time></trkpt><trkpt lat="45.1618755" lon="12.2696522"><ele>-2.0</ele><time>2026-05-02T09:30:36.734Z</time></trkpt><trkpt lat="45.1617605" lon="12.2696446"><ele>-2.0</ele><time>2026-05-02T09:30:38.728Z</time></trkpt><trkpt lat="45.1616448" lon="12.2696273"><ele>-2.0</ele><time>2026-05-02T09:30:40.738Z</time></trkpt><trkpt lat="45.1615216" lon="12.2696049"><ele>-2.0</ele><time>2026-05-02T09:30:42.732Z</time></trkpt><trkpt lat="45.1613969" lon="12.2695813"><ele>-1.8333333333333333</ele><time>2026-05-02T09:30:44.731Z</time></trkpt><trkpt lat="45.161276" lon="12.2695501"><ele>-1.6666666666666665</ele><time>2026-05-02T09:30:46.73Z</time></trkpt><trkpt lat="45.1612129" lon="12.2695337"><ele>-1.5</ele><time>2026-05-02T09:30:47.732Z</time></trkpt><trkpt lat="45.1611496" lon="12.2695153"><ele>-1.3333333333333333</ele><time>2026-05-02T09:30:48.732Z</time></trkpt><trkpt lat="45.1610869" lon="12.2694966"><ele>-1.1666666666666665</ele><time>2026-05-02T09:30:49.732Z</time></trkpt><trkpt lat="45.1609641" lon="12.2694578"><ele>-1.0</ele><time>2026-05-02T09:30:51.737Z</time></trkpt><trkpt lat="45.1609021" lon="12.2694387"><ele>-1.0</ele><time>2026-05-02T09:30:52.737Z</time></trkpt><trkpt lat="45.1607819" lon="12.269401"><ele>-1.0</ele><time>2026-05-02T09:30:54.731Z</time></trkpt><trkpt lat="45.1606684" lon="12.2693576"><ele>-1.0</ele><time>2026-05-02T09:30:56.73Z</time></trkpt><trkpt lat="45.160556" lon="12.2693206"><ele>-1.0</ele><time>2026-05-02T09:30:58.729Z</time></trkpt><trkpt lat="45.1604405" lon="12.2692841"><ele>-1.0</ele><time>2026-05-02T09:31:00.734Z</time></trkpt><trkpt lat="45.160323" lon="12.2692332"><ele>-1.0</ele><time>2026-05-02T09:31:02.734Z</time></trkpt><trkpt lat="45.1602077" lon="12.269174"><ele>-1.0</ele><time>2026-05-02T09:31:04.734Z</time></trkpt><trkpt lat="45.1600886" lon="12.2691181"><ele>-1.0</ele><time>2026-05-02T09:31:06.739Z</time></trkpt><trkpt lat="45.1599694" lon="12.2690678"><ele>-0.9999999999999999</ele><time>2026-05-02T09:31:08.734Z</time></trkpt><trkpt lat="45.1599093" lon="12.2690399"><ele>-1.0</ele><time>2026-05-02T09:31:09.739Z</time></trkpt><trkpt lat="45.1598489" lon="12.2690079"><ele>-1.0</ele><time>2026-05-02T09:31:10.733Z</time></trkpt><trkpt lat="45.1597354" lon="12.2689353"><ele>-1.0</ele><time>2026-05-02T09:31:12.733Z</time></trkpt><trkpt lat="45.1596247" lon="12.2688594"><ele>-0.9999999999999999</ele><time>2026-05-02T09:31:14.735Z</time></trkpt><trkpt lat="45.1595685" lon="12.2688184"><ele>-1.0</ele><time>2026-05-02T09:31:15.739Z</time></trkpt><trkpt lat="45.1595104" lon="12.2687801"><ele>-1.1666666666666665</ele><time>2026-05-02T09:31:16.735Z</time></trkpt><trkpt lat="45.1593954" lon="12.2687065"><ele>-1.3333333333333333</ele><time>2026-05-02T09:31:18.737Z</time></trkpt><trkpt lat="45.1593381" lon="12.2686663"><ele>-1.5</ele><time>2026-05-02T09:31:19.741Z</time></trkpt><trkpt lat="45.159281" lon="12.2686255"><ele>-1.6666666666666665</ele><time>2026-05-02T09:31:20.738Z</time></trkpt><trkpt lat="45.1592229" lon="12.2685838"><ele>-1.8333333333333333</ele><time>2026-05-02T09:31:21.741Z</time></trkpt><trkpt lat="45.1591642" lon="12.2685408"><ele>-2.0</ele><time>2026-05-02T09:31:22.735Z</time></trkpt><trkpt lat="45.1591053" lon="12.2684973"><ele>-2.0</ele><time>2026-05-02T09:31:23.736Z</time></trkpt><trkpt lat="45.1590455" lon="12.2684546"><ele>-1.9999999999999998</ele><time>2026-05-02T09:31:24.737Z</time></trkpt><trkpt lat="45.1589852" lon="12.2684148"><ele>-2.0</ele><time>2026-05-02T09:31:25.745Z</time></trkpt><trkpt lat="45.158925" lon="12.2683773"><ele>-2.0</ele><time>2026-05-02T09:31:26.737Z</time></trkpt><trkpt lat="45.1588645" lon="12.2683467"><ele>-1.9999999999999998</ele><time>2026-05-02T09:31:27.738Z</time></trkpt><trkpt lat="45.158805" lon="12.2683142"><ele>-2.0</ele><time>2026-05-02T09:31:28.734Z</time></trkpt><trkpt lat="45.1587467" lon="12.2682769"><ele>-2.0</ele><time>2026-05-02T09:31:29.734Z</time></trkpt><trkpt lat="45.1586889" lon="12.2682366"><ele>-2.0</ele><time>2026-05-02T09:31:30.738Z</time></trkpt><trkpt lat="45.1586318" lon="12.2681969"><ele>-1.9999999999999998</ele><time>2026-05-02T09:31:31.735Z</time></trkpt><trkpt lat="45.1585193" lon="12.2681198"><ele>-2.0</ele><time>2026-05-02T09:31:33.737Z</time></trkpt><trkpt lat="45.1584609" lon="12.2680837"><ele>-2.0</ele><time>2026-05-02T09:31:34.734Z</time></trkpt><trkpt lat="45.1584023" lon="12.2680485"><ele>-1.9999999999999998</ele><time>2026-05-02T09:31:35.736Z</time></trkpt><trkpt lat="45.1583441" lon="12.2680118"><ele>-2.0</ele><time>2026-05-02T09:31:36.736Z</time></trkpt><trkpt lat="45.1582863" lon="12.2679751"><ele>-2.0</ele><time>2026-05-02T09:31:37.732Z</time></trkpt><trkpt lat="45.1581728" lon="12.2679072"><ele>-1.75</ele><time>2026-05-02T09:31:39.736Z</time></trkpt><trkpt lat="45.1580588" lon="12.2678411"><ele>-1.5</ele><time>2026-05-02T09:31:41.732Z</time></trkpt><trkpt lat="45.1579451" lon="12.2677738"><ele>-1.25</ele><time>2026-05-02T09:31:43.733Z</time></trkpt><trkpt lat="45.1578326" lon="12.2677003"><ele>-1.0</ele><time>2026-05-02T09:31:45.74Z</time></trkpt><trkpt lat="45.1577181" lon="12.2676269"><ele>-1.0</ele><time>2026-05-02T09:31:47.734Z</time></trkpt><trkpt lat="45.1576594" lon="12.2675899"><ele>-0.9999999999999999</ele><time>2026-05-02T09:31:48.733Z</time></trkpt><trkpt lat="45.1576007" lon="12.2675552"><ele>-1.0</ele><time>2026-05-02T09:31:49.736Z</time></trkpt><trkpt lat="45.157541" lon="12.2675207"><ele>-1.0</ele><time>2026-05-02T09:31:50.737Z</time></trkpt><trkpt lat="45.1574794" lon="12.2674844"><ele>-0.9999999999999999</ele><time>2026-05-02T09:31:51.735Z</time></trkpt><trkpt lat="45.1574185" lon="12.2674471"><ele>-1.0</ele><time>2026-05-02T09:31:52.737Z</time></trkpt><trkpt lat="45.1573591" lon="12.2674101"><ele>-1.0</ele><time>2026-05-02T09:31:53.729Z</time></trkpt><trkpt lat="45.1573001" lon="12.2673728"><ele>-0.9999999999999999</ele><time>2026-05-02T09:31:54.737Z</time></trkpt><trkpt lat="45.1572423" lon="12.2673334"><ele>-1.0</ele><time>2026-05-02T09:31:55.729Z</time></trkpt><trkpt lat="45.1571854" lon="12.2672925"><ele>-1.0</ele><time>2026-05-02T09:31:56.739Z</time></trkpt><trkpt lat="45.1571291" lon="12.2672518"><ele>-1.0</ele><time>2026-05-02T09:31:57.735Z</time></trkpt><trkpt lat="45.1570177" lon="12.2671733"><ele>-0.9999999999999999</ele><time>2026-05-02T09:31:59.737Z</time></trkpt><trkpt lat="45.1569061" lon="12.2670957"><ele>-1.0</ele><time>2026-05-02T09:32:01.734Z</time></trkpt><trkpt lat="45.1567961" lon="12.2670195"><ele>-1.0</ele><time>2026-05-02T09:32:03.738Z</time></trkpt><trkpt lat="45.1566841" lon="12.2669504"><ele>-1.0</ele><time>2026-05-02T09:32:05.73Z</time></trkpt><trkpt lat="45.1565724" lon="12.2668873"><ele>-1.0</ele><time>2026-05-02T09:32:07.736Z</time></trkpt><trkpt lat="45.1564567" lon="12.2668204"><ele>-1.0</ele><time>2026-05-02T09:32:09.736Z</time></trkpt><trkpt lat="45.1563429" lon="12.2667565"><ele>-0.75</ele><time>2026-05-02T09:32:11.735Z</time></trkpt><trkpt lat="45.156229" lon="12.2666911"><ele>-0.5</ele><time>2026-05-02T09:32:13.735Z</time></trkpt><trkpt lat="45.1561203" lon="12.266618"><ele>-0.25</ele><time>2026-05-02T09:32:15.736Z</time></trkpt><trkpt lat="45.1560126" lon="12.2665611"><ele>0.0</ele><time>2026-05-02T09:32:17.735Z</time></trkpt><trkpt lat="45.155903" lon="12.2665"><ele>0.0</ele><time>2026-05-02T09:32:19.736Z</time></trkpt><trkpt lat="45.1557958" lon="12.2664289"><ele>0.0</ele><time>2026-05-02T09:32:21.733Z</time></trkpt><trkpt lat="45.155685" lon="12.2663588"><ele>0.0</ele><time>2026-05-02T09:32:23.737Z</time></trkpt><trkpt lat="45.1555738" lon="12.2662867"><ele>0.0</ele><time>2026-05-02T09:32:25.738Z</time></trkpt><trkpt lat="45.1554618" lon="12.2662171"><ele>-0.25</ele><time>2026-05-02T09:32:27.736Z</time></trkpt><trkpt lat="45.1553535" lon="12.2661393"><ele>-0.5</ele><time>2026-05-02T09:32:29.74Z</time></trkpt><trkpt lat="45.1552479" lon="12.2660519"><ele>-0.75</ele><time>2026-05-02T09:32:31.74Z</time></trkpt><trkpt lat="45.1551448" lon="12.2659653"><ele>-1.0</ele><time>2026-05-02T09:32:33.735Z</time></trkpt><trkpt lat="45.1550352" lon="12.26588"><ele>-1.0</ele><time>2026-05-02T09:32:35.732Z</time></trkpt><trkpt lat="45.1549285" lon="12.2657968"><ele>-1.0</ele><time>2026-05-02T09:32:37.734Z</time></trkpt><trkpt lat="45.1548241" lon="12.265711"><ele>-1.0</ele><time>2026-05-02T09:32:39.734Z</time></trkpt><trkpt lat="45.154713" lon="12.2656329"><ele>-1.0</ele><time>2026-05-02T09:32:41.736Z</time></trkpt><trkpt lat="45.1546019" lon="12.2655578"><ele>-1.0</ele><time>2026-05-02T09:32:43.739Z</time></trkpt><trkpt lat="45.1544885" lon="12.2654844"><ele>-1.0</ele><time>2026-05-02T09:32:45.736Z</time></trkpt><trkpt lat="45.1543688" lon="12.2654216"><ele>-1.0</ele><time>2026-05-02T09:32:47.739Z</time></trkpt><trkpt lat="45.1543083" lon="12.265388"><ele>-1.0</ele><time>2026-05-02T09:32:48.736Z</time></trkpt><trkpt lat="45.1542497" lon="12.2653521"><ele>-1.0</ele><time>2026-05-02T09:32:49.738Z</time></trkpt><trkpt lat="45.1541348" lon="12.2652813"><ele>-1.0</ele><time>2026-05-02T09:32:51.734Z</time></trkpt><trkpt lat="45.1540215" lon="12.2652116"><ele>-1.0</ele><time>2026-05-02T09:32:53.733Z</time></trkpt><trkpt lat="45.1539131" lon="12.2651408"><ele>-1.0</ele><time>2026-05-02T09:32:55.737Z</time></trkpt><trkpt lat="45.1538023" lon="12.2650729"><ele>-1.0</ele><time>2026-05-02T09:32:57.732Z</time></trkpt><trkpt lat="45.1536925" lon="12.2649985"><ele>-1.0</ele><time>2026-05-02T09:32:59.737Z</time></trkpt><trkpt lat="45.1535842" lon="12.2649207"><ele>-1.0</ele><time>2026-05-02T09:33:01.736Z</time></trkpt><trkpt lat="45.1534756" lon="12.2648487"><ele>-1.0</ele><time>2026-05-02T09:33:03.733Z</time></trkpt><trkpt lat="45.1533694" lon="12.2647713"><ele>-1.0</ele><time>2026-05-02T09:33:05.734Z</time></trkpt><trkpt lat="45.1532678" lon="12.2647"><ele>-1.0</ele><time>2026-05-02T09:33:07.734Z</time></trkpt><trkpt lat="45.153167" lon="12.2646321"><ele>-1.0</ele><time>2026-05-02T09:33:09.738Z</time></trkpt><trkpt lat="45.1530607" lon="12.264558"><ele>-1.0</ele><time>2026-05-02T09:33:11.736Z</time></trkpt><trkpt lat="45.1529523" lon="12.264481"><ele>-1.0</ele><time>2026-05-02T09:33:13.737Z</time></trkpt><trkpt lat="45.1528465" lon="12.264402"><ele>-1.0</ele><time>2026-05-02T09:33:15.73Z</time></trkpt><trkpt lat="45.1527412" lon="12.2643212"><ele>-1.0</ele><time>2026-05-02T09:33:17.733Z</time></trkpt><trkpt lat="45.1526357" lon="12.264246"><ele>-1.0</ele><time>2026-05-02T09:33:19.736Z</time></trkpt><trkpt lat="45.152528" lon="12.264174"><ele>-1.0</ele><time>2026-05-02T09:33:21.736Z</time></trkpt><trkpt lat="45.1524178" lon="12.2640992"><ele>-1.0</ele><time>2026-05-02T09:33:23.736Z</time></trkpt><trkpt lat="45.152312" lon="12.2640216"><ele>-1.0</ele><time>2026-05-02T09:33:25.737Z</time></trkpt><trkpt lat="45.1522043" lon="12.2639491"><ele>-1.0</ele><time>2026-05-02T09:33:27.729Z</time></trkpt><trkpt lat="45.1520953" lon="12.263877"><ele>-1.0</ele><time>2026-05-02T09:33:29.735Z</time></trkpt><trkpt lat="45.151986" lon="12.2638027"><ele>-1.0</ele><time>2026-05-02T09:33:31.737Z</time></trkpt><trkpt lat="45.1518779" lon="12.263724"><ele>-1.0</ele><time>2026-05-02T09:33:33.733Z</time></trkpt><trkpt lat="45.1517709" lon="12.2636466"><ele>-1.0</ele><time>2026-05-02T09:33:35.737Z</time></trkpt><trkpt lat="45.151659" lon="12.2635767"><ele>-1.0</ele><time>2026-05-02T09:33:37.74Z</time></trkpt><trkpt lat="45.1515489" lon="12.2635069"><ele>-1.0</ele><time>2026-05-02T09:33:39.734Z</time></trkpt><trkpt lat="45.1514378" lon="12.2634364"><ele>-1.0</ele><time>2026-05-02T09:33:41.736Z</time></trkpt><trkpt lat="45.1513273" lon="12.2633651"><ele>-1.0</ele><time>2026-05-02T09:33:43.735Z</time></trkpt><trkpt lat="45.1512196" lon="12.2632947"><ele>-1.0</ele><time>2026-05-02T09:33:45.735Z</time></trkpt><trkpt lat="45.1511126" lon="12.2632278"><ele>-1.0</ele><time>2026-05-02T09:33:47.737Z</time></trkpt><trkpt lat="45.1510039" lon="12.2631611"><ele>-1.0</ele><time>2026-05-02T09:33:49.737Z</time></trkpt><trkpt lat="45.150895" lon="12.263087"><ele>-1.0</ele><time>2026-05-02T09:33:51.736Z</time></trkpt><trkpt lat="45.1507874" lon="12.2630122"><ele>-1.0</ele><time>2026-05-02T09:33:53.734Z</time></trkpt><trkpt lat="45.15068" lon="12.26294"><ele>-0.75</ele><time>2026-05-02T09:33:55.736Z</time></trkpt><trkpt lat="45.1505753" lon="12.2628641"><ele>-0.5</ele><time>2026-05-02T09:33:57.736Z</time></trkpt><trkpt lat="45.1504695" lon="12.2627984"><ele>-0.25</ele><time>2026-05-02T09:33:59.737Z</time></trkpt><trkpt lat="45.1503649" lon="12.2627299"><ele>0.0</ele><time>2026-05-02T09:34:01.736Z</time></trkpt><trkpt lat="45.1502605" lon="12.2626581"><ele>0.0</ele><time>2026-05-02T09:34:03.737Z</time></trkpt><trkpt lat="45.1501575" lon="12.2625897"><ele>0.0</ele><time>2026-05-02T09:34:05.738Z</time></trkpt><trkpt lat="45.1500573" lon="12.2625229"><ele>0.0</ele><time>2026-05-02T09:34:07.734Z</time></trkpt><trkpt lat="45.1499519" lon="12.2624579"><ele>0.0</ele><time>2026-05-02T09:34:09.734Z</time></trkpt><trkpt lat="45.1498461" lon="12.2623909"><ele>-0.5</ele><time>2026-05-02T09:34:11.731Z</time></trkpt><trkpt lat="45.1497384" lon="12.2623208"><ele>-1.0</ele><time>2026-05-02T09:34:13.735Z</time></trkpt><trkpt lat="45.1496279" lon="12.2622474"><ele>-1.5</ele><time>2026-05-02T09:34:15.732Z</time></trkpt><trkpt lat="45.1495194" lon="12.2621715"><ele>-2.0</ele><time>2026-05-02T09:34:17.729Z</time></trkpt><trkpt lat="45.1494216" lon="12.2620999"><ele>-2.0</ele><time>2026-05-02T09:34:19.738Z</time></trkpt><trkpt lat="45.149325" lon="12.26204"><ele>-2.0</ele><time>2026-05-02T09:34:21.734Z</time></trkpt><trkpt lat="45.1492241" lon="12.2619823"><ele>-2.0</ele><time>2026-05-02T09:34:23.734Z</time></trkpt><trkpt lat="45.1491182" lon="12.2619194"><ele>-2.0</ele><time>2026-05-02T09:34:25.739Z</time></trkpt><trkpt lat="45.1490187" lon="12.2618551"><ele>-2.0</ele><time>2026-05-02T09:34:27.735Z</time></trkpt><trkpt lat="45.1489266" lon="12.2617942"><ele>-1.5</ele><time>2026-05-02T09:34:29.736Z</time></trkpt><trkpt lat="45.1488309" lon="12.2617258"><ele>-1.0</ele><time>2026-05-02T09:34:31.742Z</time></trkpt><trkpt lat="45.1487256" lon="12.2616569"><ele>-0.5</ele><time>2026-05-02T09:34:33.739Z</time></trkpt><trkpt lat="45.1486188" lon="12.2615867"><ele>0.0</ele><time>2026-05-02T09:34:35.742Z</time></trkpt><trkpt lat="45.1485097" lon="12.2615126"><ele>-0.25</ele><time>2026-05-02T09:34:37.742Z</time></trkpt><trkpt lat="45.1484023" lon="12.2614411"><ele>-0.5</ele><time>2026-05-02T09:34:39.736Z</time></trkpt><trkpt lat="45.1482942" lon="12.261373"><ele>-0.75</ele><time>2026-05-02T09:34:41.735Z</time></trkpt><trkpt lat="45.1481832" lon="12.261309"><ele>-1.0</ele><time>2026-05-02T09:34:43.735Z</time></trkpt><trkpt lat="45.1480721" lon="12.2612348"><ele>-1.0</ele><time>2026-05-02T09:34:45.733Z</time></trkpt><trkpt lat="45.1479633" lon="12.2611622"><ele>-1.0</ele><time>2026-05-02T09:34:47.736Z</time></trkpt><trkpt lat="45.1478568" lon="12.2610914"><ele>-1.0</ele><time>2026-05-02T09:34:49.73Z</time></trkpt><trkpt lat="45.1477441" lon="12.2610153"><ele>-1.0</ele><time>2026-05-02T09:34:51.732Z</time></trkpt><trkpt lat="45.147636" lon="12.2609454"><ele>-1.0</ele><time>2026-05-02T09:34:53.738Z</time></trkpt><trkpt lat="45.1475268" lon="12.2608814"><ele>-1.0</ele><time>2026-05-02T09:34:55.737Z</time></trkpt><trkpt lat="45.1474173" lon="12.2608143"><ele>-1.0</ele><time>2026-05-02T09:34:57.73Z</time></trkpt><trkpt lat="45.1473063" lon="12.2607468"><ele>-1.0</ele><time>2026-05-02T09:34:59.737Z</time></trkpt><trkpt lat="45.14719" lon="12.2606783"><ele>-0.9999999999999999</ele><time>2026-05-02T09:35:01.735Z</time></trkpt><trkpt lat="45.1471309" lon="12.2606435"><ele>-1.0</ele><time>2026-05-02T09:35:02.739Z</time></trkpt><trkpt lat="45.1470125" lon="12.260579"><ele>-1.0</ele><time>2026-05-02T09:35:04.73Z</time></trkpt><trkpt lat="45.1469535" lon="12.2605434"><ele>-1.0</ele><time>2026-05-02T09:35:05.733Z</time></trkpt><trkpt lat="45.1468963" lon="12.2605057"><ele>-0.9999999999999999</ele><time>2026-05-02T09:35:06.731Z</time></trkpt><trkpt lat="45.1468386" lon="12.2604673"><ele>-1.0</ele><time>2026-05-02T09:35:07.735Z</time></trkpt><trkpt lat="45.1467273" lon="12.2603897"><ele>-0.75</ele><time>2026-05-02T09:35:09.732Z</time></trkpt><trkpt lat="45.1466131" lon="12.2603191"><ele>-0.5</ele><time>2026-05-02T09:35:11.726Z</time></trkpt><trkpt lat="45.1464986" lon="12.2602511"><ele>-0.25</ele><time>2026-05-02T09:35:13.737Z</time></trkpt><trkpt lat="45.1463849" lon="12.2601867"><ele>0.0</ele><time>2026-05-02T09:35:15.736Z</time></trkpt><trkpt lat="45.1462723" lon="12.2601171"><ele>0.0</ele><time>2026-05-02T09:35:17.736Z</time></trkpt><trkpt lat="45.1461636" lon="12.2600499"><ele>0.0</ele><time>2026-05-02T09:35:19.733Z</time></trkpt><trkpt lat="45.1460614" lon="12.2599811"><ele>0.0</ele><time>2026-05-02T09:35:21.732Z</time></trkpt><trkpt lat="45.1459579" lon="12.2599113"><ele>0.0</ele><time>2026-05-02T09:35:23.737Z</time></trkpt><trkpt lat="45.1458522" lon="12.2598343"><ele>-0.5</ele><time>2026-05-02T09:35:25.732Z</time></trkpt><trkpt lat="45.1457441" lon="12.2597665"><ele>-1.0</ele><time>2026-05-02T09:35:27.735Z</time></trkpt><trkpt lat="45.145636" lon="12.2597078"><ele>-1.5</ele><time>2026-05-02T09:35:29.732Z</time></trkpt><trkpt lat="45.1455309" lon="12.2596468"><ele>-2.0</ele><time>2026-05-02T09:35:31.73Z</time></trkpt><trkpt lat="45.1454248" lon="12.2595836"><ele>-2.2</ele><time>2026-05-02T09:35:33.738Z</time></trkpt><trkpt lat="45.1453255" lon="12.259528"><ele>-2.4000000000000004</ele><time>2026-05-02T09:35:35.737Z</time></trkpt><trkpt lat="45.1452323" lon="12.2594815"><ele>-2.5999999999999996</ele><time>2026-05-02T09:35:37.735Z</time></trkpt><trkpt lat="45.1451345" lon="12.2594331"><ele>-2.8</ele><time>2026-05-02T09:35:39.738Z</time></trkpt><trkpt lat="45.1450411" lon="12.2593807"><ele>-3.0</ele><time>2026-05-02T09:35:41.736Z</time></trkpt><trkpt lat="45.1449513" lon="12.2593231"><ele>-2.8</ele><time>2026-05-02T09:35:43.734Z</time></trkpt><trkpt lat="45.1448552" lon="12.2592642"><ele>-2.5999999999999996</ele><time>2026-05-02T09:35:45.73Z</time></trkpt><trkpt lat="45.1447571" lon="12.2592114"><ele>-2.4000000000000004</ele><time>2026-05-02T09:35:47.736Z</time></trkpt><trkpt lat="45.144655" lon="12.2591502"><ele>-2.2</ele><time>2026-05-02T09:35:49.735Z</time></trkpt><trkpt lat="45.1445501" lon="12.2590821"><ele>-2.0</ele><time>2026-05-02T09:35:51.736Z</time></trkpt><trkpt lat="45.1444467" lon="12.2590152"><ele>-2.0</ele><time>2026-05-02T09:35:53.736Z</time></trkpt><trkpt lat="45.1443431" lon="12.2589585"><ele>-2.0</ele><time>2026-05-02T09:35:55.733Z</time></trkpt><trkpt lat="45.1442354" lon="12.2589063"><ele>-2.0</ele><time>2026-05-02T09:35:57.736Z</time></trkpt><trkpt lat="45.1441253" lon="12.2588608"><ele>-2.0</ele><time>2026-05-02T09:35:59.737Z</time></trkpt><trkpt lat="45.1440137" lon="12.2588153"><ele>-1.75</ele><time>2026-05-02T09:36:01.737Z</time></trkpt><trkpt lat="45.1438993" lon="12.258776"><ele>-1.5</ele><time>2026-05-02T09:36:03.741Z</time></trkpt><trkpt lat="45.1437847" lon="12.2587442"><ele>-1.25</ele><time>2026-05-02T09:36:05.735Z</time></trkpt><trkpt lat="45.1436674" lon="12.2587227"><ele>-1.0</ele><time>2026-05-02T09:36:07.738Z</time></trkpt><trkpt lat="45.1435494" lon="12.2587023"><ele>-1.0</ele><time>2026-05-02T09:36:09.741Z</time></trkpt><trkpt lat="45.1434351" lon="12.2586801"><ele>-1.0</ele><time>2026-05-02T09:36:11.738Z</time></trkpt><trkpt lat="45.143323" lon="12.2586558"><ele>-1.0</ele><time>2026-05-02T09:36:13.732Z</time></trkpt><trkpt lat="45.1432102" lon="12.2586342"><ele>-1.0</ele><time>2026-05-02T09:36:15.736Z</time></trkpt><trkpt lat="45.1430947" lon="12.2586135"><ele>-0.75</ele><time>2026-05-02T09:36:17.735Z</time></trkpt><trkpt lat="45.142979" lon="12.2585904"><ele>-0.5</ele><time>2026-05-02T09:36:19.736Z</time></trkpt><trkpt lat="45.1428658" lon="12.258566"><ele>-0.25</ele><time>2026-05-02T09:36:21.73Z</time></trkpt><trkpt lat="45.1427546" lon="12.2585471"><ele>0.0</ele><time>2026-05-02T09:36:23.736Z</time></trkpt><trkpt lat="45.1426394" lon="12.2585274"><ele>0.0</ele><time>2026-05-02T09:36:25.738Z</time></trkpt><trkpt lat="45.1425266" lon="12.2585048"><ele>0.0</ele><time>2026-05-02T09:36:27.735Z</time></trkpt><trkpt lat="45.1424203" lon="12.2584827"><ele>0.0</ele><time>2026-05-02T09:36:29.738Z</time></trkpt><trkpt lat="45.1423181" lon="12.2584606"><ele>0.0</ele><time>2026-05-02T09:36:31.735Z</time></trkpt><trkpt lat="45.1422081" lon="12.2584378"><ele>0.0</ele><time>2026-05-02T09:36:33.736Z</time></trkpt><trkpt lat="45.1420835" lon="12.2584105"><ele>-0.2</ele><time>2026-05-02T09:36:35.738Z</time></trkpt><trkpt lat="45.1420204" lon="12.2583972"><ele>-0.4</ele><time>2026-05-02T09:36:36.744Z</time></trkpt><trkpt lat="45.1419577" lon="12.2583859"><ele>-0.6000000000000001</ele><time>2026-05-02T09:36:37.736Z</time></trkpt><trkpt lat="45.1418361" lon="12.2583632"><ele>-0.8</ele><time>2026-05-02T09:36:39.738Z</time></trkpt><trkpt lat="45.1417133" lon="12.2583441"><ele>-1.0</ele><time>2026-05-02T09:36:41.734Z</time></trkpt><trkpt lat="45.1415917" lon="12.2583249"><ele>-0.75</ele><time>2026-05-02T09:36:43.739Z</time></trkpt><trkpt lat="45.1414678" lon="12.258311"><ele>-0.5</ele><time>2026-05-02T09:36:45.737Z</time></trkpt><trkpt lat="45.1413457" lon="12.2582953"><ele>-0.25</ele><time>2026-05-02T09:36:47.731Z</time></trkpt><trkpt lat="45.1412246" lon="12.2582827"><ele>0.0</ele><time>2026-05-02T09:36:49.733Z</time></trkpt><trkpt lat="45.1411057" lon="12.2582831"><ele>0.0</ele><time>2026-05-02T09:36:51.736Z</time></trkpt><trkpt lat="45.1409913" lon="12.2582869"><ele>0.0</ele><time>2026-05-02T09:36:53.733Z</time></trkpt><trkpt lat="45.1408703" lon="12.2582969"><ele>0.0</ele><time>2026-05-02T09:36:55.735Z</time></trkpt><trkpt lat="45.1407474" lon="12.2583143"><ele>0.0</ele><time>2026-05-02T09:36:57.734Z</time></trkpt><trkpt lat="45.1406273" lon="12.2583371"><ele>-0.6</ele><time>2026-05-02T09:36:59.738Z</time></trkpt><trkpt lat="45.1405644" lon="12.2583533"><ele>-1.2</ele><time>2026-05-02T09:37:00.739Z</time></trkpt><trkpt lat="45.140438" lon="12.2584035"><ele>-1.7999999999999998</ele><time>2026-05-02T09:37:02.739Z</time></trkpt><trkpt lat="45.1403754" lon="12.2584363"><ele>-2.4</ele><time>2026-05-02T09:37:03.737Z</time></trkpt><trkpt lat="45.1403152" lon="12.2584709"><ele>-3.0</ele><time>2026-05-02T09:37:04.737Z</time></trkpt><trkpt lat="45.1401988" lon="12.2585382"><ele>-3.0</ele><time>2026-05-02T09:37:06.736Z</time></trkpt><trkpt lat="45.1401407" lon="12.2585765"><ele>-3.0</ele><time>2026-05-02T09:37:07.741Z</time></trkpt><trkpt lat="45.1400842" lon="12.2586165"><ele>-3.0</ele><time>2026-05-02T09:37:08.737Z</time></trkpt><trkpt lat="45.1399748" lon="12.2586916"><ele>-3.0</ele><time>2026-05-02T09:37:10.731Z</time></trkpt><trkpt lat="45.1398678" lon="12.2587673"><ele>-3.0</ele><time>2026-05-02T09:37:12.741Z</time></trkpt><trkpt lat="45.1397587" lon="12.2588395"><ele>-2.75</ele><time>2026-05-02T09:37:14.734Z</time></trkpt><trkpt lat="45.1396471" lon="12.2589048"><ele>-2.5</ele><time>2026-05-02T09:37:16.736Z</time></trkpt><trkpt lat="45.1395303" lon="12.2589573"><ele>-2.25</ele><time>2026-05-02T09:37:18.736Z</time></trkpt><trkpt lat="45.1394081" lon="12.2589946"><ele>-2.0</ele><time>2026-05-02T09:37:20.737Z</time></trkpt><trkpt lat="45.1392896" lon="12.2590065"><ele>-2.0</ele><time>2026-05-02T09:37:22.738Z</time></trkpt><trkpt lat="45.1391699" lon="12.2590067"><ele>-2.0</ele><time>2026-05-02T09:37:24.729Z</time></trkpt><trkpt lat="45.1390507" lon="12.2590075"><ele>-2.0</ele><time>2026-05-02T09:37:26.737Z</time></trkpt><trkpt lat="45.1389293" lon="12.2590069"><ele>-2.0</ele><time>2026-05-02T09:37:28.734Z</time></trkpt><trkpt lat="45.1388068" lon="12.2590028"><ele>-2.0</ele><time>2026-05-02T09:37:30.735Z</time></trkpt><trkpt lat="45.1386829" lon="12.258994"><ele>-2.0</ele><time>2026-05-02T09:37:32.74Z</time></trkpt><trkpt lat="45.1385608" lon="12.2589753"><ele>-2.0</ele><time>2026-05-02T09:37:34.735Z</time></trkpt><trkpt lat="45.1384428" lon="12.2589377"><ele>-2.0</ele><time>2026-05-02T09:37:36.735Z</time></trkpt><trkpt lat="45.1383291" lon="12.2588866"><ele>-2.0</ele><time>2026-05-02T09:37:38.738Z</time></trkpt><trkpt lat="45.1382168" lon="12.2588316"><ele>-2.0</ele><time>2026-05-02T09:37:40.735Z</time></trkpt><trkpt lat="45.1381095" lon="12.2587704"><ele>-2.0</ele><time>2026-05-02T09:37:42.734Z</time></trkpt><trkpt lat="45.1380051" lon="12.258704"><ele>-2.0</ele><time>2026-05-02T09:37:44.735Z</time></trkpt><trkpt lat="45.1378966" lon="12.2586348"><ele>-2.0</ele><time>2026-05-02T09:37:46.733Z</time></trkpt><trkpt lat="45.1377858" lon="12.2585696"><ele>-2.0</ele><time>2026-05-02T09:37:48.735Z</time></trkpt><trkpt lat="45.1376785" lon="12.2585084"><ele>-2.0</ele><time>2026-05-02T09:37:50.733Z</time></trkpt><trkpt lat="45.1375725" lon="12.2584468"><ele>-2.0</ele><time>2026-05-02T09:37:52.733Z</time></trkpt><trkpt lat="45.1374638" lon="12.2583837"><ele>-2.25</ele><time>2026-05-02T09:37:54.735Z</time></trkpt><trkpt lat="45.1373544" lon="12.2583226"><ele>-2.5</ele><time>2026-05-02T09:37:56.736Z</time></trkpt><trkpt lat="45.1372452" lon="12.2582654"><ele>-2.75</ele><time>2026-05-02T09:37:58.735Z</time></trkpt><trkpt lat="45.1371339" lon="12.2582149"><ele>-3.0</ele><time>2026-05-02T09:38:00.737Z</time></trkpt><trkpt lat="45.1370201" lon="12.2581698"><ele>-3.0</ele><time>2026-05-02T09:38:02.739Z</time></trkpt><trkpt lat="45.1369007" lon="12.2581218"><ele>-3.0</ele><time>2026-05-02T09:38:04.738Z</time></trkpt><trkpt lat="45.1367815" lon="12.2580751"><ele>-3.0</ele><time>2026-05-02T09:38:06.735Z</time></trkpt><trkpt lat="45.1366618" lon="12.2580361"><ele>-3.0</ele><time>2026-05-02T09:38:08.742Z</time></trkpt><trkpt lat="45.1365453" lon="12.2579997"><ele>-2.75</ele><time>2026-05-02T09:38:10.733Z</time></trkpt><trkpt lat="45.1364305" lon="12.2579599"><ele>-2.5</ele><time>2026-05-02T09:38:12.735Z</time></trkpt><trkpt lat="45.1363145" lon="12.2579191"><ele>-2.25</ele><time>2026-05-02T09:38:14.734Z</time></trkpt><trkpt lat="45.1361982" lon="12.2578775"><ele>-2.0</ele><time>2026-05-02T09:38:16.732Z</time></trkpt><trkpt lat="45.1360803" lon="12.2578384"><ele>-2.0</ele><time>2026-05-02T09:38:18.737Z</time></trkpt><trkpt lat="45.1359643" lon="12.2577947"><ele>-2.0</ele><time>2026-05-02T09:38:20.733Z</time></trkpt><trkpt lat="45.1358489" lon="12.2577471"><ele>-2.0</ele><time>2026-05-02T09:38:22.737Z</time></trkpt><trkpt lat="45.1357333" lon="12.2577017"><ele>-2.0</ele><time>2026-05-02T09:38:24.736Z</time></trkpt><trkpt lat="45.1356184" lon="12.2576588"><ele>-2.0</ele><time>2026-05-02T09:38:26.732Z</time></trkpt><trkpt lat="45.1355065" lon="12.2576141"><ele>-2.0</ele><time>2026-05-02T09:38:28.732Z</time></trkpt><trkpt lat="45.1353973" lon="12.2575682"><ele>-2.0</ele><time>2026-05-02T09:38:30.733Z</time></trkpt><trkpt lat="45.1352883" lon="12.2575152"><ele>-2.0</ele><time>2026-05-02T09:38:32.74Z</time></trkpt><trkpt lat="45.1351793" lon="12.257459"><ele>-2.0</ele><time>2026-05-02T09:38:34.736Z</time></trkpt><trkpt lat="45.1350719" lon="12.2574097"><ele>-2.0</ele><time>2026-05-02T09:38:36.74Z</time></trkpt><trkpt lat="45.1349627" lon="12.2573587"><ele>-2.0</ele><time>2026-05-02T09:38:38.737Z</time></trkpt><trkpt lat="45.134855" lon="12.2573114"><ele>-2.0</ele><time>2026-05-02T09:38:40.731Z</time></trkpt><trkpt lat="45.1347483" lon="12.2572624"><ele>-1.5</ele><time>2026-05-02T09:38:42.74Z</time></trkpt><trkpt lat="45.13464" lon="12.2572162"><ele>-1.0</ele><time>2026-05-02T09:38:44.737Z</time></trkpt><trkpt lat="45.1345321" lon="12.2571664"><ele>-0.5</ele><time>2026-05-02T09:38:46.734Z</time></trkpt><trkpt lat="45.1344225" lon="12.2571218"><ele>0.0</ele><time>2026-05-02T09:38:48.736Z</time></trkpt><trkpt lat="45.1343141" lon="12.2570769"><ele>0.0</ele><time>2026-05-02T09:38:50.736Z</time></trkpt><trkpt lat="45.1342053" lon="12.2570367"><ele>0.0</ele><time>2026-05-02T09:38:52.737Z</time></trkpt><trkpt lat="45.1340984" lon="12.2569951"><ele>0.0</ele><time>2026-05-02T09:38:54.737Z</time></trkpt><trkpt lat="45.1339911" lon="12.2569502"><ele>0.0</ele><time>2026-05-02T09:38:56.734Z</time></trkpt><trkpt lat="45.133882" lon="12.2569154"><ele>0.0</ele><time>2026-05-02T09:38:58.736Z</time></trkpt><trkpt lat="45.1337683" lon="12.256875"><ele>-0.25</ele><time>2026-05-02T09:39:00.734Z</time></trkpt><trkpt lat="45.1336555" lon="12.2568255"><ele>-0.5</ele><time>2026-05-02T09:39:02.737Z</time></trkpt><trkpt lat="45.1335493" lon="12.2567874"><ele>-0.75</ele><time>2026-05-02T09:39:04.736Z</time></trkpt><trkpt lat="45.1334385" lon="12.2567543"><ele>-1.0</ele><time>2026-05-02T09:39:06.736Z</time></trkpt><trkpt lat="45.1333278" lon="12.2567226"><ele>-1.0</ele><time>2026-05-02T09:39:08.74Z</time></trkpt><trkpt lat="45.1332135" lon="12.2566903"><ele>-1.0</ele><time>2026-05-02T09:39:10.735Z</time></trkpt><trkpt lat="45.1330967" lon="12.256658"><ele>-1.0</ele><time>2026-05-02T09:39:12.739Z</time></trkpt><trkpt lat="45.1329827" lon="12.2566224"><ele>-1.0</ele><time>2026-05-02T09:39:14.731Z</time></trkpt><trkpt lat="45.1328695" lon="12.2565911"><ele>-1.0</ele><time>2026-05-02T09:39:16.73Z</time></trkpt><trkpt lat="45.1327535" lon="12.2565586"><ele>-1.0</ele><time>2026-05-02T09:39:18.734Z</time></trkpt><trkpt lat="45.1326376" lon="12.2565251"><ele>-1.0</ele><time>2026-05-02T09:39:20.736Z</time></trkpt><trkpt lat="45.1325241" lon="12.256491"><ele>-1.0</ele><time>2026-05-02T09:39:22.736Z</time></trkpt><trkpt lat="45.1324085" lon="12.2564549"><ele>-1.25</ele><time>2026-05-02T09:39:24.735Z</time></trkpt><trkpt lat="45.1322923" lon="12.2564181"><ele>-1.5</ele><time>2026-05-02T09:39:26.73Z</time></trkpt><trkpt lat="45.132175" lon="12.2563826"><ele>-1.75</ele><time>2026-05-02T09:39:28.735Z</time></trkpt><trkpt lat="45.1320557" lon="12.2563508"><ele>-2.0</ele><time>2026-05-02T09:39:30.741Z</time></trkpt><trkpt lat="45.1319389" lon="12.2563232"><ele>-2.0</ele><time>2026-05-02T09:39:32.742Z</time></trkpt><trkpt lat="45.1318253" lon="12.2563031"><ele>-2.0</ele><time>2026-05-02T09:39:34.734Z</time></trkpt><trkpt lat="45.1317124" lon="12.2562831"><ele>-2.0</ele><time>2026-05-02T09:39:36.733Z</time></trkpt><trkpt lat="45.1316021" lon="12.2562643"><ele>-2.0</ele><time>2026-05-02T09:39:38.735Z</time></trkpt><trkpt lat="45.1314858" lon="12.2562386"><ele>-2.0</ele><time>2026-05-02T09:39:40.734Z</time></trkpt><trkpt lat="45.1313704" lon="12.2562121"><ele>-2.0</ele><time>2026-05-02T09:39:42.738Z</time></trkpt><trkpt lat="45.1312601" lon="12.256169"><ele>-2.0</ele><time>2026-05-02T09:39:44.736Z</time></trkpt><trkpt lat="45.1311542" lon="12.2561103"><ele>-2.0</ele><time>2026-05-02T09:39:46.732Z</time></trkpt><trkpt lat="45.1310521" lon="12.2560375"><ele>-2.0</ele><time>2026-05-02T09:39:48.74Z</time></trkpt><trkpt lat="45.1309546" lon="12.255958"><ele>-2.0</ele><time>2026-05-02T09:39:50.735Z</time></trkpt><trkpt lat="45.1308591" lon="12.255876"><ele>-2.0</ele><time>2026-05-02T09:39:52.739Z</time></trkpt><trkpt lat="45.1307666" lon="12.2557857"><ele>-2.0</ele><time>2026-05-02T09:39:54.735Z</time></trkpt><trkpt lat="45.1306767" lon="12.2556909"><ele>-2.0</ele><time>2026-05-02T09:39:56.736Z</time></trkpt><trkpt lat="45.1305917" lon="12.2555847"><ele>-1.5</ele><time>2026-05-02T09:39:58.733Z</time></trkpt><trkpt lat="45.1305015" lon="12.2554773"><ele>-1.0</ele><time>2026-05-02T09:40:00.733Z</time></trkpt><trkpt lat="45.1304121" lon="12.2553766"><ele>-0.5</ele><time>2026-05-02T09:40:02.741Z</time></trkpt><trkpt lat="45.1303201" lon="12.2552782"><ele>0.0</ele><time>2026-05-02T09:40:04.736Z</time></trkpt><trkpt lat="45.1302294" lon="12.255186"><ele>0.0</ele><time>2026-05-02T09:40:06.737Z</time></trkpt><trkpt lat="45.130138" lon="12.2550956"><ele>0.0</ele><time>2026-05-02T09:40:08.735Z</time></trkpt><trkpt lat="45.1300406" lon="12.2550001"><ele>0.0</ele><time>2026-05-02T09:40:10.731Z</time></trkpt><trkpt lat="45.1299479" lon="12.2548998"><ele>0.0</ele><time>2026-05-02T09:40:12.733Z</time></trkpt><trkpt lat="45.1298566" lon="12.2547974"><ele>0.0</ele><time>2026-05-02T09:40:14.735Z</time></trkpt><trkpt lat="45.1297563" lon="12.2546957"><ele>0.0</ele><time>2026-05-02T09:40:16.74Z</time></trkpt><trkpt lat="45.1296573" lon="12.2545994"><ele>0.0</ele><time>2026-05-02T09:40:18.737Z</time></trkpt><trkpt lat="45.1295638" lon="12.2545026"><ele>0.0</ele><time>2026-05-02T09:40:20.739Z</time></trkpt><trkpt lat="45.1294706" lon="12.254406"><ele>0.0</ele><time>2026-05-02T09:40:22.743Z</time></trkpt><trkpt lat="45.1293768" lon="12.2543066"><ele>0.0</ele><time>2026-05-02T09:40:24.74Z</time></trkpt><trkpt lat="45.1292863" lon="12.2542035"><ele>0.0</ele><time>2026-05-02T09:40:26.733Z</time></trkpt><trkpt lat="45.1292006" lon="12.2541024"><ele>0.0</ele><time>2026-05-02T09:40:28.734Z</time></trkpt><trkpt lat="45.1291133" lon="12.2539957"><ele>-0.25</ele><time>2026-05-02T09:40:30.739Z</time></trkpt><trkpt lat="45.1290221" lon="12.2538906"><ele>-0.5</ele><time>2026-05-02T09:40:32.734Z</time></trkpt><trkpt lat="45.1289276" lon="12.2537933"><ele>-0.75</ele><time>2026-05-02T09:40:34.737Z</time></trkpt><trkpt lat="45.1288368" lon="12.253694"><ele>-1.0</ele><time>2026-05-02T09:40:36.732Z</time></trkpt><trkpt lat="45.1287411" lon="12.2535939"><ele>-1.0</ele><time>2026-05-02T09:40:38.734Z</time></trkpt><trkpt lat="45.128646" lon="12.2535004"><ele>-1.0</ele><time>2026-05-02T09:40:40.735Z</time></trkpt><trkpt lat="45.1285475" lon="12.2534118"><ele>-1.0</ele><time>2026-05-02T09:40:42.74Z</time></trkpt><trkpt lat="45.1284454" lon="12.2533374"><ele>-1.0</ele><time>2026-05-02T09:40:44.732Z</time></trkpt><trkpt lat="45.128341" lon="12.2532797"><ele>-1.0</ele><time>2026-05-02T09:40:46.733Z</time></trkpt><trkpt lat="45.1282307" lon="12.2532399"><ele>-1.0</ele><time>2026-05-02T09:40:48.734Z</time></trkpt><trkpt lat="45.1281198" lon="12.2532116"><ele>-1.0</ele><time>2026-05-02T09:40:50.732Z</time></trkpt><trkpt lat="45.1280157" lon="12.2531865"><ele>-1.0</ele><time>2026-05-02T09:40:52.743Z</time></trkpt><trkpt lat="45.1279217" lon="12.2531585"><ele>-1.0</ele><time>2026-05-02T09:40:54.737Z</time></trkpt><trkpt lat="45.1278142" lon="12.2531246"><ele>-1.25</ele><time>2026-05-02T09:40:56.733Z</time></trkpt><trkpt lat="45.1276976" lon="12.2530921"><ele>-1.5</ele><time>2026-05-02T09:40:58.732Z</time></trkpt><trkpt lat="45.1275835" lon="12.2530554"><ele>-1.75</ele><time>2026-05-02T09:41:00.736Z</time></trkpt><trkpt lat="45.1274715" lon="12.2530108"><ele>-2.0</ele><time>2026-05-02T09:41:02.734Z</time></trkpt><trkpt lat="45.1273611" lon="12.2529584"><ele>-2.25</ele><time>2026-05-02T09:41:04.738Z</time></trkpt><trkpt lat="45.1272492" lon="12.2528995"><ele>-2.5</ele><time>2026-05-02T09:41:06.733Z</time></trkpt><trkpt lat="45.1271367" lon="12.2528422"><ele>-2.75</ele><time>2026-05-02T09:41:08.729Z</time></trkpt><trkpt lat="45.127024" lon="12.2527863"><ele>-3.0</ele><time>2026-05-02T09:41:10.732Z</time></trkpt><trkpt lat="45.1269125" lon="12.2527325"><ele>-3.0</ele><time>2026-05-02T09:41:12.739Z</time></trkpt><trkpt lat="45.1268005" lon="12.2526806"><ele>-3.0</ele><time>2026-05-02T09:41:14.731Z</time></trkpt><trkpt lat="45.1266874" lon="12.2526321"><ele>-3.0</ele><time>2026-05-02T09:41:16.734Z</time></trkpt><trkpt lat="45.1265781" lon="12.2525891"><ele>-3.0</ele><time>2026-05-02T09:41:18.73Z</time></trkpt><trkpt lat="45.1264681" lon="12.252544"><ele>-2.75</ele><time>2026-05-02T09:41:20.733Z</time></trkpt><trkpt lat="45.126356" lon="12.252499"><ele>-2.5</ele><time>2026-05-02T09:41:22.739Z</time></trkpt><trkpt lat="45.1262403" lon="12.2524634"><ele>-2.25</ele><time>2026-05-02T09:41:24.737Z</time></trkpt><trkpt lat="45.1261249" lon="12.252434"><ele>-2.0</ele><time>2026-05-02T09:41:26.735Z</time></trkpt><trkpt lat="45.1260114" lon="12.2524106"><ele>-2.0</ele><time>2026-05-02T09:41:28.735Z</time></trkpt><trkpt lat="45.125895" lon="12.252383"><ele>-2.0</ele><time>2026-05-02T09:41:30.734Z</time></trkpt><trkpt lat="45.1257808" lon="12.2523488"><ele>-2.0</ele><time>2026-05-02T09:41:32.743Z</time></trkpt><trkpt lat="45.1256688" lon="12.252315"><ele>-2.0</ele><time>2026-05-02T09:41:34.735Z</time></trkpt><trkpt lat="45.1255592" lon="12.2522835"><ele>-1.75</ele><time>2026-05-02T09:41:36.737Z</time></trkpt><trkpt lat="45.125448" lon="12.2522474"><ele>-1.5</ele><time>2026-05-02T09:41:38.74Z</time></trkpt><trkpt lat="45.1253346" lon="12.2522128"><ele>-1.25</ele><time>2026-05-02T09:41:40.731Z</time></trkpt><trkpt lat="45.1252214" lon="12.2521787"><ele>-1.0</ele><time>2026-05-02T09:41:42.74Z</time></trkpt><trkpt lat="45.1251074" lon="12.2521516"><ele>-1.0</ele><time>2026-05-02T09:41:44.735Z</time></trkpt><trkpt lat="45.1249937" lon="12.2521169"><ele>-1.0</ele><time>2026-05-02T09:41:46.734Z</time></trkpt><trkpt lat="45.1248802" lon="12.2520829"><ele>-1.0</ele><time>2026-05-02T09:41:48.733Z</time></trkpt><trkpt lat="45.1247658" lon="12.2520635"><ele>-1.0</ele><time>2026-05-02T09:41:50.732Z</time></trkpt><trkpt lat="45.124651" lon="12.252039"><ele>-1.0</ele><time>2026-05-02T09:41:52.739Z</time></trkpt><trkpt lat="45.124535" lon="12.2520034"><ele>-1.0</ele><time>2026-05-02T09:41:54.737Z</time></trkpt><trkpt lat="45.1244231" lon="12.2519594"><ele>-1.0</ele><time>2026-05-02T09:41:56.738Z</time></trkpt><trkpt lat="45.1243084" lon="12.2519056"><ele>-1.0</ele><time>2026-05-02T09:41:58.734Z</time></trkpt><trkpt lat="45.1241965" lon="12.2518461"><ele>-1.0</ele><time>2026-05-02T09:42:00.736Z</time></trkpt><trkpt lat="45.1240892" lon="12.2517797"><ele>-1.0</ele><time>2026-05-02T09:42:02.742Z</time></trkpt><trkpt lat="45.1239815" lon="12.2517133"><ele>-1.0</ele><time>2026-05-02T09:42:04.736Z</time></trkpt><trkpt lat="45.1238729" lon="12.2516436"><ele>-1.0</ele><time>2026-05-02T09:42:06.739Z</time></trkpt><trkpt lat="45.1237629" lon="12.251575"><ele>-1.0</ele><time>2026-05-02T09:42:08.736Z</time></trkpt><trkpt lat="45.1236552" lon="12.2515007"><ele>-1.0</ele><time>2026-05-02T09:42:10.737Z</time></trkpt><trkpt lat="45.1235478" lon="12.251423"><ele>-1.0</ele><time>2026-05-02T09:42:12.737Z</time></trkpt><trkpt lat="45.1234367" lon="12.2513524"><ele>-1.0</ele><time>2026-05-02T09:42:14.736Z</time></trkpt><trkpt lat="45.1233208" lon="12.2512917"><ele>-1.2000000000000002</ele><time>2026-05-02T09:42:16.739Z</time></trkpt><trkpt lat="45.1232616" lon="12.251261"><ele>-1.4000000000000001</ele><time>2026-05-02T09:42:17.738Z</time></trkpt><trkpt lat="45.1231466" lon="12.251199"><ele>-1.6</ele><time>2026-05-02T09:42:19.737Z</time></trkpt><trkpt lat="45.1230365" lon="12.2511437"><ele>-1.8</ele><time>2026-05-02T09:42:21.733Z</time></trkpt><trkpt lat="45.1229273" lon="12.2510867"><ele>-2.0</ele><time>2026-05-02T09:42:23.733Z</time></trkpt><trkpt lat="45.1228177" lon="12.2510351"><ele>-2.2</ele><time>2026-05-02T09:42:25.732Z</time></trkpt><trkpt lat="45.1227051" lon="12.250987"><ele>-2.4000000000000004</ele><time>2026-05-02T09:42:27.733Z</time></trkpt><trkpt lat="45.1225972" lon="12.2509385"><ele>-2.5999999999999996</ele><time>2026-05-02T09:42:29.733Z</time></trkpt><trkpt lat="45.1224916" lon="12.2508958"><ele>-2.8</ele><time>2026-05-02T09:42:31.733Z</time></trkpt><trkpt lat="45.1223891" lon="12.2508567"><ele>-3.0</ele><time>2026-05-02T09:42:33.738Z</time></trkpt><trkpt lat="45.1222906" lon="12.2508233"><ele>-3.0</ele><time>2026-05-02T09:42:35.732Z</time></trkpt><trkpt lat="45.1221934" lon="12.2507903"><ele>-3.0</ele><time>2026-05-02T09:42:37.739Z</time></trkpt><trkpt lat="45.1220974" lon="12.2507618"><ele>-3.0</ele><time>2026-05-02T09:42:39.738Z</time></trkpt><trkpt lat="45.12199" lon="12.2507295"><ele>-3.0</ele><time>2026-05-02T09:42:41.734Z</time></trkpt><trkpt lat="45.1218803" lon="12.250694"><ele>-3.0</ele><time>2026-05-02T09:42:43.736Z</time></trkpt><trkpt lat="45.1217699" lon="12.250655"><ele>-2.75</ele><time>2026-05-02T09:42:45.739Z</time></trkpt><trkpt lat="45.1216557" lon="12.2506118"><ele>-2.5</ele><time>2026-05-02T09:42:47.739Z</time></trkpt><trkpt lat="45.1215465" lon="12.250569"><ele>-2.25</ele><time>2026-05-02T09:42:49.74Z</time></trkpt><trkpt lat="45.1214366" lon="12.250527"><ele>-2.0</ele><time>2026-05-02T09:42:51.741Z</time></trkpt><trkpt lat="45.1213243" lon="12.2504837"><ele>-2.0</ele><time>2026-05-02T09:42:53.734Z</time></trkpt><trkpt lat="45.1212102" lon="12.2504404"><ele>-2.0</ele><time>2026-05-02T09:42:55.732Z</time></trkpt><trkpt lat="45.1210981" lon="12.2503971"><ele>-2.0</ele><time>2026-05-02T09:42:57.737Z</time></trkpt><trkpt lat="45.1209866" lon="12.2503501"><ele>-2.0</ele><time>2026-05-02T09:42:59.734Z</time></trkpt><trkpt lat="45.1208742" lon="12.2503048"><ele>-2.0</ele><time>2026-05-02T09:43:01.732Z</time></trkpt><trkpt lat="45.1207623" lon="12.250261"><ele>-2.0</ele><time>2026-05-02T09:43:03.737Z</time></trkpt><trkpt lat="45.1206522" lon="12.2502166"><ele>-2.0</ele><time>2026-05-02T09:43:05.734Z</time></trkpt><trkpt lat="45.1205396" lon="12.2501716"><ele>-2.0</ele><time>2026-05-02T09:43:07.733Z</time></trkpt><trkpt lat="45.1204258" lon="12.250125"><ele>-1.8</ele><time>2026-05-02T09:43:09.741Z</time></trkpt><trkpt lat="45.1203123" lon="12.2500747"><ele>-1.6</ele><time>2026-05-02T09:43:11.738Z</time></trkpt><trkpt lat="45.1202003" lon="12.2500216"><ele>-1.4000000000000001</ele><time>2026-05-02T09:43:13.737Z</time></trkpt><trkpt lat="45.1201403" lon="12.2499936"><ele>-1.2000000000000002</ele><time>2026-05-02T09:43:14.741Z</time></trkpt><trkpt lat="45.1200258" lon="12.2499406"><ele>-1.0</ele><time>2026-05-02T09:43:16.735Z</time></trkpt><trkpt lat="45.1199176" lon="12.2498822"><ele>-1.0</ele><time>2026-05-02T09:43:18.735Z</time></trkpt><trkpt lat="45.1198113" lon="12.2498115"><ele>-1.0</ele><time>2026-05-02T09:43:20.739Z</time></trkpt><trkpt lat="45.1197064" lon="12.2497258"><ele>-1.0</ele><time>2026-05-02T09:43:22.74Z</time></trkpt><trkpt lat="45.1196014" lon="12.2496369"><ele>-1.0</ele><time>2026-05-02T09:43:24.739Z</time></trkpt><trkpt lat="45.1194966" lon="12.2495415"><ele>-1.0</ele><time>2026-05-02T09:43:26.734Z</time></trkpt><trkpt lat="45.1193943" lon="12.2494486"><ele>-1.0</ele><time>2026-05-02T09:43:28.731Z</time></trkpt><trkpt lat="45.1192902" lon="12.2493636"><ele>-1.0</ele><time>2026-05-02T09:43:30.735Z</time></trkpt><trkpt lat="45.1191887" lon="12.2492844"><ele>-1.0</ele><time>2026-05-02T09:43:32.741Z</time></trkpt><trkpt lat="45.1190882" lon="12.2492093"><ele>-1.25</ele><time>2026-05-02T09:43:34.737Z</time></trkpt><trkpt lat="45.1189857" lon="12.2491411"><ele>-1.5</ele><time>2026-05-02T09:43:36.733Z</time></trkpt><trkpt lat="45.1188835" lon="12.2490691"><ele>-1.75</ele><time>2026-05-02T09:43:38.733Z</time></trkpt><trkpt lat="45.1187809" lon="12.2489961"><ele>-2.0</ele><time>2026-05-02T09:43:40.733Z</time></trkpt><trkpt lat="45.1186767" lon="12.2489227"><ele>-2.0</ele><time>2026-05-02T09:43:42.741Z</time></trkpt><trkpt lat="45.1185737" lon="12.248854"><ele>-2.0</ele><time>2026-05-02T09:43:44.738Z</time></trkpt><trkpt lat="45.1184693" lon="12.2487806"><ele>-2.0</ele><time>2026-05-02T09:43:46.739Z</time></trkpt><trkpt lat="45.1183638" lon="12.2487104"><ele>-2.0</ele><time>2026-05-02T09:43:48.737Z</time></trkpt><trkpt lat="45.1182591" lon="12.248646"><ele>-1.5</ele><time>2026-05-02T09:43:50.733Z</time></trkpt><trkpt lat="45.1181557" lon="12.2485796"><ele>-1.0</ele><time>2026-05-02T09:43:52.737Z</time></trkpt><trkpt lat="45.1180546" lon="12.2485149"><ele>-0.5</ele><time>2026-05-02T09:43:54.738Z</time></trkpt><trkpt lat="45.117951" lon="12.2484469"><ele>0.0</ele><time>2026-05-02T09:43:56.738Z</time></trkpt><trkpt lat="45.1178478" lon="12.2483834"><ele>0.0</ele><time>2026-05-02T09:43:58.738Z</time></trkpt><trkpt lat="45.117745" lon="12.2483195"><ele>0.0</ele><time>2026-05-02T09:44:00.736Z</time></trkpt><trkpt lat="45.1176409" lon="12.2482519"><ele>0.0</ele><time>2026-05-02T09:44:02.737Z</time></trkpt><trkpt lat="45.1175388" lon="12.2481883"><ele>0.0</ele><time>2026-05-02T09:44:04.736Z</time></trkpt><trkpt lat="45.1174379" lon="12.2481255"><ele>0.0</ele><time>2026-05-02T09:44:06.739Z</time></trkpt><trkpt lat="45.1173347" lon="12.2480654"><ele>-0.25</ele><time>2026-05-02T09:44:08.735Z</time></trkpt><trkpt lat="45.1172321" lon="12.2480063"><ele>-0.5</ele><time>2026-05-02T09:44:10.733Z</time></trkpt><trkpt lat="45.1171243" lon="12.2479519"><ele>-0.75</ele><time>2026-05-02T09:44:12.742Z</time></trkpt><trkpt lat="45.1170137" lon="12.2478998"><ele>-1.0</ele><time>2026-05-02T09:44:14.735Z</time></trkpt><trkpt lat="45.116903" lon="12.2478534"><ele>-1.0</ele><time>2026-05-02T09:44:16.735Z</time></trkpt><trkpt lat="45.1167928" lon="12.2478089"><ele>-1.0</ele><time>2026-05-02T09:44:18.734Z</time></trkpt><trkpt lat="45.1166823" lon="12.2477637"><ele>-1.0</ele><time>2026-05-02T09:44:20.736Z</time></trkpt><trkpt lat="45.116572" lon="12.2477178"><ele>-1.0</ele><time>2026-05-02T09:44:22.738Z</time></trkpt><trkpt lat="45.1164637" lon="12.2476687"><ele>-1.0</ele><time>2026-05-02T09:44:24.74Z</time></trkpt><trkpt lat="45.1163525" lon="12.2476201"><ele>-1.0</ele><time>2026-05-02T09:44:26.732Z</time></trkpt><trkpt lat="45.1162444" lon="12.2475682"><ele>-1.0</ele><time>2026-05-02T09:44:28.734Z</time></trkpt><trkpt lat="45.1161342" lon="12.2475135"><ele>-1.0</ele><time>2026-05-02T09:44:30.738Z</time></trkpt><trkpt lat="45.1160268" lon="12.2474646"><ele>-1.0</ele><time>2026-05-02T09:44:32.74Z</time></trkpt><trkpt lat="45.1159185" lon="12.2474189"><ele>-1.0</ele><time>2026-05-02T09:44:34.733Z</time></trkpt><trkpt lat="45.115806" lon="12.2473692"><ele>-1.0</ele><time>2026-05-02T09:44:36.741Z</time></trkpt><trkpt lat="45.1156947" lon="12.2473208"><ele>-1.0</ele><time>2026-05-02T09:44:38.734Z</time></trkpt><trkpt lat="45.1155896" lon="12.2472734"><ele>-1.4</ele><time>2026-05-02T09:44:40.736Z</time></trkpt><trkpt lat="45.1154883" lon="12.2472274"><ele>-1.8</ele><time>2026-05-02T09:44:42.741Z</time></trkpt><trkpt lat="45.1153833" lon="12.2471789"><ele>-2.1999999999999997</ele><time>2026-05-02T09:44:44.737Z</time></trkpt><trkpt lat="45.1152771" lon="12.2471288"><ele>-2.6</ele><time>2026-05-02T09:44:46.739Z</time></trkpt><trkpt lat="45.11517" lon="12.2470786"><ele>-3.0</ele><time>2026-05-02T09:44:48.737Z</time></trkpt><trkpt lat="45.1150609" lon="12.2470267"><ele>-3.0</ele><time>2026-05-02T09:44:50.734Z</time></trkpt><trkpt lat="45.1149562" lon="12.2469759"><ele>-3.0</ele><time>2026-05-02T09:44:52.744Z</time></trkpt><trkpt lat="45.1148489" lon="12.2469316"><ele>-3.0</ele><time>2026-05-02T09:44:54.735Z</time></trkpt><trkpt lat="45.1147377" lon="12.2468867"><ele>-3.0</ele><time>2026-05-02T09:44:56.734Z</time></trkpt><trkpt lat="45.1146318" lon="12.2468428"><ele>-3.0</ele><time>2026-05-02T09:44:58.739Z</time></trkpt><trkpt lat="45.1145255" lon="12.2468013"><ele>-3.2</ele><time>2026-05-02T09:45:00.736Z</time></trkpt><trkpt lat="45.1144186" lon="12.2467578"><ele>-3.4</ele><time>2026-05-02T09:45:02.744Z</time></trkpt><trkpt lat="45.1143144" lon="12.2467111"><ele>-3.6000000000000005</ele><time>2026-05-02T09:45:04.729Z</time></trkpt><trkpt lat="45.1142095" lon="12.2466597"><ele>-3.8000000000000003</ele><time>2026-05-02T09:45:06.734Z</time></trkpt><trkpt lat="45.114103" lon="12.2466111"><ele>-4.0</ele><time>2026-05-02T09:45:08.733Z</time></trkpt><trkpt lat="45.1139934" lon="12.2465613"><ele>-3.5</ele><time>2026-05-02T09:45:10.735Z</time></trkpt><trkpt lat="45.1138831" lon="12.2465094"><ele>-3.0</ele><time>2026-05-02T09:45:12.735Z</time></trkpt><trkpt lat="45.1137763" lon="12.2464603"><ele>-2.5</ele><time>2026-05-02T09:45:14.736Z</time></trkpt><trkpt lat="45.1136686" lon="12.2464118"><ele>-2.0</ele><time>2026-05-02T09:45:16.737Z</time></trkpt><trkpt lat="45.1135638" lon="12.2463668"><ele>-2.0</ele><time>2026-05-02T09:45:18.736Z</time></trkpt><trkpt lat="45.1134568" lon="12.2463197"><ele>-2.0</ele><time>2026-05-02T09:45:20.733Z</time></trkpt><trkpt lat="45.1133484" lon="12.2462718"><ele>-2.0</ele><time>2026-05-02T09:45:22.744Z</time></trkpt><trkpt lat="45.1132387" lon="12.2462234"><ele>-2.0</ele><time>2026-05-02T09:45:24.742Z</time></trkpt><trkpt lat="45.1131344" lon="12.2461776"><ele>-1.8</ele><time>2026-05-02T09:45:26.739Z</time></trkpt><trkpt lat="45.1130282" lon="12.2461335"><ele>-1.6</ele><time>2026-05-02T09:45:28.741Z</time></trkpt><trkpt lat="45.1129217" lon="12.2460915"><ele>-1.4000000000000001</ele><time>2026-05-02T09:45:30.736Z</time></trkpt><trkpt lat="45.1128163" lon="12.2460474"><ele>-1.2000000000000002</ele><time>2026-05-02T09:45:32.734Z</time></trkpt><trkpt lat="45.1127131" lon="12.2460015"><ele>-1.0</ele><time>2026-05-02T09:45:34.736Z</time></trkpt><trkpt lat="45.1126094" lon="12.2459562"><ele>-1.0</ele><time>2026-05-02T09:45:36.739Z</time></trkpt><trkpt lat="45.1125095" lon="12.2459116"><ele>-1.0</ele><time>2026-05-02T09:45:38.738Z</time></trkpt><trkpt lat="45.1124072" lon="12.2458632"><ele>-1.0</ele><time>2026-05-02T09:45:40.732Z</time></trkpt><trkpt lat="45.112302" lon="12.2458134"><ele>-1.0</ele><time>2026-05-02T09:45:42.744Z</time></trkpt><trkpt lat="45.1121935" lon="12.2457639"><ele>-1.0</ele><time>2026-05-02T09:45:44.739Z</time></trkpt><trkpt lat="45.1120861" lon="12.245718"><ele>-1.0</ele><time>2026-05-02T09:45:46.736Z</time></trkpt><trkpt lat="45.1119787" lon="12.2456731"><ele>-1.0</ele><time>2026-05-02T09:45:48.733Z</time></trkpt><trkpt lat="45.1118739" lon="12.2456344"><ele>-1.0</ele><time>2026-05-02T09:45:50.732Z</time></trkpt><trkpt lat="45.1117632" lon="12.245599"><ele>-1.0</ele><time>2026-05-02T09:45:52.741Z</time></trkpt><trkpt lat="45.1116532" lon="12.2455743"><ele>-1.0</ele><time>2026-05-02T09:45:54.738Z</time></trkpt><trkpt lat="45.1115372" lon="12.2455534"><ele>-1.0</ele><time>2026-05-02T09:45:56.733Z</time></trkpt><trkpt lat="45.1114212" lon="12.2455403"><ele>-1.0</ele><time>2026-05-02T09:45:58.734Z</time></trkpt><trkpt lat="45.1113117" lon="12.245535"><ele>-1.0</ele><time>2026-05-02T09:46:00.733Z</time></trkpt><trkpt lat="45.1112084" lon="12.2455452"><ele>-1.0</ele><time>2026-05-02T09:46:02.737Z</time></trkpt><trkpt lat="45.1111068" lon="12.2455513"><ele>-1.0</ele><time>2026-05-02T09:46:04.734Z</time></trkpt><trkpt lat="45.1110003" lon="12.2455641"><ele>-1.0</ele><time>2026-05-02T09:46:06.734Z</time></trkpt><trkpt lat="45.1108945" lon="12.2455644"><ele>-1.0</ele><time>2026-05-02T09:46:08.74Z</time></trkpt><trkpt lat="45.1107851" lon="12.2455615"><ele>-1.0</ele><time>2026-05-02T09:46:10.737Z</time></trkpt><trkpt lat="45.1106709" lon="12.2455784"><ele>-1.0</ele><time>2026-05-02T09:46:12.738Z</time></trkpt><trkpt lat="45.1105618" lon="12.2455962"><ele>-1.0</ele><time>2026-05-02T09:46:14.734Z</time></trkpt><trkpt lat="45.1104527" lon="12.245585"><ele>-0.6000000000000001</ele><time>2026-05-02T09:46:16.735Z</time></trkpt><trkpt lat="45.1103473" lon="12.2455514"><ele>-0.20000000000000007</ele><time>2026-05-02T09:46:18.736Z</time></trkpt><trkpt lat="45.1102407" lon="12.2455366"><ele>0.20000000000000007</ele><time>2026-05-02T09:46:20.735Z</time></trkpt><trkpt lat="45.1101368" lon="12.2455485"><ele>0.6000000000000001</ele><time>2026-05-02T09:46:22.739Z</time></trkpt><trkpt lat="45.1100329" lon="12.2455671"><ele>1.0</ele><time>2026-05-02T09:46:24.739Z</time></trkpt><trkpt lat="45.1099329" lon="12.2455877"><ele>1.4</ele><time>2026-05-02T09:46:26.735Z</time></trkpt><trkpt lat="45.1098322" lon="12.2455987"><ele>1.8</ele><time>2026-05-02T09:46:28.736Z</time></trkpt><trkpt lat="45.1097337" lon="12.2456098"><ele>2.1999999999999997</ele><time>2026-05-02T09:46:30.739Z</time></trkpt><trkpt lat="45.1096398" lon="12.2456179"><ele>2.6</ele><time>2026-05-02T09:46:32.745Z</time></trkpt><trkpt lat="45.109548" lon="12.2456178"><ele>3.0</ele><time>2026-05-02T09:46:34.737Z</time></trkpt><trkpt lat="45.1094572" lon="12.2456199"><ele>3.0</ele><time>2026-05-02T09:46:36.736Z</time></trkpt><trkpt lat="45.109369" lon="12.2456242"><ele>3.0</ele><time>2026-05-02T09:46:38.74Z</time></trkpt><trkpt lat="45.1092936" lon="12.2456332"><ele>3.0</ele><time>2026-05-02T09:46:40.73Z</time></trkpt><trkpt lat="45.1092294" lon="12.2456518"><ele>3.0</ele><time>2026-05-02T09:46:42.732Z</time></trkpt><trkpt lat="45.1091484" lon="12.2456863"><ele>3.0</ele><time>2026-05-02T09:46:45.735Z</time></trkpt><trkpt lat="45.1090834" lon="12.2457368"><ele>3.0</ele><time>2026-05-02T09:47:08.734Z</time></trkpt><trkpt lat="45.1090906" lon="12.2458626"><ele>2.8333333333333335</ele><time>2026-05-02T09:47:11.73Z</time></trkpt><trkpt lat="45.1091087" lon="12.2459695"><ele>2.6666666666666665</ele><time>2026-05-02T09:47:13.737Z</time></trkpt><trkpt lat="45.1091257" lon="12.2460762"><ele>2.5</ele><time>2026-05-02T09:47:15.732Z</time></trkpt><trkpt lat="45.1091498" lon="12.2461876"><ele>2.333333333333333</ele><time>2026-05-02T09:47:17.734Z</time></trkpt><trkpt lat="45.1091783" lon="12.2463019"><ele>2.1666666666666665</ele><time>2026-05-02T09:47:19.739Z</time></trkpt><trkpt lat="45.1092064" lon="12.2464219"><ele>2.0</ele><time>2026-05-02T09:47:21.739Z</time></trkpt><trkpt lat="45.1092381" lon="12.2465412"><ele>1.8333333333333333</ele><time>2026-05-02T09:47:23.735Z</time></trkpt><trkpt lat="45.1092718" lon="12.2466617"><ele>1.6666666666666665</ele><time>2026-05-02T09:47:25.735Z</time></trkpt><trkpt lat="45.1093048" lon="12.2467742"><ele>1.5</ele><time>2026-05-02T09:47:27.73Z</time></trkpt><trkpt lat="45.1093372" lon="12.2468813"><ele>1.3333333333333333</ele><time>2026-05-02T09:47:29.738Z</time></trkpt><trkpt lat="45.1093604" lon="12.2469876"><ele>1.1666666666666665</ele><time>2026-05-02T09:47:31.739Z</time></trkpt><trkpt lat="45.1093792" lon="12.2470907"><ele>1.0</ele><time>2026-05-02T09:47:33.735Z</time></trkpt><trkpt lat="45.1094051" lon="12.247186"><ele>0.9999999999999999</ele><time>2026-05-02T09:47:35.73Z</time></trkpt><trkpt lat="45.1094317" lon="12.2472809"><ele>1.0</ele><time>2026-05-02T09:47:37.74Z</time></trkpt><trkpt lat="45.1094599" lon="12.247378"><ele>1.0</ele><time>2026-05-02T09:47:39.737Z</time></trkpt><trkpt lat="45.1094844" lon="12.2474804"><ele>1.0</ele><time>2026-05-02T09:47:41.741Z</time></trkpt><trkpt lat="45.1095072" lon="12.2475873"><ele>0.9999999999999999</ele><time>2026-05-02T09:47:43.73Z</time></trkpt><trkpt lat="45.1095308" lon="12.247698"><ele>1.0</ele><time>2026-05-02T09:47:45.739Z</time></trkpt><trkpt lat="45.1095513" lon="12.2478145"><ele>0.8333333333333333</ele><time>2026-05-02T09:47:47.735Z</time></trkpt><trkpt lat="45.1095749" lon="12.2479299"><ele>0.6666666666666666</ele><time>2026-05-02T09:47:49.74Z</time></trkpt><trkpt lat="45.1096032" lon="12.2480508"><ele>0.5</ele><time>2026-05-02T09:47:51.731Z</time></trkpt><trkpt lat="45.1096336" lon="12.2481744"><ele>0.3333333333333333</ele><time>2026-05-02T09:47:53.737Z</time></trkpt><trkpt lat="45.1096628" lon="12.248295"><ele>0.16666666666666666</ele><time>2026-05-02T09:47:55.739Z</time></trkpt><trkpt lat="45.1096904" lon="12.2484083"><ele>0.0</ele><time>2026-05-02T09:47:57.734Z</time></trkpt><trkpt lat="45.1097143" lon="12.2485233"><ele>-0.16666666666666666</ele><time>2026-05-02T09:47:59.736Z</time></trkpt><trkpt lat="45.1097406" lon="12.2486356"><ele>-0.3333333333333333</ele><time>2026-05-02T09:48:01.736Z</time></trkpt><trkpt lat="45.1097675" lon="12.2487442"><ele>-0.5</ele><time>2026-05-02T09:48:03.736Z</time></trkpt><trkpt lat="45.1097909" lon="12.2488529"><ele>-0.6666666666666666</ele><time>2026-05-02T09:48:05.734Z</time></trkpt><trkpt lat="45.1098157" lon="12.2489608"><ele>-0.8333333333333333</ele><time>2026-05-02T09:48:07.738Z</time></trkpt><trkpt lat="45.1098444" lon="12.2490622"><ele>-1.0</ele><time>2026-05-02T09:48:09.732Z</time></trkpt><trkpt lat="45.1098691" lon="12.2491598"><ele>-0.9999999999999999</ele><time>2026-05-02T09:48:11.737Z</time></trkpt><trkpt lat="45.1098923" lon="12.2492516"><ele>-1.0</ele><time>2026-05-02T09:48:13.733Z</time></trkpt><trkpt lat="45.1099176" lon="12.2493352"><ele>-1.0</ele><time>2026-05-02T09:48:15.732Z</time></trkpt><trkpt lat="45.1099543" lon="12.249455"><ele>-1.0</ele><time>2026-05-02T09:48:18.731Z</time></trkpt><trkpt lat="45.1099868" lon="12.2495759"><ele>-0.9999999999999999</ele><time>2026-05-02T09:48:21.737Z</time></trkpt><trkpt lat="45.1100254" lon="12.2496921"><ele>-1.0</ele><time>2026-05-02T09:48:24.736Z</time></trkpt><trkpt lat="45.1100738" lon="12.249785"><ele>-0.9999999999999999</ele><time>2026-05-02T09:48:27.737Z</time></trkpt><trkpt lat="45.1101159" lon="12.2499042"><ele>-1.0</ele><time>2026-05-02T09:48:30.732Z</time></trkpt><trkpt lat="45.1101292" lon="12.2500176"><ele>-1.0</ele><time>2026-05-02T09:48:33.734Z</time></trkpt><trkpt lat="45.110168" lon="12.2501078"><ele>-1.0</ele><time>2026-05-02T09:48:37.738Z</time></trkpt><trkpt lat="45.1102226" lon="12.2502124"><ele>-0.9999999999999999</ele><time>2026-05-02T09:48:40.734Z</time></trkpt><trkpt lat="45.1102581" lon="12.2502912"><ele>-1.0</ele><time>2026-05-02T09:48:42.741Z</time></trkpt><trkpt lat="45.1103068" lon="12.2503713"><ele>-0.9999999999999999</ele><time>2026-05-02T09:48:44.736Z</time></trkpt><trkpt lat="45.1103506" lon="12.2504633"><ele>-1.0</ele><time>2026-05-02T09:48:46.737Z</time></trkpt><trkpt lat="45.1103867" lon="12.2505562"><ele>-1.0</ele><time>2026-05-02T09:48:48.73Z</time></trkpt><trkpt lat="45.1104186" lon="12.2506341"><ele>-1.0</ele><time>2026-05-02T09:48:50.733Z</time></trkpt><trkpt lat="45.110447" lon="12.2507406"><ele>-0.9999999999999999</ele><time>2026-05-02T09:48:54.728Z</time></trkpt><trkpt lat="45.1104968" lon="12.2508375"><ele>-1.0</ele><time>2026-05-02T09:49:02.738Z</time></trkpt><trkpt lat="45.1105386" lon="12.2509194"><ele>-1.2857142857142856</ele><time>2026-05-02T09:49:04.738Z</time></trkpt><trkpt lat="45.1105782" lon="12.2510014"><ele>-1.5714285714285712</ele><time>2026-05-02T09:49:06.74Z</time></trkpt><trkpt lat="45.1106289" lon="12.2511053"><ele>-1.857142857142857</ele><time>2026-05-02T09:49:09.74Z</time></trkpt><trkpt lat="45.110678" lon="12.2511876"><ele>-2.142857142857143</ele><time>2026-05-02T09:49:12.737Z</time></trkpt><trkpt lat="45.110715" lon="12.2512636"><ele>-2.4285714285714284</ele><time>2026-05-02T09:49:15.739Z</time></trkpt><trkpt lat="45.1106808" lon="12.2513504"><ele>-2.714285714285714</ele><time>2026-05-02T09:49:53.73Z</time></trkpt><trkpt lat="45.1106232" lon="12.251387"><ele>-3.0</ele><time>2026-05-02T09:49:55.73Z</time></trkpt><trkpt lat="45.1105521" lon="12.2514265"><ele>-3.1666666666666665</ele><time>2026-05-02T09:49:57.737Z</time></trkpt><trkpt lat="45.1104806" lon="12.2514703"><ele>-3.333333333333333</ele><time>2026-05-02T09:49:59.732Z</time></trkpt><trkpt lat="45.1104025" lon="12.251518"><ele>-3.5</ele><time>2026-05-02T09:50:01.737Z</time></trkpt><trkpt lat="45.1103219" lon="12.2515664"><ele>-3.6666666666666665</ele><time>2026-05-02T09:50:03.738Z</time></trkpt><trkpt lat="45.1102359" lon="12.2516189"><ele>-3.833333333333333</ele><time>2026-05-02T09:50:05.738Z</time></trkpt><trkpt lat="45.1101494" lon="12.2516695"><ele>-4.0</ele><time>2026-05-02T09:50:07.738Z</time></trkpt><trkpt lat="45.1100659" lon="12.2517206"><ele>-4.0</ele><time>2026-05-02T09:50:09.737Z</time></trkpt><trkpt lat="45.1099783" lon="12.2517714"><ele>-4.0</ele><time>2026-05-02T09:50:11.737Z</time></trkpt><trkpt lat="45.1098914" lon="12.2518211"><ele>-4.0</ele><time>2026-05-02T09:50:13.73Z</time></trkpt><trkpt lat="45.1098073" lon="12.2518738"><ele>-4.0</ele><time>2026-05-02T09:50:15.735Z</time></trkpt><trkpt lat="45.1097241" lon="12.2519277"><ele>-4.0</ele><time>2026-05-02T09:50:17.738Z</time></trkpt><trkpt lat="45.1096413" lon="12.2519808"><ele>-3.4999999999999996</ele><time>2026-05-02T09:50:19.741Z</time></trkpt><trkpt lat="45.1095627" lon="12.2520303"><ele>-3.0</ele><time>2026-05-02T09:50:21.735Z</time></trkpt><trkpt lat="45.1094883" lon="12.252078"><ele>-2.5</ele><time>2026-05-02T09:50:23.736Z</time></trkpt><trkpt lat="45.1094168" lon="12.252123"><ele>-2.0</ele><time>2026-05-02T09:50:25.739Z</time></trkpt><trkpt lat="45.1093488" lon="12.252166"><ele>-1.5</ele><time>2026-05-02T09:50:27.734Z</time></trkpt><trkpt lat="45.1092859" lon="12.2521587"><ele>-1.0</ele><time>2026-05-02T09:50:29.73Z</time></trkpt><trkpt lat="45.1092485" lon="12.2520586"><ele>-0.9999999999999999</ele><time>2026-05-02T09:50:31.73Z</time></trkpt><trkpt lat="45.1092233" lon="12.2519454"><ele>-1.0</ele><time>2026-05-02T09:50:33.734Z</time></trkpt><trkpt lat="45.1091968" lon="12.2518334"><ele>-1.0</ele><time>2026-05-02T09:50:35.733Z</time></trkpt><trkpt lat="45.1091644" lon="12.251727"><ele>-1.0</ele><time>2026-05-02T09:50:37.738Z</time></trkpt><trkpt lat="45.109132" lon="12.2516219"><ele>-0.9999999999999999</ele><time>2026-05-02T09:50:39.738Z</time></trkpt><trkpt lat="45.1091026" lon="12.2515161"><ele>-1.0</ele><time>2026-05-02T09:50:41.729Z</time></trkpt><trkpt lat="45.1090669" lon="12.251418"><ele>-0.8333333333333333</ele><time>2026-05-02T09:50:43.73Z</time></trkpt><trkpt lat="45.109031" lon="12.2513148"><ele>-0.6666666666666666</ele><time>2026-05-02T09:50:45.735Z</time></trkpt><trkpt lat="45.1090023" lon="12.2512199"><ele>-0.5</ele><time>2026-05-02T09:50:47.737Z</time></trkpt><trkpt lat="45.1089559" lon="12.2511111"><ele>-0.3333333333333333</ele><time>2026-05-02T09:50:50.732Z</time></trkpt><trkpt lat="45.1090266" lon="12.2511"><ele>-0.16666666666666666</ele><time>2026-05-02T09:50:56.728Z</time></trkpt><trkpt lat="45.1090827" lon="12.2512184"><ele>0.0</ele><time>2026-05-02T09:50:58.736Z</time></trkpt><trkpt lat="45.1091406" lon="12.2513676"><ele>-0.2</ele><time>2026-05-02T09:51:00.73Z</time></trkpt><trkpt lat="45.1091863" lon="12.2515177"><ele>-0.4</ele><time>2026-05-02T09:51:02.737Z</time></trkpt><trkpt lat="45.1092266" lon="12.2516554"><ele>-0.6000000000000001</ele><time>2026-05-02T09:51:04.737Z</time></trkpt><trkpt lat="45.1092654" lon="12.2517821"><ele>-0.8</ele><time>2026-05-02T09:51:06.738Z</time></trkpt><trkpt lat="45.1093032" lon="12.2518985"><ele>-1.0</ele><time>2026-05-02T09:51:08.733Z</time></trkpt><trkpt lat="45.1093405" lon="12.2520092"><ele>-1.0</ele><time>2026-05-02T09:51:10.73Z</time></trkpt><trkpt lat="45.1093786" lon="12.2521218"><ele>-1.0</ele><time>2026-05-02T09:51:12.738Z</time></trkpt><trkpt lat="45.1094159" lon="12.2522468"><ele>-1.0</ele><time>2026-05-02T09:51:14.729Z</time></trkpt><trkpt lat="45.1094369" lon="12.2523805"><ele>-1.0</ele><time>2026-05-02T09:51:16.727Z</time></trkpt><trkpt lat="45.1094557" lon="12.2524956"><ele>-1.0</ele><time>2026-05-02T09:51:18.729Z</time></trkpt><trkpt lat="45.1094821" lon="12.252613"><ele>-1.0</ele><time>2026-05-02T09:51:21.727Z</time></trkpt><trkpt lat="45.1094918" lon="12.2527068"><ele>-0.9999999999999999</ele><time>2026-05-02T09:51:24.734Z</time></trkpt><trkpt lat="45.1094393" lon="12.2526555"><ele>-1.0</ele><time>2026-05-02T09:51:36.739Z</time></trkpt><trkpt lat="45.1094065" lon="12.2525461"><ele>-1.0</ele><time>2026-05-02T09:51:39.733Z</time></trkpt><trkpt lat="45.1093628" lon="12.2524359"><ele>-0.9999999999999999</ele><time>2026-05-02T09:51:42.729Z</time></trkpt><trkpt lat="45.1093319" lon="12.2523569"><ele>-1.0</ele><time>2026-05-02T09:51:44.728Z</time></trkpt><trkpt lat="45.1093332" lon="12.2522656"><ele>-1.0</ele><time>2026-05-02T09:51:47.737Z</time></trkpt><trkpt lat="45.1093958" lon="12.2522311"><ele>-0.9999999999999999</ele><time>2026-05-02T09:51:49.735Z</time></trkpt><trkpt lat="45.1094719" lon="12.2521931"><ele>-1.0</ele><time>2026-05-02T09:51:51.731Z</time></trkpt><trkpt lat="45.109553" lon="12.2521531"><ele>-1.0</ele><time>2026-05-02T09:51:53.735Z</time></trkpt><trkpt lat="45.1096365" lon="12.2521009"><ele>-1.0</ele><time>2026-05-02T09:51:55.733Z</time></trkpt><trkpt lat="45.1097205" lon="12.2520487"><ele>-0.9999999999999999</ele><time>2026-05-02T09:51:57.736Z</time></trkpt><trkpt lat="45.109806" lon="12.2519952"><ele>-1.0</ele><time>2026-05-02T09:51:59.733Z</time></trkpt><trkpt lat="45.109889" lon="12.251944"><ele>-1.6</ele><time>2026-05-02T09:52:01.732Z</time></trkpt><trkpt lat="45.109975" lon="12.2518924"><ele>-2.2</ele><time>2026-05-02T09:52:03.735Z</time></trkpt><trkpt lat="45.1100583" lon="12.2518356"><ele>-2.8000000000000003</ele><time>2026-05-02T09:52:05.734Z</time></trkpt><trkpt lat="45.1101403" lon="12.2517801"><ele>-3.4000000000000004</ele><time>2026-05-02T09:52:07.739Z</time></trkpt><trkpt lat="45.1102238" lon="12.2517263"><ele>-4.0</ele><time>2026-05-02T09:52:09.729Z</time></trkpt><trkpt lat="45.1103096" lon="12.2516704"><ele>-3.9999999999999996</ele><time>2026-05-02T09:52:11.734Z</time></trkpt><trkpt lat="45.1103958" lon="12.2516163"><ele>-4.0</ele><time>2026-05-02T09:52:13.734Z</time></trkpt><trkpt lat="45.1104809" lon="12.2515632"><ele>-4.0</ele><time>2026-05-02T09:52:15.735Z</time></trkpt><trkpt lat="45.1105603" lon="12.2515086"><ele>-4.0</ele><time>2026-05-02T09:52:17.73Z</time></trkpt><trkpt lat="45.1106306" lon="12.2514614"><ele>-3.9999999999999996</ele><time>2026-05-02T09:52:19.734Z</time></trkpt><trkpt lat="45.1106968" lon="12.2514303"><ele>-4.0</ele><time>2026-05-02T09:52:21.73Z</time></trkpt><trkpt lat="45.1107464" lon="12.2514988"><ele>-3.6</ele><time>2026-05-02T09:52:23.729Z</time></trkpt><trkpt lat="45.1107913" lon="12.2516356"><ele>-3.2</ele><time>2026-05-02T09:52:25.733Z</time></trkpt><trkpt lat="45.1108424" lon="12.2517697"><ele>-2.8000000000000003</ele><time>2026-05-02T09:52:27.735Z</time></trkpt><trkpt lat="45.1108994" lon="12.2519007"><ele>-2.4000000000000004</ele><time>2026-05-02T09:52:29.737Z</time></trkpt><trkpt lat="45.1109462" lon="12.252042"><ele>-2.0</ele><time>2026-05-02T09:52:31.726Z</time></trkpt><trkpt lat="45.1109924" lon="12.2521831"><ele>-1.75</ele><time>2026-05-02T09:52:33.734Z</time></trkpt><trkpt lat="45.111056" lon="12.2523236"><ele>-1.5</ele><time>2026-05-02T09:52:35.731Z</time></trkpt><trkpt lat="45.1111164" lon="12.2524664"><ele>-1.25</ele><time>2026-05-02T09:52:37.734Z</time></trkpt><trkpt lat="45.1111774" lon="12.2526102"><ele>-1.0</ele><time>2026-05-02T09:52:39.741Z</time></trkpt><trkpt lat="45.1112418" lon="12.2527557"><ele>-0.9999999999999999</ele><time>2026-05-02T09:52:41.735Z</time></trkpt><trkpt lat="45.1112988" lon="12.2529073"><ele>-1.0</ele><time>2026-05-02T09:52:43.738Z</time></trkpt><trkpt lat="45.1113545" lon="12.2530661"><ele>-1.0</ele><time>2026-05-02T09:52:45.728Z</time></trkpt><trkpt lat="45.1113848" lon="12.2531459"><ele>-1.0</ele><time>2026-05-02T09:52:46.738Z</time></trkpt><trkpt lat="45.1114155" lon="12.2532249"><ele>-0.9999999999999999</ele><time>2026-05-02T09:52:47.729Z</time></trkpt><trkpt lat="45.1114445" lon="12.2533046"><ele>-1.0</ele><time>2026-05-02T09:52:48.735Z</time></trkpt><trkpt lat="45.1115013" lon="12.2534638"><ele>-1.0</ele><time>2026-05-02T09:52:50.738Z</time></trkpt><trkpt lat="45.1115328" lon="12.2535449"><ele>-0.9999999999999999</ele><time>2026-05-02T09:52:51.737Z</time></trkpt><trkpt lat="45.1115658" lon="12.2536252"><ele>-1.0</ele><time>2026-05-02T09:52:52.739Z</time></trkpt><trkpt lat="45.1115974" lon="12.2537056"><ele>-1.0</ele><time>2026-05-02T09:52:53.74Z</time></trkpt><trkpt lat="45.1116276" lon="12.2537873"><ele>-0.9999999999999999</ele><time>2026-05-02T09:52:54.734Z</time></trkpt><trkpt lat="45.1116556" lon="12.253872"><ele>-1.0</ele><time>2026-05-02T09:52:55.735Z</time></trkpt><trkpt lat="45.1116816" lon="12.2539586"><ele>-1.0</ele><time>2026-05-02T09:52:56.73Z</time></trkpt><trkpt lat="45.1117087" lon="12.2540445"><ele>-0.9999999999999999</ele><time>2026-05-02T09:52:57.734Z</time></trkpt><trkpt lat="45.1117362" lon="12.25413"><ele>-1.0</ele><time>2026-05-02T09:52:58.733Z</time></trkpt><trkpt lat="45.1117638" lon="12.2542136"><ele>-1.0</ele><time>2026-05-02T09:52:59.737Z</time></trkpt><trkpt lat="45.111792" lon="12.254297"><ele>-1.0</ele><time>2026-05-02T09:53:00.734Z</time></trkpt><trkpt lat="45.1118201" lon="12.2543791"><ele>-0.9999999999999999</ele><time>2026-05-02T09:53:01.731Z</time></trkpt><trkpt lat="45.1118485" lon="12.2544592"><ele>-1.0</ele><time>2026-05-02T09:53:02.738Z</time></trkpt><trkpt lat="45.1119055" lon="12.25462"><ele>-1.0</ele><time>2026-05-02T09:53:04.738Z</time></trkpt><trkpt lat="45.1119337" lon="12.2547016"><ele>-1.0</ele><time>2026-05-02T09:53:05.738Z</time></trkpt><trkpt lat="45.1119825" lon="12.2548599"><ele>-1.0</ele><time>2026-05-02T09:53:07.735Z</time></trkpt><trkpt lat="45.1120378" lon="12.255017"><ele>-1.0</ele><time>2026-05-02T09:53:09.731Z</time></trkpt><trkpt lat="45.112086" lon="12.2551707"><ele>-1.0</ele><time>2026-05-02T09:53:11.732Z</time></trkpt><trkpt lat="45.1121371" lon="12.2553269"><ele>-1.1666666666666665</ele><time>2026-05-02T09:53:13.73Z</time></trkpt><trkpt lat="45.1121914" lon="12.2554893"><ele>-1.3333333333333333</ele><time>2026-05-02T09:53:15.737Z</time></trkpt><trkpt lat="45.1122196" lon="12.2555728"><ele>-1.5</ele><time>2026-05-02T09:53:16.738Z</time></trkpt><trkpt lat="45.1122484" lon="12.2556578"><ele>-1.6666666666666665</ele><time>2026-05-02T09:53:17.735Z</time></trkpt><trkpt lat="45.1122751" lon="12.2557419"><ele>-1.8333333333333333</ele><time>2026-05-02T09:53:18.734Z</time></trkpt><trkpt lat="45.1123011" lon="12.2558234"><ele>-2.0</ele><time>2026-05-02T09:53:19.735Z</time></trkpt><trkpt lat="45.1123273" lon="12.2559061"><ele>-2.0</ele><time>2026-05-02T09:53:20.73Z</time></trkpt><trkpt lat="45.1123545" lon="12.2559889"><ele>-1.9999999999999998</ele><time>2026-05-02T09:53:21.73Z</time></trkpt><trkpt lat="45.1123822" lon="12.2560719"><ele>-2.0</ele><time>2026-05-02T09:53:22.736Z</time></trkpt><trkpt lat="45.1124089" lon="12.2561554"><ele>-2.0</ele><time>2026-05-02T09:53:23.735Z</time></trkpt><trkpt lat="45.1124365" lon="12.2562371"><ele>-1.9999999999999998</ele><time>2026-05-02T09:53:24.734Z</time></trkpt><trkpt lat="45.1124671" lon="12.2563185"><ele>-2.0</ele><time>2026-05-02T09:53:25.737Z</time></trkpt><trkpt lat="45.112498" lon="12.2563991"><ele>-2.0</ele><time>2026-05-02T09:53:26.734Z</time></trkpt><trkpt lat="45.1125296" lon="12.2564778"><ele>-2.5</ele><time>2026-05-02T09:53:27.74Z</time></trkpt><trkpt lat="45.1125944" lon="12.2566302"><ele>-3.0</ele><time>2026-05-02T09:53:29.727Z</time></trkpt><trkpt lat="45.1126271" lon="12.2567087"><ele>-3.5</ele><time>2026-05-02T09:53:30.737Z</time></trkpt><trkpt lat="45.1126632" lon="12.2567839"><ele>-4.0</ele><time>2026-05-02T09:53:31.736Z</time></trkpt><trkpt lat="45.1127019" lon="12.2568607"><ele>-4.5</ele><time>2026-05-02T09:53:32.741Z</time></trkpt><trkpt lat="45.1127411" lon="12.2569377"><ele>-5.0</ele><time>2026-05-02T09:53:33.736Z</time></trkpt><trkpt lat="45.1127797" lon="12.2570121"><ele>-5.0</ele><time>2026-05-02T09:53:34.738Z</time></trkpt><trkpt lat="45.1128156" lon="12.2570865"><ele>-5.0</ele><time>2026-05-02T09:53:35.734Z</time></trkpt><trkpt lat="45.1128838" lon="12.2572345"><ele>-5.0</ele><time>2026-05-02T09:53:37.738Z</time></trkpt><trkpt lat="45.1129632" lon="12.2573737"><ele>-5.0</ele><time>2026-05-02T09:53:39.73Z</time></trkpt><trkpt lat="45.113039" lon="12.2575136"><ele>-5.0</ele><time>2026-05-02T09:53:41.735Z</time></trkpt><trkpt lat="45.1131146" lon="12.2576525"><ele>-4.25</ele><time>2026-05-02T09:53:43.73Z</time></trkpt><trkpt lat="45.1131913" lon="12.2577945"><ele>-3.5</ele><time>2026-05-02T09:53:45.735Z</time></trkpt><trkpt lat="45.1132704" lon="12.2579323"><ele>-2.75</ele><time>2026-05-02T09:53:47.735Z</time></trkpt><trkpt lat="45.1133547" lon="12.2580646"><ele>-2.0</ele><time>2026-05-02T09:53:49.738Z</time></trkpt><trkpt lat="45.1134433" lon="12.2581968"><ele>-1.9999999999999998</ele><time>2026-05-02T09:53:51.736Z</time></trkpt><trkpt lat="45.1134894" lon="12.2582651"><ele>-2.0</ele><time>2026-05-02T09:53:52.736Z</time></trkpt><trkpt lat="45.1135349" lon="12.2583321"><ele>-2.0</ele><time>2026-05-02T09:53:53.736Z</time></trkpt><trkpt lat="45.1135825" lon="12.2583972"><ele>-2.0</ele><time>2026-05-02T09:53:54.729Z</time></trkpt><trkpt lat="45.1136298" lon="12.2584586"><ele>-1.9999999999999998</ele><time>2026-05-02T09:53:55.735Z</time></trkpt><trkpt lat="45.1137202" lon="12.2585818"><ele>-2.0</ele><time>2026-05-02T09:53:57.729Z</time></trkpt><trkpt lat="45.1138129" lon="12.2587017"><ele>-2.0</ele><time>2026-05-02T09:53:59.734Z</time></trkpt><trkpt lat="45.1139008" lon="12.2588205"><ele>-2.0</ele><time>2026-05-02T09:54:01.732Z</time></trkpt><trkpt lat="45.1139845" lon="12.2589381"><ele>-2.0</ele><time>2026-05-02T09:54:03.736Z</time></trkpt><trkpt lat="45.1140659" lon="12.2590581"><ele>-2.0</ele><time>2026-05-02T09:54:05.734Z</time></trkpt><trkpt lat="45.1141452" lon="12.2591796"><ele>-1.8333333333333333</ele><time>2026-05-02T09:54:07.732Z</time></trkpt><trkpt lat="45.1142229" lon="12.2593084"><ele>-1.6666666666666665</ele><time>2026-05-02T09:54:09.735Z</time></trkpt><trkpt lat="45.1143075" lon="12.2594431"><ele>-1.5</ele><time>2026-05-02T09:54:11.734Z</time></trkpt><trkpt lat="45.114349" lon="12.2595102"><ele>-1.3333333333333333</ele><time>2026-05-02T09:54:12.731Z</time></trkpt><trkpt lat="45.1143895" lon="12.2595802"><ele>-1.1666666666666665</ele><time>2026-05-02T09:54:13.728Z</time></trkpt><trkpt lat="45.114431" lon="12.2596507"><ele>-1.0</ele><time>2026-05-02T09:54:14.735Z</time></trkpt><trkpt lat="45.1144731" lon="12.2597218"><ele>-1.0</ele><time>2026-05-02T09:54:15.736Z</time></trkpt><trkpt lat="45.1145122" lon="12.259792"><ele>-1.0</ele><time>2026-05-02T09:54:16.735Z</time></trkpt><trkpt lat="45.1145883" lon="12.2599293"><ele>-1.0</ele><time>2026-05-02T09:54:18.736Z</time></trkpt><trkpt lat="45.1146286" lon="12.2599989"><ele>-1.0</ele><time>2026-05-02T09:54:19.733Z</time></trkpt><trkpt lat="45.1147012" lon="12.2601375"><ele>-1.0</ele><time>2026-05-02T09:54:21.731Z</time></trkpt><trkpt lat="45.1147675" lon="12.2602697"><ele>-1.0</ele><time>2026-05-02T09:54:23.733Z</time></trkpt><trkpt lat="45.114832" lon="12.2604151"><ele>-1.0</ele><time>2026-05-02T09:54:25.731Z</time></trkpt><trkpt lat="45.1148681" lon="12.2604895"><ele>-1.0</ele><time>2026-05-02T09:54:26.726Z</time></trkpt><trkpt lat="45.1149292" lon="12.2606391"><ele>-1.0</ele><time>2026-05-02T09:54:28.734Z</time></trkpt><trkpt lat="45.1149867" lon="12.2607846"><ele>-1.0</ele><time>2026-05-02T09:54:30.735Z</time></trkpt><trkpt lat="45.1150323" lon="12.2609242"><ele>-1.0</ele><time>2026-05-02T09:54:32.738Z</time></trkpt><trkpt lat="45.1150829" lon="12.261061"><ele>-1.0</ele><time>2026-05-02T09:54:34.732Z</time></trkpt><trkpt lat="45.1151359" lon="12.261198"><ele>-1.0</ele><time>2026-05-02T09:54:36.737Z</time></trkpt><trkpt lat="45.1151876" lon="12.2613363"><ele>-1.0</ele><time>2026-05-02T09:54:38.733Z</time></trkpt><trkpt lat="45.1152387" lon="12.2614696"><ele>-1.0</ele><time>2026-05-02T09:54:40.73Z</time></trkpt><trkpt lat="45.1152846" lon="12.2616046"><ele>-1.0</ele><time>2026-05-02T09:54:42.729Z</time></trkpt><trkpt lat="45.115341" lon="12.2617488"><ele>-1.0</ele><time>2026-05-02T09:54:44.728Z</time></trkpt><trkpt lat="45.1153934" lon="12.261893"><ele>-1.0</ele><time>2026-05-02T09:54:46.739Z</time></trkpt><trkpt lat="45.1154442" lon="12.2620352"><ele>-1.0</ele><time>2026-05-02T09:54:48.732Z</time></trkpt><trkpt lat="45.1154968" lon="12.2621743"><ele>-0.5</ele><time>2026-05-02T09:54:50.729Z</time></trkpt><trkpt lat="45.1155483" lon="12.2623169"><ele>0.0</ele><time>2026-05-02T09:54:52.732Z</time></trkpt><trkpt lat="45.1156009" lon="12.2624629"><ele>0.5</ele><time>2026-05-02T09:54:54.731Z</time></trkpt><trkpt lat="45.1156502" lon="12.2626097"><ele>1.0</ele><time>2026-05-02T09:54:56.733Z</time></trkpt><trkpt lat="45.1156978" lon="12.262757"><ele>0.75</ele><time>2026-05-02T09:54:58.73Z</time></trkpt><trkpt lat="45.1157469" lon="12.2629056"><ele>0.5</ele><time>2026-05-02T09:55:00.73Z</time></trkpt><trkpt lat="45.1158048" lon="12.2630562"><ele>0.25</ele><time>2026-05-02T09:55:02.739Z</time></trkpt><trkpt lat="45.1158634" lon="12.2632117"><ele>0.0</ele><time>2026-05-02T09:55:04.731Z</time></trkpt><trkpt lat="45.1159191" lon="12.2633694"><ele>0.0</ele><time>2026-05-02T09:55:06.73Z</time></trkpt><trkpt lat="45.1159754" lon="12.2635223"><ele>0.0</ele><time>2026-05-02T09:55:08.736Z</time></trkpt><trkpt lat="45.1160285" lon="12.2636759"><ele>0.0</ele><time>2026-05-02T09:55:10.733Z</time></trkpt><trkpt lat="45.1160811" lon="12.2638306"><ele>0.0</ele><time>2026-05-02T09:55:12.739Z</time></trkpt><trkpt lat="45.116134" lon="12.2639805"><ele>0.0</ele><time>2026-05-02T09:55:14.73Z</time></trkpt><trkpt lat="45.116194" lon="12.2641329"><ele>0.0</ele><time>2026-05-02T09:55:16.728Z</time></trkpt><trkpt lat="45.1162241" lon="12.2642139"><ele>0.0</ele><time>2026-05-02T09:55:17.735Z</time></trkpt><trkpt lat="45.1162545" lon="12.2642956"><ele>0.0</ele><time>2026-05-02T09:55:18.734Z</time></trkpt><trkpt lat="45.1162849" lon="12.2643764"><ele>0.0</ele><time>2026-05-02T09:55:19.728Z</time></trkpt><trkpt lat="45.116338" lon="12.2645379"><ele>0.0</ele><time>2026-05-02T09:55:21.731Z</time></trkpt><trkpt lat="45.1163656" lon="12.2646203"><ele>0.0</ele><time>2026-05-02T09:55:22.738Z</time></trkpt><trkpt lat="45.116395" lon="12.2647016"><ele>0.0</ele><time>2026-05-02T09:55:23.731Z</time></trkpt><trkpt lat="45.116424" lon="12.2647816"><ele>0.0</ele><time>2026-05-02T09:55:24.734Z</time></trkpt><trkpt lat="45.1164538" lon="12.2648652"><ele>0.0</ele><time>2026-05-02T09:55:25.736Z</time></trkpt><trkpt lat="45.116484" lon="12.2649475"><ele>0.0</ele><time>2026-05-02T09:55:26.736Z</time></trkpt><trkpt lat="45.1165144" lon="12.2650289"><ele>0.0</ele><time>2026-05-02T09:55:27.734Z</time></trkpt><trkpt lat="45.1165449" lon="12.2651078"><ele>0.0</ele><time>2026-05-02T09:55:28.735Z</time></trkpt><trkpt lat="45.1166039" lon="12.2652628"><ele>0.0</ele><time>2026-05-02T09:55:30.736Z</time></trkpt><trkpt lat="45.1166632" lon="12.2654166"><ele>0.0</ele><time>2026-05-02T09:55:32.738Z</time></trkpt><trkpt lat="45.1167237" lon="12.2655661"><ele>0.0</ele><time>2026-05-02T09:55:34.738Z</time></trkpt><trkpt lat="45.1167824" lon="12.2657144"><ele>0.0</ele><time>2026-05-02T09:55:36.73Z</time></trkpt><trkpt lat="45.1168436" lon="12.2658605"><ele>0.0</ele><time>2026-05-02T09:55:38.734Z</time></trkpt><trkpt lat="45.1168685" lon="12.2659429"><ele>0.0</ele><time>2026-05-02T09:55:39.732Z</time></trkpt><trkpt lat="45.1169139" lon="12.2661099"><ele>0.0</ele><time>2026-05-02T09:55:41.733Z</time></trkpt><trkpt lat="45.1169424" lon="12.26619"><ele>0.0</ele><time>2026-05-02T09:55:42.736Z</time></trkpt><trkpt lat="45.1170078" lon="12.2663393"><ele>0.0</ele><time>2026-05-02T09:55:44.728Z</time></trkpt><trkpt lat="45.1170781" lon="12.2664897"><ele>0.0</ele><time>2026-05-02T09:55:46.734Z</time></trkpt><trkpt lat="45.1171131" lon="12.2665664"><ele>0.0</ele><time>2026-05-02T09:55:47.728Z</time></trkpt><trkpt lat="45.1171485" lon="12.2666415"><ele>0.0</ele><time>2026-05-02T09:55:48.733Z</time></trkpt><trkpt lat="45.1171817" lon="12.266718"><ele>0.0</ele><time>2026-05-02T09:55:49.737Z</time></trkpt><trkpt lat="45.117252" lon="12.2668657"><ele>0.0</ele><time>2026-05-02T09:55:51.729Z</time></trkpt><trkpt lat="45.1172924" lon="12.2669374"><ele>0.0</ele><time>2026-05-02T09:55:52.743Z</time></trkpt><trkpt lat="45.1173758" lon="12.2670696"><ele>0.0</ele><time>2026-05-02T09:55:54.738Z</time></trkpt><trkpt lat="45.1174185" lon="12.2671362"><ele>0.0</ele><time>2026-05-02T09:55:55.734Z</time></trkpt><trkpt lat="45.1175086" lon="12.2672618"><ele>0.0</ele><time>2026-05-02T09:55:57.737Z</time></trkpt><trkpt lat="45.1176001" lon="12.2673816"><ele>0.0</ele><time>2026-05-02T09:55:59.732Z</time></trkpt><trkpt lat="45.1176966" lon="12.2674978"><ele>0.0</ele><time>2026-05-02T09:56:01.734Z</time></trkpt><trkpt lat="45.1177454" lon="12.2675558"><ele>0.0</ele><time>2026-05-02T09:56:02.738Z</time></trkpt><trkpt lat="45.1177942" lon="12.267615"><ele>0.0</ele><time>2026-05-02T09:56:03.736Z</time></trkpt><trkpt lat="45.1178909" lon="12.2677278"><ele>0.0</ele><time>2026-05-02T09:56:05.733Z</time></trkpt><trkpt lat="45.1179878" lon="12.2678383"><ele>0.0</ele><time>2026-05-02T09:56:07.731Z</time></trkpt><trkpt lat="45.1180803" lon="12.2679474"><ele>0.0</ele><time>2026-05-02T09:56:09.736Z</time></trkpt><trkpt lat="45.1181712" lon="12.2680569"><ele>-0.25</ele><time>2026-05-02T09:56:11.735Z</time></trkpt><trkpt lat="45.1182616" lon="12.2681701"><ele>-0.5</ele><time>2026-05-02T09:56:13.735Z</time></trkpt><trkpt lat="45.1183556" lon="12.2682745"><ele>-0.75</ele><time>2026-05-02T09:56:15.73Z</time></trkpt><trkpt lat="45.1184488" lon="12.2683817"><ele>-1.0</ele><time>2026-05-02T09:56:17.728Z</time></trkpt><trkpt lat="45.1185439" lon="12.2684919"><ele>-1.0</ele><time>2026-05-02T09:56:19.73Z</time></trkpt><trkpt lat="45.1186358" lon="12.2686074"><ele>-1.0</ele><time>2026-05-02T09:56:21.732Z</time></trkpt><trkpt lat="45.1187278" lon="12.2687121"><ele>-1.0</ele><time>2026-05-02T09:56:23.736Z</time></trkpt><trkpt lat="45.1188177" lon="12.2688219"><ele>-1.0</ele><time>2026-05-02T09:56:25.735Z</time></trkpt><trkpt lat="45.1189093" lon="12.2689361"><ele>-1.0</ele><time>2026-05-02T09:56:27.735Z</time></trkpt><trkpt lat="45.1189997" lon="12.2690537"><ele>-1.0</ele><time>2026-05-02T09:56:29.731Z</time></trkpt><trkpt lat="45.1190879" lon="12.2691717"><ele>-1.0</ele><time>2026-05-02T09:56:31.733Z</time></trkpt><trkpt lat="45.1191696" lon="12.2692906"><ele>-1.0</ele><time>2026-05-02T09:56:33.734Z</time></trkpt><trkpt lat="45.1192433" lon="12.2694197"><ele>-1.0</ele><time>2026-05-02T09:56:35.733Z</time></trkpt><trkpt lat="45.1193099" lon="12.2695542"><ele>-1.0</ele><time>2026-05-02T09:56:37.729Z</time></trkpt><trkpt lat="45.1193722" lon="12.2696941"><ele>-1.0</ele><time>2026-05-02T09:56:39.738Z</time></trkpt><trkpt lat="45.1194323" lon="12.2698429"><ele>-1.0</ele><time>2026-05-02T09:56:41.73Z</time></trkpt><trkpt lat="45.1194891" lon="12.2699982"><ele>-1.0</ele><time>2026-05-02T09:56:43.736Z</time></trkpt><trkpt lat="45.119546" lon="12.2701579"><ele>-1.0</ele><time>2026-05-02T09:56:45.735Z</time></trkpt><trkpt lat="45.1195732" lon="12.2702401"><ele>-1.0</ele><time>2026-05-02T09:56:46.736Z</time></trkpt><trkpt lat="45.1196244" lon="12.2704002"><ele>-1.0</ele><time>2026-05-02T09:56:48.735Z</time></trkpt><trkpt lat="45.1196755" lon="12.270562"><ele>-1.0</ele><time>2026-05-02T09:56:50.736Z</time></trkpt><trkpt lat="45.1197006" lon="12.2706448"><ele>-1.0</ele><time>2026-05-02T09:56:51.734Z</time></trkpt><trkpt lat="45.1197249" lon="12.2707274"><ele>-0.9999999999999999</ele><time>2026-05-02T09:56:52.737Z</time></trkpt><trkpt lat="45.1197481" lon="12.2708108"><ele>-1.0</ele><time>2026-05-02T09:56:53.734Z</time></trkpt><trkpt lat="45.1197721" lon="12.2708936"><ele>-1.0</ele><time>2026-05-02T09:56:54.74Z</time></trkpt><trkpt lat="45.1198208" lon="12.271054"><ele>-0.9999999999999999</ele><time>2026-05-02T09:56:56.737Z</time></trkpt><trkpt lat="45.1198458" lon="12.2711361"><ele>-1.0</ele><time>2026-05-02T09:56:57.73Z</time></trkpt><trkpt lat="45.1198703" lon="12.2712198"><ele>-1.0</ele><time>2026-05-02T09:56:58.735Z</time></trkpt><trkpt lat="45.1198953" lon="12.2713036"><ele>-1.25</ele><time>2026-05-02T09:56:59.732Z</time></trkpt><trkpt lat="45.1199444" lon="12.2714651"><ele>-1.5</ele><time>2026-05-02T09:57:01.736Z</time></trkpt><trkpt lat="45.1199899" lon="12.2716269"><ele>-1.75</ele><time>2026-05-02T09:57:03.737Z</time></trkpt><trkpt lat="45.1200385" lon="12.2717859"><ele>-2.0</ele><time>2026-05-02T09:57:05.734Z</time></trkpt><trkpt lat="45.1200835" lon="12.2719455"><ele>-2.0</ele><time>2026-05-02T09:57:07.734Z</time></trkpt><trkpt lat="45.1201272" lon="12.2721061"><ele>-2.0</ele><time>2026-05-02T09:57:09.736Z</time></trkpt><trkpt lat="45.120171" lon="12.272266"><ele>-2.0</ele><time>2026-05-02T09:57:11.738Z</time></trkpt><trkpt lat="45.1202126" lon="12.2724248"><ele>-2.0</ele><time>2026-05-02T09:57:13.737Z</time></trkpt><trkpt lat="45.1202592" lon="12.2725811"><ele>-2.0</ele><time>2026-05-02T09:57:15.739Z</time></trkpt><trkpt lat="45.1203044" lon="12.2727377"><ele>-2.0</ele><time>2026-05-02T09:57:17.735Z</time></trkpt><trkpt lat="45.1203478" lon="12.2728986"><ele>-2.0</ele><time>2026-05-02T09:57:19.728Z</time></trkpt><trkpt lat="45.120394" lon="12.273064"><ele>-2.0</ele><time>2026-05-02T09:57:21.74Z</time></trkpt><trkpt lat="45.1204183" lon="12.2731469"><ele>-2.0</ele><time>2026-05-02T09:57:22.739Z</time></trkpt><trkpt lat="45.120467" lon="12.2733084"><ele>-2.0</ele><time>2026-05-02T09:57:24.734Z</time></trkpt><trkpt lat="45.1205128" lon="12.2734672"><ele>-2.0</ele><time>2026-05-02T09:57:26.737Z</time></trkpt><trkpt lat="45.1205586" lon="12.2736276"><ele>-2.0</ele><time>2026-05-02T09:57:28.737Z</time></trkpt><trkpt lat="45.1206097" lon="12.2737823"><ele>-2.0</ele><time>2026-05-02T09:57:30.727Z</time></trkpt><trkpt lat="45.1206644" lon="12.2739363"><ele>-2.0</ele><time>2026-05-02T09:57:32.735Z</time></trkpt><trkpt lat="45.1207138" lon="12.274091"><ele>-2.0</ele><time>2026-05-02T09:57:34.737Z</time></trkpt><trkpt lat="45.1207638" lon="12.2742472"><ele>-2.0</ele><time>2026-05-02T09:57:36.733Z</time></trkpt><trkpt lat="45.1208177" lon="12.2744022"><ele>-2.0</ele><time>2026-05-02T09:57:38.738Z</time></trkpt><trkpt lat="45.1208717" lon="12.2745566"><ele>-2.0</ele><time>2026-05-02T09:57:40.734Z</time></trkpt><trkpt lat="45.1209296" lon="12.2747049"><ele>-2.0</ele><time>2026-05-02T09:57:42.733Z</time></trkpt><trkpt lat="45.1209932" lon="12.2748525"><ele>-2.0</ele><time>2026-05-02T09:57:44.735Z</time></trkpt><trkpt lat="45.1210534" lon="12.2749973"><ele>-2.0</ele><time>2026-05-02T09:57:46.736Z</time></trkpt><trkpt lat="45.1211115" lon="12.2751378"><ele>-2.25</ele><time>2026-05-02T09:57:48.736Z</time></trkpt><trkpt lat="45.1211689" lon="12.27528"><ele>-2.5</ele><time>2026-05-02T09:57:50.737Z</time></trkpt><trkpt lat="45.1212284" lon="12.2754184"><ele>-2.75</ele><time>2026-05-02T09:57:52.734Z</time></trkpt><trkpt lat="45.1212903" lon="12.2755584"><ele>-3.0</ele><time>2026-05-02T09:57:54.734Z</time></trkpt><trkpt lat="45.1213557" lon="12.2756974"><ele>-2.8</ele><time>2026-05-02T09:57:56.735Z</time></trkpt><trkpt lat="45.1214177" lon="12.2758358"><ele>-2.5999999999999996</ele><time>2026-05-02T09:57:58.731Z</time></trkpt><trkpt lat="45.1214774" lon="12.2759741"><ele>-2.4000000000000004</ele><time>2026-05-02T09:58:00.729Z</time></trkpt><trkpt lat="45.1215327" lon="12.2761113"><ele>-2.2</ele><time>2026-05-02T09:58:02.729Z</time></trkpt><trkpt lat="45.1215846" lon="12.2762406"><ele>-2.0</ele><time>2026-05-02T09:58:04.733Z</time></trkpt><trkpt lat="45.1216427" lon="12.2763727"><ele>-1.75</ele><time>2026-05-02T09:58:06.732Z</time></trkpt><trkpt lat="45.1217044" lon="12.2765065"><ele>-1.5</ele><time>2026-05-02T09:58:08.728Z</time></trkpt><trkpt lat="45.1217655" lon="12.2766524"><ele>-1.25</ele><time>2026-05-02T09:58:10.73Z</time></trkpt><trkpt lat="45.1218276" lon="12.276798"><ele>-1.0</ele><time>2026-05-02T09:58:12.73Z</time></trkpt><trkpt lat="45.121892" lon="12.2769432"><ele>-1.0</ele><time>2026-05-02T09:58:14.732Z</time></trkpt><trkpt lat="45.1219505" lon="12.2770885"><ele>-1.0</ele><time>2026-05-02T09:58:16.732Z</time></trkpt><trkpt lat="45.1220088" lon="12.2772377"><ele>-1.0</ele><time>2026-05-02T09:58:18.733Z</time></trkpt><trkpt lat="45.1220724" lon="12.2773798"><ele>-1.0</ele><time>2026-05-02T09:58:20.734Z</time></trkpt><trkpt lat="45.1221311" lon="12.2775188"><ele>-0.5</ele><time>2026-05-02T09:58:22.739Z</time></trkpt><trkpt lat="45.1221918" lon="12.2776577"><ele>0.0</ele><time>2026-05-02T09:58:24.732Z</time></trkpt><trkpt lat="45.1222524" lon="12.2777942"><ele>0.5</ele><time>2026-05-02T09:58:26.738Z</time></trkpt><trkpt lat="45.1223114" lon="12.2779321"><ele>1.0</ele><time>2026-05-02T09:58:28.736Z</time></trkpt><trkpt lat="45.1223732" lon="12.2780645"><ele>0.75</ele><time>2026-05-02T09:58:30.729Z</time></trkpt><trkpt lat="45.1224265" lon="12.2782026"><ele>0.5</ele><time>2026-05-02T09:58:32.73Z</time></trkpt><trkpt lat="45.1224774" lon="12.2783333"><ele>0.25</ele><time>2026-05-02T09:58:34.73Z</time></trkpt><trkpt lat="45.1225352" lon="12.2784718"><ele>0.0</ele><time>2026-05-02T09:58:36.727Z</time></trkpt><trkpt lat="45.1225984" lon="12.2786177"><ele>0.0</ele><time>2026-05-02T09:58:38.731Z</time></trkpt><trkpt lat="45.1226626" lon="12.2787631"><ele>0.0</ele><time>2026-05-02T09:58:40.728Z</time></trkpt><trkpt lat="45.1227275" lon="12.2789115"><ele>0.0</ele><time>2026-05-02T09:58:42.734Z</time></trkpt><trkpt lat="45.1227922" lon="12.2790581"><ele>0.0</ele><time>2026-05-02T09:58:44.731Z</time></trkpt><trkpt lat="45.1228501" lon="12.2792018"><ele>0.0</ele><time>2026-05-02T09:58:46.731Z</time></trkpt><trkpt lat="45.1229098" lon="12.2793466"><ele>0.0</ele><time>2026-05-02T09:58:48.735Z</time></trkpt><trkpt lat="45.1229702" lon="12.2794893"><ele>0.0</ele><time>2026-05-02T09:58:50.735Z</time></trkpt><trkpt lat="45.1230312" lon="12.2796309"><ele>0.0</ele><time>2026-05-02T09:58:52.728Z</time></trkpt><trkpt lat="45.1230892" lon="12.2797703"><ele>-0.25</ele><time>2026-05-02T09:58:54.735Z</time></trkpt><trkpt lat="45.123155" lon="12.2799031"><ele>-0.5</ele><time>2026-05-02T09:58:56.733Z</time></trkpt><trkpt lat="45.123229" lon="12.280036"><ele>-0.75</ele><time>2026-05-02T09:58:58.732Z</time></trkpt><trkpt lat="45.1233024" lon="12.2801695"><ele>-1.0</ele><time>2026-05-02T09:59:00.731Z</time></trkpt><trkpt lat="45.1233815" lon="12.2802992"><ele>-1.25</ele><time>2026-05-02T09:59:02.73Z</time></trkpt><trkpt lat="45.1234599" lon="12.2804324"><ele>-1.5</ele><time>2026-05-02T09:59:04.732Z</time></trkpt><trkpt lat="45.1235411" lon="12.280563"><ele>-1.75</ele><time>2026-05-02T09:59:06.73Z</time></trkpt><trkpt lat="45.1236229" lon="12.2806891"><ele>-2.0</ele><time>2026-05-02T09:59:08.733Z</time></trkpt><trkpt lat="45.1237014" lon="12.2808198"><ele>-2.0</ele><time>2026-05-02T09:59:10.735Z</time></trkpt><trkpt lat="45.1237863" lon="12.2809428"><ele>-2.0</ele><time>2026-05-02T09:59:12.738Z</time></trkpt><trkpt lat="45.1238707" lon="12.2810649"><ele>-2.0</ele><time>2026-05-02T09:59:14.73Z</time></trkpt><trkpt lat="45.123957" lon="12.2811767"><ele>-2.0</ele><time>2026-05-02T09:59:16.731Z</time></trkpt><trkpt lat="45.124045" lon="12.281286"><ele>-2.0</ele><time>2026-05-02T09:59:18.732Z</time></trkpt><trkpt lat="45.1241312" lon="12.2813932"><ele>-2.0</ele><time>2026-05-02T09:59:20.738Z</time></trkpt><trkpt lat="45.124218" lon="12.2814963"><ele>-2.0</ele><time>2026-05-02T09:59:22.738Z</time></trkpt><trkpt lat="45.124307" lon="12.2816014"><ele>-2.0</ele><time>2026-05-02T09:59:24.733Z</time></trkpt><trkpt lat="45.1243887" lon="12.2817008"><ele>-2.0</ele><time>2026-05-02T09:59:26.736Z</time></trkpt><trkpt lat="45.1244739" lon="12.2818049"><ele>-2.0</ele><time>2026-05-02T09:59:28.742Z</time></trkpt><trkpt lat="45.1245673" lon="12.2819036"><ele>-2.0</ele><time>2026-05-02T09:59:30.744Z</time></trkpt><trkpt lat="45.1246571" lon="12.2820103"><ele>-2.0</ele><time>2026-05-02T09:59:32.738Z</time></trkpt><trkpt lat="45.1247465" lon="12.2821145"><ele>-2.0</ele><time>2026-05-02T09:59:34.733Z</time></trkpt><trkpt lat="45.1248336" lon="12.2822173"><ele>-2.0</ele><time>2026-05-02T09:59:36.737Z</time></trkpt><trkpt lat="45.1249248" lon="12.2823132"><ele>-2.0</ele><time>2026-05-02T09:59:38.737Z</time></trkpt><trkpt lat="45.1250231" lon="12.2824122"><ele>-2.0</ele><time>2026-05-02T09:59:40.734Z</time></trkpt><trkpt lat="45.1251216" lon="12.2825206"><ele>-2.2</ele><time>2026-05-02T09:59:42.74Z</time></trkpt><trkpt lat="45.1251732" lon="12.2825732"><ele>-2.4000000000000004</ele><time>2026-05-02T09:59:43.739Z</time></trkpt><trkpt lat="45.1252262" lon="12.282622"><ele>-2.5999999999999996</ele><time>2026-05-02T09:59:44.734Z</time></trkpt><trkpt lat="45.1253227" lon="12.2827247"><ele>-2.8</ele><time>2026-05-02T09:59:46.737Z</time></trkpt><trkpt lat="45.1254213" lon="12.2828178"><ele>-3.0</ele><time>2026-05-02T09:59:48.736Z</time></trkpt><trkpt lat="45.1255208" lon="12.2829079"><ele>-3.0</ele><time>2026-05-02T09:59:50.736Z</time></trkpt><trkpt lat="45.1256188" lon="12.2829975"><ele>-3.0</ele><time>2026-05-02T09:59:52.741Z</time></trkpt><trkpt lat="45.1257177" lon="12.2830804"><ele>-3.0</ele><time>2026-05-02T09:59:54.737Z</time></trkpt><trkpt lat="45.1258194" lon="12.283163"><ele>-3.0</ele><time>2026-05-02T09:59:56.732Z</time></trkpt><trkpt lat="45.1259232" lon="12.2832462"><ele>-2.6</ele><time>2026-05-02T09:59:58.734Z</time></trkpt><trkpt lat="45.1260283" lon="12.2833347"><ele>-2.1999999999999997</ele><time>2026-05-02T10:00:00.728Z</time></trkpt><trkpt lat="45.1261309" lon="12.2834164"><ele>-1.8</ele><time>2026-05-02T10:00:02.733Z</time></trkpt><trkpt lat="45.1262282" lon="12.283494"><ele>-1.4</ele><time>2026-05-02T10:00:04.735Z</time></trkpt><trkpt lat="45.1262821" lon="12.2835413"><ele>-1.0</ele><time>2026-05-02T10:00:05.731Z</time></trkpt><trkpt lat="45.1263899" lon="12.2836253"><ele>-1.0</ele><time>2026-05-02T10:00:07.732Z</time></trkpt><trkpt lat="45.1264974" lon="12.2836742"><ele>-1.0</ele><time>2026-05-02T10:00:09.739Z</time></trkpt><trkpt lat="45.1266033" lon="12.2837164"><ele>-1.0</ele><time>2026-05-02T10:00:11.734Z</time></trkpt><trkpt lat="45.1267051" lon="12.283757"><ele>-1.0</ele><time>2026-05-02T10:00:13.74Z</time></trkpt><trkpt lat="45.1268108" lon="12.283799"><ele>-1.0</ele><time>2026-05-02T10:00:15.739Z</time></trkpt><trkpt lat="45.126919" lon="12.283844"><ele>-1.0</ele><time>2026-05-02T10:00:17.729Z</time></trkpt><trkpt lat="45.1270299" lon="12.2838879"><ele>-1.0</ele><time>2026-05-02T10:00:19.742Z</time></trkpt><trkpt lat="45.1271416" lon="12.2839275"><ele>-1.0</ele><time>2026-05-02T10:00:21.737Z</time></trkpt><trkpt lat="45.1272017" lon="12.2839563"><ele>-1.0</ele><time>2026-05-02T10:00:22.743Z</time></trkpt><trkpt lat="45.127312" lon="12.2839996"><ele>-1.0</ele><time>2026-05-02T10:00:24.736Z</time></trkpt><trkpt lat="45.1274327" lon="12.2840495"><ele>-1.25</ele><time>2026-05-02T10:00:26.731Z</time></trkpt><trkpt lat="45.1275536" lon="12.2840938"><ele>-1.5</ele><time>2026-05-02T10:00:28.729Z</time></trkpt><trkpt lat="45.1276703" lon="12.2841222"><ele>-1.75</ele><time>2026-05-02T10:00:30.732Z</time></trkpt><trkpt lat="45.1277868" lon="12.2841474"><ele>-2.0</ele><time>2026-05-02T10:00:32.735Z</time></trkpt><trkpt lat="45.1278997" lon="12.284162"><ele>-2.0</ele><time>2026-05-02T10:00:34.735Z</time></trkpt><trkpt lat="45.1280175" lon="12.2841811"><ele>-2.0</ele><time>2026-05-02T10:00:36.73Z</time></trkpt><trkpt lat="45.1281397" lon="12.2842125"><ele>-2.0</ele><time>2026-05-02T10:00:38.732Z</time></trkpt><trkpt lat="45.1282614" lon="12.2842369"><ele>-2.0</ele><time>2026-05-02T10:00:40.731Z</time></trkpt><trkpt lat="45.1283805" lon="12.2842548"><ele>-2.0</ele><time>2026-05-02T10:00:42.745Z</time></trkpt><trkpt lat="45.1285033" lon="12.2842681"><ele>-2.0</ele><time>2026-05-02T10:00:44.739Z</time></trkpt><trkpt lat="45.1285664" lon="12.2842737"><ele>-2.0</ele><time>2026-05-02T10:00:45.736Z</time></trkpt><trkpt lat="45.1286293" lon="12.2842776"><ele>-2.0</ele><time>2026-05-02T10:00:46.733Z</time></trkpt><trkpt lat="45.1287539" lon="12.2842818"><ele>-2.0</ele><time>2026-05-02T10:00:48.735Z</time></trkpt><trkpt lat="45.1288725" lon="12.2842812"><ele>-2.0</ele><time>2026-05-02T10:00:50.737Z</time></trkpt><trkpt lat="45.1289855" lon="12.2842788"><ele>-2.0</ele><time>2026-05-02T10:00:52.741Z</time></trkpt><trkpt lat="45.1290982" lon="12.2842687"><ele>-2.0</ele><time>2026-05-02T10:00:54.736Z</time></trkpt><trkpt lat="45.1292135" lon="12.2842455"><ele>-2.0</ele><time>2026-05-02T10:00:56.734Z</time></trkpt><trkpt lat="45.129332" lon="12.284224"><ele>-2.0</ele><time>2026-05-02T10:00:58.738Z</time></trkpt><trkpt lat="45.1294516" lon="12.2841995"><ele>-2.0</ele><time>2026-05-02T10:01:00.736Z</time></trkpt><trkpt lat="45.1295698" lon="12.2841712"><ele>-2.0</ele><time>2026-05-02T10:01:02.737Z</time></trkpt><trkpt lat="45.1296812" lon="12.2841392"><ele>-2.0</ele><time>2026-05-02T10:01:04.733Z</time></trkpt><trkpt lat="45.1297908" lon="12.2840993"><ele>-2.25</ele><time>2026-05-02T10:01:06.735Z</time></trkpt><trkpt lat="45.1299049" lon="12.2840545"><ele>-2.5</ele><time>2026-05-02T10:01:08.732Z</time></trkpt><trkpt lat="45.1300201" lon="12.284013"><ele>-2.75</ele><time>2026-05-02T10:01:10.736Z</time></trkpt><trkpt lat="45.1301338" lon="12.2839761"><ele>-3.0</ele><time>2026-05-02T10:01:12.736Z</time></trkpt><trkpt lat="45.1302487" lon="12.2839326"><ele>-3.0</ele><time>2026-05-02T10:01:14.736Z</time></trkpt><trkpt lat="45.1303684" lon="12.2838836"><ele>-3.0</ele><time>2026-05-02T10:01:16.736Z</time></trkpt><trkpt lat="45.130488" lon="12.2838368"><ele>-3.0</ele><time>2026-05-02T10:01:18.732Z</time></trkpt><trkpt lat="45.1306061" lon="12.2837931"><ele>-3.0</ele><time>2026-05-02T10:01:20.73Z</time></trkpt><trkpt lat="45.1307215" lon="12.2837425"><ele>-2.25</ele><time>2026-05-02T10:01:22.737Z</time></trkpt><trkpt lat="45.1308344" lon="12.2836945"><ele>-1.5</ele><time>2026-05-02T10:01:24.732Z</time></trkpt><trkpt lat="45.1309464" lon="12.2836469"><ele>-0.75</ele><time>2026-05-02T10:01:26.738Z</time></trkpt><trkpt lat="45.1310614" lon="12.2835951"><ele>0.0</ele><time>2026-05-02T10:01:28.732Z</time></trkpt><trkpt lat="45.1311737" lon="12.2835363"><ele>0.0</ele><time>2026-05-02T10:01:30.732Z</time></trkpt><trkpt lat="45.1312854" lon="12.2834811"><ele>0.0</ele><time>2026-05-02T10:01:32.734Z</time></trkpt><trkpt lat="45.1313964" lon="12.283424"><ele>0.0</ele><time>2026-05-02T10:01:34.734Z</time></trkpt><trkpt lat="45.1315059" lon="12.2833693"><ele>0.0</ele><time>2026-05-02T10:01:36.728Z</time></trkpt><trkpt lat="45.131617" lon="12.2833172"><ele>-0.75</ele><time>2026-05-02T10:01:38.734Z</time></trkpt><trkpt lat="45.1317307" lon="12.283265"><ele>-1.5</ele><time>2026-05-02T10:01:40.731Z</time></trkpt><trkpt lat="45.1318431" lon="12.2832107"><ele>-2.25</ele><time>2026-05-02T10:01:42.742Z</time></trkpt><trkpt lat="45.1319542" lon="12.283153"><ele>-3.0</ele><time>2026-05-02T10:01:44.73Z</time></trkpt><trkpt lat="45.1320658" lon="12.283096"><ele>-3.0</ele><time>2026-05-02T10:01:46.733Z</time></trkpt><trkpt lat="45.1321777" lon="12.2830397"><ele>-3.0</ele><time>2026-05-02T10:01:48.735Z</time></trkpt><trkpt lat="45.1322895" lon="12.2829808"><ele>-3.0</ele><time>2026-05-02T10:01:50.732Z</time></trkpt><trkpt lat="45.132399" lon="12.2829166"><ele>-3.0</ele><time>2026-05-02T10:01:52.743Z</time></trkpt><trkpt lat="45.1325057" lon="12.2828377"><ele>-3.0</ele><time>2026-05-02T10:01:54.734Z</time></trkpt><trkpt lat="45.1326153" lon="12.2827633"><ele>-3.0</ele><time>2026-05-02T10:01:56.74Z</time></trkpt><trkpt lat="45.1327248" lon="12.2826913"><ele>-3.0</ele><time>2026-05-02T10:01:58.731Z</time></trkpt><trkpt lat="45.1328333" lon="12.2826147"><ele>-3.0</ele><time>2026-05-02T10:02:00.737Z</time></trkpt><trkpt lat="45.1329388" lon="12.2825323"><ele>-3.0</ele><time>2026-05-02T10:02:02.738Z</time></trkpt><trkpt lat="45.1330382" lon="12.2824412"><ele>-3.0</ele><time>2026-05-02T10:02:04.734Z</time></trkpt><trkpt lat="45.1331358" lon="12.282347"><ele>-3.0</ele><time>2026-05-02T10:02:06.733Z</time></trkpt><trkpt lat="45.1332355" lon="12.2822525"><ele>-3.0</ele><time>2026-05-02T10:02:08.738Z</time></trkpt><trkpt lat="45.1333318" lon="12.2821604"><ele>-2.6</ele><time>2026-05-02T10:02:10.735Z</time></trkpt><trkpt lat="45.1334271" lon="12.2820658"><ele>-2.1999999999999997</ele><time>2026-05-02T10:02:12.739Z</time></trkpt><trkpt lat="45.1335238" lon="12.281978"><ele>-1.8</ele><time>2026-05-02T10:02:14.734Z</time></trkpt><trkpt lat="45.1336148" lon="12.2818903"><ele>-1.4</ele><time>2026-05-02T10:02:16.74Z</time></trkpt><trkpt lat="45.1337021" lon="12.2818027"><ele>-1.0</ele><time>2026-05-02T10:02:18.736Z</time></trkpt><trkpt lat="45.1337888" lon="12.2817256"><ele>-1.0</ele><time>2026-05-02T10:02:20.738Z</time></trkpt><trkpt lat="45.1338695" lon="12.2816544"><ele>-1.0</ele><time>2026-05-02T10:02:22.739Z</time></trkpt><trkpt lat="45.1339489" lon="12.2815784"><ele>-1.0</ele><time>2026-05-02T10:02:24.729Z</time></trkpt><trkpt lat="45.1340281" lon="12.2814879"><ele>-1.0</ele><time>2026-05-02T10:02:26.734Z</time></trkpt><trkpt lat="45.1341139" lon="12.2813989"><ele>-1.0</ele><time>2026-05-02T10:02:28.731Z</time></trkpt><trkpt lat="45.1341991" lon="12.281312"><ele>-1.2000000000000002</ele><time>2026-05-02T10:02:30.734Z</time></trkpt><trkpt lat="45.1342856" lon="12.2812245"><ele>-1.4000000000000001</ele><time>2026-05-02T10:02:32.745Z</time></trkpt><trkpt lat="45.1343718" lon="12.2811381"><ele>-1.6</ele><time>2026-05-02T10:02:34.73Z</time></trkpt><trkpt lat="45.1344577" lon="12.2810525"><ele>-1.8</ele><time>2026-05-02T10:02:36.731Z</time></trkpt><trkpt lat="45.1345459" lon="12.2809681"><ele>-2.0</ele><time>2026-05-02T10:02:38.733Z</time></trkpt><trkpt lat="45.1346363" lon="12.2808901"><ele>-2.0</ele><time>2026-05-02T10:02:40.735Z</time></trkpt><trkpt lat="45.1347278" lon="12.2808084"><ele>-2.0</ele><time>2026-05-02T10:02:42.74Z</time></trkpt><trkpt lat="45.1348234" lon="12.280731"><ele>-2.0</ele><time>2026-05-02T10:02:44.734Z</time></trkpt><trkpt lat="45.1349178" lon="12.280658"><ele>-2.0</ele><time>2026-05-02T10:02:46.727Z</time></trkpt><trkpt lat="45.135012" lon="12.2805877"><ele>-2.0</ele><time>2026-05-02T10:02:48.733Z</time></trkpt><trkpt lat="45.1351082" lon="12.2805168"><ele>-2.2</ele><time>2026-05-02T10:02:50.73Z</time></trkpt><trkpt lat="45.135203" lon="12.2804456"><ele>-2.4000000000000004</ele><time>2026-05-02T10:02:52.737Z</time></trkpt><trkpt lat="45.1353021" lon="12.2803768"><ele>-2.5999999999999996</ele><time>2026-05-02T10:02:54.735Z</time></trkpt><trkpt lat="45.1354113" lon="12.2803291"><ele>-2.8</ele><time>2026-05-02T10:02:56.735Z</time></trkpt><trkpt lat="45.13552" lon="12.2802884"><ele>-3.0</ele><time>2026-05-02T10:02:58.731Z</time></trkpt><trkpt lat="45.1356277" lon="12.2802417"><ele>-2.8</ele><time>2026-05-02T10:03:00.736Z</time></trkpt><trkpt lat="45.1357332" lon="12.2801902"><ele>-2.5999999999999996</ele><time>2026-05-02T10:03:02.735Z</time></trkpt><trkpt lat="45.1358358" lon="12.2801406"><ele>-2.4000000000000004</ele><time>2026-05-02T10:03:04.734Z</time></trkpt><trkpt lat="45.135943" lon="12.2800902"><ele>-2.2</ele><time>2026-05-02T10:03:06.733Z</time></trkpt><trkpt lat="45.1360494" lon="12.2800358"><ele>-2.0</ele><time>2026-05-02T10:03:08.731Z</time></trkpt><trkpt lat="45.136157" lon="12.2799903"><ele>-2.0</ele><time>2026-05-02T10:03:10.736Z</time></trkpt><trkpt lat="45.1362611" lon="12.2799425"><ele>-2.0</ele><time>2026-05-02T10:03:12.74Z</time></trkpt><trkpt lat="45.1363665" lon="12.2798985"><ele>-2.0</ele><time>2026-05-02T10:03:14.738Z</time></trkpt><trkpt lat="45.1364776" lon="12.2798653"><ele>-2.0</ele><time>2026-05-02T10:03:16.738Z</time></trkpt><trkpt lat="45.1365849" lon="12.2798276"><ele>-2.0</ele><time>2026-05-02T10:03:18.735Z</time></trkpt><trkpt lat="45.1366933" lon="12.2797843"><ele>-2.0</ele><time>2026-05-02T10:03:20.737Z</time></trkpt><trkpt lat="45.136807" lon="12.2797523"><ele>-2.0</ele><time>2026-05-02T10:03:22.741Z</time></trkpt><trkpt lat="45.1369214" lon="12.2797215"><ele>-2.0</ele><time>2026-05-02T10:03:24.737Z</time></trkpt><trkpt lat="45.137033" lon="12.2796912"><ele>-2.0</ele><time>2026-05-02T10:03:26.739Z</time></trkpt><trkpt lat="45.1371464" lon="12.2796637"><ele>-2.0</ele><time>2026-05-02T10:03:28.736Z</time></trkpt><trkpt lat="45.1372593" lon="12.2796364"><ele>-2.0</ele><time>2026-05-02T10:03:30.736Z</time></trkpt><trkpt lat="45.1373738" lon="12.2796069"><ele>-2.0</ele><time>2026-05-02T10:03:32.738Z</time></trkpt><trkpt lat="45.1374928" lon="12.2795722"><ele>-2.0</ele><time>2026-05-02T10:03:34.734Z</time></trkpt><trkpt lat="45.1376147" lon="12.2795393"><ele>-2.25</ele><time>2026-05-02T10:03:36.736Z</time></trkpt><trkpt lat="45.1377359" lon="12.279506"><ele>-2.5</ele><time>2026-05-02T10:03:38.737Z</time></trkpt><trkpt lat="45.1378544" lon="12.2794719"><ele>-2.75</ele><time>2026-05-02T10:03:40.738Z</time></trkpt><trkpt lat="45.1379679" lon="12.2794398"><ele>-3.0</ele><time>2026-05-02T10:03:42.738Z</time></trkpt><trkpt lat="45.138084" lon="12.2794107"><ele>-3.0</ele><time>2026-05-02T10:03:44.736Z</time></trkpt><trkpt lat="45.1382028" lon="12.2793805"><ele>-3.0</ele><time>2026-05-02T10:03:46.735Z</time></trkpt><trkpt lat="45.1383218" lon="12.2793414"><ele>-3.0</ele><time>2026-05-02T10:03:48.732Z</time></trkpt><trkpt lat="45.1384366" lon="12.2793018"><ele>-3.0</ele><time>2026-05-02T10:03:50.738Z</time></trkpt><trkpt lat="45.1385504" lon="12.2792832"><ele>-3.25</ele><time>2026-05-02T10:03:52.735Z</time></trkpt><trkpt lat="45.1386642" lon="12.2792537"><ele>-3.5</ele><time>2026-05-02T10:03:54.736Z</time></trkpt><trkpt lat="45.138777" lon="12.2792212"><ele>-3.75</ele><time>2026-05-02T10:03:56.737Z</time></trkpt><trkpt lat="45.1388891" lon="12.2791886"><ele>-4.0</ele><time>2026-05-02T10:03:58.735Z</time></trkpt><trkpt lat="45.1389983" lon="12.2791611"><ele>-3.5</ele><time>2026-05-02T10:04:00.74Z</time></trkpt><trkpt lat="45.1391129" lon="12.2791373"><ele>-3.0</ele><time>2026-05-02T10:04:02.74Z</time></trkpt><trkpt lat="45.1392257" lon="12.2791137"><ele>-2.5</ele><time>2026-05-02T10:04:04.735Z</time></trkpt><trkpt lat="45.1393399" lon="12.2790987"><ele>-2.0</ele><time>2026-05-02T10:04:06.735Z</time></trkpt><trkpt lat="45.1394575" lon="12.2790944"><ele>-2.0</ele><time>2026-05-02T10:04:08.738Z</time></trkpt><trkpt lat="45.1395739" lon="12.2791082"><ele>-2.0</ele><time>2026-05-02T10:04:10.739Z</time></trkpt><trkpt lat="45.1396866" lon="12.2791339"><ele>-2.0</ele><time>2026-05-02T10:04:12.736Z</time></trkpt><trkpt lat="45.1397978" lon="12.2791686"><ele>-2.0</ele><time>2026-05-02T10:04:14.735Z</time></trkpt><trkpt lat="45.1399073" lon="12.2792151"><ele>-2.0</ele><time>2026-05-02T10:04:16.737Z</time></trkpt><trkpt lat="45.1400154" lon="12.2792645"><ele>-2.0</ele><time>2026-05-02T10:04:18.737Z</time></trkpt><trkpt lat="45.1401249" lon="12.279316"><ele>-2.0</ele><time>2026-05-02T10:04:20.738Z</time></trkpt><trkpt lat="45.1402375" lon="12.279359"><ele>-2.0</ele><time>2026-05-02T10:04:22.742Z</time></trkpt><trkpt lat="45.1403484" lon="12.2794057"><ele>-2.0</ele><time>2026-05-02T10:04:24.739Z</time></trkpt><trkpt lat="45.1404593" lon="12.2794593"><ele>-2.0</ele><time>2026-05-02T10:04:26.736Z</time></trkpt><trkpt lat="45.1405683" lon="12.2795086"><ele>-2.0</ele><time>2026-05-02T10:04:28.735Z</time></trkpt><trkpt lat="45.1406773" lon="12.2795527"><ele>-2.0</ele><time>2026-05-02T10:04:30.738Z</time></trkpt><trkpt lat="45.140787" lon="12.2795932"><ele>-2.25</ele><time>2026-05-02T10:04:32.74Z</time></trkpt><trkpt lat="45.1408952" lon="12.2796419"><ele>-2.5</ele><time>2026-05-02T10:04:34.74Z</time></trkpt><trkpt lat="45.1410053" lon="12.2796909"><ele>-2.75</ele><time>2026-05-02T10:04:36.737Z</time></trkpt><trkpt lat="45.141116" lon="12.2797405"><ele>-3.0</ele><time>2026-05-02T10:04:38.734Z</time></trkpt><trkpt lat="45.1412264" lon="12.2797854"><ele>-3.0</ele><time>2026-05-02T10:04:40.737Z</time></trkpt><trkpt lat="45.1413379" lon="12.2798256"><ele>-3.0</ele><time>2026-05-02T10:04:42.734Z</time></trkpt><trkpt lat="45.1414488" lon="12.2798715"><ele>-3.0</ele><time>2026-05-02T10:04:44.732Z</time></trkpt><trkpt lat="45.1415595" lon="12.279924"><ele>-3.0</ele><time>2026-05-02T10:04:46.737Z</time></trkpt><trkpt lat="45.1416698" lon="12.2799666"><ele>-2.75</ele><time>2026-05-02T10:04:48.736Z</time></trkpt><trkpt lat="45.1417744" lon="12.2800098"><ele>-2.5</ele><time>2026-05-02T10:04:50.738Z</time></trkpt><trkpt lat="45.1418828" lon="12.2800607"><ele>-2.25</ele><time>2026-05-02T10:04:52.737Z</time></trkpt><trkpt lat="45.1419936" lon="12.2801172"><ele>-2.0</ele><time>2026-05-02T10:04:54.739Z</time></trkpt><trkpt lat="45.1421023" lon="12.2801795"><ele>-2.0</ele><time>2026-05-02T10:04:56.737Z</time></trkpt><trkpt lat="45.1422106" lon="12.280247"><ele>-2.0</ele><time>2026-05-02T10:04:58.736Z</time></trkpt><trkpt lat="45.1423146" lon="12.2803261"><ele>-2.0</ele><time>2026-05-02T10:05:00.734Z</time></trkpt><trkpt lat="45.1424156" lon="12.2804125"><ele>-2.0</ele><time>2026-05-02T10:05:02.736Z</time></trkpt><trkpt lat="45.1425169" lon="12.2804993"><ele>-1.75</ele><time>2026-05-02T10:05:04.735Z</time></trkpt><trkpt lat="45.1426167" lon="12.2805859"><ele>-1.5</ele><time>2026-05-02T10:05:06.734Z</time></trkpt><trkpt lat="45.1427138" lon="12.2806772"><ele>-1.25</ele><time>2026-05-02T10:05:08.738Z</time></trkpt><trkpt lat="45.1428078" lon="12.2807774"><ele>-1.0</ele><time>2026-05-02T10:05:10.732Z</time></trkpt><trkpt lat="45.1428998" lon="12.2808826"><ele>-1.0</ele><time>2026-05-02T10:05:12.745Z</time></trkpt><trkpt lat="45.1429868" lon="12.2809986"><ele>-1.0</ele><time>2026-05-02T10:05:14.731Z</time></trkpt><trkpt lat="45.1430681" lon="12.2811155"><ele>-1.0</ele><time>2026-05-02T10:05:16.731Z</time></trkpt><trkpt lat="45.143149" lon="12.2812336"><ele>-1.0</ele><time>2026-05-02T10:05:18.736Z</time></trkpt><trkpt lat="45.1432303" lon="12.2813549"><ele>-1.5</ele><time>2026-05-02T10:05:20.735Z</time></trkpt><trkpt lat="45.1433046" lon="12.2814833"><ele>-2.0</ele><time>2026-05-02T10:05:22.736Z</time></trkpt><trkpt lat="45.1433738" lon="12.2816101"><ele>-2.5</ele><time>2026-05-02T10:05:24.737Z</time></trkpt><trkpt lat="45.1434413" lon="12.2817452"><ele>-3.0</ele><time>2026-05-02T10:05:26.735Z</time></trkpt><trkpt lat="45.1435073" lon="12.2818828"><ele>-3.0</ele><time>2026-05-02T10:05:28.738Z</time></trkpt><trkpt lat="45.1435693" lon="12.2820142"><ele>-3.0</ele><time>2026-05-02T10:05:30.731Z</time></trkpt><trkpt lat="45.1436324" lon="12.28214"><ele>-3.0</ele><time>2026-05-02T10:05:32.738Z</time></trkpt><trkpt lat="45.1436953" lon="12.2822686"><ele>-3.0</ele><time>2026-05-02T10:05:34.735Z</time></trkpt><trkpt lat="45.1437568" lon="12.2824045"><ele>-3.0</ele><time>2026-05-02T10:05:36.736Z</time></trkpt><trkpt lat="45.1438207" lon="12.2825378"><ele>-3.0</ele><time>2026-05-02T10:05:38.736Z</time></trkpt><trkpt lat="45.1438841" lon="12.2826765"><ele>-3.0</ele><time>2026-05-02T10:05:40.735Z</time></trkpt><trkpt lat="45.1439499" lon="12.282814"><ele>-3.0</ele><time>2026-05-02T10:05:42.737Z</time></trkpt><trkpt lat="45.1440151" lon="12.2829529"><ele>-3.0</ele><time>2026-05-02T10:05:44.738Z</time></trkpt><trkpt lat="45.1440777" lon="12.2830886"><ele>-2.75</ele><time>2026-05-02T10:05:46.733Z</time></trkpt><trkpt lat="45.1441425" lon="12.2832191"><ele>-2.5</ele><time>2026-05-02T10:05:48.736Z</time></trkpt><trkpt lat="45.1442088" lon="12.2833485"><ele>-2.25</ele><time>2026-05-02T10:05:50.738Z</time></trkpt><trkpt lat="45.1442743" lon="12.2834834"><ele>-2.0</ele><time>2026-05-02T10:05:52.741Z</time></trkpt><trkpt lat="45.1443366" lon="12.2836155"><ele>-2.0</ele><time>2026-05-02T10:05:54.738Z</time></trkpt><trkpt lat="45.1443971" lon="12.283748"><ele>-2.0</ele><time>2026-05-02T10:05:56.739Z</time></trkpt><trkpt lat="45.1444604" lon="12.2838789"><ele>-2.0</ele><time>2026-05-02T10:05:58.737Z</time></trkpt><trkpt lat="45.1445211" lon="12.2840092"><ele>-2.0</ele><time>2026-05-02T10:06:00.734Z</time></trkpt><trkpt lat="45.1445837" lon="12.2841367"><ele>-2.0</ele><time>2026-05-02T10:06:02.738Z</time></trkpt><trkpt lat="45.1446445" lon="12.2842729"><ele>-1.75</ele><time>2026-05-02T10:06:04.736Z</time></trkpt><trkpt lat="45.1447034" lon="12.2844102"><ele>-1.5</ele><time>2026-05-02T10:06:06.733Z</time></trkpt><trkpt lat="45.1447626" lon="12.2845456"><ele>-1.25</ele><time>2026-05-02T10:06:08.73Z</time></trkpt><trkpt lat="45.1448189" lon="12.2846811"><ele>-1.0</ele><time>2026-05-02T10:06:10.729Z</time></trkpt><trkpt lat="45.1448684" lon="12.2848285"><ele>-1.2000000000000002</ele><time>2026-05-02T10:06:12.736Z</time></trkpt><trkpt lat="45.1449115" lon="12.2849766"><ele>-1.4000000000000001</ele><time>2026-05-02T10:06:14.737Z</time></trkpt><trkpt lat="45.144942" lon="12.2851236"><ele>-1.6</ele><time>2026-05-02T10:06:16.729Z</time></trkpt><trkpt lat="45.1449488" lon="12.2852646"><ele>-1.8</ele><time>2026-05-02T10:06:18.731Z</time></trkpt><trkpt lat="45.1449389" lon="12.2853936"><ele>-2.0</ele><time>2026-05-02T10:06:20.736Z</time></trkpt><trkpt lat="45.1449273" lon="12.2855125"><ele>-1.9999999999999998</ele><time>2026-05-02T10:06:22.738Z</time></trkpt><trkpt lat="45.1449145" lon="12.2856236"><ele>-2.0</ele><time>2026-05-02T10:06:24.737Z</time></trkpt><trkpt lat="45.144908" lon="12.2857418"><ele>-2.0</ele><time>2026-05-02T10:06:26.731Z</time></trkpt><trkpt lat="45.1448938" lon="12.2858639"><ele>-2.0</ele><time>2026-05-02T10:06:28.736Z</time></trkpt><trkpt lat="45.1448813" lon="12.2859986"><ele>-1.9999999999999998</ele><time>2026-05-02T10:06:30.737Z</time></trkpt><trkpt lat="45.1448749" lon="12.2861395"><ele>-2.0</ele><time>2026-05-02T10:06:32.735Z</time></trkpt><trkpt lat="45.144878" lon="12.2862797"><ele>-2.0</ele><time>2026-05-02T10:06:34.732Z</time></trkpt><trkpt lat="45.1448746" lon="12.2864195"><ele>-2.0</ele><time>2026-05-02T10:06:36.738Z</time></trkpt><trkpt lat="45.1448678" lon="12.2865615"><ele>-2.0</ele><time>2026-05-02T10:06:38.735Z</time></trkpt><trkpt lat="45.1448634" lon="12.2867013"><ele>-2.0</ele><time>2026-05-02T10:06:40.737Z</time></trkpt><trkpt lat="45.1448507" lon="12.2868413"><ele>-2.0</ele><time>2026-05-02T10:06:42.739Z</time></trkpt><trkpt lat="45.1448462" lon="12.2869837"><ele>-1.8</ele><time>2026-05-02T10:06:44.737Z</time></trkpt><trkpt lat="45.1448443" lon="12.2871311"><ele>-1.6</ele><time>2026-05-02T10:06:46.737Z</time></trkpt><trkpt lat="45.1448372" lon="12.2872833"><ele>-1.4000000000000001</ele><time>2026-05-02T10:06:48.731Z</time></trkpt><trkpt lat="45.1448238" lon="12.2874395"><ele>-1.2000000000000002</ele><time>2026-05-02T10:06:50.735Z</time></trkpt><trkpt lat="45.1448121" lon="12.287597"><ele>-1.0</ele><time>2026-05-02T10:06:52.733Z</time></trkpt><trkpt lat="45.1448047" lon="12.2877526"><ele>-1.0</ele><time>2026-05-02T10:06:54.74Z</time></trkpt><trkpt lat="45.1447969" lon="12.2879077"><ele>-1.0</ele><time>2026-05-02T10:06:56.735Z</time></trkpt><trkpt lat="45.1447868" lon="12.2880623"><ele>-1.0</ele><time>2026-05-02T10:06:58.738Z</time></trkpt><trkpt lat="45.1447776" lon="12.2882174"><ele>-1.0</ele><time>2026-05-02T10:07:00.736Z</time></trkpt><trkpt lat="45.144768" lon="12.2883708"><ele>-1.0</ele><time>2026-05-02T10:07:02.737Z</time></trkpt><trkpt lat="45.1447562" lon="12.2885226"><ele>-1.2000000000000002</ele><time>2026-05-02T10:07:04.729Z</time></trkpt><trkpt lat="45.1447386" lon="12.2886747"><ele>-1.4000000000000001</ele><time>2026-05-02T10:07:06.729Z</time></trkpt><trkpt lat="45.1447163" lon="12.2888276"><ele>-1.6</ele><time>2026-05-02T10:07:08.736Z</time></trkpt><trkpt lat="45.144691" lon="12.2889767"><ele>-1.8</ele><time>2026-05-02T10:07:10.738Z</time></trkpt><trkpt lat="45.1446608" lon="12.2891245"><ele>-2.0</ele><time>2026-05-02T10:07:12.738Z</time></trkpt><trkpt lat="45.1446321" lon="12.2892734"><ele>-2.0</ele><time>2026-05-02T10:07:14.727Z</time></trkpt><trkpt lat="45.144603" lon="12.2894216"><ele>-2.0</ele><time>2026-05-02T10:07:16.732Z</time></trkpt><trkpt lat="45.1445718" lon="12.2895678"><ele>-2.0</ele><time>2026-05-02T10:07:18.736Z</time></trkpt><trkpt lat="45.1445447" lon="12.2897109"><ele>-2.0</ele><time>2026-05-02T10:07:20.736Z</time></trkpt><trkpt lat="45.1445134" lon="12.2898532"><ele>-2.0</ele><time>2026-05-02T10:07:22.74Z</time></trkpt><trkpt lat="45.1444841" lon="12.2900003"><ele>-2.0</ele><time>2026-05-02T10:07:24.739Z</time></trkpt><trkpt lat="45.1444482" lon="12.2901458"><ele>-2.0</ele><time>2026-05-02T10:07:26.732Z</time></trkpt><trkpt lat="45.1444152" lon="12.2902918"><ele>-2.0</ele><time>2026-05-02T10:07:28.736Z</time></trkpt><trkpt lat="45.1443755" lon="12.2904336"><ele>-2.0</ele><time>2026-05-02T10:07:30.732Z</time></trkpt><trkpt lat="45.1443395" lon="12.2905738"><ele>-2.0</ele><time>2026-05-02T10:07:32.736Z</time></trkpt><trkpt lat="45.144301" lon="12.2907118"><ele>-2.0</ele><time>2026-05-02T10:07:34.734Z</time></trkpt><trkpt lat="45.1442642" lon="12.2908516"><ele>-2.0</ele><time>2026-05-02T10:07:36.735Z</time></trkpt><trkpt lat="45.1442252" lon="12.2909912"><ele>-2.0</ele><time>2026-05-02T10:07:38.736Z</time></trkpt><trkpt lat="45.1441864" lon="12.2911328"><ele>-2.0</ele><time>2026-05-02T10:07:40.735Z</time></trkpt><trkpt lat="45.1441546" lon="12.2912747"><ele>-2.0</ele><time>2026-05-02T10:07:42.736Z</time></trkpt><trkpt lat="45.144131" lon="12.2914211"><ele>-2.25</ele><time>2026-05-02T10:07:44.736Z</time></trkpt><trkpt lat="45.1441188" lon="12.2915741"><ele>-2.5</ele><time>2026-05-02T10:07:46.738Z</time></trkpt><trkpt lat="45.1441146" lon="12.2917342"><ele>-2.75</ele><time>2026-05-02T10:07:48.734Z</time></trkpt><trkpt lat="45.1441129" lon="12.291899"><ele>-3.0</ele><time>2026-05-02T10:07:50.731Z</time></trkpt><trkpt lat="45.1441133" lon="12.2920645"><ele>-3.0</ele><time>2026-05-02T10:07:52.742Z</time></trkpt><trkpt lat="45.144112" lon="12.2922232"><ele>-3.0</ele><time>2026-05-02T10:07:54.741Z</time></trkpt><trkpt lat="45.1441054" lon="12.2923766"><ele>-3.0</ele><time>2026-05-02T10:07:56.732Z</time></trkpt><trkpt lat="45.144099" lon="12.2925217"><ele>-3.0</ele><time>2026-05-02T10:07:58.732Z</time></trkpt><trkpt lat="45.1440927" lon="12.2926713"><ele>-3.0</ele><time>2026-05-02T10:08:00.734Z</time></trkpt><trkpt lat="45.1440871" lon="12.2928293"><ele>-3.0</ele><time>2026-05-02T10:08:02.739Z</time></trkpt><trkpt lat="45.144084" lon="12.2929824"><ele>-3.0</ele><time>2026-05-02T10:08:04.734Z</time></trkpt><trkpt lat="45.1440769" lon="12.2931333"><ele>-3.0</ele><time>2026-05-02T10:08:06.735Z</time></trkpt><trkpt lat="45.1440702" lon="12.293283"><ele>-3.0</ele><time>2026-05-02T10:08:08.727Z</time></trkpt><trkpt lat="45.1440636" lon="12.2934306"><ele>-3.0</ele><time>2026-05-02T10:08:10.733Z</time></trkpt><trkpt lat="45.1440586" lon="12.2935893"><ele>-3.0</ele><time>2026-05-02T10:08:12.739Z</time></trkpt><trkpt lat="45.1440595" lon="12.2937548"><ele>-3.0</ele><time>2026-05-02T10:08:14.735Z</time></trkpt><trkpt lat="45.1440565" lon="12.2939217"><ele>-3.0</ele><time>2026-05-02T10:08:16.738Z</time></trkpt><trkpt lat="45.1440512" lon="12.2940852"><ele>-3.0</ele><time>2026-05-02T10:08:18.732Z</time></trkpt><trkpt lat="45.1440444" lon="12.2942418"><ele>-2.8</ele><time>2026-05-02T10:08:20.734Z</time></trkpt><trkpt lat="45.1440409" lon="12.2943979"><ele>-2.5999999999999996</ele><time>2026-05-02T10:08:22.735Z</time></trkpt><trkpt lat="45.1440297" lon="12.2945553"><ele>-2.4000000000000004</ele><time>2026-05-02T10:08:24.736Z</time></trkpt><trkpt lat="45.1440188" lon="12.2947115"><ele>-2.2</ele><time>2026-05-02T10:08:26.736Z</time></trkpt><trkpt lat="45.1440054" lon="12.2948675"><ele>-2.0</ele><time>2026-05-02T10:08:28.732Z</time></trkpt><trkpt lat="45.1439904" lon="12.2950232"><ele>-1.2000000000000002</ele><time>2026-05-02T10:08:30.729Z</time></trkpt><trkpt lat="45.1439719" lon="12.2951779"><ele>-0.40000000000000013</ele><time>2026-05-02T10:08:32.731Z</time></trkpt><trkpt lat="45.1439554" lon="12.2953334"><ele>0.40000000000000013</ele><time>2026-05-02T10:08:34.734Z</time></trkpt><trkpt lat="45.1439407" lon="12.2954921"><ele>1.2000000000000002</ele><time>2026-05-02T10:08:36.736Z</time></trkpt><trkpt lat="45.1439277" lon="12.2956514"><ele>2.0</ele><time>2026-05-02T10:08:38.731Z</time></trkpt><trkpt lat="45.1439187" lon="12.2958124"><ele>2.0</ele><time>2026-05-02T10:08:40.732Z</time></trkpt><trkpt lat="45.1439122" lon="12.2959744"><ele>2.0</ele><time>2026-05-02T10:08:42.733Z</time></trkpt><trkpt lat="45.1439114" lon="12.2961382"><ele>2.0</ele><time>2026-05-02T10:08:44.734Z</time></trkpt><trkpt lat="45.1439109" lon="12.2963022"><ele>2.0</ele><time>2026-05-02T10:08:46.73Z</time></trkpt><trkpt lat="45.1439155" lon="12.2964724"><ele>1.75</ele><time>2026-05-02T10:08:48.734Z</time></trkpt><trkpt lat="45.143919" lon="12.296641"><ele>1.5</ele><time>2026-05-02T10:08:50.738Z</time></trkpt><trkpt lat="45.1439237" lon="12.2968077"><ele>1.25</ele><time>2026-05-02T10:08:52.732Z</time></trkpt><trkpt lat="45.1439328" lon="12.2969738"><ele>1.0</ele><time>2026-05-02T10:08:54.732Z</time></trkpt><trkpt lat="45.1439483" lon="12.2971374"><ele>0.8</ele><time>2026-05-02T10:08:56.736Z</time></trkpt><trkpt lat="45.1439594" lon="12.2972938"><ele>0.6000000000000001</ele><time>2026-05-02T10:08:58.736Z</time></trkpt><trkpt lat="45.1439743" lon="12.2974513"><ele>0.4</ele><time>2026-05-02T10:09:00.727Z</time></trkpt><trkpt lat="45.1439915" lon="12.2976088"><ele>0.2</ele><time>2026-05-02T10:09:02.73Z</time></trkpt><trkpt lat="45.144011" lon="12.2977666"><ele>0.0</ele><time>2026-05-02T10:09:04.733Z</time></trkpt><trkpt lat="45.1440325" lon="12.2979276"><ele>-0.5</ele><time>2026-05-02T10:09:06.734Z</time></trkpt><trkpt lat="45.1440516" lon="12.2980906"><ele>-1.0</ele><time>2026-05-02T10:09:08.735Z</time></trkpt><trkpt lat="45.1440692" lon="12.2982488"><ele>-1.5</ele><time>2026-05-02T10:09:10.733Z</time></trkpt><trkpt lat="45.1440884" lon="12.2984047"><ele>-2.0</ele><time>2026-05-02T10:09:12.738Z</time></trkpt><trkpt lat="45.1441016" lon="12.298564"><ele>-2.0</ele><time>2026-05-02T10:09:14.731Z</time></trkpt><trkpt lat="45.1441028" lon="12.298722"><ele>-2.0</ele><time>2026-05-02T10:09:16.73Z</time></trkpt><trkpt lat="45.1441011" lon="12.2988808"><ele>-2.0</ele><time>2026-05-02T10:09:18.729Z</time></trkpt><trkpt lat="45.1440918" lon="12.2990337"><ele>-2.0</ele><time>2026-05-02T10:09:20.735Z</time></trkpt><trkpt lat="45.14408" lon="12.2991883"><ele>-2.0</ele><time>2026-05-02T10:09:22.739Z</time></trkpt><trkpt lat="45.1440668" lon="12.2993456"><ele>-2.0</ele><time>2026-05-02T10:09:24.735Z</time></trkpt><trkpt lat="45.1440591" lon="12.2995015"><ele>-2.0</ele><time>2026-05-02T10:09:26.733Z</time></trkpt><trkpt lat="45.1440645" lon="12.2996589"><ele>-2.0</ele><time>2026-05-02T10:09:28.735Z</time></trkpt><trkpt lat="45.1440868" lon="12.2998119"><ele>-2.0</ele><time>2026-05-02T10:09:30.731Z</time></trkpt><trkpt lat="45.1441196" lon="12.2999574"><ele>-2.0</ele><time>2026-05-02T10:09:32.739Z</time></trkpt><trkpt lat="45.1441602" lon="12.3000979"><ele>-1.8</ele><time>2026-05-02T10:09:34.732Z</time></trkpt><trkpt lat="45.1442026" lon="12.3002348"><ele>-1.6</ele><time>2026-05-02T10:09:36.727Z</time></trkpt><trkpt lat="45.1442424" lon="12.3003732"><ele>-1.4000000000000001</ele><time>2026-05-02T10:09:38.728Z</time></trkpt><trkpt lat="45.144279" lon="12.3005052"><ele>-1.2000000000000002</ele><time>2026-05-02T10:09:40.737Z</time></trkpt><trkpt lat="45.1443116" lon="12.3006456"><ele>-1.0</ele><time>2026-05-02T10:09:42.743Z</time></trkpt><trkpt lat="45.1443507" lon="12.3007789"><ele>-0.4</ele><time>2026-05-02T10:09:44.739Z</time></trkpt><trkpt lat="45.1443939" lon="12.3009103"><ele>0.19999999999999996</ele><time>2026-05-02T10:09:46.73Z</time></trkpt><trkpt lat="45.14442" lon="12.3010576"><ele>0.8000000000000002</ele><time>2026-05-02T10:09:48.731Z</time></trkpt><trkpt lat="45.1444478" lon="12.3012057"><ele>1.4000000000000001</ele><time>2026-05-02T10:09:50.734Z</time></trkpt><trkpt lat="45.1444833" lon="12.3013532"><ele>2.0</ele><time>2026-05-02T10:09:52.738Z</time></trkpt><trkpt lat="45.1445206" lon="12.3014988"><ele>2.0</ele><time>2026-05-02T10:09:54.736Z</time></trkpt><trkpt lat="45.1445581" lon="12.3016484"><ele>2.0</ele><time>2026-05-02T10:09:56.737Z</time></trkpt><trkpt lat="45.1445917" lon="12.3017973"><ele>2.0</ele><time>2026-05-02T10:09:58.737Z</time></trkpt><trkpt lat="45.1446254" lon="12.3019463"><ele>2.0</ele><time>2026-05-02T10:10:00.731Z</time></trkpt><trkpt lat="45.1446673" lon="12.3020982"><ele>2.0</ele><time>2026-05-02T10:10:02.731Z</time></trkpt><trkpt lat="45.1447048" lon="12.3022522"><ele>2.25</ele><time>2026-05-02T10:10:04.731Z</time></trkpt><trkpt lat="45.1447455" lon="12.3024065"><ele>2.5</ele><time>2026-05-02T10:10:06.724Z</time></trkpt><trkpt lat="45.144796" lon="12.3025496"><ele>2.75</ele><time>2026-05-02T10:10:08.736Z</time></trkpt><trkpt lat="45.1448684" lon="12.3026779"><ele>3.0</ele><time>2026-05-02T10:10:10.726Z</time></trkpt><trkpt lat="45.1449586" lon="12.3027847"><ele>3.2</ele><time>2026-05-02T10:10:12.736Z</time></trkpt><trkpt lat="45.1450534" lon="12.3028723"><ele>3.4</ele><time>2026-05-02T10:10:14.734Z</time></trkpt><trkpt lat="45.145148" lon="12.3029489"><ele>3.6000000000000005</ele><time>2026-05-02T10:10:16.736Z</time></trkpt><trkpt lat="45.1452417" lon="12.3030261"><ele>3.8000000000000003</ele><time>2026-05-02T10:10:18.732Z</time></trkpt><trkpt lat="45.1453376" lon="12.3031047"><ele>4.0</ele><time>2026-05-02T10:10:20.737Z</time></trkpt><trkpt lat="45.1454369" lon="12.3031836"><ele>4.0</ele><time>2026-05-02T10:10:22.742Z</time></trkpt><trkpt lat="45.1455367" lon="12.3032593"><ele>4.0</ele><time>2026-05-02T10:10:24.733Z</time></trkpt><trkpt lat="45.1456339" lon="12.3033408"><ele>4.0</ele><time>2026-05-02T10:10:26.733Z</time></trkpt><trkpt lat="45.1457283" lon="12.3034248"><ele>4.0</ele><time>2026-05-02T10:10:28.738Z</time></trkpt><trkpt lat="45.1458191" lon="12.3035167"><ele>4.0</ele><time>2026-05-02T10:10:30.732Z</time></trkpt><trkpt lat="45.145897" lon="12.3036278"><ele>3.8000000000000003</ele><time>2026-05-02T10:10:32.738Z</time></trkpt><trkpt lat="45.1459621" lon="12.3037473"><ele>3.6000000000000005</ele><time>2026-05-02T10:10:34.735Z</time></trkpt><trkpt lat="45.1460202" lon="12.3038803"><ele>3.4</ele><time>2026-05-02T10:10:36.737Z</time></trkpt><trkpt lat="45.1460757" lon="12.3040238"><ele>3.2</ele><time>2026-05-02T10:10:38.732Z</time></trkpt><trkpt lat="45.1461304" lon="12.3041686"><ele>3.0</ele><time>2026-05-02T10:10:40.735Z</time></trkpt><trkpt lat="45.1461844" lon="12.3043122"><ele>3.0</ele><time>2026-05-02T10:10:42.745Z</time></trkpt><trkpt lat="45.1462373" lon="12.3044525"><ele>3.0</ele><time>2026-05-02T10:10:44.734Z</time></trkpt><trkpt lat="45.1462895" lon="12.3045907"><ele>3.0</ele><time>2026-05-02T10:10:46.731Z</time></trkpt><trkpt lat="45.1463432" lon="12.3047255"><ele>3.0</ele><time>2026-05-02T10:10:48.729Z</time></trkpt><trkpt lat="45.1463971" lon="12.3048611"><ele>3.0</ele><time>2026-05-02T10:10:50.734Z</time></trkpt><trkpt lat="45.1464532" lon="12.3049972"><ele>2.4</ele><time>2026-05-02T10:10:52.736Z</time></trkpt><trkpt lat="45.1465103" lon="12.3051334"><ele>1.7999999999999998</ele><time>2026-05-02T10:10:54.734Z</time></trkpt><trkpt lat="45.1465697" lon="12.3052657"><ele>1.2</ele><time>2026-05-02T10:10:56.74Z</time></trkpt><trkpt lat="45.1466298" lon="12.3053933"><ele>0.6</ele><time>2026-05-02T10:10:58.731Z</time></trkpt><trkpt lat="45.1466874" lon="12.3055266"><ele>0.0</ele><time>2026-05-02T10:11:00.736Z</time></trkpt><trkpt lat="45.1467456" lon="12.3056598"><ele>-0.2</ele><time>2026-05-02T10:11:02.731Z</time></trkpt><trkpt lat="45.1468056" lon="12.3057923"><ele>-0.4</ele><time>2026-05-02T10:11:04.733Z</time></trkpt><trkpt lat="45.1468666" lon="12.3059205"><ele>-0.6000000000000001</ele><time>2026-05-02T10:11:06.731Z</time></trkpt><trkpt lat="45.1469218" lon="12.3060502"><ele>-0.8</ele><time>2026-05-02T10:11:08.738Z</time></trkpt><trkpt lat="45.1469785" lon="12.3061773"><ele>-1.0</ele><time>2026-05-02T10:11:10.732Z</time></trkpt><trkpt lat="45.1470371" lon="12.3063065"><ele>-0.8</ele><time>2026-05-02T10:11:12.739Z</time></trkpt><trkpt lat="45.1470935" lon="12.3064377"><ele>-0.6000000000000001</ele><time>2026-05-02T10:11:14.73Z</time></trkpt><trkpt lat="45.1471515" lon="12.3065666"><ele>-0.4</ele><time>2026-05-02T10:11:16.734Z</time></trkpt><trkpt lat="45.1472062" lon="12.306694"><ele>-0.2</ele><time>2026-05-02T10:11:18.739Z</time></trkpt><trkpt lat="45.1472581" lon="12.3068244"><ele>0.0</ele><time>2026-05-02T10:11:20.736Z</time></trkpt><trkpt lat="45.1473115" lon="12.3069548"><ele>0.0</ele><time>2026-05-02T10:11:22.736Z</time></trkpt><trkpt lat="45.1473709" lon="12.3070829"><ele>0.0</ele><time>2026-05-02T10:11:24.736Z</time></trkpt><trkpt lat="45.1474257" lon="12.3072151"><ele>0.0</ele><time>2026-05-02T10:11:26.731Z</time></trkpt><trkpt lat="45.1474791" lon="12.3073491"><ele>0.0</ele><time>2026-05-02T10:11:28.732Z</time></trkpt><trkpt lat="45.1475326" lon="12.3074788"><ele>0.0</ele><time>2026-05-02T10:11:30.73Z</time></trkpt><trkpt lat="45.1475859" lon="12.3076068"><ele>0.0</ele><time>2026-05-02T10:11:32.734Z</time></trkpt><trkpt lat="45.147632" lon="12.3077368"><ele>0.0</ele><time>2026-05-02T10:11:34.73Z</time></trkpt><trkpt lat="45.147674" lon="12.3078679"><ele>0.0</ele><time>2026-05-02T10:11:36.735Z</time></trkpt><trkpt lat="45.1477131" lon="12.3079994"><ele>0.0</ele><time>2026-05-02T10:11:38.735Z</time></trkpt><trkpt lat="45.1477526" lon="12.3081277"><ele>0.0</ele><time>2026-05-02T10:11:40.73Z</time></trkpt><trkpt lat="45.147796" lon="12.3082531"><ele>0.0</ele><time>2026-05-02T10:11:42.741Z</time></trkpt><trkpt lat="45.1478253" lon="12.3083883"><ele>0.0</ele><time>2026-05-02T10:11:44.728Z</time></trkpt><trkpt lat="45.1478614" lon="12.308524"><ele>0.0</ele><time>2026-05-02T10:11:46.733Z</time></trkpt><trkpt lat="45.1479031" lon="12.3086583"><ele>0.0</ele><time>2026-05-02T10:11:48.738Z</time></trkpt><trkpt lat="45.1479384" lon="12.308796"><ele>0.0</ele><time>2026-05-02T10:11:50.732Z</time></trkpt><trkpt lat="45.1479778" lon="12.3089261"><ele>-0.2</ele><time>2026-05-02T10:11:52.738Z</time></trkpt><trkpt lat="45.1480193" lon="12.309058"><ele>-0.4</ele><time>2026-05-02T10:11:54.737Z</time></trkpt><trkpt lat="45.1480587" lon="12.309182"><ele>-0.6000000000000001</ele><time>2026-05-02T10:11:56.736Z</time></trkpt><trkpt lat="45.1480927" lon="12.3092921"><ele>-0.8</ele><time>2026-05-02T10:11:58.73Z</time></trkpt><trkpt lat="45.1481301" lon="12.3094054"><ele>-1.0</ele><time>2026-05-02T10:12:00.733Z</time></trkpt><trkpt lat="45.1481669" lon="12.3095349"><ele>-1.0</ele><time>2026-05-02T10:12:02.737Z</time></trkpt><trkpt lat="45.1482094" lon="12.3096609"><ele>-1.0</ele><time>2026-05-02T10:12:04.739Z</time></trkpt><trkpt lat="45.1482652" lon="12.3097827"><ele>-1.0</ele><time>2026-05-02T10:12:06.731Z</time></trkpt><trkpt lat="45.1483371" lon="12.3098991"><ele>-1.0</ele><time>2026-05-02T10:12:08.727Z</time></trkpt><trkpt lat="45.1484159" lon="12.3100022"><ele>-1.0</ele><time>2026-05-02T10:12:10.735Z</time></trkpt><trkpt lat="45.1485012" lon="12.3100977"><ele>-1.4</ele><time>2026-05-02T10:12:12.734Z</time></trkpt><trkpt lat="45.1485858" lon="12.3101844"><ele>-1.8</ele><time>2026-05-02T10:12:14.736Z</time></trkpt><trkpt lat="45.1486741" lon="12.3102662"><ele>-2.1999999999999997</ele><time>2026-05-02T10:12:16.738Z</time></trkpt><trkpt lat="45.1487666" lon="12.3103434"><ele>-2.6</ele><time>2026-05-02T10:12:18.734Z</time></trkpt><trkpt lat="45.1488611" lon="12.3104219"><ele>-3.0</ele><time>2026-05-02T10:12:20.738Z</time></trkpt><trkpt lat="45.148957" lon="12.3104973"><ele>-2.6</ele><time>2026-05-02T10:12:22.735Z</time></trkpt><trkpt lat="45.1490479" lon="12.3105795"><ele>-2.1999999999999997</ele><time>2026-05-02T10:12:24.733Z</time></trkpt><trkpt lat="45.1491322" lon="12.3106718"><ele>-1.8</ele><time>2026-05-02T10:12:26.739Z</time></trkpt><trkpt lat="45.1492147" lon="12.3107575"><ele>-1.4</ele><time>2026-05-02T10:12:28.733Z</time></trkpt><trkpt lat="45.14929" lon="12.3108508"><ele>-1.0</ele><time>2026-05-02T10:12:30.733Z</time></trkpt><trkpt lat="45.1493626" lon="12.3109534"><ele>-1.0</ele><time>2026-05-02T10:12:32.74Z</time></trkpt><trkpt lat="45.149427" lon="12.3110656"><ele>-1.0</ele><time>2026-05-02T10:12:34.729Z</time></trkpt><trkpt lat="45.1494888" lon="12.31118"><ele>-1.0</ele><time>2026-05-02T10:12:36.729Z</time></trkpt><trkpt lat="45.1495485" lon="12.3112967"><ele>-1.0</ele><time>2026-05-02T10:12:38.735Z</time></trkpt><trkpt lat="45.1496011" lon="12.3114122"><ele>-1.0</ele><time>2026-05-02T10:12:40.734Z</time></trkpt><trkpt lat="45.1496577" lon="12.3115329"><ele>-0.8</ele><time>2026-05-02T10:12:42.735Z</time></trkpt><trkpt lat="45.1497155" lon="12.3116625"><ele>-0.6000000000000001</ele><time>2026-05-02T10:12:44.734Z</time></trkpt><trkpt lat="45.1497741" lon="12.3117913"><ele>-0.4</ele><time>2026-05-02T10:12:46.731Z</time></trkpt><trkpt lat="45.1498334" lon="12.3119202"><ele>-0.2</ele><time>2026-05-02T10:12:48.731Z</time></trkpt><trkpt lat="45.1498882" lon="12.3120534"><ele>0.0</ele><time>2026-05-02T10:12:50.729Z</time></trkpt><trkpt lat="45.1499486" lon="12.3121851"><ele>-0.5</ele><time>2026-05-02T10:12:52.74Z</time></trkpt><trkpt lat="45.1500085" lon="12.3123182"><ele>-1.0</ele><time>2026-05-02T10:12:54.731Z</time></trkpt><trkpt lat="45.150067" lon="12.3124501"><ele>-1.5</ele><time>2026-05-02T10:12:56.735Z</time></trkpt><trkpt lat="45.1501308" lon="12.3125851"><ele>-2.0</ele><time>2026-05-02T10:12:58.736Z</time></trkpt><trkpt lat="45.1501928" lon="12.312723"><ele>-2.0</ele><time>2026-05-02T10:13:00.734Z</time></trkpt><trkpt lat="45.1502501" lon="12.3128596"><ele>-2.0</ele><time>2026-05-02T10:13:02.734Z</time></trkpt><trkpt lat="45.1503089" lon="12.3129941"><ele>-2.0</ele><time>2026-05-02T10:13:04.727Z</time></trkpt><trkpt lat="45.1503686" lon="12.313128"><ele>-2.0</ele><time>2026-05-02T10:13:06.737Z</time></trkpt><trkpt lat="45.15043" lon="12.3132635"><ele>-2.0</ele><time>2026-05-02T10:13:08.735Z</time></trkpt><trkpt lat="45.1504909" lon="12.3133992"><ele>-2.2</ele><time>2026-05-02T10:13:10.737Z</time></trkpt><trkpt lat="45.150552" lon="12.3135338"><ele>-2.4000000000000004</ele><time>2026-05-02T10:13:12.741Z</time></trkpt><trkpt lat="45.1506125" lon="12.3136677"><ele>-2.5999999999999996</ele><time>2026-05-02T10:13:14.735Z</time></trkpt><trkpt lat="45.150672" lon="12.3137992"><ele>-2.8</ele><time>2026-05-02T10:13:16.731Z</time></trkpt><trkpt lat="45.1507334" lon="12.313933"><ele>-3.0</ele><time>2026-05-02T10:13:18.726Z</time></trkpt><trkpt lat="45.1507955" lon="12.3140693"><ele>-3.0</ele><time>2026-05-02T10:13:20.737Z</time></trkpt><trkpt lat="45.1508583" lon="12.3142074"><ele>-3.0</ele><time>2026-05-02T10:13:22.742Z</time></trkpt><trkpt lat="45.1509175" lon="12.3143401"><ele>-3.0</ele><time>2026-05-02T10:13:24.734Z</time></trkpt><trkpt lat="45.150978" lon="12.3144738"><ele>-3.0</ele><time>2026-05-02T10:13:26.73Z</time></trkpt><trkpt lat="45.1510386" lon="12.3146088"><ele>-2.6</ele><time>2026-05-02T10:13:28.736Z</time></trkpt><trkpt lat="45.1510983" lon="12.3147391"><ele>-2.1999999999999997</ele><time>2026-05-02T10:13:30.734Z</time></trkpt><trkpt lat="45.1511555" lon="12.3148702"><ele>-1.8</ele><time>2026-05-02T10:13:32.742Z</time></trkpt><trkpt lat="45.1512135" lon="12.3150028"><ele>-1.4</ele><time>2026-05-02T10:13:34.736Z</time></trkpt><trkpt lat="45.1512703" lon="12.3151349"><ele>-1.0</ele><time>2026-05-02T10:13:36.728Z</time></trkpt><trkpt lat="45.1513258" lon="12.3152635"><ele>-1.0</ele><time>2026-05-02T10:13:38.731Z</time></trkpt><trkpt lat="45.1513824" lon="12.3153933"><ele>-1.0</ele><time>2026-05-02T10:13:40.735Z</time></trkpt><trkpt lat="45.1514454" lon="12.3155239"><ele>-1.0</ele><time>2026-05-02T10:13:42.738Z</time></trkpt><trkpt lat="45.1515029" lon="12.3156531"><ele>-1.0</ele><time>2026-05-02T10:13:44.733Z</time></trkpt><trkpt lat="45.1515578" lon="12.3157868"><ele>-1.0</ele><time>2026-05-02T10:13:46.734Z</time></trkpt><trkpt lat="45.1516195" lon="12.3159243"><ele>-1.25</ele><time>2026-05-02T10:13:48.735Z</time></trkpt><trkpt lat="45.1516823" lon="12.3160621"><ele>-1.5</ele><time>2026-05-02T10:13:50.73Z</time></trkpt><trkpt lat="45.1517457" lon="12.3162"><ele>-1.75</ele><time>2026-05-02T10:13:52.739Z</time></trkpt><trkpt lat="45.1518075" lon="12.3163331"><ele>-2.0</ele><time>2026-05-02T10:13:54.734Z</time></trkpt><trkpt lat="45.1518667" lon="12.3164646"><ele>-2.0</ele><time>2026-05-02T10:13:56.734Z</time></trkpt><trkpt lat="45.1519295" lon="12.316593"><ele>-2.0</ele><time>2026-05-02T10:13:58.727Z</time></trkpt><trkpt lat="45.1519877" lon="12.3167216"><ele>-2.0</ele><time>2026-05-02T10:14:00.735Z</time></trkpt><trkpt lat="45.1520442" lon="12.3168496"><ele>-2.0</ele><time>2026-05-02T10:14:02.738Z</time></trkpt><trkpt lat="45.1520985" lon="12.3169749"><ele>-2.0</ele><time>2026-05-02T10:14:04.737Z</time></trkpt><trkpt lat="45.152156" lon="12.3171007"><ele>-2.0</ele><time>2026-05-02T10:14:06.734Z</time></trkpt><trkpt lat="45.1522152" lon="12.3172305"><ele>-2.0</ele><time>2026-05-02T10:14:08.735Z</time></trkpt><trkpt lat="45.1522707" lon="12.3173584"><ele>-2.0</ele><time>2026-05-02T10:14:10.735Z</time></trkpt><trkpt lat="45.1523293" lon="12.317485"><ele>-2.0</ele><time>2026-05-02T10:14:12.742Z</time></trkpt><trkpt lat="45.152385" lon="12.3176082"><ele>-2.0</ele><time>2026-05-02T10:14:14.731Z</time></trkpt><trkpt lat="45.1524412" lon="12.3177326"><ele>-2.0</ele><time>2026-05-02T10:14:16.735Z</time></trkpt><trkpt lat="45.1524957" lon="12.3178552"><ele>-2.0</ele><time>2026-05-02T10:14:18.736Z</time></trkpt><trkpt lat="45.1525521" lon="12.3179786"><ele>-2.0</ele><time>2026-05-02T10:14:20.736Z</time></trkpt><trkpt lat="45.1526084" lon="12.3181047"><ele>-2.0</ele><time>2026-05-02T10:14:22.74Z</time></trkpt><trkpt lat="45.1526677" lon="12.3182389"><ele>-2.0</ele><time>2026-05-02T10:14:24.736Z</time></trkpt><trkpt lat="45.1527231" lon="12.3183679"><ele>-2.0</ele><time>2026-05-02T10:14:26.735Z</time></trkpt><trkpt lat="45.1527796" lon="12.3184975"><ele>-2.0</ele><time>2026-05-02T10:14:28.734Z</time></trkpt><trkpt lat="45.1528365" lon="12.3186306"><ele>-2.0</ele><time>2026-05-02T10:14:30.738Z</time></trkpt><trkpt lat="45.1528981" lon="12.318761"><ele>-2.0</ele><time>2026-05-02T10:14:32.739Z</time></trkpt><trkpt lat="45.1529631" lon="12.31889"><ele>-2.0</ele><time>2026-05-02T10:14:34.732Z</time></trkpt><trkpt lat="45.1530298" lon="12.3190104"><ele>-2.0</ele><time>2026-05-02T10:14:36.734Z</time></trkpt><trkpt lat="45.1531064" lon="12.3191192"><ele>-2.0</ele><time>2026-05-02T10:14:38.734Z</time></trkpt><trkpt lat="45.1531934" lon="12.3192116"><ele>-2.0</ele><time>2026-05-02T10:14:40.733Z</time></trkpt><trkpt lat="45.1532849" lon="12.3192903"><ele>-2.0</ele><time>2026-05-02T10:14:42.73Z</time></trkpt><trkpt lat="45.153382" lon="12.319355"><ele>-2.0</ele><time>2026-05-02T10:14:44.731Z</time></trkpt><trkpt lat="45.1534847" lon="12.3193979"><ele>-2.2</ele><time>2026-05-02T10:14:46.732Z</time></trkpt><trkpt lat="45.1535906" lon="12.319408"><ele>-2.4000000000000004</ele><time>2026-05-02T10:14:48.736Z</time></trkpt><trkpt lat="45.1536971" lon="12.3193947"><ele>-2.5999999999999996</ele><time>2026-05-02T10:14:50.729Z</time></trkpt><trkpt lat="45.1538092" lon="12.3193721"><ele>-2.8</ele><time>2026-05-02T10:14:52.734Z</time></trkpt><trkpt lat="45.1539201" lon="12.3193464"><ele>-3.0</ele><time>2026-05-02T10:14:54.731Z</time></trkpt><trkpt lat="45.1540306" lon="12.3193213"><ele>-3.0</ele><time>2026-05-02T10:14:56.737Z</time></trkpt><trkpt lat="45.1541431" lon="12.3192979"><ele>-3.0</ele><time>2026-05-02T10:14:58.736Z</time></trkpt><trkpt lat="45.1542526" lon="12.3192767"><ele>-3.0</ele><time>2026-05-02T10:15:00.732Z</time></trkpt><trkpt lat="45.1543613" lon="12.3192579"><ele>-3.0</ele><time>2026-05-02T10:15:02.738Z</time></trkpt><trkpt lat="45.1544706" lon="12.3192376"><ele>-3.0</ele><time>2026-05-02T10:15:04.734Z</time></trkpt><trkpt lat="45.1545808" lon="12.3192162"><ele>-3.0</ele><time>2026-05-02T10:15:06.728Z</time></trkpt><trkpt lat="45.1546889" lon="12.3191919"><ele>-3.0</ele><time>2026-05-02T10:15:08.733Z</time></trkpt><trkpt lat="45.1547976" lon="12.3191676"><ele>-3.0</ele><time>2026-05-02T10:15:10.734Z</time></trkpt><trkpt lat="45.1549083" lon="12.3191431"><ele>-3.0</ele><time>2026-05-02T10:15:12.734Z</time></trkpt><trkpt lat="45.1550196" lon="12.3191193"><ele>-3.0</ele><time>2026-05-02T10:15:14.737Z</time></trkpt><trkpt lat="45.1551303" lon="12.3191021"><ele>-3.0</ele><time>2026-05-02T10:15:16.733Z</time></trkpt><trkpt lat="45.1552366" lon="12.3190826"><ele>-3.0</ele><time>2026-05-02T10:15:18.735Z</time></trkpt><trkpt lat="45.1553445" lon="12.3190626"><ele>-3.0</ele><time>2026-05-02T10:15:20.732Z</time></trkpt><trkpt lat="45.155458" lon="12.3190401"><ele>-3.0</ele><time>2026-05-02T10:15:22.736Z</time></trkpt><trkpt lat="45.1555706" lon="12.3190231"><ele>-3.0</ele><time>2026-05-02T10:15:24.736Z</time></trkpt><trkpt lat="45.1556818" lon="12.3190042"><ele>-3.25</ele><time>2026-05-02T10:15:26.738Z</time></trkpt><trkpt lat="45.1557965" lon="12.3189836"><ele>-3.5</ele><time>2026-05-02T10:15:28.733Z</time></trkpt><trkpt lat="45.1559098" lon="12.3189621"><ele>-3.75</ele><time>2026-05-02T10:15:30.732Z</time></trkpt><trkpt lat="45.1560206" lon="12.3189394"><ele>-4.0</ele><time>2026-05-02T10:15:32.737Z</time></trkpt><trkpt lat="45.1561339" lon="12.3189157"><ele>-3.8000000000000003</ele><time>2026-05-02T10:15:34.739Z</time></trkpt><trkpt lat="45.1562463" lon="12.3188925"><ele>-3.6000000000000005</ele><time>2026-05-02T10:15:36.728Z</time></trkpt><trkpt lat="45.1563572" lon="12.3188733"><ele>-3.4</ele><time>2026-05-02T10:15:38.737Z</time></trkpt><trkpt lat="45.156466" lon="12.3188527"><ele>-3.2</ele><time>2026-05-02T10:15:40.732Z</time></trkpt><trkpt lat="45.1565749" lon="12.3188356"><ele>-3.0</ele><time>2026-05-02T10:15:42.733Z</time></trkpt><trkpt lat="45.1566815" lon="12.318817"><ele>-3.0</ele><time>2026-05-02T10:15:44.738Z</time></trkpt><trkpt lat="45.1567783" lon="12.3188072"><ele>-3.0</ele><time>2026-05-02T10:15:46.733Z</time></trkpt><trkpt lat="45.1568688" lon="12.3188121"><ele>-3.0</ele><time>2026-05-02T10:15:48.737Z</time></trkpt><trkpt lat="45.1569575" lon="12.3188228"><ele>-3.0</ele><time>2026-05-02T10:15:50.737Z</time></trkpt><trkpt lat="45.1570405" lon="12.3188501"><ele>-3.0</ele><time>2026-05-02T10:15:52.732Z</time></trkpt><trkpt lat="45.1571242" lon="12.3188948"><ele>-3.0</ele><time>2026-05-02T10:15:54.74Z</time></trkpt><trkpt lat="45.1572105" lon="12.3189487"><ele>-3.0</ele><time>2026-05-02T10:15:56.733Z</time></trkpt><trkpt lat="45.1572964" lon="12.3190182"><ele>-3.0</ele><time>2026-05-02T10:15:58.735Z</time></trkpt><trkpt lat="45.1573806" lon="12.3190987"><ele>-3.0</ele><time>2026-05-02T10:16:00.734Z</time></trkpt><trkpt lat="45.1574578" lon="12.3191916"><ele>-3.0</ele><time>2026-05-02T10:16:02.731Z</time></trkpt><trkpt lat="45.1575415" lon="12.3192858"><ele>-2.8</ele><time>2026-05-02T10:16:04.735Z</time></trkpt><trkpt lat="45.1576219" lon="12.3193777"><ele>-2.5999999999999996</ele><time>2026-05-02T10:16:06.729Z</time></trkpt><trkpt lat="45.1577012" lon="12.3194721"><ele>-2.4000000000000004</ele><time>2026-05-02T10:16:08.736Z</time></trkpt><trkpt lat="45.1577803" lon="12.3195625"><ele>-2.2</ele><time>2026-05-02T10:16:10.736Z</time></trkpt><trkpt lat="45.15786" lon="12.3196537"><ele>-2.0</ele><time>2026-05-02T10:16:12.731Z</time></trkpt><trkpt lat="45.1579412" lon="12.3197468"><ele>-2.0</ele><time>2026-05-02T10:16:14.734Z</time></trkpt><trkpt lat="45.1580219" lon="12.3198419"><ele>-2.0</ele><time>2026-05-02T10:16:16.732Z</time></trkpt><trkpt lat="45.1581064" lon="12.3199402"><ele>-2.0</ele><time>2026-05-02T10:16:18.731Z</time></trkpt><trkpt lat="45.1581904" lon="12.3200275"><ele>-2.0</ele><time>2026-05-02T10:16:20.735Z</time></trkpt><trkpt lat="45.1582753" lon="12.3201192"><ele>-2.0</ele><time>2026-05-02T10:16:22.742Z</time></trkpt><trkpt lat="45.1583522" lon="12.3202217"><ele>-2.0</ele><time>2026-05-02T10:16:24.736Z</time></trkpt><trkpt lat="45.1584364" lon="12.3203208"><ele>-2.0</ele><time>2026-05-02T10:16:26.733Z</time></trkpt><trkpt lat="45.1585221" lon="12.3204165"><ele>-2.0</ele><time>2026-05-02T10:16:28.732Z</time></trkpt><trkpt lat="45.1586108" lon="12.3205119"><ele>-2.0</ele><time>2026-05-02T10:16:30.734Z</time></trkpt><trkpt lat="45.158699" lon="12.3206126"><ele>-2.0</ele><time>2026-05-02T10:16:32.739Z</time></trkpt><trkpt lat="45.1587845" lon="12.3207121"><ele>-2.0</ele><time>2026-05-02T10:16:34.736Z</time></trkpt><trkpt lat="45.1588698" lon="12.3208114"><ele>-2.0</ele><time>2026-05-02T10:16:36.737Z</time></trkpt><trkpt lat="45.1589552" lon="12.3209095"><ele>-2.0</ele><time>2026-05-02T10:16:38.736Z</time></trkpt><trkpt lat="45.1590404" lon="12.3210064"><ele>-2.0</ele><time>2026-05-02T10:16:40.731Z</time></trkpt><trkpt lat="45.1591256" lon="12.3211002"><ele>-2.0</ele><time>2026-05-02T10:16:42.74Z</time></trkpt><trkpt lat="45.159207" lon="12.3211955"><ele>-2.0</ele><time>2026-05-02T10:16:44.738Z</time></trkpt><trkpt lat="45.1592905" lon="12.321289"><ele>-2.0</ele><time>2026-05-02T10:16:46.729Z</time></trkpt><trkpt lat="45.1593723" lon="12.3213809"><ele>-2.0</ele><time>2026-05-02T10:16:48.732Z</time></trkpt><trkpt lat="45.1594549" lon="12.3214733"><ele>-2.0</ele><time>2026-05-02T10:16:50.736Z</time></trkpt><trkpt lat="45.1595367" lon="12.3215689"><ele>-2.0</ele><time>2026-05-02T10:16:52.729Z</time></trkpt><trkpt lat="45.1596189" lon="12.3216649"><ele>-2.0</ele><time>2026-05-02T10:16:54.731Z</time></trkpt><trkpt lat="45.1597033" lon="12.3217602"><ele>-2.0</ele><time>2026-05-02T10:16:56.73Z</time></trkpt><trkpt lat="45.1597863" lon="12.3218555"><ele>-2.0</ele><time>2026-05-02T10:16:58.733Z</time></trkpt><trkpt lat="45.1598689" lon="12.3219548"><ele>-2.0</ele><time>2026-05-02T10:17:00.734Z</time></trkpt><trkpt lat="45.1599539" lon="12.3220511"><ele>-2.0</ele><time>2026-05-02T10:17:02.734Z</time></trkpt><trkpt lat="45.1600352" lon="12.3221469"><ele>-2.2</ele><time>2026-05-02T10:17:04.73Z</time></trkpt><trkpt lat="45.1601146" lon="12.3222429"><ele>-2.4000000000000004</ele><time>2026-05-02T10:17:06.735Z</time></trkpt><trkpt lat="45.1601965" lon="12.3223356"><ele>-2.5999999999999996</ele><time>2026-05-02T10:17:08.734Z</time></trkpt><trkpt lat="45.1602762" lon="12.3224293"><ele>-2.8</ele><time>2026-05-02T10:17:10.736Z</time></trkpt><trkpt lat="45.1603576" lon="12.3225184"><ele>-3.0</ele><time>2026-05-02T10:17:12.737Z</time></trkpt><trkpt lat="45.1604383" lon="12.32261"><ele>-3.0</ele><time>2026-05-02T10:17:14.736Z</time></trkpt><trkpt lat="45.1605176" lon="12.3227031"><ele>-3.0</ele><time>2026-05-02T10:17:16.732Z</time></trkpt><trkpt lat="45.1605993" lon="12.3227958"><ele>-3.0</ele><time>2026-05-02T10:17:18.732Z</time></trkpt><trkpt lat="45.1606813" lon="12.3228896"><ele>-3.0</ele><time>2026-05-02T10:17:20.735Z</time></trkpt><trkpt lat="45.1607553" lon="12.3229791"><ele>-3.0</ele><time>2026-05-02T10:17:22.737Z</time></trkpt><trkpt lat="45.160824" lon="12.3230648"><ele>-2.8333333333333335</ele><time>2026-05-02T10:17:24.736Z</time></trkpt><trkpt lat="45.1608835" lon="12.3231534"><ele>-2.6666666666666665</ele><time>2026-05-02T10:17:26.738Z</time></trkpt><trkpt lat="45.1609264" lon="12.323248"><ele>-2.5</ele><time>2026-05-02T10:17:28.731Z</time></trkpt><trkpt lat="45.1609563" lon="12.3233465"><ele>-2.333333333333333</ele><time>2026-05-02T10:17:30.732Z</time></trkpt><trkpt lat="45.1610267" lon="12.3234137"><ele>-2.1666666666666665</ele><time>2026-05-02T10:17:33.726Z</time></trkpt><trkpt lat="45.1610942" lon="12.3234027"><ele>-2.0</ele><time>2026-05-02T10:17:35.738Z</time></trkpt><trkpt lat="45.1611832" lon="12.3233641"><ele>-2.0</ele><time>2026-05-02T10:17:37.73Z</time></trkpt><trkpt lat="45.1612921" lon="12.3233199"><ele>-2.0</ele><time>2026-05-02T10:17:39.728Z</time></trkpt><trkpt lat="45.1614067" lon="12.3232664"><ele>-2.0</ele><time>2026-05-02T10:17:41.732Z</time></trkpt><trkpt lat="45.1615116" lon="12.3232118"><ele>-2.0</ele><time>2026-05-02T10:17:43.731Z</time></trkpt><trkpt lat="45.161605" lon="12.3231625"><ele>-2.0</ele><time>2026-05-02T10:17:45.732Z</time></trkpt><trkpt lat="45.1616939" lon="12.3231043"><ele>-1.9999999999999998</ele><time>2026-05-02T10:17:47.733Z</time></trkpt><trkpt lat="45.1617807" lon="12.3230554"><ele>-2.0</ele><time>2026-05-02T10:17:49.733Z</time></trkpt><trkpt lat="45.1618673" lon="12.323014"><ele>-2.0</ele><time>2026-05-02T10:17:51.731Z</time></trkpt><trkpt lat="45.1619545" lon="12.3229699"><ele>-2.0</ele><time>2026-05-02T10:17:53.732Z</time></trkpt><trkpt lat="45.1620351" lon="12.3229296"><ele>-1.9999999999999998</ele><time>2026-05-02T10:17:55.73Z</time></trkpt><trkpt lat="45.1621108" lon="12.3228975"><ele>-2.0</ele><time>2026-05-02T10:17:57.732Z</time></trkpt><trkpt lat="45.1621836" lon="12.3228598"><ele>-1.9999999999999998</ele><time>2026-05-02T10:17:59.732Z</time></trkpt><trkpt lat="45.162254" lon="12.3228292"><ele>-2.0</ele><time>2026-05-02T10:18:01.729Z</time></trkpt><trkpt lat="45.1623205" lon="12.3227921"><ele>-2.0</ele><time>2026-05-02T10:18:03.734Z</time></trkpt><trkpt lat="45.1624064" lon="12.322752"><ele>-2.0</ele><time>2026-05-02T10:18:06.728Z</time></trkpt><trkpt lat="45.1624823" lon="12.3227141"><ele>-1.9999999999999998</ele><time>2026-05-02T10:18:09.727Z</time></trkpt><trkpt lat="45.1625584" lon="12.3226668"><ele>-2.0</ele><time>2026-05-02T10:18:12.737Z</time></trkpt><trkpt lat="45.1626151" lon="12.3225823"><ele>-1.6666666666666665</ele><time>2026-05-02T10:18:15.732Z</time></trkpt><trkpt lat="45.1626259" lon="12.3224905"><ele>-1.3333333333333333</ele><time>2026-05-02T10:18:17.731Z</time></trkpt><trkpt lat="45.1626354" lon="12.3223871"><ele>-1.0</ele><time>2026-05-02T10:18:19.73Z</time></trkpt><trkpt lat="45.162647" lon="12.3222924"><ele>-0.6666666666666666</ele><time>2026-05-02T10:18:21.733Z</time></trkpt><trkpt lat="45.1626535" lon="12.3221856"><ele>-0.3333333333333333</ele><time>2026-05-02T10:18:23.728Z</time></trkpt><trkpt lat="45.1626833" lon="12.3220743"><ele>0.0</ele><time>2026-05-02T10:18:25.73Z</time></trkpt><trkpt lat="45.1627561" lon="12.3220016"><ele>0.0</ele><time>2026-05-02T10:18:27.726Z</time></trkpt><trkpt lat="45.1628483" lon="12.3219996"><ele>0.0</ele><time>2026-05-02T10:18:29.738Z</time></trkpt><trkpt lat="45.1629281" lon="12.3220335"><ele>0.0</ele><time>2026-05-02T10:18:31.73Z</time></trkpt><trkpt lat="45.1630016" lon="12.3220705"><ele>0.0</ele><time>2026-05-02T10:18:33.73Z</time></trkpt><trkpt lat="45.1630692" lon="12.3221031"><ele>0.0</ele><time>2026-05-02T10:18:35.724Z</time></trkpt><trkpt lat="45.1631378" lon="12.3221386"><ele>0.0</ele><time>2026-05-02T10:18:37.729Z</time></trkpt><trkpt lat="45.1632105" lon="12.3221754"><ele>-0.16666666666666666</ele><time>2026-05-02T10:18:39.728Z</time></trkpt><trkpt lat="45.1632875" lon="12.3222188"><ele>-0.3333333333333333</ele><time>2026-05-02T10:18:41.728Z</time></trkpt><trkpt lat="45.1633682" lon="12.322261"><ele>-0.5</ele><time>2026-05-02T10:18:43.727Z</time></trkpt><trkpt lat="45.1634518" lon="12.3222997"><ele>-0.6666666666666666</ele><time>2026-05-02T10:18:45.728Z</time></trkpt><trkpt lat="45.1635334" lon="12.322344"><ele>-0.8333333333333333</ele><time>2026-05-02T10:18:47.731Z</time></trkpt><trkpt lat="45.1636114" lon="12.3223851"><ele>-1.0</ele><time>2026-05-02T10:18:49.731Z</time></trkpt><trkpt lat="45.1636888" lon="12.3224253"><ele>-0.9999999999999999</ele><time>2026-05-02T10:18:51.729Z</time></trkpt><trkpt lat="45.1637684" lon="12.3224685"><ele>-1.0</ele><time>2026-05-02T10:18:53.73Z</time></trkpt><trkpt lat="45.1638508" lon="12.3225055"><ele>-1.0</ele><time>2026-05-02T10:18:55.727Z</time></trkpt><trkpt lat="45.1639308" lon="12.3225486"><ele>-1.0</ele><time>2026-05-02T10:18:57.73Z</time></trkpt><trkpt lat="45.1640019" lon="12.322605"><ele>-0.9999999999999999</ele><time>2026-05-02T10:18:59.732Z</time></trkpt><trkpt lat="45.1640619" lon="12.3226712"><ele>-1.0</ele><time>2026-05-02T10:19:01.726Z</time></trkpt><trkpt lat="45.1641078" lon="12.3227542"><ele>-1.3333333333333333</ele><time>2026-05-02T10:19:03.729Z</time></trkpt><trkpt lat="45.1641565" lon="12.3228461"><ele>-1.6666666666666665</ele><time>2026-05-02T10:19:05.731Z</time></trkpt><trkpt lat="45.1641975" lon="12.3229419"><ele>-2.0</ele><time>2026-05-02T10:19:07.727Z</time></trkpt><trkpt lat="45.1642316" lon="12.3230391"><ele>-2.3333333333333335</ele><time>2026-05-02T10:19:09.73Z</time></trkpt><trkpt lat="45.1642608" lon="12.3231393"><ele>-2.6666666666666665</ele><time>2026-05-02T10:19:11.724Z</time></trkpt><trkpt lat="45.1642826" lon="12.3232394"><ele>-3.0</ele><time>2026-05-02T10:19:13.732Z</time></trkpt><trkpt lat="45.1642942" lon="12.3233497"><ele>-3.0</ele><time>2026-05-02T10:19:15.727Z</time></trkpt><trkpt lat="45.1643" lon="12.3234676"><ele>-3.0</ele><time>2026-05-02T10:19:17.724Z</time></trkpt><trkpt lat="45.1643095" lon="12.3235929"><ele>-3.0</ele><time>2026-05-02T10:19:19.726Z</time></trkpt><trkpt lat="45.1643201" lon="12.3237124"><ele>-3.0</ele><time>2026-05-02T10:19:21.727Z</time></trkpt><trkpt lat="45.1643377" lon="12.3238287"><ele>-3.0</ele><time>2026-05-02T10:19:23.73Z</time></trkpt><trkpt lat="45.1643733" lon="12.3239364"><ele>-3.0</ele><time>2026-05-02T10:19:25.725Z</time></trkpt><trkpt lat="45.1644193" lon="12.32403"><ele>-2.6666666666666665</ele><time>2026-05-02T10:19:27.729Z</time></trkpt><trkpt lat="45.16448" lon="12.3241064"><ele>-2.3333333333333335</ele><time>2026-05-02T10:19:29.729Z</time></trkpt><trkpt lat="45.1645542" lon="12.3241589"><ele>-2.0</ele><time>2026-05-02T10:19:31.731Z</time></trkpt><trkpt lat="45.1646375" lon="12.3241844"><ele>-1.6666666666666665</ele><time>2026-05-02T10:19:33.731Z</time></trkpt><trkpt lat="45.1647219" lon="12.3241911"><ele>-1.3333333333333333</ele><time>2026-05-02T10:19:35.734Z</time></trkpt><trkpt lat="45.1648059" lon="12.3241816"><ele>-1.0</ele><time>2026-05-02T10:19:37.726Z</time></trkpt><trkpt lat="45.1648944" lon="12.3241692"><ele>-0.9999999999999999</ele><time>2026-05-02T10:19:39.727Z</time></trkpt><trkpt lat="45.1649823" lon="12.324161"><ele>-1.0</ele><time>2026-05-02T10:19:41.728Z</time></trkpt><trkpt lat="45.1650692" lon="12.3241475"><ele>-1.0</ele><time>2026-05-02T10:19:43.73Z</time></trkpt><trkpt lat="45.1651529" lon="12.3241423"><ele>-1.0</ele><time>2026-05-02T10:19:45.728Z</time></trkpt><trkpt lat="45.1652405" lon="12.3241289"><ele>-0.9999999999999999</ele><time>2026-05-02T10:19:47.727Z</time></trkpt><trkpt lat="45.1653279" lon="12.3241189"><ele>-1.0</ele><time>2026-05-02T10:19:49.723Z</time></trkpt><trkpt lat="45.165419" lon="12.3241061"><ele>-1.0</ele><time>2026-05-02T10:19:51.736Z</time></trkpt><trkpt lat="45.1655111" lon="12.3240958"><ele>-1.0</ele><time>2026-05-02T10:19:53.729Z</time></trkpt><trkpt lat="45.1656032" lon="12.3240838"><ele>-1.0</ele><time>2026-05-02T10:19:55.728Z</time></trkpt><trkpt lat="45.1656936" lon="12.3240816"><ele>-1.0</ele><time>2026-05-02T10:19:57.736Z</time></trkpt><trkpt lat="45.1657836" lon="12.3240738"><ele>-1.0</ele><time>2026-05-02T10:19:59.723Z</time></trkpt><trkpt lat="45.1658751" lon="12.3240717"><ele>-1.4</ele><time>2026-05-02T10:20:01.73Z</time></trkpt><trkpt lat="45.1659668" lon="12.3240667"><ele>-1.8</ele><time>2026-05-02T10:20:03.729Z</time></trkpt><trkpt lat="45.1660607" lon="12.3240712"><ele>-2.1999999999999997</ele><time>2026-05-02T10:20:05.727Z</time></trkpt><trkpt lat="45.1661537" lon="12.3240962"><ele>-2.6</ele><time>2026-05-02T10:20:07.727Z</time></trkpt><trkpt lat="45.1662455" lon="12.324138"><ele>-3.0</ele><time>2026-05-02T10:20:09.724Z</time></trkpt><trkpt lat="45.1663387" lon="12.3241778"><ele>-3.0</ele><time>2026-05-02T10:20:11.731Z</time></trkpt><trkpt lat="45.1664318" lon="12.3242075"><ele>-3.0</ele><time>2026-05-02T10:20:13.727Z</time></trkpt><trkpt lat="45.1665202" lon="12.32424"><ele>-3.0</ele><time>2026-05-02T10:20:15.729Z</time></trkpt><trkpt lat="45.1666097" lon="12.3242691"><ele>-3.0</ele><time>2026-05-02T10:20:17.726Z</time></trkpt><trkpt lat="45.1667002" lon="12.3242976"><ele>-3.0</ele><time>2026-05-02T10:20:19.736Z</time></trkpt><trkpt lat="45.1667909" lon="12.324342"><ele>-2.8333333333333335</ele><time>2026-05-02T10:20:21.726Z</time></trkpt><trkpt lat="45.1668767" lon="12.3243839"><ele>-2.6666666666666665</ele><time>2026-05-02T10:20:23.73Z</time></trkpt><trkpt lat="45.1669595" lon="12.3244224"><ele>-2.5</ele><time>2026-05-02T10:20:25.727Z</time></trkpt><trkpt lat="45.1670412" lon="12.3244689"><ele>-2.333333333333333</ele><time>2026-05-02T10:20:27.72Z</time></trkpt><trkpt lat="45.1671182" lon="12.3245152"><ele>-2.1666666666666665</ele><time>2026-05-02T10:20:29.726Z</time></trkpt><trkpt lat="45.1671863" lon="12.3245546"><ele>-2.0</ele><time>2026-05-02T10:20:31.73Z</time></trkpt><trkpt lat="45.1672605" lon="12.3245985"><ele>-1.9999999999999998</ele><time>2026-05-02T10:20:33.732Z</time></trkpt><trkpt lat="45.1673473" lon="12.3246406"><ele>-2.0</ele><time>2026-05-02T10:20:35.726Z</time></trkpt><trkpt lat="45.1674216" lon="12.3246861"><ele>-2.0</ele><time>2026-05-02T10:20:37.733Z</time></trkpt><trkpt lat="45.1674998" lon="12.3247292"><ele>-2.0</ele><time>2026-05-02T10:20:39.726Z</time></trkpt><trkpt lat="45.1675906" lon="12.3247627"><ele>-1.9999999999999998</ele><time>2026-05-02T10:20:41.723Z</time></trkpt><trkpt lat="45.1676788" lon="12.3247924"><ele>-2.0</ele><time>2026-05-02T10:20:43.723Z</time></trkpt><trkpt lat="45.1677619" lon="12.3247918"><ele>-2.0</ele><time>2026-05-02T10:20:45.729Z</time></trkpt><trkpt lat="45.1678346" lon="12.3247707"><ele>-1.9999999999999998</ele><time>2026-05-02T10:20:47.73Z</time></trkpt><trkpt lat="45.1678957" lon="12.3247482"><ele>-2.0</ele><time>2026-05-02T10:20:49.729Z</time></trkpt><trkpt lat="45.167975" lon="12.3246982"><ele>-2.0</ele><time>2026-05-02T10:20:52.731Z</time></trkpt><trkpt lat="45.1680385" lon="12.324668"><ele>-1.9999999999999998</ele><time>2026-05-02T10:20:54.723Z</time></trkpt><trkpt lat="45.1681097" lon="12.3246392"><ele>-2.0</ele><time>2026-05-02T10:20:56.727Z</time></trkpt><trkpt lat="45.1681826" lon="12.3246081"><ele>-2.0</ele><time>2026-05-02T10:20:58.725Z</time></trkpt><trkpt lat="45.1682556" lon="12.3245744"><ele>-1.9999999999999998</ele><time>2026-05-02T10:21:00.723Z</time></trkpt><trkpt lat="45.1683294" lon="12.3245365"><ele>-2.0</ele><time>2026-05-02T10:21:02.73Z</time></trkpt><trkpt lat="45.1684054" lon="12.3245022"><ele>-2.0</ele><time>2026-05-02T10:21:04.735Z</time></trkpt><trkpt lat="45.1684799" lon="12.3244666"><ele>-2.0</ele><time>2026-05-02T10:21:06.731Z</time></trkpt><trkpt lat="45.1685525" lon="12.3244334"><ele>-1.9999999999999998</ele><time>2026-05-02T10:21:08.728Z</time></trkpt><trkpt lat="45.1686336" lon="12.3244029"><ele>-2.0</ele><time>2026-05-02T10:21:10.725Z</time></trkpt><trkpt lat="45.1687068" lon="12.3243617"><ele>-2.0</ele><time>2026-05-02T10:21:12.734Z</time></trkpt><trkpt lat="45.1687762" lon="12.3243163"><ele>-1.9999999999999998</ele><time>2026-05-02T10:21:14.733Z</time></trkpt><trkpt lat="45.1688429" lon="12.3242655"><ele>-2.0</ele><time>2026-05-02T10:21:16.726Z</time></trkpt><trkpt lat="45.1689054" lon="12.3242124"><ele>-2.0</ele><time>2026-05-02T10:21:18.731Z</time></trkpt><trkpt lat="45.1689709" lon="12.3241592"><ele>-1.9999999999999998</ele><time>2026-05-02T10:21:20.73Z</time></trkpt><trkpt lat="45.1690334" lon="12.3241072"><ele>-2.0</ele><time>2026-05-02T10:21:22.73Z</time></trkpt><trkpt lat="45.1690944" lon="12.3240633"><ele>-2.0</ele><time>2026-05-02T10:21:24.731Z</time></trkpt><trkpt lat="45.1691496" lon="12.3240173"><ele>-2.0</ele><time>2026-05-02T10:21:26.73Z</time></trkpt><trkpt lat="45.1692014" lon="12.3239631"><ele>-1.9999999999999998</ele><time>2026-05-02T10:21:28.727Z</time></trkpt><trkpt lat="45.1692547" lon="12.3239144"><ele>-2.0</ele><time>2026-05-02T10:21:30.728Z</time></trkpt><trkpt lat="45.1693242" lon="12.3238472"><ele>-2.0</ele><time>2026-05-02T10:21:33.732Z</time></trkpt><trkpt lat="45.1693757" lon="12.3237923"><ele>-1.9999999999999998</ele><time>2026-05-02T10:21:35.727Z</time></trkpt><trkpt lat="45.1694302" lon="12.3237331"><ele>-2.0</ele><time>2026-05-02T10:21:37.728Z</time></trkpt><trkpt lat="45.1694904" lon="12.3236745"><ele>-2.0</ele><time>2026-05-02T10:21:39.727Z</time></trkpt><trkpt lat="45.1695551" lon="12.3236225"><ele>-1.9999999999999998</ele><time>2026-05-02T10:21:41.728Z</time></trkpt><trkpt lat="45.1696222" lon="12.3235745"><ele>-2.0</ele><time>2026-05-02T10:21:43.726Z</time></trkpt><trkpt lat="45.1696838" lon="12.323522"><ele>-2.0</ele><time>2026-05-02T10:21:45.73Z</time></trkpt><trkpt lat="45.1697404" lon="12.3234723"><ele>-2.0</ele><time>2026-05-02T10:21:47.728Z</time></trkpt><trkpt lat="45.169819" lon="12.3234123"><ele>-1.9999999999999998</ele><time>2026-05-02T10:21:50.729Z</time></trkpt><trkpt lat="45.1698932" lon="12.3233511"><ele>-2.0</ele><time>2026-05-02T10:21:53.727Z</time></trkpt><trkpt lat="45.1699706" lon="12.32328"><ele>-1.9999999999999998</ele><time>2026-05-02T10:21:56.727Z</time></trkpt><trkpt lat="45.1700448" lon="12.3232133"><ele>-2.0</ele><time>2026-05-02T10:21:59.726Z</time></trkpt><trkpt lat="45.1701226" lon="12.323143"><ele>-2.0</ele><time>2026-05-02T10:22:02.739Z</time></trkpt><trkpt lat="45.1701783" lon="12.3230922"><ele>-2.0</ele><time>2026-05-02T10:22:04.725Z</time></trkpt><trkpt lat="45.1702385" lon="12.323042"><ele>-1.9999999999999998</ele><time>2026-05-02T10:22:06.729Z</time></trkpt><trkpt lat="45.1702965" lon="12.3229887"><ele>-2.0</ele><time>2026-05-02T10:22:08.73Z</time></trkpt><trkpt lat="45.1703494" lon="12.3229369"><ele>-1.9999999999999998</ele><time>2026-05-02T10:22:10.726Z</time></trkpt><trkpt lat="45.1704237" lon="12.3228722"><ele>-2.0</ele><time>2026-05-02T10:22:13.724Z</time></trkpt><trkpt lat="45.1704938" lon="12.3228061"><ele>-2.0</ele><time>2026-05-02T10:22:16.724Z</time></trkpt><trkpt lat="45.1705467" lon="12.3227561"><ele>-2.0</ele><time>2026-05-02T10:22:18.725Z</time></trkpt><trkpt lat="45.1706039" lon="12.322711"><ele>-1.9999999999999998</ele><time>2026-05-02T10:22:20.728Z</time></trkpt><trkpt lat="45.1706575" lon="12.3226635"><ele>-2.0</ele><time>2026-05-02T10:22:22.737Z</time></trkpt><trkpt lat="45.1707394" lon="12.3226075"><ele>-1.5714285714285714</ele><time>2026-05-02T10:22:25.732Z</time></trkpt><trkpt lat="45.1707994" lon="12.3225642"><ele>-1.1428571428571428</ele><time>2026-05-02T10:22:27.726Z</time></trkpt><trkpt lat="45.1708589" lon="12.3225233"><ele>-0.7142857142857142</ele><time>2026-05-02T10:22:29.729Z</time></trkpt><trkpt lat="45.1709119" lon="12.3224708"><ele>-0.2857142857142857</ele><time>2026-05-02T10:22:31.729Z</time></trkpt><trkpt lat="45.170979" lon="12.3224023"><ele>0.1428571428571428</ele><time>2026-05-02T10:22:34.733Z</time></trkpt><trkpt lat="45.1710515" lon="12.3223437"><ele>0.5714285714285714</ele><time>2026-05-02T10:22:37.735Z</time></trkpt><trkpt lat="45.1711204" lon="12.3222847"><ele>1.0</ele><time>2026-05-02T10:22:40.725Z</time></trkpt><trkpt lat="45.1711699" lon="12.3222177"><ele>1.0</ele><time>2026-05-02T10:22:58.728Z</time></trkpt><trkpt lat="45.1712271" lon="12.3221608"><ele>0.9999999999999999</ele><time>2026-05-02T10:23:01.728Z</time></trkpt><trkpt lat="45.171303" lon="12.3220917"><ele>1.0</ele><time>2026-05-02T10:23:04.727Z</time></trkpt><trkpt lat="45.1713611" lon="12.322045"><ele>1.0</ele><time>2026-05-02T10:23:06.73Z</time></trkpt><trkpt lat="45.1714212" lon="12.3219991"><ele>0.9999999999999999</ele><time>2026-05-02T10:23:08.727Z</time></trkpt><trkpt lat="45.1714811" lon="12.3219429"><ele>1.0</ele><time>2026-05-02T10:23:10.728Z</time></trkpt><trkpt lat="45.1715437" lon="12.321881"><ele>1.0</ele><time>2026-05-02T10:23:12.727Z</time></trkpt><trkpt lat="45.1716111" lon="12.3218211"><ele>0.8333333333333333</ele><time>2026-05-02T10:23:14.73Z</time></trkpt><trkpt lat="45.171676" lon="12.3217587"><ele>0.6666666666666666</ele><time>2026-05-02T10:23:16.728Z</time></trkpt><trkpt lat="45.1717456" lon="12.3216945"><ele>0.5</ele><time>2026-05-02T10:23:18.728Z</time></trkpt><trkpt lat="45.171818" lon="12.3216306"><ele>0.3333333333333333</ele><time>2026-05-02T10:23:20.733Z</time></trkpt><trkpt lat="45.1718937" lon="12.3215728"><ele>0.16666666666666666</ele><time>2026-05-02T10:23:22.734Z</time></trkpt><trkpt lat="45.1719645" lon="12.3215067"><ele>0.0</ele><time>2026-05-02T10:23:24.725Z</time></trkpt><trkpt lat="45.1720309" lon="12.3214459"><ele>0.0</ele><time>2026-05-02T10:23:26.725Z</time></trkpt><trkpt lat="45.1720985" lon="12.3213844"><ele>0.0</ele><time>2026-05-02T10:23:28.728Z</time></trkpt><trkpt lat="45.1721642" lon="12.3213206"><ele>0.0</ele><time>2026-05-02T10:23:30.728Z</time></trkpt><trkpt lat="45.1722305" lon="12.3212571"><ele>0.0</ele><time>2026-05-02T10:23:32.735Z</time></trkpt><trkpt lat="45.172297" lon="12.3211904"><ele>0.0</ele><time>2026-05-02T10:23:34.729Z</time></trkpt><trkpt lat="45.1723598" lon="12.3211254"><ele>0.0</ele><time>2026-05-02T10:23:36.728Z</time></trkpt><trkpt lat="45.1724227" lon="12.3210604"><ele>0.0</ele><time>2026-05-02T10:23:38.73Z</time></trkpt><trkpt lat="45.1724903" lon="12.321003"><ele>0.0</ele><time>2026-05-02T10:23:40.727Z</time></trkpt><trkpt lat="45.1725557" lon="12.3209446"><ele>0.0</ele><time>2026-05-02T10:23:42.728Z</time></trkpt><trkpt lat="45.1726244" lon="12.3208805"><ele>0.0</ele><time>2026-05-02T10:23:44.728Z</time></trkpt><trkpt lat="45.1726929" lon="12.3208187"><ele>0.0</ele><time>2026-05-02T10:23:46.727Z</time></trkpt><trkpt lat="45.1727562" lon="12.3207621"><ele>0.0</ele><time>2026-05-02T10:23:48.727Z</time></trkpt><trkpt lat="45.1728184" lon="12.3207116"><ele>0.0</ele><time>2026-05-02T10:23:50.728Z</time></trkpt><trkpt lat="45.1728848" lon="12.3206687"><ele>0.0</ele><time>2026-05-02T10:23:52.732Z</time></trkpt><trkpt lat="45.1729479" lon="12.3206133"><ele>0.0</ele><time>2026-05-02T10:23:54.726Z</time></trkpt><trkpt lat="45.1730119" lon="12.3205572"><ele>0.0</ele><time>2026-05-02T10:23:56.728Z</time></trkpt><trkpt lat="45.1730783" lon="12.3205033"><ele>0.0</ele><time>2026-05-02T10:23:58.728Z</time></trkpt><trkpt lat="45.1731443" lon="12.3204517"><ele>0.0</ele><time>2026-05-02T10:24:00.726Z</time></trkpt><trkpt lat="45.1732117" lon="12.3204001"><ele>-0.14285714285714285</ele><time>2026-05-02T10:24:02.729Z</time></trkpt><trkpt lat="45.1732739" lon="12.3203407"><ele>-0.2857142857142857</ele><time>2026-05-02T10:24:04.73Z</time></trkpt><trkpt lat="45.1733418" lon="12.3202881"><ele>-0.42857142857142855</ele><time>2026-05-02T10:24:06.728Z</time></trkpt><trkpt lat="45.1734107" lon="12.3202443"><ele>-0.5714285714285714</ele><time>2026-05-02T10:24:08.727Z</time></trkpt><trkpt lat="45.1734703" lon="12.3201897"><ele>-0.7142857142857142</ele><time>2026-05-02T10:24:10.722Z</time></trkpt><trkpt lat="45.1735294" lon="12.320133"><ele>-0.8571428571428571</ele><time>2026-05-02T10:24:12.733Z</time></trkpt><trkpt lat="45.1735898" lon="12.3200862"><ele>-1.0</ele><time>2026-05-02T10:24:14.727Z</time></trkpt><trkpt lat="45.173648" lon="12.3200405"><ele>-0.9999999999999999</ele><time>2026-05-02T10:24:16.732Z</time></trkpt><trkpt lat="45.1737282" lon="12.3199747"><ele>-1.0</ele><time>2026-05-02T10:24:19.728Z</time></trkpt><trkpt lat="45.173809" lon="12.3199153"><ele>-1.0</ele><time>2026-05-02T10:24:22.728Z</time></trkpt><trkpt lat="45.1738845" lon="12.3198639"><ele>-1.0</ele><time>2026-05-02T10:24:25.728Z</time></trkpt><trkpt lat="45.1739629" lon="12.3197874"><ele>-0.9999999999999999</ele><time>2026-05-02T10:24:28.728Z</time></trkpt><trkpt lat="45.1740281" lon="12.3197338"><ele>-1.0</ele><time>2026-05-02T10:24:30.73Z</time></trkpt><trkpt lat="45.1740914" lon="12.3196729"><ele>-0.8571428571428571</ele><time>2026-05-02T10:24:32.735Z</time></trkpt><trkpt lat="45.1741567" lon="12.3196197"><ele>-0.7142857142857142</ele><time>2026-05-02T10:24:34.732Z</time></trkpt><trkpt lat="45.1742242" lon="12.3195736"><ele>-0.5714285714285714</ele><time>2026-05-02T10:24:36.728Z</time></trkpt><trkpt lat="45.174285" lon="12.3195185"><ele>-0.42857142857142855</ele><time>2026-05-02T10:24:38.73Z</time></trkpt><trkpt lat="45.1743391" lon="12.3194565"><ele>-0.2857142857142857</ele><time>2026-05-02T10:24:40.727Z</time></trkpt><trkpt lat="45.174392" lon="12.3193956"><ele>-0.14285714285714285</ele><time>2026-05-02T10:24:42.732Z</time></trkpt><trkpt lat="45.1744443" lon="12.3193352"><ele>0.0</ele><time>2026-05-02T10:24:44.726Z</time></trkpt><trkpt lat="45.1745178" lon="12.3192845"><ele>0.0</ele><time>2026-05-02T10:24:47.723Z</time></trkpt><trkpt lat="45.1745485" lon="12.3191975"><ele>0.0</ele><time>2026-05-02T10:24:51.735Z</time></trkpt><trkpt lat="45.1744757" lon="12.3191777"><ele>0.0</ele><time>2026-05-02T10:24:54.728Z</time></trkpt><trkpt lat="45.1743947" lon="12.319244"><ele>0.0</ele><time>2026-05-02T10:24:57.724Z</time></trkpt><trkpt lat="45.1743434" lon="12.3192977"><ele>0.0</ele><time>2026-05-02T10:24:59.725Z</time></trkpt><trkpt lat="45.1742657" lon="12.3193743"><ele>0.0</ele><time>2026-05-02T10:25:02.738Z</time></trkpt><trkpt lat="45.1741962" lon="12.3194371"><ele>0.0</ele><time>2026-05-02T10:25:05.726Z</time></trkpt><trkpt lat="45.174114" lon="12.3195078"><ele>0.0</ele><time>2026-05-02T10:25:08.729Z</time></trkpt><trkpt lat="45.174055" lon="12.3195557"><ele>0.0</ele><time>2026-05-02T10:25:10.725Z</time></trkpt><trkpt lat="45.1739971" lon="12.3196016"><ele>0.0</ele><time>2026-05-02T10:25:12.739Z</time></trkpt><trkpt lat="45.1739433" lon="12.3196501"><ele>0.0</ele><time>2026-05-02T10:25:14.727Z</time></trkpt><trkpt lat="45.1738876" lon="12.3196981"><ele>0.0</ele><time>2026-05-02T10:25:16.729Z</time></trkpt><trkpt lat="45.1738311" lon="12.3197396"><ele>0.0</ele><time>2026-05-02T10:25:18.732Z</time></trkpt><trkpt lat="45.1737505" lon="12.3198026"><ele>-0.16666666666666666</ele><time>2026-05-02T10:25:21.724Z</time></trkpt><trkpt lat="45.173679" lon="12.3198643"><ele>-0.3333333333333333</ele><time>2026-05-02T10:25:24.729Z</time></trkpt><trkpt lat="45.1736122" lon="12.3199203"><ele>-0.5</ele><time>2026-05-02T10:25:27.727Z</time></trkpt><trkpt lat="45.1735403" lon="12.3199194"><ele>-0.6666666666666666</ele><time>2026-05-02T10:25:30.729Z</time></trkpt><trkpt lat="45.1735029" lon="12.3198346"><ele>-0.8333333333333333</ele><time>2026-05-02T10:25:32.733Z</time></trkpt><trkpt lat="45.1734608" lon="12.3197333"><ele>-1.0</ele><time>2026-05-02T10:25:34.73Z</time></trkpt><trkpt lat="45.1734109" lon="12.3196348"><ele>-1.3333333333333333</ele><time>2026-05-02T10:25:36.734Z</time></trkpt><trkpt lat="45.1733569" lon="12.3195344"><ele>-1.6666666666666665</ele><time>2026-05-02T10:25:38.731Z</time></trkpt><trkpt lat="45.1733065" lon="12.3194365"><ele>-2.0</ele><time>2026-05-02T10:25:40.725Z</time></trkpt><trkpt lat="45.1732574" lon="12.3193442"><ele>-2.3333333333333335</ele><time>2026-05-02T10:25:42.729Z</time></trkpt><trkpt lat="45.173212" lon="12.3192536"><ele>-2.6666666666666665</ele><time>2026-05-02T10:25:44.726Z</time></trkpt><trkpt lat="45.1731673" lon="12.3191642"><ele>-3.0</ele><time>2026-05-02T10:25:46.725Z</time></trkpt><trkpt lat="45.1731254" lon="12.3190867"><ele>-3.0</ele><time>2026-05-02T10:25:48.733Z</time></trkpt><trkpt lat="45.1730836" lon="12.3190045"><ele>-3.0</ele><time>2026-05-02T10:25:50.726Z</time></trkpt><trkpt lat="45.1730399" lon="12.3189239"><ele>-3.0</ele><time>2026-05-02T10:25:52.726Z</time></trkpt><trkpt lat="45.17299" lon="12.3188331"><ele>-3.0</ele><time>2026-05-02T10:25:54.728Z</time></trkpt><trkpt lat="45.1729451" lon="12.3187332"><ele>-3.0</ele><time>2026-05-02T10:25:56.725Z</time></trkpt><trkpt lat="45.1728982" lon="12.3186319"><ele>-3.0</ele><time>2026-05-02T10:25:58.732Z</time></trkpt><trkpt lat="45.1728471" lon="12.3185384"><ele>-3.0</ele><time>2026-05-02T10:26:00.728Z</time></trkpt><trkpt lat="45.1727937" lon="12.3184461"><ele>-3.0</ele><time>2026-05-02T10:26:02.728Z</time></trkpt><trkpt lat="45.1727426" lon="12.318357"><ele>-3.0</ele><time>2026-05-02T10:26:04.725Z</time></trkpt><trkpt lat="45.1726902" lon="12.318263"><ele>-3.0</ele><time>2026-05-02T10:26:06.725Z</time></trkpt><trkpt lat="45.1726397" lon="12.3181677"><ele>-3.0</ele><time>2026-05-02T10:26:08.731Z</time></trkpt><trkpt lat="45.1725915" lon="12.3180742"><ele>-3.0</ele><time>2026-05-02T10:26:10.727Z</time></trkpt><trkpt lat="45.1725488" lon="12.3179789"><ele>-2.9999999999999996</ele><time>2026-05-02T10:26:12.728Z</time></trkpt><trkpt lat="45.1725095" lon="12.3178883"><ele>-3.0</ele><time>2026-05-02T10:26:14.728Z</time></trkpt><trkpt lat="45.1724651" lon="12.3177991"><ele>-3.0</ele><time>2026-05-02T10:26:16.731Z</time></trkpt><trkpt lat="45.1724241" lon="12.317704"><ele>-3.0</ele><time>2026-05-02T10:26:18.731Z</time></trkpt><trkpt lat="45.1723744" lon="12.3176331"><ele>-3.0</ele><time>2026-05-02T10:26:20.734Z</time></trkpt><trkpt lat="45.1723262" lon="12.3175547"><ele>-2.9999999999999996</ele><time>2026-05-02T10:26:22.729Z</time></trkpt><trkpt lat="45.1722859" lon="12.3174735"><ele>-3.0</ele><time>2026-05-02T10:26:24.727Z</time></trkpt><trkpt lat="45.1722442" lon="12.3174063"><ele>-3.0</ele><time>2026-05-02T10:26:26.728Z</time></trkpt><trkpt lat="45.1722042" lon="12.3173032"><ele>-3.0</ele><time>2026-05-02T10:26:29.738Z</time></trkpt><trkpt lat="45.1722621" lon="12.3171523"><ele>-3.0</ele><time>2026-05-02T10:26:33.73Z</time></trkpt><trkpt lat="45.1723255" lon="12.3170981"><ele>-3.0</ele><time>2026-05-02T10:26:35.725Z</time></trkpt><trkpt lat="45.1723801" lon="12.3170312"><ele>-3.0</ele><time>2026-05-02T10:26:37.734Z</time></trkpt><trkpt lat="45.1724372" lon="12.3169596"><ele>-3.0</ele><time>2026-05-02T10:26:39.73Z</time></trkpt><trkpt lat="45.1725017" lon="12.3169018"><ele>-2.9999999999999996</ele><time>2026-05-02T10:26:41.723Z</time></trkpt><trkpt lat="45.1725592" lon="12.3168475"><ele>-3.0</ele><time>2026-05-02T10:26:43.731Z</time></trkpt><trkpt lat="45.172613" lon="12.3167894"><ele>-3.0</ele><time>2026-05-02T10:26:45.726Z</time></trkpt><trkpt lat="45.1726701" lon="12.3167383"><ele>-3.0</ele><time>2026-05-02T10:26:47.734Z</time></trkpt><trkpt lat="45.1727278" lon="12.3166856"><ele>-3.0</ele><time>2026-05-02T10:26:49.731Z</time></trkpt><trkpt lat="45.1727828" lon="12.3166178"><ele>-2.9999999999999996</ele><time>2026-05-02T10:26:51.729Z</time></trkpt><trkpt lat="45.1728316" lon="12.3165528"><ele>-3.0</ele><time>2026-05-02T10:26:53.73Z</time></trkpt><trkpt lat="45.1728867" lon="12.3164964"><ele>-2.9999999999999996</ele><time>2026-05-02T10:26:55.731Z</time></trkpt><trkpt lat="45.1729435" lon="12.3164407"><ele>-3.0</ele><time>2026-05-02T10:26:57.728Z</time></trkpt><trkpt lat="45.1730001" lon="12.3163799"><ele>-3.0</ele><time>2026-05-02T10:26:59.727Z</time></trkpt><trkpt lat="45.1730602" lon="12.3163354"><ele>-3.0</ele><time>2026-05-02T10:27:01.729Z</time></trkpt><trkpt lat="45.1731158" lon="12.3162896"><ele>-3.0</ele><time>2026-05-02T10:27:03.726Z</time></trkpt><trkpt lat="45.1731729" lon="12.3162406"><ele>-2.9999999999999996</ele><time>2026-05-02T10:27:05.734Z</time></trkpt><trkpt lat="45.1732267" lon="12.3161872"><ele>-3.0</ele><time>2026-05-02T10:27:07.735Z</time></trkpt><trkpt lat="45.1732839" lon="12.3161452"><ele>-2.9999999999999996</ele><time>2026-05-02T10:27:09.731Z</time></trkpt><trkpt lat="45.1733681" lon="12.3161024"><ele>-3.0</ele><time>2026-05-02T10:27:12.738Z</time></trkpt><trkpt lat="45.173427" lon="12.3160547"><ele>-3.0</ele><time>2026-05-02T10:27:14.731Z</time></trkpt><trkpt lat="45.1734817" lon="12.3160009"><ele>-3.0</ele><time>2026-05-02T10:27:16.731Z</time></trkpt><trkpt lat="45.1735355" lon="12.3159467"><ele>-3.0</ele><time>2026-05-02T10:27:18.727Z</time></trkpt><trkpt lat="45.1735904" lon="12.3158815"><ele>-2.9999999999999996</ele><time>2026-05-02T10:27:20.731Z</time></trkpt><trkpt lat="45.1736401" lon="12.3158187"><ele>-3.0</ele><time>2026-05-02T10:27:22.728Z</time></trkpt><trkpt lat="45.1736878" lon="12.3157576"><ele>-3.0</ele><time>2026-05-02T10:27:24.728Z</time></trkpt><trkpt lat="45.1737321" lon="12.3156934"><ele>-3.0</ele><time>2026-05-02T10:27:26.728Z</time></trkpt><trkpt lat="45.1737763" lon="12.3156228"><ele>-3.0</ele><time>2026-05-02T10:27:28.725Z</time></trkpt><trkpt lat="45.1738094" lon="12.3155024"><ele>-3.0</ele><time>2026-05-02T10:27:31.732Z</time></trkpt><trkpt lat="45.1738235" lon="12.315407"><ele>-3.0</ele><time>2026-05-02T10:27:33.73Z</time></trkpt><trkpt lat="45.1738463" lon="12.3153028"><ele>-3.0</ele><time>2026-05-02T10:27:36.726Z</time></trkpt><trkpt lat="45.1739054" lon="12.3152157"><ele>-2.9999999999999996</ele><time>2026-05-02T10:27:39.728Z</time></trkpt><trkpt lat="45.1739795" lon="12.3151871"><ele>-3.0</ele><time>2026-05-02T10:27:41.729Z</time></trkpt><trkpt lat="45.1740629" lon="12.3151815"><ele>-3.0</ele><time>2026-05-02T10:27:43.728Z</time></trkpt><trkpt lat="45.1741392" lon="12.3151838"><ele>-3.0</ele><time>2026-05-02T10:27:45.727Z</time></trkpt><trkpt lat="45.1742083" lon="12.3151768"><ele>-3.0</ele><time>2026-05-02T10:27:47.724Z</time></trkpt><trkpt lat="45.17428" lon="12.3151728"><ele>-2.9999999999999996</ele><time>2026-05-02T10:27:49.729Z</time></trkpt><trkpt lat="45.1743487" lon="12.3151663"><ele>-3.0</ele><time>2026-05-02T10:27:51.727Z</time></trkpt><trkpt lat="45.1744161" lon="12.3151672"><ele>-3.0</ele><time>2026-05-02T10:27:53.725Z</time></trkpt><trkpt lat="45.174501" lon="12.3151936"><ele>-3.0</ele><time>2026-05-02T10:27:56.725Z</time></trkpt><trkpt lat="45.1745614" lon="12.3152211"><ele>-3.0</ele><time>2026-05-02T10:27:58.725Z</time></trkpt><trkpt lat="45.174633" lon="12.3152392"><ele>-3.0</ele><time>2026-05-02T10:28:00.729Z</time></trkpt><trkpt lat="45.1747009" lon="12.3152618"><ele>-3.0</ele><time>2026-05-02T10:28:02.728Z</time></trkpt><trkpt lat="45.1747849" lon="12.3152825"><ele>-3.0</ele><time>2026-05-02T10:28:05.724Z</time></trkpt><trkpt lat="45.1748801" lon="12.315295"><ele>-2.714285714285714</ele><time>2026-05-02T10:28:08.725Z</time></trkpt><trkpt lat="45.1749509" lon="12.3153022"><ele>-2.4285714285714284</ele><time>2026-05-02T10:28:10.724Z</time></trkpt><trkpt lat="45.1750249" lon="12.3153112"><ele>-2.142857142857143</ele><time>2026-05-02T10:28:12.727Z</time></trkpt><trkpt lat="45.1751027" lon="12.3153088"><ele>-1.857142857142857</ele><time>2026-05-02T10:28:14.725Z</time></trkpt><trkpt lat="45.1751733" lon="12.3152882"><ele>-1.5714285714285712</ele><time>2026-05-02T10:28:16.725Z</time></trkpt><trkpt lat="45.1752426" lon="12.3152814"><ele>-1.2857142857142856</ele><time>2026-05-02T10:28:18.728Z</time></trkpt><trkpt lat="45.1753116" lon="12.315291"><ele>-1.0</ele><time>2026-05-02T10:28:20.729Z</time></trkpt><trkpt lat="45.1753799" lon="12.3153077"><ele>-1.0</ele><time>2026-05-02T10:28:22.727Z</time></trkpt><trkpt lat="45.1754481" lon="12.3153121"><ele>-0.9999999999999999</ele><time>2026-05-02T10:28:24.727Z</time></trkpt><trkpt lat="45.1755128" lon="12.3152938"><ele>-1.0</ele><time>2026-05-02T10:28:26.723Z</time></trkpt><trkpt lat="45.1755784" lon="12.3152724"><ele>-1.0</ele><time>2026-05-02T10:28:28.727Z</time></trkpt><trkpt lat="45.1756469" lon="12.3152641"><ele>-0.9999999999999999</ele><time>2026-05-02T10:28:30.725Z</time></trkpt><trkpt lat="45.1757156" lon="12.3152398"><ele>-1.0</ele><time>2026-05-02T10:28:32.731Z</time></trkpt><trkpt lat="45.175787" lon="12.315222"><ele>-1.0</ele><time>2026-05-02T10:28:34.726Z</time></trkpt><trkpt lat="45.1758608" lon="12.3152152"><ele>-1.1428571428571428</ele><time>2026-05-02T10:28:36.734Z</time></trkpt><trkpt lat="45.1759303" lon="12.3151908"><ele>-1.2857142857142856</ele><time>2026-05-02T10:28:38.73Z</time></trkpt><trkpt lat="45.1759931" lon="12.3151593"><ele>-1.4285714285714284</ele><time>2026-05-02T10:28:40.728Z</time></trkpt><trkpt lat="45.1760566" lon="12.3151334"><ele>-1.5714285714285714</ele><time>2026-05-02T10:28:42.732Z</time></trkpt><trkpt lat="45.1761219" lon="12.3151106"><ele>-1.714285714285714</ele><time>2026-05-02T10:28:44.731Z</time></trkpt><trkpt lat="45.1761908" lon="12.3151011"><ele>-1.857142857142857</ele><time>2026-05-02T10:28:46.725Z</time></trkpt><trkpt lat="45.1762567" lon="12.3150959"><ele>-2.0</ele><time>2026-05-02T10:28:48.725Z</time></trkpt><trkpt lat="45.1763223" lon="12.315072"><ele>-2.0</ele><time>2026-05-02T10:28:50.725Z</time></trkpt><trkpt lat="45.1763894" lon="12.3150327"><ele>-1.9999999999999998</ele><time>2026-05-02T10:28:52.734Z</time></trkpt><trkpt lat="45.1764571" lon="12.3149952"><ele>-2.0</ele><time>2026-05-02T10:28:54.725Z</time></trkpt><trkpt lat="45.1765253" lon="12.3149577"><ele>-2.0</ele><time>2026-05-02T10:28:56.733Z</time></trkpt><trkpt lat="45.1765916" lon="12.3149095"><ele>-1.9999999999999998</ele><time>2026-05-02T10:28:58.731Z</time></trkpt><trkpt lat="45.1766573" lon="12.3148688"><ele>-2.0</ele><time>2026-05-02T10:29:00.73Z</time></trkpt><trkpt lat="45.176721" lon="12.3148311"><ele>-2.0</ele><time>2026-05-02T10:29:02.732Z</time></trkpt><trkpt lat="45.1767811" lon="12.3147872"><ele>-1.9999999999999998</ele><time>2026-05-02T10:29:04.724Z</time></trkpt><trkpt lat="45.176852" lon="12.3147264"><ele>-2.0</ele><time>2026-05-02T10:29:07.732Z</time></trkpt><trkpt lat="45.1769281" lon="12.3146514"><ele>-2.0</ele><time>2026-05-02T10:29:10.732Z</time></trkpt><trkpt lat="45.1769862" lon="12.3145969"><ele>-2.0</ele><time>2026-05-02T10:29:12.735Z</time></trkpt><trkpt lat="45.1770474" lon="12.3145453"><ele>-1.9999999999999998</ele><time>2026-05-02T10:29:14.732Z</time></trkpt><trkpt lat="45.1771077" lon="12.3144942"><ele>-2.0</ele><time>2026-05-02T10:29:16.734Z</time></trkpt><trkpt lat="45.1771717" lon="12.3144515"><ele>-2.0</ele><time>2026-05-02T10:29:18.737Z</time></trkpt><trkpt lat="45.1772355" lon="12.3144233"><ele>-1.9999999999999998</ele><time>2026-05-02T10:29:20.734Z</time></trkpt><trkpt lat="45.1772958" lon="12.3143781"><ele>-2.0</ele><time>2026-05-02T10:29:22.737Z</time></trkpt><trkpt lat="45.1773494" lon="12.3143166"><ele>-2.0</ele><time>2026-05-02T10:29:24.726Z</time></trkpt><trkpt lat="45.1774098" lon="12.3142689"><ele>-1.9999999999999998</ele><time>2026-05-02T10:29:26.729Z</time></trkpt><trkpt lat="45.1774708" lon="12.3142241"><ele>-2.0</ele><time>2026-05-02T10:29:28.735Z</time></trkpt><trkpt lat="45.1775336" lon="12.3141775"><ele>-2.0</ele><time>2026-05-02T10:29:30.733Z</time></trkpt><trkpt lat="45.1775979" lon="12.3141357"><ele>-2.142857142857143</ele><time>2026-05-02T10:29:32.742Z</time></trkpt><trkpt lat="45.1776617" lon="12.3140865"><ele>-2.2857142857142856</ele><time>2026-05-02T10:29:34.734Z</time></trkpt><trkpt lat="45.1777268" lon="12.3140353"><ele>-2.4285714285714284</ele><time>2026-05-02T10:29:36.733Z</time></trkpt><trkpt lat="45.1777893" lon="12.3139876"><ele>-2.571428571428571</ele><time>2026-05-02T10:29:38.733Z</time></trkpt><trkpt lat="45.1778556" lon="12.3139447"><ele>-2.7142857142857144</ele><time>2026-05-02T10:29:40.727Z</time></trkpt><trkpt lat="45.1779226" lon="12.3139217"><ele>-2.8571428571428568</ele><time>2026-05-02T10:29:42.734Z</time></trkpt><trkpt lat="45.1779865" lon="12.3138954"><ele>-3.0</ele><time>2026-05-02T10:29:44.732Z</time></trkpt><trkpt lat="45.1780477" lon="12.3138677"><ele>-2.9999999999999996</ele><time>2026-05-02T10:29:46.728Z</time></trkpt><trkpt lat="45.1781112" lon="12.3138608"><ele>-3.0</ele><time>2026-05-02T10:29:48.728Z</time></trkpt><trkpt lat="45.178175" lon="12.3138486"><ele>-3.0</ele><time>2026-05-02T10:29:50.73Z</time></trkpt><trkpt lat="45.1782378" lon="12.3138154"><ele>-3.0</ele><time>2026-05-02T10:29:52.736Z</time></trkpt><trkpt lat="45.1783014" lon="12.3137831"><ele>-3.0</ele><time>2026-05-02T10:29:54.734Z</time></trkpt><trkpt lat="45.1783672" lon="12.3137629"><ele>-2.9999999999999996</ele><time>2026-05-02T10:29:56.732Z</time></trkpt><trkpt lat="45.1784312" lon="12.3137194"><ele>-3.0</ele><time>2026-05-02T10:29:58.726Z</time></trkpt><trkpt lat="45.1785029" lon="12.3137003"><ele>-2.9999999999999996</ele><time>2026-05-02T10:30:00.731Z</time></trkpt><trkpt lat="45.1785724" lon="12.3136892"><ele>-3.0</ele><time>2026-05-02T10:30:02.724Z</time></trkpt><trkpt lat="45.1786365" lon="12.313671"><ele>-3.0</ele><time>2026-05-02T10:30:04.722Z</time></trkpt><trkpt lat="45.1787041" lon="12.3136625"><ele>-3.0</ele><time>2026-05-02T10:30:06.726Z</time></trkpt><trkpt lat="45.178771" lon="12.3136542"><ele>-3.0</ele><time>2026-05-02T10:30:08.731Z</time></trkpt><trkpt lat="45.1788354" lon="12.3136258"><ele>-2.9999999999999996</ele><time>2026-05-02T10:30:10.734Z</time></trkpt><trkpt lat="45.1789015" lon="12.3135958"><ele>-3.0</ele><time>2026-05-02T10:30:12.728Z</time></trkpt><trkpt lat="45.1789679" lon="12.313565"><ele>-2.9999999999999996</ele><time>2026-05-02T10:30:14.729Z</time></trkpt><trkpt lat="45.1790364" lon="12.3135368"><ele>-3.0</ele><time>2026-05-02T10:30:16.729Z</time></trkpt><trkpt lat="45.1791018" lon="12.313515"><ele>-3.0</ele><time>2026-05-02T10:30:18.731Z</time></trkpt><trkpt lat="45.1791637" lon="12.3134782"><ele>-3.0</ele><time>2026-05-02T10:30:20.727Z</time></trkpt><trkpt lat="45.1792235" lon="12.3134375"><ele>-3.0</ele><time>2026-05-02T10:30:22.727Z</time></trkpt><trkpt lat="45.1792838" lon="12.3133995"><ele>-2.9999999999999996</ele><time>2026-05-02T10:30:24.726Z</time></trkpt><trkpt lat="45.1793501" lon="12.3133742"><ele>-3.0</ele><time>2026-05-02T10:30:26.728Z</time></trkpt><trkpt lat="45.1794143" lon="12.3133669"><ele>-3.0</ele><time>2026-05-02T10:30:28.728Z</time></trkpt><trkpt lat="45.1795023" lon="12.3133336"><ele>-3.0</ele><time>2026-05-02T10:30:31.726Z</time></trkpt><trkpt lat="45.1795602" lon="12.3132912"><ele>-3.0</ele><time>2026-05-02T10:30:33.729Z</time></trkpt><trkpt lat="45.1796382" lon="12.3132383"><ele>-3.0</ele><time>2026-05-02T10:30:36.728Z</time></trkpt><trkpt lat="45.1797014" lon="12.3131775"><ele>-3.0</ele><time>2026-05-02T10:30:39.723Z</time></trkpt><trkpt lat="45.1797757" lon="12.313117"><ele>-3.0</ele><time>2026-05-02T10:30:42.737Z</time></trkpt><trkpt lat="45.1798287" lon="12.3130663"><ele>-2.8333333333333335</ele><time>2026-05-02T10:30:44.723Z</time></trkpt><trkpt lat="45.1798787" lon="12.3130097"><ele>-2.6666666666666665</ele><time>2026-05-02T10:30:46.735Z</time></trkpt><trkpt lat="45.179944" lon="12.3129159"><ele>-2.5</ele><time>2026-05-02T10:30:49.733Z</time></trkpt><trkpt lat="45.1799985" lon="12.3128691"><ele>-2.333333333333333</ele><time>2026-05-02T10:30:51.726Z</time></trkpt><trkpt lat="45.1800692" lon="12.3127932"><ele>-2.1666666666666665</ele><time>2026-05-02T10:30:54.728Z</time></trkpt><trkpt lat="45.1801384" lon="12.3127082"><ele>-2.0</ele><time>2026-05-02T10:30:57.726Z</time></trkpt><trkpt lat="45.1802028" lon="12.3126228"><ele>-1.9999999999999998</ele><time>2026-05-02T10:31:00.726Z</time></trkpt><trkpt lat="45.1802579" lon="12.3125197"><ele>-2.0</ele><time>2026-05-02T10:31:03.721Z</time></trkpt><trkpt lat="45.1803097" lon="12.3124096"><ele>-2.0</ele><time>2026-05-02T10:31:06.724Z</time></trkpt><trkpt lat="45.1803629" lon="12.3123056"><ele>-2.0</ele><time>2026-05-02T10:31:09.724Z</time></trkpt><trkpt lat="45.1804195" lon="12.3122252"><ele>-1.9999999999999998</ele><time>2026-05-02T10:31:12.724Z</time></trkpt><trkpt lat="45.1804747" lon="12.3121526"><ele>-2.0</ele><time>2026-05-02T10:31:15.727Z</time></trkpt><trkpt lat="45.1805142" lon="12.3120715"><ele>-1.6666666666666665</ele><time>2026-05-02T10:31:18.727Z</time></trkpt><trkpt lat="45.180489" lon="12.31197"><ele>-1.3333333333333333</ele><time>2026-05-02T10:31:21.724Z</time></trkpt><trkpt lat="45.1804314" lon="12.3118772"><ele>-1.0</ele><time>2026-05-02T10:31:24.724Z</time></trkpt><trkpt lat="45.1803776" lon="12.3118028"><ele>-0.6666666666666666</ele><time>2026-05-02T10:31:27.733Z</time></trkpt><trkpt lat="45.180328" lon="12.3116921"><ele>-0.3333333333333333</ele><time>2026-05-02T10:31:30.726Z</time></trkpt><trkpt lat="45.1802871" lon="12.3116187"><ele>0.0</ele><time>2026-05-02T10:31:32.724Z</time></trkpt><trkpt lat="45.1802413" lon="12.3115542"><ele>0.0</ele><time>2026-05-02T10:31:34.722Z</time></trkpt><trkpt lat="45.1801789" lon="12.3114632"><ele>0.0</ele><time>2026-05-02T10:31:37.731Z</time></trkpt><trkpt lat="45.1801168" lon="12.3113612"><ele>0.0</ele><time>2026-05-02T10:31:40.73Z</time></trkpt><trkpt lat="45.1800734" lon="12.3112917"><ele>0.0</ele><time>2026-05-02T10:31:42.724Z</time></trkpt><trkpt lat="45.1800291" lon="12.3112217"><ele>0.0</ele><time>2026-05-02T10:31:44.729Z</time></trkpt><trkpt lat="45.1799849" lon="12.3111525"><ele>0.0</ele><time>2026-05-02T10:31:46.725Z</time></trkpt><trkpt lat="45.1799381" lon="12.3110752"><ele>0.0</ele><time>2026-05-02T10:31:48.725Z</time></trkpt><trkpt lat="45.1798998" lon="12.310998"><ele>0.0</ele><time>2026-05-02T10:31:50.733Z</time></trkpt><trkpt lat="45.179864" lon="12.3109167"><ele>0.0</ele><time>2026-05-02T10:31:52.738Z</time></trkpt><trkpt lat="45.1798272" lon="12.3108237"><ele>0.0</ele><time>2026-05-02T10:31:54.732Z</time></trkpt><trkpt lat="45.17979" lon="12.3107238"><ele>0.0</ele><time>2026-05-02T10:31:56.729Z</time></trkpt><trkpt lat="45.1797575" lon="12.3106193"><ele>0.0</ele><time>2026-05-02T10:31:58.726Z</time></trkpt><trkpt lat="45.1797181" lon="12.3105104"><ele>-0.4</ele><time>2026-05-02T10:32:00.719Z</time></trkpt><trkpt lat="45.1796792" lon="12.3104011"><ele>-0.8</ele><time>2026-05-02T10:32:02.723Z</time></trkpt><trkpt lat="45.1796467" lon="12.3102844"><ele>-1.2000000000000002</ele><time>2026-05-02T10:32:04.737Z</time></trkpt><trkpt lat="45.1796143" lon="12.3101688"><ele>-1.6</ele><time>2026-05-02T10:32:06.732Z</time></trkpt><trkpt lat="45.1795799" lon="12.3100466"><ele>-2.0</ele><time>2026-05-02T10:32:08.721Z</time></trkpt><trkpt lat="45.1795492" lon="12.3099173"><ele>-2.0</ele><time>2026-05-02T10:32:10.729Z</time></trkpt><trkpt lat="45.1795136" lon="12.3097776"><ele>-2.0</ele><time>2026-05-02T10:32:12.732Z</time></trkpt><trkpt lat="45.1794794" lon="12.3096372"><ele>-2.0</ele><time>2026-05-02T10:32:14.725Z</time></trkpt><trkpt lat="45.1794407" lon="12.3094988"><ele>-2.0</ele><time>2026-05-02T10:32:16.727Z</time></trkpt><trkpt lat="45.1794047" lon="12.309361"><ele>-2.0</ele><time>2026-05-02T10:32:18.733Z</time></trkpt><trkpt lat="45.1793658" lon="12.3092174"><ele>-2.0</ele><time>2026-05-02T10:32:20.731Z</time></trkpt><trkpt lat="45.1793282" lon="12.3090711"><ele>-2.0</ele><time>2026-05-02T10:32:22.74Z</time></trkpt><trkpt lat="45.1792943" lon="12.3089227"><ele>-2.0</ele><time>2026-05-02T10:32:24.733Z</time></trkpt><trkpt lat="45.1792559" lon="12.3087783"><ele>-2.0</ele><time>2026-05-02T10:32:26.728Z</time></trkpt><trkpt lat="45.1792126" lon="12.3086334"><ele>-2.0</ele><time>2026-05-02T10:32:28.73Z</time></trkpt><trkpt lat="45.179167" lon="12.3084877"><ele>-2.0</ele><time>2026-05-02T10:32:30.729Z</time></trkpt><trkpt lat="45.1791262" lon="12.3083405"><ele>-2.0</ele><time>2026-05-02T10:32:32.74Z</time></trkpt><trkpt lat="45.179086" lon="12.3081926"><ele>-2.0</ele><time>2026-05-02T10:32:34.732Z</time></trkpt><trkpt lat="45.1790464" lon="12.3080439"><ele>-2.0</ele><time>2026-05-02T10:32:36.729Z</time></trkpt><trkpt lat="45.1790074" lon="12.3078897"><ele>-2.0</ele><time>2026-05-02T10:32:38.727Z</time></trkpt><trkpt lat="45.1789686" lon="12.3077365"><ele>-2.0</ele><time>2026-05-02T10:32:40.728Z</time></trkpt><trkpt lat="45.1789268" lon="12.307583"><ele>-2.0</ele><time>2026-05-02T10:32:42.737Z</time></trkpt><trkpt lat="45.1788813" lon="12.3074278"><ele>-2.0</ele><time>2026-05-02T10:32:44.729Z</time></trkpt><trkpt lat="45.1788357" lon="12.3072685"><ele>-1.8333333333333333</ele><time>2026-05-02T10:32:46.725Z</time></trkpt><trkpt lat="45.178811" lon="12.3071855"><ele>-1.6666666666666665</ele><time>2026-05-02T10:32:47.725Z</time></trkpt><trkpt lat="45.1787861" lon="12.3071011"><ele>-1.5</ele><time>2026-05-02T10:32:48.733Z</time></trkpt><trkpt lat="45.1787625" lon="12.3070167"><ele>-1.3333333333333333</ele><time>2026-05-02T10:32:49.734Z</time></trkpt><trkpt lat="45.1787148" lon="12.3068571"><ele>-1.1666666666666665</ele><time>2026-05-02T10:32:51.731Z</time></trkpt><trkpt lat="45.1786717" lon="12.3066981"><ele>-1.0</ele><time>2026-05-02T10:32:53.731Z</time></trkpt><trkpt lat="45.1786262" lon="12.3065395"><ele>-1.0</ele><time>2026-05-02T10:32:55.731Z</time></trkpt><trkpt lat="45.1785803" lon="12.3063769"><ele>-1.0</ele><time>2026-05-02T10:32:57.725Z</time></trkpt><trkpt lat="45.1785338" lon="12.3062137"><ele>-1.0</ele><time>2026-05-02T10:32:59.73Z</time></trkpt><trkpt lat="45.1784893" lon="12.3060495"><ele>-1.0</ele><time>2026-05-02T10:33:01.734Z</time></trkpt><trkpt lat="45.1784435" lon="12.3058856"><ele>-1.0</ele><time>2026-05-02T10:33:03.733Z</time></trkpt><trkpt lat="45.1783996" lon="12.3057257"><ele>-1.0</ele><time>2026-05-02T10:33:05.734Z</time></trkpt><trkpt lat="45.1783556" lon="12.3055636"><ele>-1.0</ele><time>2026-05-02T10:33:07.734Z</time></trkpt><trkpt lat="45.1783119" lon="12.3054005"><ele>-1.0</ele><time>2026-05-02T10:33:09.733Z</time></trkpt><trkpt lat="45.178266" lon="12.3052391"><ele>-1.0</ele><time>2026-05-02T10:33:11.729Z</time></trkpt><trkpt lat="45.1782212" lon="12.3050756"><ele>-1.0</ele><time>2026-05-02T10:33:13.73Z</time></trkpt><trkpt lat="45.1781755" lon="12.3049126"><ele>-1.0</ele><time>2026-05-02T10:33:15.727Z</time></trkpt><trkpt lat="45.17813" lon="12.3047478"><ele>-1.0</ele><time>2026-05-02T10:33:17.733Z</time></trkpt><trkpt lat="45.1781063" lon="12.3046636"><ele>-1.0</ele><time>2026-05-02T10:33:18.733Z</time></trkpt><trkpt lat="45.1780834" lon="12.304579"><ele>-1.0</ele><time>2026-05-02T10:33:19.736Z</time></trkpt><trkpt lat="45.1780617" lon="12.304495"><ele>-0.9999999999999999</ele><time>2026-05-02T10:33:20.729Z</time></trkpt><trkpt lat="45.1780413" lon="12.3044092"><ele>-1.0</ele><time>2026-05-02T10:33:21.735Z</time></trkpt><trkpt lat="45.1780218" lon="12.3043227"><ele>-1.0</ele><time>2026-05-02T10:33:22.737Z</time></trkpt><trkpt lat="45.1780024" lon="12.3042353"><ele>-0.9999999999999999</ele><time>2026-05-02T10:33:23.732Z</time></trkpt><trkpt lat="45.1779843" lon="12.3041479"><ele>-1.0</ele><time>2026-05-02T10:33:24.73Z</time></trkpt><trkpt lat="45.177965" lon="12.3040603"><ele>-1.0</ele><time>2026-05-02T10:33:25.734Z</time></trkpt><trkpt lat="45.1779456" lon="12.3039718"><ele>-0.8571428571428571</ele><time>2026-05-02T10:33:26.736Z</time></trkpt><trkpt lat="45.1779267" lon="12.3038835"><ele>-0.7142857142857142</ele><time>2026-05-02T10:33:27.724Z</time></trkpt><trkpt lat="45.1779092" lon="12.3037956"><ele>-0.5714285714285714</ele><time>2026-05-02T10:33:28.731Z</time></trkpt><trkpt lat="45.1778917" lon="12.303708"><ele>-0.42857142857142855</ele><time>2026-05-02T10:33:29.729Z</time></trkpt><trkpt lat="45.1778742" lon="12.3036218"><ele>-0.2857142857142857</ele><time>2026-05-02T10:33:30.736Z</time></trkpt><trkpt lat="45.177839" lon="12.3034492"><ele>-0.14285714285714285</ele><time>2026-05-02T10:33:32.74Z</time></trkpt><trkpt lat="45.1778215" lon="12.3033603"><ele>0.0</ele><time>2026-05-02T10:33:33.732Z</time></trkpt><trkpt lat="45.1778025" lon="12.3032741"><ele>0.0</ele><time>2026-05-02T10:33:34.734Z</time></trkpt><trkpt lat="45.1777837" lon="12.3031877"><ele>0.0</ele><time>2026-05-02T10:33:35.735Z</time></trkpt><trkpt lat="45.177752" lon="12.3030158"><ele>0.0</ele><time>2026-05-02T10:33:37.731Z</time></trkpt><trkpt lat="45.1777365" lon="12.3029289"><ele>0.0</ele><time>2026-05-02T10:33:38.734Z</time></trkpt><trkpt lat="45.1777206" lon="12.302841"><ele>0.0</ele><time>2026-05-02T10:33:39.735Z</time></trkpt><trkpt lat="45.1777043" lon="12.3027531"><ele>0.0</ele><time>2026-05-02T10:33:40.728Z</time></trkpt><trkpt lat="45.1776879" lon="12.3026634"><ele>0.0</ele><time>2026-05-02T10:33:41.736Z</time></trkpt><trkpt lat="45.1776722" lon="12.3025764"><ele>0.0</ele><time>2026-05-02T10:33:42.735Z</time></trkpt><trkpt lat="45.177656" lon="12.3024885"><ele>0.0</ele><time>2026-05-02T10:33:43.735Z</time></trkpt><trkpt lat="45.1776403" lon="12.3023997"><ele>0.0</ele><time>2026-05-02T10:33:44.735Z</time></trkpt><trkpt lat="45.1776252" lon="12.302312"><ele>0.0</ele><time>2026-05-02T10:33:45.73Z</time></trkpt><trkpt lat="45.1776106" lon="12.302225"><ele>0.0</ele><time>2026-05-02T10:33:46.73Z</time></trkpt><trkpt lat="45.1775947" lon="12.3021367"><ele>0.0</ele><time>2026-05-02T10:33:47.728Z</time></trkpt><trkpt lat="45.1775779" lon="12.3020472"><ele>0.0</ele><time>2026-05-02T10:33:48.733Z</time></trkpt><trkpt lat="45.1775623" lon="12.301959"><ele>0.0</ele><time>2026-05-02T10:33:49.728Z</time></trkpt><trkpt lat="45.1775472" lon="12.3018715"><ele>0.0</ele><time>2026-05-02T10:33:50.725Z</time></trkpt><trkpt lat="45.177534" lon="12.3017818"><ele>0.0</ele><time>2026-05-02T10:33:51.731Z</time></trkpt><trkpt lat="45.1775167" lon="12.3016923"><ele>0.0</ele><time>2026-05-02T10:33:52.727Z</time></trkpt><trkpt lat="45.1775003" lon="12.3016034"><ele>0.0</ele><time>2026-05-02T10:33:53.736Z</time></trkpt><trkpt lat="45.1774857" lon="12.3015162"><ele>0.0</ele><time>2026-05-02T10:33:54.723Z</time></trkpt><trkpt lat="45.1774732" lon="12.3014249"><ele>0.0</ele><time>2026-05-02T10:33:55.73Z</time></trkpt><trkpt lat="45.1774598" lon="12.3013353"><ele>0.0</ele><time>2026-05-02T10:33:56.727Z</time></trkpt><trkpt lat="45.1774453" lon="12.3012445"><ele>0.0</ele><time>2026-05-02T10:33:57.725Z</time></trkpt><trkpt lat="45.177431" lon="12.301156"><ele>0.0</ele><time>2026-05-02T10:33:58.731Z</time></trkpt><trkpt lat="45.1774189" lon="12.3010658"><ele>0.0</ele><time>2026-05-02T10:33:59.737Z</time></trkpt><trkpt lat="45.1774054" lon="12.3009757"><ele>0.0</ele><time>2026-05-02T10:34:00.733Z</time></trkpt><trkpt lat="45.1773905" lon="12.3008854"><ele>0.0</ele><time>2026-05-02T10:34:01.735Z</time></trkpt><trkpt lat="45.1773743" lon="12.3007943"><ele>0.0</ele><time>2026-05-02T10:34:02.733Z</time></trkpt><trkpt lat="45.1773603" lon="12.3007034"><ele>0.0</ele><time>2026-05-02T10:34:03.734Z</time></trkpt><trkpt lat="45.1773453" lon="12.3006125"><ele>-0.16666666666666666</ele><time>2026-05-02T10:34:04.735Z</time></trkpt><trkpt lat="45.1773299" lon="12.3005198"><ele>-0.3333333333333333</ele><time>2026-05-02T10:34:05.726Z</time></trkpt><trkpt lat="45.1773162" lon="12.3004256"><ele>-0.5</ele><time>2026-05-02T10:34:06.733Z</time></trkpt><trkpt lat="45.1773017" lon="12.300333"><ele>-0.6666666666666666</ele><time>2026-05-02T10:34:07.735Z</time></trkpt><trkpt lat="45.1772875" lon="12.3002434"><ele>-0.8333333333333333</ele><time>2026-05-02T10:34:08.729Z</time></trkpt><trkpt lat="45.1772579" lon="12.3000691"><ele>-1.0</ele><time>2026-05-02T10:34:10.727Z</time></trkpt><trkpt lat="45.1772388" lon="12.299983"><ele>-1.0</ele><time>2026-05-02T10:34:11.727Z</time></trkpt><trkpt lat="45.1772184" lon="12.2998941"><ele>-0.9999999999999999</ele><time>2026-05-02T10:34:12.734Z</time></trkpt><trkpt lat="45.1772008" lon="12.2998027"><ele>-1.0</ele><time>2026-05-02T10:34:13.734Z</time></trkpt><trkpt lat="45.1771839" lon="12.2997107"><ele>-1.0</ele><time>2026-05-02T10:34:14.726Z</time></trkpt><trkpt lat="45.1771679" lon="12.2996205"><ele>-0.9999999999999999</ele><time>2026-05-02T10:34:15.733Z</time></trkpt><trkpt lat="45.1771507" lon="12.2995326"><ele>-1.0</ele><time>2026-05-02T10:34:16.734Z</time></trkpt><trkpt lat="45.1771334" lon="12.2994427"><ele>-1.0</ele><time>2026-05-02T10:34:17.733Z</time></trkpt><trkpt lat="45.1771158" lon="12.2993484"><ele>-1.1428571428571428</ele><time>2026-05-02T10:34:18.726Z</time></trkpt><trkpt lat="45.1770979" lon="12.2992549"><ele>-1.2857142857142856</ele><time>2026-05-02T10:34:19.733Z</time></trkpt><trkpt lat="45.1770819" lon="12.2991606"><ele>-1.4285714285714284</ele><time>2026-05-02T10:34:20.732Z</time></trkpt><trkpt lat="45.1770727" lon="12.2990654"><ele>-1.5714285714285714</ele><time>2026-05-02T10:34:21.728Z</time></trkpt><trkpt lat="45.1770692" lon="12.2989691"><ele>-1.714285714285714</ele><time>2026-05-02T10:34:22.731Z</time></trkpt><trkpt lat="45.1770699" lon="12.2988718"><ele>-1.857142857142857</ele><time>2026-05-02T10:34:23.736Z</time></trkpt><trkpt lat="45.1770711" lon="12.2987756"><ele>-2.0</ele><time>2026-05-02T10:34:24.732Z</time></trkpt><trkpt lat="45.1770714" lon="12.298682"><ele>-2.0</ele><time>2026-05-02T10:34:25.732Z</time></trkpt><trkpt lat="45.1770713" lon="12.2985896"><ele>-1.9999999999999998</ele><time>2026-05-02T10:34:26.733Z</time></trkpt><trkpt lat="45.1770706" lon="12.298497"><ele>-2.0</ele><time>2026-05-02T10:34:27.724Z</time></trkpt><trkpt lat="45.1770704" lon="12.2984046"><ele>-2.0</ele><time>2026-05-02T10:34:28.728Z</time></trkpt><trkpt lat="45.1770695" lon="12.2983103"><ele>-1.9999999999999998</ele><time>2026-05-02T10:34:29.732Z</time></trkpt><trkpt lat="45.1770686" lon="12.2982166"><ele>-2.0</ele><time>2026-05-02T10:34:30.733Z</time></trkpt><trkpt lat="45.1770654" lon="12.2981215"><ele>-2.0</ele><time>2026-05-02T10:34:31.733Z</time></trkpt><trkpt lat="45.1770618" lon="12.2980275"><ele>-1.7142857142857142</ele><time>2026-05-02T10:34:32.733Z</time></trkpt><trkpt lat="45.1770556" lon="12.2979321"><ele>-1.4285714285714284</ele><time>2026-05-02T10:34:33.733Z</time></trkpt><trkpt lat="45.1770485" lon="12.297838"><ele>-1.1428571428571428</ele><time>2026-05-02T10:34:34.733Z</time></trkpt><trkpt lat="45.1770424" lon="12.2977428"><ele>-0.8571428571428571</ele><time>2026-05-02T10:34:35.732Z</time></trkpt><trkpt lat="45.1770344" lon="12.2976475"><ele>-0.5714285714285714</ele><time>2026-05-02T10:34:36.732Z</time></trkpt><trkpt lat="45.177029" lon="12.2975524"><ele>-0.2857142857142857</ele><time>2026-05-02T10:34:37.73Z</time></trkpt><trkpt lat="45.1770238" lon="12.2974555"><ele>0.0</ele><time>2026-05-02T10:34:38.733Z</time></trkpt><trkpt lat="45.1770183" lon="12.2973592"><ele>0.0</ele><time>2026-05-02T10:34:39.732Z</time></trkpt><trkpt lat="45.177013" lon="12.2972629"><ele>0.0</ele><time>2026-05-02T10:34:40.735Z</time></trkpt><trkpt lat="45.1770078" lon="12.2971663"><ele>0.0</ele><time>2026-05-02T10:34:41.724Z</time></trkpt><trkpt lat="45.1770029" lon="12.2970711"><ele>0.0</ele><time>2026-05-02T10:34:42.732Z</time></trkpt><trkpt lat="45.176999" lon="12.2969764"><ele>0.0</ele><time>2026-05-02T10:34:43.733Z</time></trkpt><trkpt lat="45.1769929" lon="12.2968816"><ele>0.0</ele><time>2026-05-02T10:34:44.733Z</time></trkpt><trkpt lat="45.1769877" lon="12.2967862"><ele>0.0</ele><time>2026-05-02T10:34:45.728Z</time></trkpt><trkpt lat="45.1769833" lon="12.2966882"><ele>0.0</ele><time>2026-05-02T10:34:46.728Z</time></trkpt><trkpt lat="45.1769815" lon="12.2965923"><ele>0.0</ele><time>2026-05-02T10:34:47.73Z</time></trkpt><trkpt lat="45.1769798" lon="12.2964964"><ele>0.0</ele><time>2026-05-02T10:34:48.731Z</time></trkpt><trkpt lat="45.1769782" lon="12.2963999"><ele>0.0</ele><time>2026-05-02T10:34:49.732Z</time></trkpt><trkpt lat="45.1769786" lon="12.296301"><ele>0.0</ele><time>2026-05-02T10:34:50.724Z</time></trkpt><trkpt lat="45.1769788" lon="12.2962024"><ele>0.0</ele><time>2026-05-02T10:34:51.733Z</time></trkpt><trkpt lat="45.1769788" lon="12.2961055"><ele>0.0</ele><time>2026-05-02T10:34:52.739Z</time></trkpt><trkpt lat="45.176975" lon="12.2960056"><ele>0.0</ele><time>2026-05-02T10:34:53.733Z</time></trkpt><trkpt lat="45.1769751" lon="12.2959083"><ele>0.0</ele><time>2026-05-02T10:34:54.735Z</time></trkpt><trkpt lat="45.176977" lon="12.2958136"><ele>0.0</ele><time>2026-05-02T10:34:55.727Z</time></trkpt><trkpt lat="45.1769761" lon="12.2957183"><ele>0.0</ele><time>2026-05-02T10:34:56.733Z</time></trkpt><trkpt lat="45.1769761" lon="12.2956196"><ele>0.0</ele><time>2026-05-02T10:34:57.733Z</time></trkpt><trkpt lat="45.1769753" lon="12.2955235"><ele>0.0</ele><time>2026-05-02T10:34:58.732Z</time></trkpt><trkpt lat="45.1769741" lon="12.2954271"><ele>0.0</ele><time>2026-05-02T10:34:59.735Z</time></trkpt><trkpt lat="45.1769728" lon="12.295332"><ele>0.0</ele><time>2026-05-02T10:35:00.735Z</time></trkpt><trkpt lat="45.1769714" lon="12.2952361"><ele>0.0</ele><time>2026-05-02T10:35:01.732Z</time></trkpt><trkpt lat="45.1769689" lon="12.2951387"><ele>0.0</ele><time>2026-05-02T10:35:02.73Z</time></trkpt><trkpt lat="45.1769662" lon="12.2950412"><ele>0.0</ele><time>2026-05-02T10:35:03.733Z</time></trkpt><trkpt lat="45.1769636" lon="12.294946"><ele>0.0</ele><time>2026-05-02T10:35:04.728Z</time></trkpt><trkpt lat="45.1769607" lon="12.2948477"><ele>0.0</ele><time>2026-05-02T10:35:05.729Z</time></trkpt><trkpt lat="45.1769565" lon="12.2947477"><ele>0.0</ele><time>2026-05-02T10:35:06.733Z</time></trkpt><trkpt lat="45.1769527" lon="12.2946479"><ele>-0.5714285714285714</ele><time>2026-05-02T10:35:07.734Z</time></trkpt><trkpt lat="45.1769508" lon="12.2945502"><ele>-1.1428571428571428</ele><time>2026-05-02T10:35:08.735Z</time></trkpt><trkpt lat="45.1769492" lon="12.2944532"><ele>-1.7142857142857142</ele><time>2026-05-02T10:35:09.728Z</time></trkpt><trkpt lat="45.1769465" lon="12.294357"><ele>-2.2857142857142856</ele><time>2026-05-02T10:35:10.725Z</time></trkpt><trkpt lat="45.1769403" lon="12.2942603"><ele>-2.8571428571428568</ele><time>2026-05-02T10:35:11.73Z</time></trkpt><trkpt lat="45.1769355" lon="12.2941617"><ele>-3.4285714285714284</ele><time>2026-05-02T10:35:12.733Z</time></trkpt><trkpt lat="45.1769344" lon="12.2940655"><ele>-4.0</ele><time>2026-05-02T10:35:13.732Z</time></trkpt><trkpt lat="45.176934" lon="12.2939708"><ele>-3.714285714285714</ele><time>2026-05-02T10:35:14.732Z</time></trkpt><trkpt lat="45.176932" lon="12.2938733"><ele>-3.428571428571428</ele><time>2026-05-02T10:35:15.729Z</time></trkpt><trkpt lat="45.1769297" lon="12.2937747"><ele>-3.142857142857143</ele><time>2026-05-02T10:35:16.732Z</time></trkpt><trkpt lat="45.1769266" lon="12.2936766"><ele>-2.8571428571428568</ele><time>2026-05-02T10:35:17.724Z</time></trkpt><trkpt lat="45.1769241" lon="12.293578"><ele>-2.571428571428571</ele><time>2026-05-02T10:35:18.733Z</time></trkpt><trkpt lat="45.1769224" lon="12.2934817"><ele>-2.2857142857142856</ele><time>2026-05-02T10:35:19.734Z</time></trkpt><trkpt lat="45.1769196" lon="12.2933857"><ele>-2.0</ele><time>2026-05-02T10:35:20.728Z</time></trkpt><trkpt lat="45.1769169" lon="12.2932899"><ele>-2.0</ele><time>2026-05-02T10:35:21.731Z</time></trkpt><trkpt lat="45.1769144" lon="12.2931918"><ele>-1.9999999999999998</ele><time>2026-05-02T10:35:22.728Z</time></trkpt><trkpt lat="45.176913" lon="12.2930948"><ele>-2.0</ele><time>2026-05-02T10:35:23.732Z</time></trkpt><trkpt lat="45.1769116" lon="12.2929963"><ele>-2.0</ele><time>2026-05-02T10:35:24.725Z</time></trkpt><trkpt lat="45.176908" lon="12.2928985"><ele>-1.9999999999999998</ele><time>2026-05-02T10:35:25.734Z</time></trkpt><trkpt lat="45.1769036" lon="12.292801"><ele>-2.0</ele><time>2026-05-02T10:35:26.733Z</time></trkpt><trkpt lat="45.1768984" lon="12.2927014"><ele>-2.0</ele><time>2026-05-02T10:35:27.734Z</time></trkpt><trkpt lat="45.176894" lon="12.2926027"><ele>-2.0</ele><time>2026-05-02T10:35:28.733Z</time></trkpt><trkpt lat="45.1768902" lon="12.2925029"><ele>-1.9999999999999998</ele><time>2026-05-02T10:35:29.73Z</time></trkpt><trkpt lat="45.1768869" lon="12.292402"><ele>-2.0</ele><time>2026-05-02T10:35:30.729Z</time></trkpt><trkpt lat="45.176886" lon="12.2923001"><ele>-2.0</ele><time>2026-05-02T10:35:31.729Z</time></trkpt><trkpt lat="45.176886" lon="12.2922002"><ele>-1.9999999999999998</ele><time>2026-05-02T10:35:32.733Z</time></trkpt><trkpt lat="45.1768868" lon="12.2920991"><ele>-2.0</ele><time>2026-05-02T10:35:33.734Z</time></trkpt><trkpt lat="45.1768895" lon="12.2919976"><ele>-2.0</ele><time>2026-05-02T10:35:34.724Z</time></trkpt><trkpt lat="45.1768945" lon="12.2918974"><ele>-2.142857142857143</ele><time>2026-05-02T10:35:35.736Z</time></trkpt><trkpt lat="45.1769024" lon="12.2918014"><ele>-2.2857142857142856</ele><time>2026-05-02T10:35:36.734Z</time></trkpt><trkpt lat="45.176912" lon="12.2917049"><ele>-2.4285714285714284</ele><time>2026-05-02T10:35:37.729Z</time></trkpt><trkpt lat="45.1769222" lon="12.291607"><ele>-2.571428571428571</ele><time>2026-05-02T10:35:38.732Z</time></trkpt><trkpt lat="45.1769331" lon="12.2915069"><ele>-2.7142857142857144</ele><time>2026-05-02T10:35:39.737Z</time></trkpt><trkpt lat="45.1769442" lon="12.2914092"><ele>-2.8571428571428568</ele><time>2026-05-02T10:35:40.728Z</time></trkpt><trkpt lat="45.1769566" lon="12.2913115"><ele>-3.0</ele><time>2026-05-02T10:35:41.734Z</time></trkpt><trkpt lat="45.1769698" lon="12.2912119"><ele>-2.571428571428571</ele><time>2026-05-02T10:35:42.74Z</time></trkpt><trkpt lat="45.1769829" lon="12.2911145"><ele>-2.142857142857143</ele><time>2026-05-02T10:35:43.733Z</time></trkpt><trkpt lat="45.176997" lon="12.291018"><ele>-1.7142857142857142</ele><time>2026-05-02T10:35:44.731Z</time></trkpt><trkpt lat="45.177013" lon="12.2909229"><ele>-1.2857142857142856</ele><time>2026-05-02T10:35:45.732Z</time></trkpt><trkpt lat="45.1770293" lon="12.2908301"><ele>-0.8571428571428571</ele><time>2026-05-02T10:35:46.729Z</time></trkpt><trkpt lat="45.1770448" lon="12.290738"><ele>-0.42857142857142855</ele><time>2026-05-02T10:35:47.736Z</time></trkpt><trkpt lat="45.1770602" lon="12.2906439"><ele>0.0</ele><time>2026-05-02T10:35:48.728Z</time></trkpt><trkpt lat="45.1770753" lon="12.2905495"><ele>0.42857142857142855</ele><time>2026-05-02T10:35:49.733Z</time></trkpt><trkpt lat="45.1770902" lon="12.290454"><ele>0.8571428571428571</ele><time>2026-05-02T10:35:50.732Z</time></trkpt><trkpt lat="45.1771054" lon="12.2903571"><ele>1.2857142857142856</ele><time>2026-05-02T10:35:51.728Z</time></trkpt><trkpt lat="45.1771205" lon="12.29026"><ele>1.7142857142857142</ele><time>2026-05-02T10:35:52.731Z</time></trkpt><trkpt lat="45.1771371" lon="12.2901624"><ele>2.142857142857143</ele><time>2026-05-02T10:35:53.726Z</time></trkpt><trkpt lat="45.1771531" lon="12.2900639"><ele>2.571428571428571</ele><time>2026-05-02T10:35:54.725Z</time></trkpt><trkpt lat="45.1771693" lon="12.2899673"><ele>3.0</ele><time>2026-05-02T10:35:55.732Z</time></trkpt><trkpt lat="45.1771841" lon="12.2898678"><ele>2.9999999999999996</ele><time>2026-05-02T10:35:56.723Z</time></trkpt><trkpt lat="45.1771997" lon="12.2897679"><ele>3.0</ele><time>2026-05-02T10:35:57.732Z</time></trkpt><trkpt lat="45.1772151" lon="12.2896686"><ele>3.0</ele><time>2026-05-02T10:35:58.728Z</time></trkpt><trkpt lat="45.1772294" lon="12.2895704"><ele>3.0</ele><time>2026-05-02T10:35:59.734Z</time></trkpt><trkpt lat="45.1772448" lon="12.2894739"><ele>3.0</ele><time>2026-05-02T10:36:00.727Z</time></trkpt><trkpt lat="45.177262" lon="12.2893781"><ele>2.9999999999999996</ele><time>2026-05-02T10:36:01.73Z</time></trkpt><trkpt lat="45.1772786" lon="12.2892838"><ele>3.0</ele><time>2026-05-02T10:36:02.734Z</time></trkpt><trkpt lat="45.1772955" lon="12.2891882"><ele>2.9999999999999996</ele><time>2026-05-02T10:36:03.729Z</time></trkpt><trkpt lat="45.1773125" lon="12.289094"><ele>3.0</ele><time>2026-05-02T10:36:04.734Z</time></trkpt><trkpt lat="45.1773295" lon="12.2889996"><ele>3.0</ele><time>2026-05-02T10:36:05.734Z</time></trkpt><trkpt lat="45.1773458" lon="12.288902"><ele>3.0</ele><time>2026-05-02T10:36:06.725Z</time></trkpt><trkpt lat="45.177365" lon="12.2888089"><ele>3.0</ele><time>2026-05-02T10:36:07.733Z</time></trkpt><trkpt lat="45.1773847" lon="12.2887162"><ele>2.9999999999999996</ele><time>2026-05-02T10:36:08.736Z</time></trkpt><trkpt lat="45.1774059" lon="12.2886282"><ele>3.0</ele><time>2026-05-02T10:36:09.733Z</time></trkpt><trkpt lat="45.1774254" lon="12.288542"><ele>2.6</ele><time>2026-05-02T10:36:10.732Z</time></trkpt><trkpt lat="45.1774575" lon="12.2883769"><ele>2.1999999999999997</ele><time>2026-05-02T10:36:12.734Z</time></trkpt><trkpt lat="45.1774828" lon="12.2882123"><ele>1.8</ele><time>2026-05-02T10:36:14.729Z</time></trkpt><trkpt lat="45.1775165" lon="12.2880703"><ele>1.4</ele><time>2026-05-02T10:36:16.727Z</time></trkpt><trkpt lat="45.1775652" lon="12.2879514"><ele>1.0</ele><time>2026-05-02T10:36:18.731Z</time></trkpt><trkpt lat="45.177602" lon="12.2878117"><ele>1.0</ele><time>2026-05-02T10:36:20.731Z</time></trkpt><trkpt lat="45.1776244" lon="12.2876617"><ele>1.0</ele><time>2026-05-02T10:36:22.731Z</time></trkpt><trkpt lat="45.1776518" lon="12.2875181"><ele>1.0</ele><time>2026-05-02T10:36:24.735Z</time></trkpt><trkpt lat="45.1776807" lon="12.2873702"><ele>1.0</ele><time>2026-05-02T10:36:26.731Z</time></trkpt><trkpt lat="45.1776931" lon="12.2872093"><ele>1.0</ele><time>2026-05-02T10:36:28.732Z</time></trkpt><trkpt lat="45.1776967" lon="12.2870402"><ele>1.0</ele><time>2026-05-02T10:36:30.735Z</time></trkpt><trkpt lat="45.1777002" lon="12.2868711"><ele>1.0</ele><time>2026-05-02T10:36:32.734Z</time></trkpt><trkpt lat="45.177704" lon="12.2867013"><ele>1.0</ele><time>2026-05-02T10:36:34.729Z</time></trkpt><trkpt lat="45.1777081" lon="12.2865262"><ele>1.0</ele><time>2026-05-02T10:36:36.735Z</time></trkpt><trkpt lat="45.1777153" lon="12.2863475"><ele>0.8</ele><time>2026-05-02T10:36:38.733Z</time></trkpt><trkpt lat="45.177722" lon="12.2861707"><ele>0.6000000000000001</ele><time>2026-05-02T10:36:40.731Z</time></trkpt><trkpt lat="45.1777259" lon="12.2859952"><ele>0.4</ele><time>2026-05-02T10:36:42.736Z</time></trkpt><trkpt lat="45.1777282" lon="12.2859058"><ele>0.2</ele><time>2026-05-02T10:36:43.728Z</time></trkpt><trkpt lat="45.1777304" lon="12.2858164"><ele>0.0</ele><time>2026-05-02T10:36:44.728Z</time></trkpt><trkpt lat="45.1777303" lon="12.2856401"><ele>0.16666666666666666</ele><time>2026-05-02T10:36:46.732Z</time></trkpt><trkpt lat="45.1777283" lon="12.2854606"><ele>0.3333333333333333</ele><time>2026-05-02T10:36:48.728Z</time></trkpt><trkpt lat="45.1777233" lon="12.2853706"><ele>0.5</ele><time>2026-05-02T10:36:49.734Z</time></trkpt><trkpt lat="45.177714" lon="12.2852788"><ele>0.6666666666666666</ele><time>2026-05-02T10:36:50.735Z</time></trkpt><trkpt lat="45.1777028" lon="12.2851877"><ele>0.8333333333333333</ele><time>2026-05-02T10:36:51.733Z</time></trkpt><trkpt lat="45.1776909" lon="12.285094"><ele>1.0</ele><time>2026-05-02T10:36:52.73Z</time></trkpt><trkpt lat="45.1776796" lon="12.2850018"><ele>1.0</ele><time>2026-05-02T10:36:53.736Z</time></trkpt><trkpt lat="45.1776702" lon="12.2849077"><ele>0.9999999999999999</ele><time>2026-05-02T10:36:54.725Z</time></trkpt><trkpt lat="45.177661" lon="12.2848167"><ele>1.0</ele><time>2026-05-02T10:36:55.734Z</time></trkpt><trkpt lat="45.1776552" lon="12.2847266"><ele>1.0</ele><time>2026-05-02T10:36:56.735Z</time></trkpt><trkpt lat="45.1776526" lon="12.2846346"><ele>0.9999999999999999</ele><time>2026-05-02T10:36:57.735Z</time></trkpt><trkpt lat="45.1776519" lon="12.2845426"><ele>1.0</ele><time>2026-05-02T10:36:58.731Z</time></trkpt><trkpt lat="45.1776548" lon="12.2844487"><ele>1.0</ele><time>2026-05-02T10:36:59.722Z</time></trkpt><trkpt lat="45.1776602" lon="12.2843534"><ele>1.0</ele><time>2026-05-02T10:37:00.729Z</time></trkpt><trkpt lat="45.1776657" lon="12.2842588"><ele>0.9999999999999999</ele><time>2026-05-02T10:37:01.733Z</time></trkpt><trkpt lat="45.1776724" lon="12.2841679"><ele>1.0</ele><time>2026-05-02T10:37:02.733Z</time></trkpt><trkpt lat="45.1776784" lon="12.2840766"><ele>1.0</ele><time>2026-05-02T10:37:03.734Z</time></trkpt><trkpt lat="45.177683" lon="12.2839855"><ele>0.9999999999999999</ele><time>2026-05-02T10:37:04.732Z</time></trkpt><trkpt lat="45.177686" lon="12.2838942"><ele>1.0</ele><time>2026-05-02T10:37:05.732Z</time></trkpt><trkpt lat="45.1776898" lon="12.2838024"><ele>1.0</ele><time>2026-05-02T10:37:06.73Z</time></trkpt><trkpt lat="45.1776941" lon="12.2837106"><ele>0.7142857142857142</ele><time>2026-05-02T10:37:07.729Z</time></trkpt><trkpt lat="45.1777003" lon="12.2836195"><ele>0.4285714285714285</ele><time>2026-05-02T10:37:08.729Z</time></trkpt><trkpt lat="45.1777043" lon="12.2835284"><ele>0.14285714285714285</ele><time>2026-05-02T10:37:09.727Z</time></trkpt><trkpt lat="45.1777084" lon="12.2834374"><ele>-0.14285714285714285</ele><time>2026-05-02T10:37:10.733Z</time></trkpt><trkpt lat="45.1777123" lon="12.2833474"><ele>-0.4285714285714285</ele><time>2026-05-02T10:37:11.731Z</time></trkpt><trkpt lat="45.1777178" lon="12.2832574"><ele>-0.7142857142857142</ele><time>2026-05-02T10:37:12.734Z</time></trkpt><trkpt lat="45.1777271" lon="12.283168"><ele>-1.0</ele><time>2026-05-02T10:37:13.727Z</time></trkpt><trkpt lat="45.1777395" lon="12.2830764"><ele>-1.3333333333333333</ele><time>2026-05-02T10:37:14.733Z</time></trkpt><trkpt lat="45.1777564" lon="12.2829858"><ele>-1.6666666666666665</ele><time>2026-05-02T10:37:15.733Z</time></trkpt><trkpt lat="45.1777768" lon="12.2828967"><ele>-2.0</ele><time>2026-05-02T10:37:16.727Z</time></trkpt><trkpt lat="45.1778006" lon="12.2828091"><ele>-2.3333333333333335</ele><time>2026-05-02T10:37:17.732Z</time></trkpt><trkpt lat="45.1778246" lon="12.282722"><ele>-2.6666666666666665</ele><time>2026-05-02T10:37:18.73Z</time></trkpt><trkpt lat="45.1778494" lon="12.2826362"><ele>-3.0</ele><time>2026-05-02T10:37:19.732Z</time></trkpt><trkpt lat="45.1778925" lon="12.2824703"><ele>-3.0</ele><time>2026-05-02T10:37:21.733Z</time></trkpt><trkpt lat="45.177927" lon="12.2822972"><ele>-3.0</ele><time>2026-05-02T10:37:23.738Z</time></trkpt><trkpt lat="45.1779481" lon="12.2821201"><ele>-3.0</ele><time>2026-05-02T10:37:25.734Z</time></trkpt><trkpt lat="45.1779548" lon="12.2820293"><ele>-3.0</ele><time>2026-05-02T10:37:26.73Z</time></trkpt><trkpt lat="45.1779612" lon="12.2819363"><ele>-3.0</ele><time>2026-05-02T10:37:27.731Z</time></trkpt><trkpt lat="45.1779694" lon="12.2818415"><ele>-2.714285714285714</ele><time>2026-05-02T10:37:28.73Z</time></trkpt><trkpt lat="45.1779777" lon="12.2817471"><ele>-2.4285714285714284</ele><time>2026-05-02T10:37:29.734Z</time></trkpt><trkpt lat="45.1779859" lon="12.281654"><ele>-2.142857142857143</ele><time>2026-05-02T10:37:30.725Z</time></trkpt><trkpt lat="45.1779958" lon="12.2815599"><ele>-1.857142857142857</ele><time>2026-05-02T10:37:31.73Z</time></trkpt><trkpt lat="45.1780062" lon="12.2814708"><ele>-1.5714285714285712</ele><time>2026-05-02T10:37:32.734Z</time></trkpt><trkpt lat="45.178016" lon="12.2813802"><ele>-1.2857142857142856</ele><time>2026-05-02T10:37:33.726Z</time></trkpt><trkpt lat="45.1780262" lon="12.2812892"><ele>-1.0</ele><time>2026-05-02T10:37:34.734Z</time></trkpt><trkpt lat="45.178037" lon="12.2811997"><ele>-0.8571428571428571</ele><time>2026-05-02T10:37:35.731Z</time></trkpt><trkpt lat="45.1780478" lon="12.2811073"><ele>-0.7142857142857142</ele><time>2026-05-02T10:37:36.731Z</time></trkpt><trkpt lat="45.1780589" lon="12.2810136"><ele>-0.5714285714285714</ele><time>2026-05-02T10:37:37.724Z</time></trkpt><trkpt lat="45.1780691" lon="12.2809191"><ele>-0.42857142857142855</ele><time>2026-05-02T10:37:38.735Z</time></trkpt><trkpt lat="45.1780788" lon="12.2808216"><ele>-0.2857142857142857</ele><time>2026-05-02T10:37:39.733Z</time></trkpt><trkpt lat="45.1780894" lon="12.2807264"><ele>-0.14285714285714285</ele><time>2026-05-02T10:37:40.73Z</time></trkpt><trkpt lat="45.1781004" lon="12.2806319"><ele>0.0</ele><time>2026-05-02T10:37:41.726Z</time></trkpt><trkpt lat="45.1781108" lon="12.2805383"><ele>-0.42857142857142855</ele><time>2026-05-02T10:37:42.735Z</time></trkpt><trkpt lat="45.1781215" lon="12.2804456"><ele>-0.8571428571428571</ele><time>2026-05-02T10:37:43.73Z</time></trkpt><trkpt lat="45.1781322" lon="12.2803506"><ele>-1.2857142857142856</ele><time>2026-05-02T10:37:44.733Z</time></trkpt><trkpt lat="45.178143" lon="12.2802577"><ele>-1.7142857142857142</ele><time>2026-05-02T10:37:45.731Z</time></trkpt><trkpt lat="45.1781532" lon="12.2801637"><ele>-2.142857142857143</ele><time>2026-05-02T10:37:46.728Z</time></trkpt><trkpt lat="45.1781623" lon="12.2800711"><ele>-2.571428571428571</ele><time>2026-05-02T10:37:47.735Z</time></trkpt><trkpt lat="45.1781723" lon="12.2799801"><ele>-3.0</ele><time>2026-05-02T10:37:48.732Z</time></trkpt><trkpt lat="45.1781825" lon="12.2798884"><ele>-2.625</ele><time>2026-05-02T10:37:49.734Z</time></trkpt><trkpt lat="45.1781914" lon="12.2797981"><ele>-2.25</ele><time>2026-05-02T10:37:50.733Z</time></trkpt><trkpt lat="45.1782015" lon="12.2797083"><ele>-1.875</ele><time>2026-05-02T10:37:51.737Z</time></trkpt><trkpt lat="45.1782113" lon="12.279617"><ele>-1.5</ele><time>2026-05-02T10:37:52.739Z</time></trkpt><trkpt lat="45.178221" lon="12.2795264"><ele>-1.125</ele><time>2026-05-02T10:37:53.732Z</time></trkpt><trkpt lat="45.1782321" lon="12.2794377"><ele>-0.75</ele><time>2026-05-02T10:37:54.732Z</time></trkpt><trkpt lat="45.1782428" lon="12.2793483"><ele>-0.375</ele><time>2026-05-02T10:37:55.729Z</time></trkpt><trkpt lat="45.1782525" lon="12.2792587"><ele>0.0</ele><time>2026-05-02T10:37:56.734Z</time></trkpt><trkpt lat="45.1782713" lon="12.2790839"><ele>0.25</ele><time>2026-05-02T10:37:58.737Z</time></trkpt><trkpt lat="45.17829" lon="12.2789094"><ele>0.5</ele><time>2026-05-02T10:38:00.734Z</time></trkpt><trkpt lat="45.1783026" lon="12.2787306"><ele>0.75</ele><time>2026-05-02T10:38:02.738Z</time></trkpt><trkpt lat="45.17831" lon="12.2785527"><ele>1.0</ele><time>2026-05-02T10:38:04.732Z</time></trkpt><trkpt lat="45.1783117" lon="12.2783823"><ele>0.9999999999999999</ele><time>2026-05-02T10:38:06.735Z</time></trkpt><trkpt lat="45.178313" lon="12.2782295"><ele>1.0</ele><time>2026-05-02T10:38:08.736Z</time></trkpt><trkpt lat="45.1783206" lon="12.2780922"><ele>1.0</ele><time>2026-05-02T10:38:10.725Z</time></trkpt><trkpt lat="45.1783281" lon="12.2779675"><ele>1.0</ele><time>2026-05-02T10:38:12.731Z</time></trkpt><trkpt lat="45.1783328" lon="12.2778528"><ele>0.9999999999999999</ele><time>2026-05-02T10:38:14.731Z</time></trkpt><trkpt lat="45.1783399" lon="12.2777551"><ele>1.0</ele><time>2026-05-02T10:38:16.736Z</time></trkpt><trkpt lat="45.178354" lon="12.2776593"><ele>0.7142857142857142</ele><time>2026-05-02T10:38:18.732Z</time></trkpt><trkpt lat="45.1783644" lon="12.27757"><ele>0.4285714285714285</ele><time>2026-05-02T10:38:20.73Z</time></trkpt><trkpt lat="45.1783779" lon="12.277443"><ele>0.14285714285714285</ele><time>2026-05-02T10:38:23.725Z</time></trkpt><trkpt lat="45.178403" lon="12.2773417"><ele>-0.14285714285714285</ele><time>2026-05-02T10:38:26.733Z</time></trkpt><trkpt lat="45.1784555" lon="12.2772643"><ele>-0.4285714285714285</ele><time>2026-05-02T10:38:29.735Z</time></trkpt><trkpt lat="45.1785245" lon="12.2772513"><ele>-0.7142857142857142</ele><time>2026-05-02T10:38:32.734Z</time></trkpt><trkpt lat="45.1785946" lon="12.2772671"><ele>-1.0</ele><time>2026-05-02T10:38:35.733Z</time></trkpt><trkpt lat="45.1786573" lon="12.2772802"><ele>-0.9999999999999999</ele><time>2026-05-02T10:38:37.738Z</time></trkpt><trkpt lat="45.1787328" lon="12.2772988"><ele>-1.0</ele><time>2026-05-02T10:38:39.734Z</time></trkpt><trkpt lat="45.1788072" lon="12.2773273"><ele>-1.0</ele><time>2026-05-02T10:38:41.738Z</time></trkpt><trkpt lat="45.1788849" lon="12.277346"><ele>-1.0</ele><time>2026-05-02T10:38:43.733Z</time></trkpt><trkpt lat="45.1789649" lon="12.2773619"><ele>-0.9999999999999999</ele><time>2026-05-02T10:38:45.731Z</time></trkpt><trkpt lat="45.1790417" lon="12.2773812"><ele>-1.0</ele><time>2026-05-02T10:38:47.728Z</time></trkpt><trkpt lat="45.1791138" lon="12.2774008"><ele>-0.8333333333333333</ele><time>2026-05-02T10:38:49.734Z</time></trkpt><trkpt lat="45.1791905" lon="12.2774216"><ele>-0.6666666666666666</ele><time>2026-05-02T10:38:51.731Z</time></trkpt><trkpt lat="45.1792714" lon="12.2774382"><ele>-0.5</ele><time>2026-05-02T10:38:53.731Z</time></trkpt><trkpt lat="45.1793548" lon="12.2774579"><ele>-0.3333333333333333</ele><time>2026-05-02T10:38:55.736Z</time></trkpt><trkpt lat="45.1794391" lon="12.2774773"><ele>-0.16666666666666666</ele><time>2026-05-02T10:38:57.73Z</time></trkpt><trkpt lat="45.1795218" lon="12.2775026"><ele>0.0</ele><time>2026-05-02T10:38:59.735Z</time></trkpt><trkpt lat="45.1796066" lon="12.2775268"><ele>0.0</ele><time>2026-05-02T10:39:01.731Z</time></trkpt><trkpt lat="45.179694" lon="12.2775493"><ele>0.0</ele><time>2026-05-02T10:39:03.734Z</time></trkpt><trkpt lat="45.1797827" lon="12.2775716"><ele>0.0</ele><time>2026-05-02T10:39:05.729Z</time></trkpt><trkpt lat="45.1798698" lon="12.2775962"><ele>0.0</ele><time>2026-05-02T10:39:07.73Z</time></trkpt><trkpt lat="45.1799565" lon="12.2776213"><ele>0.0</ele><time>2026-05-02T10:39:09.734Z</time></trkpt><trkpt lat="45.1800501" lon="12.2776434"><ele>0.0</ele><time>2026-05-02T10:39:11.733Z</time></trkpt><trkpt lat="45.1801483" lon="12.2776655"><ele>0.0</ele><time>2026-05-02T10:39:13.735Z</time></trkpt><trkpt lat="45.1802504" lon="12.277687"><ele>0.0</ele><time>2026-05-02T10:39:15.731Z</time></trkpt><trkpt lat="45.1803574" lon="12.2777128"><ele>0.0</ele><time>2026-05-02T10:39:17.73Z</time></trkpt><trkpt lat="45.1804672" lon="12.2777411"><ele>0.0</ele><time>2026-05-02T10:39:19.732Z</time></trkpt><trkpt lat="45.1805698" lon="12.2777687"><ele>0.0</ele><time>2026-05-02T10:39:21.732Z</time></trkpt><trkpt lat="45.1806719" lon="12.277796"><ele>0.0</ele><time>2026-05-02T10:39:23.729Z</time></trkpt><trkpt lat="45.1807634" lon="12.2778284"><ele>0.0</ele><time>2026-05-02T10:39:25.735Z</time></trkpt><trkpt lat="45.1808467" lon="12.2778668"><ele>0.0</ele><time>2026-05-02T10:39:27.73Z</time></trkpt><trkpt lat="45.18091" lon="12.2779076"><ele>0.0</ele><time>2026-05-02T10:39:29.728Z</time></trkpt><trkpt lat="45.1809983" lon="12.2779365"><ele>0.0</ele><time>2026-05-02T10:39:32.732Z</time></trkpt><trkpt lat="45.1810731" lon="12.2779911"><ele>0.0</ele><time>2026-05-02T10:39:34.732Z</time></trkpt><trkpt lat="45.1811557" lon="12.2780421"><ele>0.0</ele><time>2026-05-02T10:39:36.73Z</time></trkpt><trkpt lat="45.1812386" lon="12.2780885"><ele>0.0</ele><time>2026-05-02T10:39:38.727Z</time></trkpt><trkpt lat="45.1813188" lon="12.27813"><ele>0.0</ele><time>2026-05-02T10:39:40.733Z</time></trkpt><trkpt lat="45.1813971" lon="12.2781714"><ele>0.0</ele><time>2026-05-02T10:39:42.739Z</time></trkpt><trkpt lat="45.1814793" lon="12.2782109"><ele>0.0</ele><time>2026-05-02T10:39:44.73Z</time></trkpt><trkpt lat="45.1815674" lon="12.2782528"><ele>0.6</ele><time>2026-05-02T10:39:46.732Z</time></trkpt><trkpt lat="45.1816615" lon="12.278289"><ele>1.2</ele><time>2026-05-02T10:39:48.735Z</time></trkpt><trkpt lat="45.1817618" lon="12.2783191"><ele>1.7999999999999998</ele><time>2026-05-02T10:39:50.732Z</time></trkpt><trkpt lat="45.1818646" lon="12.2783459"><ele>2.4</ele><time>2026-05-02T10:39:52.735Z</time></trkpt><trkpt lat="45.1819646" lon="12.2783706"><ele>3.0</ele><time>2026-05-02T10:39:54.732Z</time></trkpt><trkpt lat="45.1820636" lon="12.2783895"><ele>3.0</ele><time>2026-05-02T10:39:56.737Z</time></trkpt><trkpt lat="45.1821653" lon="12.2784012"><ele>3.0</ele><time>2026-05-02T10:39:58.733Z</time></trkpt><trkpt lat="45.1822706" lon="12.2784064"><ele>3.0</ele><time>2026-05-02T10:40:00.735Z</time></trkpt><trkpt lat="45.1823772" lon="12.2784047"><ele>3.0</ele><time>2026-05-02T10:40:02.737Z</time></trkpt><trkpt lat="45.1824814" lon="12.2783975"><ele>3.0</ele><time>2026-05-02T10:40:04.733Z</time></trkpt><trkpt lat="45.1825802" lon="12.278394"><ele>3.1666666666666665</ele><time>2026-05-02T10:40:06.734Z</time></trkpt><trkpt lat="45.1826751" lon="12.2783948"><ele>3.333333333333333</ele><time>2026-05-02T10:40:08.73Z</time></trkpt><trkpt lat="45.1827618" lon="12.2783879"><ele>3.5</ele><time>2026-05-02T10:40:10.731Z</time></trkpt><trkpt lat="45.1828433" lon="12.2783831"><ele>3.6666666666666665</ele><time>2026-05-02T10:40:12.734Z</time></trkpt><trkpt lat="45.1829239" lon="12.2783802"><ele>3.833333333333333</ele><time>2026-05-02T10:40:14.722Z</time></trkpt><trkpt lat="45.1830077" lon="12.2783778"><ele>4.0</ele><time>2026-05-02T10:40:16.731Z</time></trkpt><trkpt lat="45.1830898" lon="12.2783778"><ele>3.9999999999999996</ele><time>2026-05-02T10:40:18.735Z</time></trkpt><trkpt lat="45.1831715" lon="12.2783762"><ele>4.0</ele><time>2026-05-02T10:40:20.731Z</time></trkpt><trkpt lat="45.1832505" lon="12.2783728"><ele>4.0</ele><time>2026-05-02T10:40:22.731Z</time></trkpt><trkpt lat="45.1833279" lon="12.2783679"><ele>4.0</ele><time>2026-05-02T10:40:24.727Z</time></trkpt><trkpt lat="45.1834067" lon="12.2783615"><ele>3.9999999999999996</ele><time>2026-05-02T10:40:26.73Z</time></trkpt><trkpt lat="45.1834892" lon="12.27836"><ele>4.0</ele><time>2026-05-02T10:40:28.733Z</time></trkpt><trkpt lat="45.1835706" lon="12.2783653"><ele>3.8000000000000003</ele><time>2026-05-02T10:40:30.733Z</time></trkpt><trkpt lat="45.1836531" lon="12.278372"><ele>3.6000000000000005</ele><time>2026-05-02T10:40:32.729Z</time></trkpt><trkpt lat="45.1837412" lon="12.2783808"><ele>3.4</ele><time>2026-05-02T10:40:34.737Z</time></trkpt><trkpt lat="45.1838395" lon="12.2783915"><ele>3.2</ele><time>2026-05-02T10:40:36.737Z</time></trkpt><trkpt lat="45.183942" lon="12.278409"><ele>3.0</ele><time>2026-05-02T10:40:38.731Z</time></trkpt><trkpt lat="45.1840506" lon="12.2784348"><ele>2.5</ele><time>2026-05-02T10:40:40.73Z</time></trkpt><trkpt lat="45.1841614" lon="12.2784711"><ele>2.0</ele><time>2026-05-02T10:40:42.735Z</time></trkpt><trkpt lat="45.1842761" lon="12.2785054"><ele>1.5</ele><time>2026-05-02T10:40:44.732Z</time></trkpt><trkpt lat="45.1843906" lon="12.2785432"><ele>1.0</ele><time>2026-05-02T10:40:46.727Z</time></trkpt><trkpt lat="45.1845029" lon="12.2785795"><ele>1.0</ele><time>2026-05-02T10:40:48.734Z</time></trkpt><trkpt lat="45.1846142" lon="12.2786149"><ele>1.0</ele><time>2026-05-02T10:40:50.738Z</time></trkpt><trkpt lat="45.1847246" lon="12.2786582"><ele>1.0</ele><time>2026-05-02T10:40:52.741Z</time></trkpt><trkpt lat="45.18484" lon="12.2786981"><ele>1.0</ele><time>2026-05-02T10:40:54.733Z</time></trkpt><trkpt lat="45.1849523" lon="12.2787452"><ele>1.0</ele><time>2026-05-02T10:40:56.732Z</time></trkpt><trkpt lat="45.185064" lon="12.278796"><ele>1.0</ele><time>2026-05-02T10:40:58.732Z</time></trkpt><trkpt lat="45.185175" lon="12.2788398"><ele>1.0</ele><time>2026-05-02T10:41:00.735Z</time></trkpt><trkpt lat="45.1852866" lon="12.278884"><ele>1.0</ele><time>2026-05-02T10:41:02.738Z</time></trkpt><trkpt lat="45.1854016" lon="12.2789241"><ele>0.8</ele><time>2026-05-02T10:41:04.735Z</time></trkpt><trkpt lat="45.1855104" lon="12.2789657"><ele>0.6000000000000001</ele><time>2026-05-02T10:41:06.735Z</time></trkpt><trkpt lat="45.1856177" lon="12.2790086"><ele>0.4</ele><time>2026-05-02T10:41:08.732Z</time></trkpt><trkpt lat="45.1857271" lon="12.2790448"><ele>0.2</ele><time>2026-05-02T10:41:10.736Z</time></trkpt><trkpt lat="45.1858325" lon="12.2790872"><ele>0.0</ele><time>2026-05-02T10:41:12.74Z</time></trkpt><trkpt lat="45.1859379" lon="12.2791262"><ele>0.0</ele><time>2026-05-02T10:41:14.736Z</time></trkpt><trkpt lat="45.186039" lon="12.2791676"><ele>0.0</ele><time>2026-05-02T10:41:16.732Z</time></trkpt><trkpt lat="45.1861403" lon="12.2792079"><ele>0.0</ele><time>2026-05-02T10:41:18.735Z</time></trkpt><trkpt lat="45.1862433" lon="12.2792419"><ele>0.0</ele><time>2026-05-02T10:41:20.735Z</time></trkpt><trkpt lat="45.1863438" lon="12.2792768"><ele>0.0</ele><time>2026-05-02T10:41:22.735Z</time></trkpt><trkpt lat="45.1864395" lon="12.279319"><ele>0.4</ele><time>2026-05-02T10:41:24.736Z</time></trkpt><trkpt lat="45.186537" lon="12.2793598"><ele>0.8</ele><time>2026-05-02T10:41:26.731Z</time></trkpt><trkpt lat="45.186639" lon="12.279397"><ele>1.2000000000000002</ele><time>2026-05-02T10:41:28.734Z</time></trkpt><trkpt lat="45.1867377" lon="12.2794358"><ele>1.6</ele><time>2026-05-02T10:41:30.738Z</time></trkpt><trkpt lat="45.1868365" lon="12.2794749"><ele>2.0</ele><time>2026-05-02T10:41:32.734Z</time></trkpt><trkpt lat="45.1869326" lon="12.2795186"><ele>2.0</ele><time>2026-05-02T10:41:34.732Z</time></trkpt><trkpt lat="45.1870306" lon="12.2795598"><ele>2.0</ele><time>2026-05-02T10:41:36.733Z</time></trkpt><trkpt lat="45.1871286" lon="12.2796014"><ele>2.0</ele><time>2026-05-02T10:41:38.735Z</time></trkpt><trkpt lat="45.1872231" lon="12.2796482"><ele>2.0</ele><time>2026-05-02T10:41:40.735Z</time></trkpt><trkpt lat="45.1873192" lon="12.2796916"><ele>2.0</ele><time>2026-05-02T10:41:42.736Z</time></trkpt><trkpt lat="45.1874186" lon="12.2797352"><ele>1.8</ele><time>2026-05-02T10:41:44.73Z</time></trkpt><trkpt lat="45.1875186" lon="12.2797763"><ele>1.6</ele><time>2026-05-02T10:41:46.734Z</time></trkpt><trkpt lat="45.187618" lon="12.279823"><ele>1.4000000000000001</ele><time>2026-05-02T10:41:48.734Z</time></trkpt><trkpt lat="45.1877145" lon="12.2798706"><ele>1.2000000000000002</ele><time>2026-05-02T10:41:50.729Z</time></trkpt><trkpt lat="45.1878129" lon="12.2799246"><ele>1.0</ele><time>2026-05-02T10:41:52.742Z</time></trkpt><trkpt lat="45.1879097" lon="12.2799817"><ele>1.0</ele><time>2026-05-02T10:41:54.735Z</time></trkpt><trkpt lat="45.1880094" lon="12.2800334"><ele>1.0</ele><time>2026-05-02T10:41:56.731Z</time></trkpt><trkpt lat="45.1881045" lon="12.2800791"><ele>1.0</ele><time>2026-05-02T10:41:58.732Z</time></trkpt><trkpt lat="45.1882027" lon="12.2801155"><ele>1.0</ele><time>2026-05-02T10:42:00.735Z</time></trkpt><trkpt lat="45.1883019" lon="12.2801426"><ele>1.0</ele><time>2026-05-02T10:42:02.737Z</time></trkpt><trkpt lat="45.1884025" lon="12.2801632"><ele>1.0</ele><time>2026-05-02T10:42:04.725Z</time></trkpt><trkpt lat="45.188505" lon="12.2801685"><ele>1.0</ele><time>2026-05-02T10:42:06.735Z</time></trkpt><trkpt lat="45.1886074" lon="12.280165"><ele>1.0</ele><time>2026-05-02T10:42:08.733Z</time></trkpt><trkpt lat="45.1887116" lon="12.2801727"><ele>1.0</ele><time>2026-05-02T10:42:10.73Z</time></trkpt><trkpt lat="45.1888202" lon="12.2801807"><ele>1.0</ele><time>2026-05-02T10:42:12.736Z</time></trkpt><trkpt lat="45.1889284" lon="12.2801899"><ele>0.8</ele><time>2026-05-02T10:42:14.731Z</time></trkpt><trkpt lat="45.1890356" lon="12.2801966"><ele>0.6000000000000001</ele><time>2026-05-02T10:42:16.731Z</time></trkpt><trkpt lat="45.1891427" lon="12.280203"><ele>0.4</ele><time>2026-05-02T10:42:18.735Z</time></trkpt><trkpt lat="45.1892469" lon="12.2802223"><ele>0.2</ele><time>2026-05-02T10:42:20.732Z</time></trkpt><trkpt lat="45.1893487" lon="12.2802452"><ele>0.0</ele><time>2026-05-02T10:42:22.739Z</time></trkpt><trkpt lat="45.1894516" lon="12.280265"><ele>0.0</ele><time>2026-05-02T10:42:24.736Z</time></trkpt><trkpt lat="45.189554" lon="12.2802816"><ele>0.0</ele><time>2026-05-02T10:42:26.731Z</time></trkpt><trkpt lat="45.189653" lon="12.2802992"><ele>0.0</ele><time>2026-05-02T10:42:28.733Z</time></trkpt><trkpt lat="45.1897534" lon="12.2803171"><ele>0.0</ele><time>2026-05-02T10:42:30.73Z</time></trkpt><trkpt lat="45.1898597" lon="12.280329"><ele>0.0</ele><time>2026-05-02T10:42:32.74Z</time></trkpt><trkpt lat="45.1899689" lon="12.28035"><ele>0.0</ele><time>2026-05-02T10:42:34.735Z</time></trkpt><trkpt lat="45.1900738" lon="12.2803669"><ele>0.0</ele><time>2026-05-02T10:42:36.729Z</time></trkpt><trkpt lat="45.1901777" lon="12.2803833"><ele>0.0</ele><time>2026-05-02T10:42:38.723Z</time></trkpt><trkpt lat="45.1902803" lon="12.2804062"><ele>0.0</ele><time>2026-05-02T10:42:40.73Z</time></trkpt><trkpt lat="45.190388" lon="12.2804297"><ele>0.0</ele><time>2026-05-02T10:42:42.737Z</time></trkpt><trkpt lat="45.1904957" lon="12.2804565"><ele>0.0</ele><time>2026-05-02T10:42:44.731Z</time></trkpt><trkpt lat="45.1906031" lon="12.2804875"><ele>0.0</ele><time>2026-05-02T10:42:46.733Z</time></trkpt><trkpt lat="45.1907114" lon="12.2805146"><ele>0.0</ele><time>2026-05-02T10:42:48.726Z</time></trkpt><trkpt lat="45.1908136" lon="12.2805444"><ele>0.0</ele><time>2026-05-02T10:42:50.732Z</time></trkpt><trkpt lat="45.190918" lon="12.2805788"><ele>0.0</ele><time>2026-05-02T10:42:52.737Z</time></trkpt><trkpt lat="45.1910153" lon="12.2806232"><ele>0.2</ele><time>2026-05-02T10:42:54.734Z</time></trkpt><trkpt lat="45.1911122" lon="12.2806718"><ele>0.4</ele><time>2026-05-02T10:42:56.731Z</time></trkpt><trkpt lat="45.1912146" lon="12.2807251"><ele>0.6000000000000001</ele><time>2026-05-02T10:42:58.73Z</time></trkpt><trkpt lat="45.191317" lon="12.2807846"><ele>0.8</ele><time>2026-05-02T10:43:00.732Z</time></trkpt><trkpt lat="45.1914219" lon="12.280836"><ele>1.0</ele><time>2026-05-02T10:43:02.74Z</time></trkpt><trkpt lat="45.191529" lon="12.2808833"><ele>1.2000000000000002</ele><time>2026-05-02T10:43:04.736Z</time></trkpt><trkpt lat="45.1916322" lon="12.2809341"><ele>1.4000000000000001</ele><time>2026-05-02T10:43:06.731Z</time></trkpt><trkpt lat="45.1917349" lon="12.2809843"><ele>1.6</ele><time>2026-05-02T10:43:08.732Z</time></trkpt><trkpt lat="45.191839" lon="12.2810308"><ele>1.8</ele><time>2026-05-02T10:43:10.738Z</time></trkpt><trkpt lat="45.1919469" lon="12.2810788"><ele>2.0</ele><time>2026-05-02T10:43:12.737Z</time></trkpt><trkpt lat="45.1920513" lon="12.2811338"><ele>2.0</ele><time>2026-05-02T10:43:14.73Z</time></trkpt><trkpt lat="45.1921535" lon="12.2811913"><ele>2.0</ele><time>2026-05-02T10:43:16.728Z</time></trkpt><trkpt lat="45.1922541" lon="12.281253"><ele>2.0</ele><time>2026-05-02T10:43:18.733Z</time></trkpt><trkpt lat="45.1923552" lon="12.2813054"><ele>2.0</ele><time>2026-05-02T10:43:20.733Z</time></trkpt><trkpt lat="45.1924567" lon="12.2813566"><ele>2.0</ele><time>2026-05-02T10:43:22.738Z</time></trkpt><trkpt lat="45.1925553" lon="12.2814124"><ele>1.8</ele><time>2026-05-02T10:43:24.731Z</time></trkpt><trkpt lat="45.192655" lon="12.2814682"><ele>1.6</ele><time>2026-05-02T10:43:26.736Z</time></trkpt><trkpt lat="45.1927557" lon="12.2815212"><ele>1.4000000000000001</ele><time>2026-05-02T10:43:28.733Z</time></trkpt><trkpt lat="45.192856" lon="12.2815644"><ele>1.2000000000000002</ele><time>2026-05-02T10:43:30.73Z</time></trkpt><trkpt lat="45.1929562" lon="12.2815996"><ele>1.0</ele><time>2026-05-02T10:43:32.739Z</time></trkpt><trkpt lat="45.1930564" lon="12.2816334"><ele>1.0</ele><time>2026-05-02T10:43:34.736Z</time></trkpt><trkpt lat="45.1931602" lon="12.2816667"><ele>1.0</ele><time>2026-05-02T10:43:36.737Z</time></trkpt><trkpt lat="45.1932605" lon="12.2816943"><ele>1.0</ele><time>2026-05-02T10:43:38.734Z</time></trkpt><trkpt lat="45.1933596" lon="12.281726"><ele>1.0</ele><time>2026-05-02T10:43:40.732Z</time></trkpt><trkpt lat="45.1934585" lon="12.2817546"><ele>1.0</ele><time>2026-05-02T10:43:42.736Z</time></trkpt><trkpt lat="45.1935584" lon="12.2817848"><ele>1.0</ele><time>2026-05-02T10:43:44.735Z</time></trkpt><trkpt lat="45.1936603" lon="12.2818229"><ele>1.0</ele><time>2026-05-02T10:43:46.73Z</time></trkpt><trkpt lat="45.1937666" lon="12.2818567"><ele>1.0</ele><time>2026-05-02T10:43:48.735Z</time></trkpt><trkpt lat="45.1938676" lon="12.2818749"><ele>1.0</ele><time>2026-05-02T10:43:50.74Z</time></trkpt><trkpt lat="45.193971" lon="12.2818982"><ele>1.0</ele><time>2026-05-02T10:43:52.738Z</time></trkpt><trkpt lat="45.1940759" lon="12.2819277"><ele>1.4</ele><time>2026-05-02T10:43:54.735Z</time></trkpt><trkpt lat="45.1941848" lon="12.2819487"><ele>1.8</ele><time>2026-05-02T10:43:56.734Z</time></trkpt><trkpt lat="45.1942893" lon="12.2819587"><ele>2.1999999999999997</ele><time>2026-05-02T10:43:58.734Z</time></trkpt><trkpt lat="45.1943926" lon="12.2819603"><ele>2.6</ele><time>2026-05-02T10:44:00.736Z</time></trkpt><trkpt lat="45.1944964" lon="12.2819699"><ele>3.0</ele><time>2026-05-02T10:44:02.732Z</time></trkpt><trkpt lat="45.1946014" lon="12.2819998"><ele>3.0</ele><time>2026-05-02T10:44:04.728Z</time></trkpt><trkpt lat="45.1946995" lon="12.2820377"><ele>3.0</ele><time>2026-05-02T10:44:06.733Z</time></trkpt><trkpt lat="45.1947985" lon="12.2820756"><ele>3.0</ele><time>2026-05-02T10:44:08.736Z</time></trkpt><trkpt lat="45.1948963" lon="12.2821077"><ele>3.0</ele><time>2026-05-02T10:44:10.734Z</time></trkpt><trkpt lat="45.1949891" lon="12.2821412"><ele>3.0</ele><time>2026-05-02T10:44:12.738Z</time></trkpt><trkpt lat="45.1950864" lon="12.2821726"><ele>2.6</ele><time>2026-05-02T10:44:14.737Z</time></trkpt><trkpt lat="45.1951883" lon="12.282204"><ele>2.1999999999999997</ele><time>2026-05-02T10:44:16.733Z</time></trkpt><trkpt lat="45.1952888" lon="12.2822316"><ele>1.8</ele><time>2026-05-02T10:44:18.731Z</time></trkpt><trkpt lat="45.1953814" lon="12.2822579"><ele>1.4</ele><time>2026-05-02T10:44:20.73Z</time></trkpt><trkpt lat="45.1954686" lon="12.2822782"><ele>1.0</ele><time>2026-05-02T10:44:22.733Z</time></trkpt><trkpt lat="45.1955495" lon="12.2823017"><ele>0.9999999999999999</ele><time>2026-05-02T10:44:24.735Z</time></trkpt><trkpt lat="45.1956252" lon="12.2823297"><ele>1.0</ele><time>2026-05-02T10:44:26.728Z</time></trkpt><trkpt lat="45.1956952" lon="12.282349"><ele>1.0</ele><time>2026-05-02T10:44:28.732Z</time></trkpt><trkpt lat="45.1957798" lon="12.2823058"><ele>1.0</ele><time>2026-05-02T10:44:31.735Z</time></trkpt><trkpt lat="45.1958192" lon="12.2822246"><ele>0.9999999999999999</ele><time>2026-05-02T10:44:33.733Z</time></trkpt><trkpt lat="45.1958704" lon="12.2821551"><ele>1.0</ele><time>2026-05-02T10:44:35.735Z</time></trkpt><trkpt lat="45.1959194" lon="12.2820838"><ele>0.8571428571428571</ele><time>2026-05-02T10:44:37.739Z</time></trkpt><trkpt lat="45.1959484" lon="12.2820004"><ele>0.7142857142857142</ele><time>2026-05-02T10:44:39.731Z</time></trkpt><trkpt lat="45.1959599" lon="12.2819076"><ele>0.5714285714285714</ele><time>2026-05-02T10:44:41.733Z</time></trkpt><trkpt lat="45.1960013" lon="12.2818117"><ele>0.42857142857142855</ele><time>2026-05-02T10:44:44.725Z</time></trkpt><trkpt lat="45.1960744" lon="12.2817743"><ele>0.2857142857142857</ele><time>2026-05-02T10:44:49.737Z</time></trkpt><trkpt lat="45.1961402" lon="12.281703"><ele>0.14285714285714285</ele><time>2026-05-02T10:44:52.731Z</time></trkpt><trkpt lat="45.1961648" lon="12.281608"><ele>0.0</ele><time>2026-05-02T10:44:54.733Z</time></trkpt><trkpt lat="45.1961849" lon="12.2814884"><ele>0.16666666666666666</ele><time>2026-05-02T10:44:56.726Z</time></trkpt><trkpt lat="45.1962141" lon="12.2813705"><ele>0.3333333333333333</ele><time>2026-05-02T10:44:58.732Z</time></trkpt><trkpt lat="45.1962464" lon="12.2812497"><ele>0.5</ele><time>2026-05-02T10:45:00.73Z</time></trkpt><trkpt lat="45.1962793" lon="12.2811344"><ele>0.6666666666666666</ele><time>2026-05-02T10:45:02.733Z</time></trkpt><trkpt lat="45.1963113" lon="12.2810206"><ele>0.8333333333333333</ele><time>2026-05-02T10:45:04.724Z</time></trkpt><trkpt lat="45.1963396" lon="12.2809059"><ele>1.0</ele><time>2026-05-02T10:45:06.733Z</time></trkpt><trkpt lat="45.196371" lon="12.2807888"><ele>0.9999999999999999</ele><time>2026-05-02T10:45:08.729Z</time></trkpt><trkpt lat="45.1964034" lon="12.2806693"><ele>1.0</ele><time>2026-05-02T10:45:10.733Z</time></trkpt><trkpt lat="45.1964361" lon="12.2805524"><ele>1.0</ele><time>2026-05-02T10:45:12.728Z</time></trkpt><trkpt lat="45.1964679" lon="12.2804332"><ele>1.0</ele><time>2026-05-02T10:45:14.728Z</time></trkpt><trkpt lat="45.1965013" lon="12.2803176"><ele>0.9999999999999999</ele><time>2026-05-02T10:45:16.731Z</time></trkpt><trkpt lat="45.1965359" lon="12.2802066"><ele>1.0</ele><time>2026-05-02T10:45:18.731Z</time></trkpt><trkpt lat="45.1965744" lon="12.2801098"><ele>0.7142857142857142</ele><time>2026-05-02T10:45:20.73Z</time></trkpt><trkpt lat="45.1966131" lon="12.2800226"><ele>0.4285714285714285</ele><time>2026-05-02T10:45:22.733Z</time></trkpt><trkpt lat="45.1966541" lon="12.2799351"><ele>0.14285714285714285</ele><time>2026-05-02T10:45:24.729Z</time></trkpt><trkpt lat="45.1966928" lon="12.2798441"><ele>-0.14285714285714285</ele><time>2026-05-02T10:45:26.729Z</time></trkpt><trkpt lat="45.1967289" lon="12.2797582"><ele>-0.4285714285714285</ele><time>2026-05-02T10:45:28.73Z</time></trkpt><trkpt lat="45.1967671" lon="12.279682"><ele>-0.7142857142857142</ele><time>2026-05-02T10:45:30.733Z</time></trkpt><trkpt lat="45.1968066" lon="12.2796088"><ele>-1.0</ele><time>2026-05-02T10:45:32.732Z</time></trkpt><trkpt lat="45.1968439" lon="12.2795278"><ele>-0.9999999999999999</ele><time>2026-05-02T10:45:34.729Z</time></trkpt><trkpt lat="45.1968778" lon="12.2794412"><ele>-1.0</ele><time>2026-05-02T10:45:36.731Z</time></trkpt><trkpt lat="45.196921" lon="12.2793467"><ele>-1.0</ele><time>2026-05-02T10:45:38.73Z</time></trkpt><trkpt lat="45.1969689" lon="12.2792487"><ele>-1.0</ele><time>2026-05-02T10:45:40.736Z</time></trkpt><trkpt lat="45.1970082" lon="12.2791373"><ele>-0.9999999999999999</ele><time>2026-05-02T10:45:42.734Z</time></trkpt><trkpt lat="45.197028" lon="12.2790008"><ele>-1.0</ele><time>2026-05-02T10:45:44.734Z</time></trkpt><trkpt lat="45.1970473" lon="12.2788482"><ele>-0.8</ele><time>2026-05-02T10:45:46.735Z</time></trkpt><trkpt lat="45.1970675" lon="12.2786882"><ele>-0.6000000000000001</ele><time>2026-05-02T10:45:48.733Z</time></trkpt><trkpt lat="45.1970965" lon="12.278529"><ele>-0.4</ele><time>2026-05-02T10:45:50.731Z</time></trkpt><trkpt lat="45.1971252" lon="12.2783894"><ele>-0.2</ele><time>2026-05-02T10:45:52.738Z</time></trkpt><trkpt lat="45.1971559" lon="12.2782603"><ele>0.0</ele><time>2026-05-02T10:45:54.731Z</time></trkpt><trkpt lat="45.1971938" lon="12.2781315"><ele>0.2</ele><time>2026-05-02T10:45:56.73Z</time></trkpt><trkpt lat="45.1972212" lon="12.2779978"><ele>0.4</ele><time>2026-05-02T10:45:58.728Z</time></trkpt><trkpt lat="45.1972479" lon="12.2778796"><ele>0.6000000000000001</ele><time>2026-05-02T10:46:00.727Z</time></trkpt><trkpt lat="45.1972861" lon="12.2777583"><ele>0.8</ele><time>2026-05-02T10:46:02.727Z</time></trkpt><trkpt lat="45.1973019" lon="12.277632"><ele>1.0</ele><time>2026-05-02T10:46:04.725Z</time></trkpt><trkpt lat="45.1973132" lon="12.2774966"><ele>0.9999999999999999</ele><time>2026-05-02T10:46:06.731Z</time></trkpt><trkpt lat="45.1973195" lon="12.2773537"><ele>1.0</ele><time>2026-05-02T10:46:08.728Z</time></trkpt><trkpt lat="45.1973363" lon="12.2772198"><ele>1.0</ele><time>2026-05-02T10:46:10.728Z</time></trkpt><trkpt lat="45.1973493" lon="12.2770994"><ele>1.0</ele><time>2026-05-02T10:46:12.727Z</time></trkpt><trkpt lat="45.1973633" lon="12.2769964"><ele>0.9999999999999999</ele><time>2026-05-02T10:46:14.728Z</time></trkpt><trkpt lat="45.1973859" lon="12.276896"><ele>1.0</ele><time>2026-05-02T10:46:16.727Z</time></trkpt><trkpt lat="45.1974104" lon="12.2768093"><ele>0.9999999999999999</ele><time>2026-05-02T10:46:18.73Z</time></trkpt><trkpt lat="45.1974642" lon="12.2767628"><ele>1.0</ele><time>2026-05-02T10:46:20.728Z</time></trkpt><trkpt lat="45.1975355" lon="12.2767543"><ele>1.0</ele><time>2026-05-02T10:46:22.731Z</time></trkpt><trkpt lat="45.1976141" lon="12.2767701"><ele>1.0</ele><time>2026-05-02T10:46:24.727Z</time></trkpt><trkpt lat="45.1976947" lon="12.2767961"><ele>0.9999999999999999</ele><time>2026-05-02T10:46:26.727Z</time></trkpt><trkpt lat="45.1977817" lon="12.2768102"><ele>1.0</ele><time>2026-05-02T10:46:28.727Z</time></trkpt><trkpt lat="45.1978758" lon="12.276826"><ele>0.9999999999999999</ele><time>2026-05-02T10:46:30.724Z</time></trkpt><trkpt lat="45.1979658" lon="12.2768409"><ele>1.0</ele><time>2026-05-02T10:46:32.726Z</time></trkpt><trkpt lat="45.1980439" lon="12.2768517"><ele>1.0</ele><time>2026-05-02T10:46:34.726Z</time></trkpt><trkpt lat="45.1981254" lon="12.2768628"><ele>1.0</ele><time>2026-05-02T10:46:37.73Z</time></trkpt><trkpt lat="45.1982002" lon="12.2769028"><ele>0.9999999999999999</ele><time>2026-05-02T10:46:41.73Z</time></trkpt><trkpt lat="45.1982725" lon="12.276918"><ele>1.0</ele><time>2026-05-02T10:46:43.728Z</time></trkpt><trkpt lat="45.1983523" lon="12.276923"><ele>1.2000000000000002</ele><time>2026-05-02T10:46:45.727Z</time></trkpt><trkpt lat="45.1984363" lon="12.2769416"><ele>1.4000000000000001</ele><time>2026-05-02T10:46:47.736Z</time></trkpt><trkpt lat="45.1985235" lon="12.2769584"><ele>1.6</ele><time>2026-05-02T10:46:49.733Z</time></trkpt><trkpt lat="45.1986146" lon="12.2769752"><ele>1.8</ele><time>2026-05-02T10:46:51.733Z</time></trkpt><trkpt lat="45.1987066" lon="12.2769873"><ele>2.0</ele><time>2026-05-02T10:46:53.73Z</time></trkpt><trkpt lat="45.1988006" lon="12.2770023"><ele>2.0</ele><time>2026-05-02T10:46:55.737Z</time></trkpt><trkpt lat="45.198895" lon="12.2770144"><ele>2.0</ele><time>2026-05-02T10:46:57.736Z</time></trkpt><trkpt lat="45.1989865" lon="12.2770306"><ele>2.0</ele><time>2026-05-02T10:46:59.729Z</time></trkpt><trkpt lat="45.1990795" lon="12.2770519"><ele>2.0</ele><time>2026-05-02T10:47:01.733Z</time></trkpt><trkpt lat="45.1991779" lon="12.2770703"><ele>2.0</ele><time>2026-05-02T10:47:03.729Z</time></trkpt><trkpt lat="45.1992783" lon="12.2770462"><ele>1.6</ele><time>2026-05-02T10:47:05.733Z</time></trkpt><trkpt lat="45.1993812" lon="12.2770387"><ele>1.2000000000000002</ele><time>2026-05-02T10:47:07.728Z</time></trkpt><trkpt lat="45.1994922" lon="12.2770428"><ele>0.8</ele><time>2026-05-02T10:47:09.731Z</time></trkpt><trkpt lat="45.1995994" lon="12.2770445"><ele>0.4</ele><time>2026-05-02T10:47:11.731Z</time></trkpt><trkpt lat="45.1997066" lon="12.2770468"><ele>0.0</ele><time>2026-05-02T10:47:13.725Z</time></trkpt><trkpt lat="45.199802" lon="12.2770395"><ele>0.3333333333333333</ele><time>2026-05-02T10:47:15.731Z</time></trkpt><trkpt lat="45.199892" lon="12.2770389"><ele>0.6666666666666666</ele><time>2026-05-02T10:47:17.727Z</time></trkpt><trkpt lat="45.1999738" lon="12.2770392"><ele>1.0</ele><time>2026-05-02T10:47:19.729Z</time></trkpt><trkpt lat="45.2000433" lon="12.2770379"><ele>1.3333333333333333</ele><time>2026-05-02T10:47:21.732Z</time></trkpt><trkpt lat="45.2001279" lon="12.2770547"><ele>1.6666666666666665</ele><time>2026-05-02T10:47:24.734Z</time></trkpt><trkpt lat="45.2001966" lon="12.2770667"><ele>2.0</ele><time>2026-05-02T10:47:27.73Z</time></trkpt><trkpt lat="45.2002915" lon="12.2770831"><ele>1.9999999999999998</ele><time>2026-05-02T10:47:30.729Z</time></trkpt><trkpt lat="45.2003716" lon="12.2770851"><ele>2.0</ele><time>2026-05-02T10:47:32.727Z</time></trkpt><trkpt lat="45.2004563" lon="12.277091"><ele>2.0</ele><time>2026-05-02T10:47:34.721Z</time></trkpt><trkpt lat="45.2005466" lon="12.2770976"><ele>2.0</ele><time>2026-05-02T10:47:36.725Z</time></trkpt><trkpt lat="45.2006382" lon="12.2770915"><ele>1.9999999999999998</ele><time>2026-05-02T10:47:38.735Z</time></trkpt><trkpt lat="45.2007292" lon="12.2770831"><ele>2.0</ele><time>2026-05-02T10:47:40.732Z</time></trkpt><trkpt lat="45.2008203" lon="12.2770748"><ele>2.0</ele><time>2026-05-02T10:47:42.736Z</time></trkpt><trkpt lat="45.2009174" lon="12.2770736"><ele>2.0</ele><time>2026-05-02T10:47:44.733Z</time></trkpt><trkpt lat="45.2010152" lon="12.2770778"><ele>2.0</ele><time>2026-05-02T10:47:46.734Z</time></trkpt><trkpt lat="45.2011165" lon="12.2770893"><ele>2.0</ele><time>2026-05-02T10:47:48.735Z</time></trkpt><trkpt lat="45.2012164" lon="12.2770948"><ele>2.0</ele><time>2026-05-02T10:47:50.73Z</time></trkpt><trkpt lat="45.2013136" lon="12.2770953"><ele>2.0</ele><time>2026-05-02T10:47:52.737Z</time></trkpt><trkpt lat="45.2014111" lon="12.2770915"><ele>2.0</ele><time>2026-05-02T10:47:54.729Z</time></trkpt><trkpt lat="45.2015092" lon="12.2770791"><ele>2.0</ele><time>2026-05-02T10:47:56.731Z</time></trkpt><trkpt lat="45.2016058" lon="12.2770629"><ele>2.0</ele><time>2026-05-02T10:47:58.735Z</time></trkpt><trkpt lat="45.2016994" lon="12.2770482"><ele>2.0</ele><time>2026-05-02T10:48:00.731Z</time></trkpt><trkpt lat="45.2017938" lon="12.2770306"><ele>1.6666666666666665</ele><time>2026-05-02T10:48:02.731Z</time></trkpt><trkpt lat="45.2018864" lon="12.2770038"><ele>1.3333333333333333</ele><time>2026-05-02T10:48:04.733Z</time></trkpt><trkpt lat="45.2019732" lon="12.2769835"><ele>1.0</ele><time>2026-05-02T10:48:06.728Z</time></trkpt><trkpt lat="45.2020566" lon="12.2769713"><ele>0.6666666666666666</ele><time>2026-05-02T10:48:08.735Z</time></trkpt><trkpt lat="45.2021344" lon="12.2769563"><ele>0.3333333333333333</ele><time>2026-05-02T10:48:10.726Z</time></trkpt><trkpt lat="45.2022122" lon="12.2769411"><ele>0.0</ele><time>2026-05-02T10:48:12.731Z</time></trkpt><trkpt lat="45.2022956" lon="12.2769288"><ele>0.0</ele><time>2026-05-02T10:48:14.731Z</time></trkpt><trkpt lat="45.202382" lon="12.2769148"><ele>0.0</ele><time>2026-05-02T10:48:16.728Z</time></trkpt><trkpt lat="45.2024714" lon="12.276892"><ele>0.0</ele><time>2026-05-02T10:48:18.729Z</time></trkpt><trkpt lat="45.2025651" lon="12.2768665"><ele>0.0</ele><time>2026-05-02T10:48:20.737Z</time></trkpt><trkpt lat="45.202661" lon="12.2768592"><ele>0.0</ele><time>2026-05-02T10:48:22.735Z</time></trkpt><trkpt lat="45.2027577" lon="12.2768452"><ele>0.0</ele><time>2026-05-02T10:48:24.732Z</time></trkpt><trkpt lat="45.2028508" lon="12.2768366"><ele>0.0</ele><time>2026-05-02T10:48:26.73Z</time></trkpt><trkpt lat="45.2029449" lon="12.2768311"><ele>0.0</ele><time>2026-05-02T10:48:28.726Z</time></trkpt><trkpt lat="45.2030365" lon="12.2768168"><ele>0.0</ele><time>2026-05-02T10:48:30.724Z</time></trkpt><trkpt lat="45.203129" lon="12.2768039"><ele>0.0</ele><time>2026-05-02T10:48:32.732Z</time></trkpt><trkpt lat="45.2032234" lon="12.2767867"><ele>0.8</ele><time>2026-05-02T10:48:34.728Z</time></trkpt><trkpt lat="45.2033203" lon="12.2767633"><ele>1.6</ele><time>2026-05-02T10:48:36.731Z</time></trkpt><trkpt lat="45.2034122" lon="12.2767435"><ele>2.4000000000000004</ele><time>2026-05-02T10:48:38.728Z</time></trkpt><trkpt lat="45.2035036" lon="12.2767238"><ele>3.2</ele><time>2026-05-02T10:48:40.724Z</time></trkpt><trkpt lat="45.2035993" lon="12.2767047"><ele>4.0</ele><time>2026-05-02T10:48:42.732Z</time></trkpt><trkpt lat="45.2036961" lon="12.2766826"><ele>4.0</ele><time>2026-05-02T10:48:44.733Z</time></trkpt><trkpt lat="45.2037911" lon="12.2766645"><ele>4.0</ele><time>2026-05-02T10:48:46.729Z</time></trkpt><trkpt lat="45.2038875" lon="12.2766546"><ele>4.0</ele><time>2026-05-02T10:48:48.734Z</time></trkpt><trkpt lat="45.2039874" lon="12.2766362"><ele>4.0</ele><time>2026-05-02T10:48:50.732Z</time></trkpt><trkpt lat="45.2040834" lon="12.2766204"><ele>4.0</ele><time>2026-05-02T10:48:52.727Z</time></trkpt><trkpt lat="45.2041805" lon="12.2766059"><ele>3.6</ele><time>2026-05-02T10:48:54.731Z</time></trkpt><trkpt lat="45.2042803" lon="12.2765835"><ele>3.2</ele><time>2026-05-02T10:48:56.732Z</time></trkpt><trkpt lat="45.204376" lon="12.2765553"><ele>2.8000000000000003</ele><time>2026-05-02T10:48:58.733Z</time></trkpt><trkpt lat="45.2044702" lon="12.2765347"><ele>2.4000000000000004</ele><time>2026-05-02T10:49:00.738Z</time></trkpt><trkpt lat="45.2045691" lon="12.2765202"><ele>2.0</ele><time>2026-05-02T10:49:02.74Z</time></trkpt><trkpt lat="45.204665" lon="12.276497"><ele>2.0</ele><time>2026-05-02T10:49:04.737Z</time></trkpt><trkpt lat="45.2047557" lon="12.276474"><ele>2.0</ele><time>2026-05-02T10:49:06.735Z</time></trkpt><trkpt lat="45.2048558" lon="12.276454"><ele>2.0</ele><time>2026-05-02T10:49:08.733Z</time></trkpt><trkpt lat="45.2049555" lon="12.2764326"><ele>2.0</ele><time>2026-05-02T10:49:10.724Z</time></trkpt><trkpt lat="45.205054" lon="12.2764146"><ele>2.0</ele><time>2026-05-02T10:49:12.727Z</time></trkpt><trkpt lat="45.2051534" lon="12.2763944"><ele>2.4000000000000004</ele><time>2026-05-02T10:49:14.733Z</time></trkpt><trkpt lat="45.20525" lon="12.2763725"><ele>2.8000000000000003</ele><time>2026-05-02T10:49:16.729Z</time></trkpt><trkpt lat="45.2053497" lon="12.2763458"><ele>3.2</ele><time>2026-05-02T10:49:18.729Z</time></trkpt><trkpt lat="45.2054484" lon="12.2763217"><ele>3.6</ele><time>2026-05-02T10:49:20.728Z</time></trkpt><trkpt lat="45.2055504" lon="12.2762982"><ele>4.0</ele><time>2026-05-02T10:49:22.735Z</time></trkpt><trkpt lat="45.2056501" lon="12.2762828"><ele>3.6</ele><time>2026-05-02T10:49:24.734Z</time></trkpt><trkpt lat="45.2057473" lon="12.2762624"><ele>3.2</ele><time>2026-05-02T10:49:26.732Z</time></trkpt><trkpt lat="45.2058475" lon="12.2762465"><ele>2.8000000000000003</ele><time>2026-05-02T10:49:28.725Z</time></trkpt><trkpt lat="45.2059552" lon="12.276233"><ele>2.4000000000000004</ele><time>2026-05-02T10:49:30.731Z</time></trkpt><trkpt lat="45.2060583" lon="12.2762131"><ele>2.0</ele><time>2026-05-02T10:49:32.734Z</time></trkpt><trkpt lat="45.2061566" lon="12.2761853"><ele>2.0</ele><time>2026-05-02T10:49:34.726Z</time></trkpt><trkpt lat="45.2062564" lon="12.2761545"><ele>2.0</ele><time>2026-05-02T10:49:36.734Z</time></trkpt><trkpt lat="45.2063568" lon="12.2761263"><ele>2.0</ele><time>2026-05-02T10:49:38.726Z</time></trkpt><trkpt lat="45.2064527" lon="12.2760976"><ele>2.0</ele><time>2026-05-02T10:49:40.73Z</time></trkpt><trkpt lat="45.2065474" lon="12.2760883"><ele>2.0</ele><time>2026-05-02T10:49:42.732Z</time></trkpt><trkpt lat="45.2066474" lon="12.2760947"><ele>1.6</ele><time>2026-05-02T10:49:44.727Z</time></trkpt><trkpt lat="45.2067481" lon="12.2760732"><ele>1.2000000000000002</ele><time>2026-05-02T10:49:46.729Z</time></trkpt><trkpt lat="45.2068437" lon="12.2760472"><ele>0.8</ele><time>2026-05-02T10:49:48.727Z</time></trkpt><trkpt lat="45.2069364" lon="12.2760226"><ele>0.4</ele><time>2026-05-02T10:49:50.729Z</time></trkpt><trkpt lat="45.2070288" lon="12.2759986"><ele>0.0</ele><time>2026-05-02T10:49:52.735Z</time></trkpt><trkpt lat="45.2071216" lon="12.275982"><ele>0.0</ele><time>2026-05-02T10:49:54.726Z</time></trkpt><trkpt lat="45.2072164" lon="12.275959"><ele>0.0</ele><time>2026-05-02T10:49:56.727Z</time></trkpt><trkpt lat="45.2073109" lon="12.2759338"><ele>0.0</ele><time>2026-05-02T10:49:58.731Z</time></trkpt><trkpt lat="45.2074041" lon="12.2759064"><ele>0.0</ele><time>2026-05-02T10:50:00.725Z</time></trkpt><trkpt lat="45.2074948" lon="12.27588"><ele>0.0</ele><time>2026-05-02T10:50:02.738Z</time></trkpt><trkpt lat="45.2075859" lon="12.2758618"><ele>-0.2</ele><time>2026-05-02T10:50:04.732Z</time></trkpt><trkpt lat="45.2076774" lon="12.2758325"><ele>-0.4</ele><time>2026-05-02T10:50:06.73Z</time></trkpt><trkpt lat="45.2077767" lon="12.2758053"><ele>-0.6000000000000001</ele><time>2026-05-02T10:50:08.731Z</time></trkpt><trkpt lat="45.2078791" lon="12.2757752"><ele>-0.8</ele><time>2026-05-02T10:50:10.731Z</time></trkpt><trkpt lat="45.2079822" lon="12.2757541"><ele>-1.0</ele><time>2026-05-02T10:50:12.736Z</time></trkpt><trkpt lat="45.2080864" lon="12.2757385"><ele>-1.0</ele><time>2026-05-02T10:50:14.732Z</time></trkpt><trkpt lat="45.208188" lon="12.2757229"><ele>-1.0</ele><time>2026-05-02T10:50:16.74Z</time></trkpt><trkpt lat="45.2082874" lon="12.2757177"><ele>-1.0</ele><time>2026-05-02T10:50:18.727Z</time></trkpt><trkpt lat="45.2083867" lon="12.2757246"><ele>-1.0</ele><time>2026-05-02T10:50:20.732Z</time></trkpt><trkpt lat="45.2084906" lon="12.2757319"><ele>-1.0</ele><time>2026-05-02T10:50:22.733Z</time></trkpt><trkpt lat="45.2085897" lon="12.275752"><ele>-1.0</ele><time>2026-05-02T10:50:24.729Z</time></trkpt><trkpt lat="45.2086885" lon="12.2757671"><ele>-1.0</ele><time>2026-05-02T10:50:26.724Z</time></trkpt><trkpt lat="45.2087923" lon="12.2757871"><ele>-1.0</ele><time>2026-05-02T10:50:28.731Z</time></trkpt><trkpt lat="45.2088932" lon="12.2758122"><ele>-1.0</ele><time>2026-05-02T10:50:30.733Z</time></trkpt><trkpt lat="45.2089932" lon="12.2758363"><ele>-1.0</ele><time>2026-05-02T10:50:32.733Z</time></trkpt><trkpt lat="45.2090922" lon="12.2758513"><ele>-1.0</ele><time>2026-05-02T10:50:34.734Z</time></trkpt><trkpt lat="45.20919" lon="12.2758712"><ele>-1.0</ele><time>2026-05-02T10:50:36.728Z</time></trkpt><trkpt lat="45.2092892" lon="12.2758932"><ele>-1.0</ele><time>2026-05-02T10:50:38.729Z</time></trkpt><trkpt lat="45.2093911" lon="12.2759109"><ele>-1.0</ele><time>2026-05-02T10:50:40.733Z</time></trkpt><trkpt lat="45.2094934" lon="12.2759285"><ele>-1.0</ele><time>2026-05-02T10:50:42.735Z</time></trkpt><trkpt lat="45.2095917" lon="12.2759457"><ele>-1.0</ele><time>2026-05-02T10:50:44.733Z</time></trkpt><trkpt lat="45.209686" lon="12.2759701"><ele>-1.0</ele><time>2026-05-02T10:50:46.73Z</time></trkpt><trkpt lat="45.2097739" lon="12.2759871"><ele>-1.0</ele><time>2026-05-02T10:50:48.729Z</time></trkpt><trkpt lat="45.2098648" lon="12.2759976"><ele>-1.0</ele><time>2026-05-02T10:50:50.727Z</time></trkpt><trkpt lat="45.2099598" lon="12.2760089"><ele>-1.0</ele><time>2026-05-02T10:50:52.731Z</time></trkpt><trkpt lat="45.2100586" lon="12.2760255"><ele>-0.8</ele><time>2026-05-02T10:50:54.732Z</time></trkpt><trkpt lat="45.2101551" lon="12.2760519"><ele>-0.6000000000000001</ele><time>2026-05-02T10:50:56.728Z</time></trkpt><trkpt lat="45.2102531" lon="12.2760748"><ele>-0.4</ele><time>2026-05-02T10:50:58.732Z</time></trkpt><trkpt lat="45.2103526" lon="12.2760924"><ele>-0.2</ele><time>2026-05-02T10:51:00.733Z</time></trkpt><trkpt lat="45.2104532" lon="12.276107"><ele>0.0</ele><time>2026-05-02T10:51:02.738Z</time></trkpt><trkpt lat="45.2105501" lon="12.2761323"><ele>0.0</ele><time>2026-05-02T10:51:04.738Z</time></trkpt><trkpt lat="45.2106472" lon="12.2761538"><ele>0.0</ele><time>2026-05-02T10:51:06.73Z</time></trkpt><trkpt lat="45.2107473" lon="12.2761702"><ele>0.0</ele><time>2026-05-02T10:51:08.728Z</time></trkpt><trkpt lat="45.2108506" lon="12.2761878"><ele>0.0</ele><time>2026-05-02T10:51:10.728Z</time></trkpt><trkpt lat="45.21095" lon="12.2762127"><ele>0.0</ele><time>2026-05-02T10:51:12.73Z</time></trkpt><trkpt lat="45.2110494" lon="12.2762378"><ele>0.2</ele><time>2026-05-02T10:51:14.733Z</time></trkpt><trkpt lat="45.211148" lon="12.2762537"><ele>0.4</ele><time>2026-05-02T10:51:16.734Z</time></trkpt><trkpt lat="45.2112471" lon="12.2762728"><ele>0.6000000000000001</ele><time>2026-05-02T10:51:18.737Z</time></trkpt><trkpt lat="45.2113453" lon="12.2762924"><ele>0.8</ele><time>2026-05-02T10:51:20.731Z</time></trkpt><trkpt lat="45.211439" lon="12.2763056"><ele>1.0</ele><time>2026-05-02T10:51:22.73Z</time></trkpt><trkpt lat="45.2115339" lon="12.2763184"><ele>1.0</ele><time>2026-05-02T10:51:24.733Z</time></trkpt><trkpt lat="45.2116352" lon="12.2763328"><ele>1.0</ele><time>2026-05-02T10:51:26.733Z</time></trkpt><trkpt lat="45.2117341" lon="12.276353"><ele>1.0</ele><time>2026-05-02T10:51:28.728Z</time></trkpt><trkpt lat="45.2118299" lon="12.2763744"><ele>1.0</ele><time>2026-05-02T10:51:30.734Z</time></trkpt><trkpt lat="45.2119168" lon="12.2764012"><ele>1.0</ele><time>2026-05-02T10:51:32.732Z</time></trkpt><trkpt lat="45.2119915" lon="12.2764555"><ele>0.9999999999999999</ele><time>2026-05-02T10:51:34.733Z</time></trkpt><trkpt lat="45.212076" lon="12.2764928"><ele>1.0</ele><time>2026-05-02T10:51:37.728Z</time></trkpt><trkpt lat="45.2121469" lon="12.2764927"><ele>1.0</ele><time>2026-05-02T10:51:42.735Z</time></trkpt><trkpt lat="45.2122205" lon="12.2765126"><ele>1.0</ele><time>2026-05-02T10:51:47.729Z</time></trkpt><trkpt lat="45.2122858" lon="12.2765226"><ele>0.9999999999999999</ele><time>2026-05-02T10:51:54.729Z</time></trkpt><trkpt lat="45.2123778" lon="12.2765456"><ele>1.0</ele><time>2026-05-02T10:51:57.727Z</time></trkpt><trkpt lat="45.2124528" lon="12.2765594"><ele>0.8333333333333333</ele><time>2026-05-02T10:51:59.726Z</time></trkpt><trkpt lat="45.2125369" lon="12.2765806"><ele>0.6666666666666666</ele><time>2026-05-02T10:52:01.729Z</time></trkpt><trkpt lat="45.212624" lon="12.2765945"><ele>0.5</ele><time>2026-05-02T10:52:03.729Z</time></trkpt><trkpt lat="45.2127107" lon="12.2766072"><ele>0.3333333333333333</ele><time>2026-05-02T10:52:05.732Z</time></trkpt><trkpt lat="45.2127962" lon="12.2766241"><ele>0.16666666666666666</ele><time>2026-05-02T10:52:07.734Z</time></trkpt><trkpt lat="45.2128794" lon="12.2766402"><ele>0.0</ele><time>2026-05-02T10:52:09.736Z</time></trkpt><trkpt lat="45.2129611" lon="12.2766559"><ele>0.0</ele><time>2026-05-02T10:52:11.728Z</time></trkpt><trkpt lat="45.213044" lon="12.2766712"><ele>0.0</ele><time>2026-05-02T10:52:13.734Z</time></trkpt><trkpt lat="45.2131299" lon="12.2766885"><ele>0.0</ele><time>2026-05-02T10:52:15.733Z</time></trkpt><trkpt lat="45.2132191" lon="12.2767087"><ele>0.0</ele><time>2026-05-02T10:52:17.73Z</time></trkpt><trkpt lat="45.2133036" lon="12.2767254"><ele>0.0</ele><time>2026-05-02T10:52:19.726Z</time></trkpt><trkpt lat="45.2133903" lon="12.2767436"><ele>0.0</ele><time>2026-05-02T10:52:21.73Z</time></trkpt><trkpt lat="45.2134705" lon="12.2767597"><ele>0.0</ele><time>2026-05-02T10:52:23.734Z</time></trkpt><trkpt lat="45.2135516" lon="12.2767769"><ele>0.0</ele><time>2026-05-02T10:52:25.728Z</time></trkpt><trkpt lat="45.2136394" lon="12.2767935"><ele>0.0</ele><time>2026-05-02T10:52:27.733Z</time></trkpt><trkpt lat="45.2137265" lon="12.2768139"><ele>0.0</ele><time>2026-05-02T10:52:29.728Z</time></trkpt><trkpt lat="45.2138111" lon="12.2768312"><ele>0.0</ele><time>2026-05-02T10:52:31.732Z</time></trkpt><trkpt lat="45.213892" lon="12.2768486"><ele>0.0</ele><time>2026-05-02T10:52:33.728Z</time></trkpt><trkpt lat="45.2139767" lon="12.2768654"><ele>0.16666666666666666</ele><time>2026-05-02T10:52:35.732Z</time></trkpt><trkpt lat="45.2140563" lon="12.2768783"><ele>0.3333333333333333</ele><time>2026-05-02T10:52:37.734Z</time></trkpt><trkpt lat="45.2141287" lon="12.2768939"><ele>0.5</ele><time>2026-05-02T10:52:39.734Z</time></trkpt><trkpt lat="45.2142129" lon="12.2769071"><ele>0.6666666666666666</ele><time>2026-05-02T10:52:42.731Z</time></trkpt><trkpt lat="45.2142316" lon="12.277015"><ele>0.8333333333333333</ele><time>2026-05-02T10:52:47.727Z</time></trkpt><trkpt lat="45.2142087" lon="12.277103"><ele>1.0</ele><time>2026-05-02T10:52:49.727Z</time></trkpt><trkpt lat="45.2141745" lon="12.2771903"><ele>0.9999999999999999</ele><time>2026-05-02T10:52:51.724Z</time></trkpt><trkpt lat="45.2141318" lon="12.2773207"><ele>1.0</ele><time>2026-05-02T10:52:54.729Z</time></trkpt><trkpt lat="45.2140948" lon="12.2774297"><ele>1.0</ele><time>2026-05-02T10:52:56.729Z</time></trkpt><trkpt lat="45.2140431" lon="12.2775125"><ele>1.0</ele><time>2026-05-02T10:52:58.725Z</time></trkpt><trkpt lat="45.2140167" lon="12.2776048"><ele>0.9999999999999999</ele><time>2026-05-02T10:53:00.735Z</time></trkpt><trkpt lat="45.2140585" lon="12.2776861"><ele>1.0</ele><time>2026-05-02T10:53:02.725Z</time></trkpt><trkpt lat="45.2141246" lon="12.2776912"><ele>0.9999999999999999</ele><time>2026-05-02T10:53:04.732Z</time></trkpt><trkpt lat="45.2142023" lon="12.2777043"><ele>1.0</ele><time>2026-05-02T10:53:08.728Z</time></trkpt><trkpt lat="45.2142657" lon="12.2777135"><ele>1.0</ele><time>2026-05-02T10:53:11.727Z</time></trkpt><trkpt lat="45.2143567" lon="12.2777508"><ele>1.0</ele><time>2026-05-02T10:53:14.726Z</time></trkpt><trkpt lat="45.2144253" lon="12.2777738"><ele>0.9999999999999999</ele><time>2026-05-02T10:53:16.723Z</time></trkpt><trkpt lat="45.2145008" lon="12.2777972"><ele>1.0</ele><time>2026-05-02T10:53:18.729Z</time></trkpt><trkpt lat="45.2145742" lon="12.2778309"><ele>1.0</ele><time>2026-05-02T10:53:20.729Z</time></trkpt><trkpt lat="45.2146367" lon="12.2778662"><ele>0.9999999999999999</ele><time>2026-05-02T10:53:22.728Z</time></trkpt><trkpt lat="45.2147018" lon="12.2778987"><ele>1.0</ele><time>2026-05-02T10:53:24.726Z</time></trkpt><trkpt lat="45.2147691" lon="12.2779295"><ele>1.0</ele><time>2026-05-02T10:53:26.729Z</time></trkpt><trkpt lat="45.2148364" lon="12.2779659"><ele>0.9999999999999999</ele><time>2026-05-02T10:53:28.731Z</time></trkpt><trkpt lat="45.2148997" lon="12.2780064"><ele>1.0</ele><time>2026-05-02T10:53:30.739Z</time></trkpt><trkpt lat="45.2149621" lon="12.2780523"><ele>1.0</ele><time>2026-05-02T10:53:32.733Z</time></trkpt><trkpt lat="45.2150199" lon="12.2780925"><ele>1.0</ele><time>2026-05-02T10:53:34.731Z</time></trkpt><trkpt lat="45.2150999" lon="12.2781356"><ele>0.9999999999999999</ele><time>2026-05-02T10:53:37.729Z</time></trkpt><trkpt lat="45.215174" lon="12.2781749"><ele>1.0</ele><time>2026-05-02T10:53:40.728Z</time></trkpt><trkpt lat="45.2152472" lon="12.2782054"><ele>1.0</ele><time>2026-05-02T10:53:44.729Z</time></trkpt><trkpt lat="45.2153091" lon="12.2781696"><ele>0.9999999999999999</ele><time>2026-05-02T10:53:47.734Z</time></trkpt><trkpt lat="45.2153538" lon="12.2781023"><ele>1.0</ele><time>2026-05-02T10:53:49.733Z</time></trkpt><trkpt lat="45.2153831" lon="12.278012"><ele>1.0</ele><time>2026-05-02T10:53:51.728Z</time></trkpt><trkpt lat="45.2154103" lon="12.277925"><ele>1.1428571428571428</ele><time>2026-05-02T10:53:53.734Z</time></trkpt><trkpt lat="45.2154381" lon="12.2778378"><ele>1.2857142857142856</ele><time>2026-05-02T10:53:55.729Z</time></trkpt><trkpt lat="45.2154575" lon="12.2777498"><ele>1.4285714285714284</ele><time>2026-05-02T10:53:57.727Z</time></trkpt><trkpt lat="45.2154827" lon="12.2776632"><ele>1.5714285714285714</ele><time>2026-05-02T10:53:59.729Z</time></trkpt><trkpt lat="45.2155182" lon="12.2775885"><ele>1.714285714285714</ele><time>2026-05-02T10:54:01.737Z</time></trkpt><trkpt lat="45.2155773" lon="12.2775133"><ele>1.857142857142857</ele><time>2026-05-02T10:54:04.731Z</time></trkpt><trkpt lat="45.2156501" lon="12.277441"><ele>2.0</ele><time>2026-05-02T10:54:07.73Z</time></trkpt><trkpt lat="45.2157049" lon="12.2773818"><ele>0.0</ele><time>2026-05-02T10:54:09.732Z</time></trkpt><trkpt lat="45.2157699" lon="12.2773446"><ele>0.0</ele><time>2026-05-02T10:54:11.729Z</time></trkpt><trkpt lat="45.2158471" lon="12.2773585"><ele>0.0</ele><time>2026-05-02T10:54:13.731Z</time></trkpt><trkpt lat="45.2159205" lon="12.2773956"><ele>0.0</ele><time>2026-05-02T10:54:15.73Z</time></trkpt><trkpt lat="45.2159851" lon="12.2774241"><ele>0.0</ele><time>2026-05-02T10:54:17.73Z</time></trkpt><trkpt lat="45.2160734" lon="12.2774344"><ele>0.0</ele><time>2026-05-02T10:54:20.723Z</time></trkpt></trkseg></trk></gpx>